# Wetter Temperatur Luftdruck Luftfeuchtigkeit Sichtweite Windgeschwindigkeit Windrichtung Zeit
1 Clouds 32 1006 57 10000 3.25 185 11:22 14.08.2022
2 Clouds 32 1008 56 10000 2.12 217 08:56 14.08.2022
3 Clouds 31 1010 60 10000 1.92 239 06:27 14.08.2022
4 Clouds 31 1010 61 10000 1.95 239 04:47 14.08.2022
5 Clouds 27 1009 78 10000 1.59 238 01:35 14.08.2022
6 Clouds 27 1007 82 10000 1.92 249 22:56 13.08.2022
7 Clouds 27 1007 82 10000 2.11 259 21:59 13.08.2022
8 Clouds 28 1008 80 10000 1.97 250 20:49 13.08.2022
9 Clouds 28 1008 78 10000 1.54 218 19:47 13.08.2022
10 Clouds 28 1009 79 10000 2.06 184 19:18 13.08.2022
11 Clouds 30 1009 63 10000 3.31 170 17:21 13.08.2022
12 Clouds 31 1008 64 10000 4.05 172 14:42 13.08.2022
13 Clouds 31 1007 63 10000 4.01 178 13:49 13.08.2022
14 Clouds 31 1006 63 10000 4.83 175 13:25 13.08.2022
15 Clouds 31 1006 58 10000 4 176 11:27 13.08.2022
16 Clouds 31 1007 60 10000 3.97 186 09:23 13.08.2022
17 Clouds 30 1009 61 10000 3.57 196 06:44 13.08.2022
18 Rain 26 1009 84 10000 1.32 246 01:36 13.08.2022
19 Clouds 26 1007 85 10000 2.28 243 23:25 12.08.2022
20 Clouds 26 1007 84 10000 1.54 224 21:35 12.08.2022
21 Clouds 26 1008 75 10000 1.44 212 19:47 12.08.2022
22 Clouds 26 1008 74 10000 1.56 222 19:22 12.08.2022
23 Rain 27 1009 73 10000 1.71 237 17:59 12.08.2022
24 Rain 27 1008 71 10000 2.35 241 16:26 12.08.2022
25 Clouds 28 1008 70 10000 2.83 248 14:50 12.08.2022
26 Rain 31 1007 60 10000 3.8 244 13:30 12.08.2022
27 Rain 31 1006 59 10000 4.28 243 12:25 12.08.2022
28 Rain 31 1007 61 10000 4.38 205 08:50 12.08.2022
29 Rain 31 1008 60 10000 4.51 210 07:45 12.08.2022
30 Clouds 31 1008 63 10000 3.05 199 04:55 12.08.2022
31 Clouds 26 1006 76 10000 1.38 230 00:31 12.08.2022
32 Clouds 26 1006 76 10000 1.62 221 23:52 11.08.2022
33 Clouds 26 1006 76 10000 1.7 210 22:42 11.08.2022
34 Clouds 27 1006 76 10000 1.72 202 21:52 11.08.2022
35 Rain 27 1006 76 10000 1.64 222 21:26 11.08.2022
36 Rain 27 1006 76 10000 1.64 222 20:30 11.08.2022
37 Clouds 28 1007 81 10000 2.68 248 19:33 11.08.2022
38 Clouds 28 1007 80 10000 2.92 245 18:41 11.08.2022
39 Rain 28 1008 79 10000 4.38 240 16:46 11.08.2022
40 Rain 28 1007 79 10000 4.84 235 15:42 11.08.2022
41 Rain 28 1007 79 10000 4.84 235 15:42 11.08.2022
42 Clouds 28 1006 80 10000 4.57 242 14:20 11.08.2022
43 Rain 31 1004 63 10000 2.7 241 11:51 11.08.2022
44 Clouds 31 1005 57 10000 2.24 225 08:34 11.08.2022
45 Clouds 31 1007 75 10000 3.01 238 05:44 11.08.2022
46 Clouds 27 1006 81 10000 3.72 219 02:26 11.08.2022
47 Clouds 28 1004 79 10000 2.97 233 22:55 10.08.2022
48 Clouds 28 1004 79 10000 3.05 235 21:45 10.08.2022
49 Clouds 28 1004 78 10000 3.12 241 20:56 10.08.2022
50 Clouds 29 1005 78 10000 3.6 245 20:24 10.08.2022
51 Rain 29 1006 79 10000 4.25 236 18:45 10.08.2022
52 Rain 30 1007 78 10000 4.09 238 17:20 10.08.2022
53 Clouds 31 1004 77 10000 4.58 232 14:25 10.08.2022
54 Clouds 33 1004 74 10000 3.92 230 12:54 10.08.2022
55 Clouds 31 1004 58 10000 3.51 224 10:31 10.08.2022
56 Clouds 33 1005 75 10000 3.65 232 08:37 10.08.2022
57 Clouds 32 1007 77 10000 3.04 237 07:22 10.08.2022
58 Clouds 30 1007 83 10000 2.52 226 04:50 10.08.2022
59 Clouds 28 1006 92 10000 3.38 265 00:50 10.08.2022
60 Clouds 28 1005 86 10000 2.96 264 23:27 09.08.2022
61 Clouds 27 1005 86 10000 2.96 276 21:38 09.08.2022
62 Clouds 28 1006 85 10000 3.2 270 20:56 09.08.2022
63 Clouds 29 1007 80 10000 3.26 259 18:56 09.08.2022
64 Clouds 28 1007 79 10000 3.51 248 17:31 09.08.2022
65 Clouds 28 1007 79 10000 3.51 248 17:31 09.08.2022
66 Clouds 28 1007 79 10000 2.66 246 16:46 09.08.2022
67 Clouds 28 1007 79 10000 1.71 261 15:59 09.08.2022
68 Clouds 28 1006 79 10000 2.01 289 14:43 09.08.2022
69 Clouds 31 1005 75 10000 2.04 276 11:29 09.08.2022
70 Clouds 29 1006 72 10000 2.67 275 08:52 09.08.2022
71 Clouds 30 1006 61 10000 2.56 272 07:57 09.08.2022
72 Clouds 27 1008 90 10000 1.69 221 04:49 09.08.2022
73 Rain 25 1007 95 10000 3.08 256 23:58 08.08.2022
74 Rain 25 1006 95 10000 3.51 236 23:24 08.08.2022
75 Rain 25 1006 95 10000 3.51 236 22:38 08.08.2022
76 Clouds 25 1007 95 10000 3.44 228 21:40 08.08.2022
77 Clouds 25 1008 96 10000 2.82 230 19:58 08.08.2022
78 Clouds 25 1008 96 10000 2.82 230 19:31 08.08.2022
79 Rain 25 1009 95 7516 3.03 221 17:47 08.08.2022
80 Rain 25 1009 90 10000 2.74 260 15:47 08.08.2022
81 Rain 26 1008 86 10000 2.99 259 14:46 08.08.2022
82 Rain 29 1006 84 10000 3.12 244 12:30 08.08.2022
83 Clouds 30 1006 89 10000 3.82 205 10:25 08.08.2022
84 Rain 29 1007 87 10000 2.22 164 07:49 08.08.2022
85 Rain 26 1008 84 10000 2.87 209 03:39 08.08.2022
86 Clouds 27 1005 85 10000 5.21 249 22:52 07.08.2022
87 Rain 28 1005 83 10000 5.19 248 21:41 07.08.2022
88 Rain 28 1006 87 10000 3.29 220 20:55 07.08.2022
89 Clouds 28 1007 87 10000 3.32 214 20:18 07.08.2022
90 Rain 28 1007 87 10000 3.32 214 19:50 07.08.2022
91 Rain 28 1007 87 8545 2.98 208 18:40 07.08.2022
92 Rain 29 1008 87 10000 2.48 209 17:18 07.08.2022
93 Rain 30 1008 87 10000 2.48 209 16:38 07.08.2022
94 Rain 30 1007 85 10000 1.37 202 15:25 07.08.2022
95 Rain 31 1005 88 10000 3.23 211 13:44 07.08.2022
96 Rain 31 1004 88 7063 2.39 230 12:19 07.08.2022
97 Clouds 31 1004 85 5703 2.33 238 10:37 07.08.2022
98 Clouds 31 1005 58 9115 4.85 234 08:26 07.08.2022
99 Clouds 29 1006 75 10000 3.42 243 04:33 07.08.2022
100 Clouds 27 1005 88 10000 1.61 260 01:58 07.08.2022
101 Rain 28 1004 86 10000 3.03 223 22:30 06.08.2022
102 Clouds 28 1004 84 10000 2.79 225 21:43 06.08.2022
103 Rain 28 1006 83 10000 2.9 224 19:42 06.08.2022
104 Rain 28 1006 83 10000 3.18 206 18:33 06.08.2022
105 Rain 28 1007 83 10000 3.15 216 17:39 06.08.2022
106 Clouds 29 1005 82 10000 2.79 225 15:21 06.08.2022
107 Clouds 29 1005 82 10000 2.69 203 13:50 06.08.2022
108 Clouds 31 1003 63 10000 3.83 229 12:21 06.08.2022
109 Clouds 31 1003 60 10000 3.07 221 10:37 06.08.2022
110 Clouds 31 1004 61 10000 2.5 215 09:21 06.08.2022
111 Clouds 30 1007 85 10000 1.25 176 03:55 06.08.2022
112 Rain 26 1006 93 8129 2.6 235 23:56 05.08.2022
113 Rain 26 1006 94 10000 2.58 235 22:33 05.08.2022
114 Rain 26 1007 87 8861 2.62 296 20:20 05.08.2022
115 Rain 27 1008 81 10000 2.62 269 18:48 05.08.2022
116 Rain 27 1008 79 10000 2.92 243 18:27 05.08.2022
117 Rain 28 1008 78 10000 3.18 240 16:50 05.08.2022
118 Clouds 27 1006 77 10000 3.93 248 15:23 05.08.2022
119 Rain 27 1006 77 10000 3.93 248 14:33 05.08.2022
120 Rain 30 1006 61 10000 3.48 233 13:25 05.08.2022
121 Rain 30 1005 58 10000 3.48 233 12:44 05.08.2022
122 Rain 31 1006 61 10000 2.53 176 10:55 05.08.2022
123 Clouds 32 1007 55 10000 3.16 199 08:36 05.08.2022
124 Clouds 31 1007 55 10000 4.42 240 07:28 05.08.2022
125 Clouds 26 1008 78 10000 2.78 231 01:46 05.08.2022
126 Clouds 26 1007 77 10000 2.72 232 22:33 04.08.2022
127 Clouds 26 1008 76 10000 3.03 234 21:27 04.08.2022
128 Clouds 26 1008 76 10000 3.03 234 20:45 04.08.2022
129 Rain 26 1008 77 10000 3.29 236 19:49 04.08.2022
130 Rain 27 1009 76 10000 3.59 229 18:51 04.08.2022
131 Rain 27 1009 76 10000 3.59 229 18:32 04.08.2022
132 Clouds 30 1007 58 10000 3.49 235 14:45 04.08.2022
133 Clouds 31 1006 59 10000 2.58 186 13:22 04.08.2022
134 Clouds 32 1005 57 8747 2.06 213 11:37 04.08.2022
135 Clouds 31 1008 57 10000 3.43 238 07:56 04.08.2022
136 Clouds 28 1009 77 10000 2.87 227 07:27 04.08.2022
137 Clouds 28 1009 80 10000 2.3 232 02:38 04.08.2022
138 Clouds 27 1007 83 10000 2.5 244 23:49 03.08.2022
139 Clouds 27 1007 83 10000 2.42 247 23:27 03.08.2022
140 Clouds 27 1008 84 10000 2.42 239 21:26 03.08.2022
141 Clouds 28 1008 85 10000 2.36 234 19:56 03.08.2022
142 Clouds 27 1009 85 10000 2.26 221 18:40 03.08.2022
143 Clouds 27 1008 85 10000 2.67 223 16:27 03.08.2022
144 Clouds 27 1008 85 10000 2.67 223 15:47 03.08.2022
145 Clouds 30 1006 85 10000 3.06 194 13:32 03.08.2022
146 Clouds 32 1006 81 10000 3.92 167 09:55 03.08.2022
147 Clouds 31 1009 85 10000 3.03 183 06:46 03.08.2022
148 Clouds 29 1009 90 10000 4.12 158 04:22 03.08.2022
149 Clouds 26 1008 91 10000 3.85 156 02:35 03.08.2022
150 Clouds 26 1006 88 10000 3.19 166 23:54 02.08.2022
151 Clouds 26 1006 84 10000 3.75 195 21:59 02.08.2022
152 Clouds 26 1006 84 10000 3.75 195 21:41 02.08.2022
153 Clouds 26 1007 80 10000 3.67 198 20:25 02.08.2022
154 Rain 29 1008 69 10000 4.83 194 16:51 02.08.2022
155 Clouds 28 1005 75 10000 4.76 178 13:54 02.08.2022
156 Rain 29 1004 69 10000 5.77 167 10:34 02.08.2022
157 Rain 29 1005 67 10000 5.82 172 08:36 02.08.2022
158 Rain 29 1006 69 10000 6.22 173 07:51 02.08.2022
159 Clouds 29 1007 74 8024 4.11 169 04:56 02.08.2022
160 Clouds 26 1006 86 10000 1.86 165 02:30 02.08.2022
161 Clouds 26 1004 88 10000 2.76 184 23:25 01.08.2022
162 Clouds 25 1004 89 10000 2.28 173 21:42 01.08.2022
163 Clouds 26 1006 88 10000 3.62 177 20:19 01.08.2022
164 Rain 26 1006 86 10000 1.75 186 18:55 01.08.2022
165 Rain 27 1007 84 10000 2.45 189 16:58 01.08.2022
166 Clouds 28 1007 84 10000 2.45 189 16:39 01.08.2022
167 Clouds 28 1006 84 10000 3.59 182 15:44 01.08.2022
168 Clouds 28 1005 82 4745 4.54 181 14:45 01.08.2022
169 Clouds 29 1004 78 10000 4.62 171 13:32 01.08.2022
170 Rain 30 1003 61 10000 4.09 161 11:18 01.08.2022
171 Rain 27 1004 65 10000 2.18 139 08:55 01.08.2022
172 Rain 27 1006 80 10000 1.32 112 07:23 01.08.2022
173 Clouds 28 1008 86 10000 0.7 47 04:32 01.08.2022
174 Clouds 26 1006 83 10000 1.48 203 01:33 01.08.2022
175 Rain 26 1004 87 10000 1.44 187 22:47 31.07.2022
176 Clouds 26 1004 88 10000 1.68 186 22:29 31.07.2022
177 Rain 25 1004 86 10000 1.43 141 20:39 31.07.2022
178 Rain 25 1006 86 10000 2.81 51 18:40 31.07.2022
179 Rain 25 1006 82 10000 2.18 347 16:55 31.07.2022
180 Rain 27 1005 82 10000 4.03 291 14:37 31.07.2022
181 Rain 30 1003 66 10000 4.95 181 12:58 31.07.2022
182 Rain 33 1002 63 10000 4.51 174 11:38 31.07.2022
183 Clouds 33 1003 51 10000 2.97 216 08:47 31.07.2022
184 Clouds 31 1006 57 10000 2.47 238 05:38 31.07.2022
185 Clouds 27 1004 86 10000 2.04 284 01:21 31.07.2022
186 Rain 28 1003 85 10000 1.52 235 22:46 30.07.2022
187 Clouds 29 1004 85 10000 1.84 200 21:50 30.07.2022
188 Clouds 29 1004 85 10000 1.84 200 21:32 30.07.2022
189 Clouds 29 1004 83 10000 2.4 181 20:33 30.07.2022
190 Clouds 29 1005 84 10000 2.38 175 19:50 30.07.2022
191 Clouds 30 1006 83 10000 2.48 182 17:53 30.07.2022
192 Clouds 30 1006 82 10000 2.74 172 16:38 30.07.2022
193 Clouds 30 1005 82 10000 3 168 15:30 30.07.2022
194 Clouds 31 1003 72 10000 3.24 167 13:23 30.07.2022
195 Clouds 32 1003 68 10000 3.82 165 12:22 30.07.2022
196 Rain 31 1003 64 10000 3.42 175 10:45 30.07.2022
197 Rain 32 1003 59 10000 2 167 10:19 30.07.2022
198 Clouds 33 1004 55 10000 0.42 150 08:54 30.07.2022
199 Clouds 34 1006 57 10000 1.86 227 06:55 30.07.2022
200 Clouds 29 1007 81 10000 1.68 120 02:33 30.07.2022
201 Clouds 28 1005 85 10000 1.5 211 23:57 29.07.2022
202 Clouds 29 1005 85 10000 2.65 195 21:37 29.07.2022
203 Clouds 29 1005 84 10000 3.05 189 20:50 29.07.2022
204 Clouds 29 1006 77 10000 4.3 176 19:45 29.07.2022
205 Clouds 29 1008 72 10000 4.35 177 16:59 29.07.2022
206 Clouds 30 1006 69 10000 4.3 178 14:38 29.07.2022
207 Clouds 31 1004 63 10000 5.43 181 12:42 29.07.2022
208 Clouds 33 1005 54 10000 5.25 180 08:52 29.07.2022
209 Clouds 33 1006 55 10000 5.01 183 08:23 29.07.2022
210 Clouds 31 1008 61 10000 3.66 181 05:19 29.07.2022
211 Clouds 28 1006 77 10000 2.24 182 23:59 28.07.2022
212 Clouds 28 1006 76 10000 2.65 182 21:39 28.07.2022
213 Clouds 28 1006 76 10000 2.62 185 20:52 28.07.2022
214 Clouds 28 1007 75 10000 2.77 186 20:18 28.07.2022
215 Clouds 28 1007 75 10000 2.77 186 19:40 28.07.2022
216 Clouds 29 1008 73 10000 2.87 179 18:19 28.07.2022
217 Clouds 29 1008 73 10000 2.87 179 17:36 28.07.2022
218 Clouds 29 1008 71 10000 2.67 171 16:41 28.07.2022
219 Clouds 30 1005 64 10000 3.25 169 13:57 28.07.2022
220 Clouds 32 1004 60 10000 3.47 174 12:40 28.07.2022
221 Rain 32 1006 49 10000 3.13 193 08:49 28.07.2022
222 Rain 31 1008 56 10000 3.13 193 05:41 28.07.2022
223 Rain 31 1008 62 10000 3.33 195 05:21 28.07.2022
224 Clouds 26 1006 85 10000 2.7 188 23:41 27.07.2022
225 Clouds 28 1006 83 10000 3.31 185 21:31 27.07.2022
226 Clouds 28 1006 83 10000 3.31 185 21:31 27.07.2022
227 Clouds 28 1007 78 10000 3.41 200 19:53 27.07.2022
228 Clouds 28 1007 77 10000 3.32 191 19:20 27.07.2022
229 Rain 29 1008 74 10000 3.29 188 16:31 27.07.2022
230 Rain 29 1007 73 10000 3.3 178 15:51 27.07.2022
231 Rain 31 1007 71 10000 3.3 175 14:41 27.07.2022
232 Rain 31 1006 68 10000 3.48 172 13:34 27.07.2022
233 Clouds 33 1006 55 10000 3 205 09:29 27.07.2022
234 Clouds 33 1007 56 10000 3.51 204 07:47 27.07.2022
235 Clouds 31 1008 67 10000 2.63 195 04:53 27.07.2022
236 Clouds 28 1006 78 10000 2.24 191 23:25 26.07.2022
237 Clouds 28 1006 78 10000 2.79 192 21:52 26.07.2022
238 Clouds 29 1006 77 10000 3.01 194 20:49 26.07.2022
239 Clouds 29 1007 75 10000 3.74 187 19:22 26.07.2022
240 Clouds 30 1007 75 10000 3.74 187 18:40 26.07.2022
241 Clouds 30 1008 74 10000 3.6 186 17:47 26.07.2022
242 Clouds 30 1007 71 10000 3.34 182 15:43 26.07.2022
243 Clouds 30 1006 69 10000 3.29 181 14:38 26.07.2022
244 Clouds 32 1004 61 10000 3.57 179 12:32 26.07.2022
245 Clouds 33 1005 51 10000 3.98 188 09:59 26.07.2022
246 Rain 33 1007 51 10000 2.91 194 08:23 26.07.2022
247 Clouds 28 1008 78 10000 1.35 240 01:52 26.07.2022
248 Clouds 28 1008 78 10000 1.35 240 01:52 26.07.2022
249 Clouds 27 1007 80 10000 2.2 205 00:19 26.07.2022
250 Clouds 28 1007 79 10000 2.3 200 22:40 25.07.2022
251 Clouds 28 1007 80 10000 2.39 197 21:43 25.07.2022
252 Clouds 29 1008 80 10000 2.28 198 20:43 25.07.2022
253 Clouds 28 1008 80 10000 2.37 197 20:23 25.07.2022
254 Clouds 29 1008 80 10000 2.73 188 19:24 25.07.2022
255 Clouds 30 1009 79 10000 2.67 189 17:37 25.07.2022
256 Rain 30 1009 78 10000 2.67 185 16:44 25.07.2022
257 Clouds 33 1005 65 10000 3.23 180 13:22 25.07.2022
258 Rain 34 1005 58 10000 3.23 163 10:48 25.07.2022
259 Clouds 33 1008 62 10000 2.07 152 07:32 25.07.2022
260 Clouds 25 1007 88 10000 1.83 130 00:38 25.07.2022
261 Clouds 26 1007 87 10000 1.92 139 23:45 24.07.2022
262 Clouds 26 1006 87 10000 2.2 157 22:43 24.07.2022
263 Rain 25 1006 86 10000 2.44 157 21:33 24.07.2022
264 Clouds 26 1007 86 5793 2.02 141 20:58 24.07.2022
265 Rain 26 1007 86 5793 2.02 141 20:37 24.07.2022
266 Rain 26 1008 79 10000 2.1 184 19:18 24.07.2022
267 Rain 27 1008 78 10000 2.27 182 17:56 24.07.2022
268 Rain 27 1007 75 10000 2.85 183 15:54 24.07.2022
269 Rain 29 1006 73 10000 2.51 189 14:41 24.07.2022
270 Clouds 31 1006 70 10000 2.74 188 13:47 24.07.2022
271 Clouds 31 1004 60 10000 3.83 185 12:27 24.07.2022
272 Rain 31 1004 60 10000 3.83 185 11:30 24.07.2022
273 Clouds 31 1005 56 10000 4.58 178 09:44 24.07.2022
274 Clouds 32 1006 60 10000 3.47 177 07:53 24.07.2022
275 Clouds 32 1008 69 10000 2.13 163 07:26 24.07.2022
276 Clouds 26 1008 86 10000 2.62 125 02:52 24.07.2022
277 Clouds 26 1007 88 10000 1.87 150 22:45 23.07.2022
278 Clouds 27 1007 86 10000 2.6 155 20:47 23.07.2022
279 Clouds 27 1009 81 10000 2.03 159 18:59 23.07.2022
280 Clouds 27 1009 78 10000 2.22 169 17:58 23.07.2022
281 Clouds 28 1009 77 10000 2.44 167 17:25 23.07.2022
282 Clouds 28 1008 76 10000 2.43 166 16:21 23.07.2022
283 Rain 28 1008 74 10000 2.74 169 15:21 23.07.2022
284 Rain 29 1008 74 10000 2.74 169 14:50 23.07.2022
285 Clouds 29 1007 74 10000 3.38 178 13:58 23.07.2022
286 Rain 30 1006 64 10000 4.64 173 11:48 23.07.2022
287 Rain 30 1006 60 10000 4.6 171 10:36 23.07.2022
288 Rain 30 1007 60 10000 4.48 176 09:28 23.07.2022
289 Clouds 30 1009 64 10000 3.89 185 06:40 23.07.2022
290 Clouds 28 1010 78 6103 1.64 191 03:37 23.07.2022
291 Clouds 26 1008 86 10000 1.64 182 00:27 23.07.2022
292 Rain 25 1009 83 10000 2.51 190 21:28 22.07.2022
293 Rain 25 1009 82 10000 2.33 186 20:29 22.07.2022
294 Rain 26 1010 82 10000 2.37 184 18:41 22.07.2022
295 Rain 27 1010 82 10000 2.2 194 17:38 22.07.2022
296 Clouds 28 1009 81 10000 3.19 195 15:35 22.07.2022
297 Clouds 30 1007 74 10000 4.36 187 12:41 22.07.2022
298 Clouds 32 1008 72 10000 3.24 177 09:52 22.07.2022
299 Clouds 31 1008 71 10000 3.9 194 09:20 22.07.2022
300 Clouds 30 1009 79 10000 2.51 190 07:30 22.07.2022
301 Clouds 28 1010 86 10000 2.48 200 04:19 22.07.2022
302 Clouds 26 1008 87 10000 4.76 202 23:27 21.07.2022
303 Clouds 27 1008 86 10000 4.41 203 21:37 21.07.2022
304 Rain 27 1009 93 10000 4.43 203 19:35 21.07.2022
305 Rain 28 1010 88 10000 5.39 202 18:29 21.07.2022
306 Rain 28 1009 82 10000 5.17 198 17:20 21.07.2022
307 Clouds 28 1009 80 10000 4.42 192 15:39 21.07.2022
308 Clouds 28 1008 81 10000 3.17 181 14:44 21.07.2022
309 Clouds 28 1006 85 10000 3.41 172 13:22 21.07.2022
310 Rain 29 1006 86 10000 3.77 181 11:42 21.07.2022
311 Clouds 27 1006 84 10000 4.26 206 09:44 21.07.2022
312 Clouds 26 1007 86 10000 4.59 216 08:53 21.07.2022
313 Rain 26 1007 88 10000 4.04 210 07:50 21.07.2022
314 Rain 26 1008 89 10000 2.69 233 06:25 21.07.2022
315 Rain 25 1006 92 10000 2.83 218 01:54 21.07.2022
316 Rain 25 1004 91 10000 2.63 220 22:24 20.07.2022
317 Rain 25 1004 91 10000 2.63 220 21:42 20.07.2022
318 Rain 25 1005 89 6795 2.04 231 20:39 20.07.2022
319 Rain 25 1005 91 5893 2.07 154 19:43 20.07.2022
320 Rain 25 1006 91 8116 2.49 172 18:52 20.07.2022
321 Rain 25 1007 89 10000 3.17 162 18:29 20.07.2022
322 Rain 26 1006 86 4724 3.3 169 16:49 20.07.2022
323 Rain 27 1005 83 5959 3.81 187 15:32 20.07.2022
324 Rain 28 1004 82 4474 3.47 184 14:32 20.07.2022
325 Clouds 31 1002 61 5619 3.96 198 12:34 20.07.2022
326 Rain 33 1003 59 10000 3.21 194 10:24 20.07.2022
327 Clouds 31 1006 59 10000 3.89 268 04:50 20.07.2022
328 Clouds 27 1004 83 10000 2.27 246 00:54 20.07.2022
329 Clouds 27 1004 83 10000 2.27 246 00:36 20.07.2022
330 Rain 27 1004 82 10000 2.21 234 22:34 19.07.2022
331 Rain 27 1004 82 10000 2.34 241 21:53 19.07.2022
332 Rain 27 1004 85 10000 2.54 255 20:49 19.07.2022
333 Rain 27 1005 88 7169 1.77 197 19:22 19.07.2022
334 Rain 28 1005 88 7169 1.77 197 18:35 19.07.2022
335 Rain 29 1005 84 10000 2.26 223 17:51 19.07.2022
336 Clouds 30 1004 60 8153 5.69 209 15:21 19.07.2022
337 Clouds 33 1001 64 10000 5.64 188 12:27 19.07.2022
338 Clouds 34 1001 64 10000 5.64 188 11:32 19.07.2022
339 Rain 35 1002 43 10000 3.14 264 09:51 19.07.2022
340 Clouds 35 1002 43 10000 4.11 287 08:42 19.07.2022
341 Clouds 34 1005 46 10000 4.86 284 07:19 19.07.2022
342 Clouds 33 1006 49 10000 4.8 279 05:50 19.07.2022
343 Clouds 32 1006 53 10000 4.61 274 05:18 19.07.2022
344 Clouds 29 1006 67 10000 3.62 271 02:33 19.07.2022
345 Clouds 29 1005 76 10000 2.54 279 23:50 18.07.2022
346 Clouds 29 1005 75 10000 2.55 281 23:19 18.07.2022
347 Clouds 29 1005 72 10000 3.26 275 22:23 18.07.2022
348 Clouds 30 1005 70 10000 3.09 267 20:57 18.07.2022
349 Clouds 30 1005 72 10000 2.74 250 19:52 18.07.2022
350 Rain 31 1006 70 10000 3.26 199 17:53 18.07.2022
351 Rain 31 1005 66 10000 3.75 188 16:28 18.07.2022
352 Rain 31 1004 65 10000 4.1 185 15:19 18.07.2022
353 Clouds 33 1003 67 10000 4.64 186 13:31 18.07.2022
354 Clouds 35 1002 52 10000 4.77 189 11:31 18.07.2022
355 Clouds 35 1003 44 10000 3.21 240 09:53 18.07.2022
356 Clouds 34 1005 46 10000 3.07 257 07:49 18.07.2022
357 Clouds 30 1008 68 10000 2.69 251 02:51 18.07.2022
358 Clouds 29 1007 68 10000 1.97 257 22:55 17.07.2022
359 Clouds 30 1007 68 10000 1.29 225 22:28 17.07.2022
360 Clouds 30 1007 68 10000 1.54 206 21:26 17.07.2022
361 Clouds 30 1007 68 10000 1.54 206 20:44 17.07.2022
362 Clouds 30 1008 66 10000 2.24 208 19:49 17.07.2022
363 Clouds 30 1008 66 10000 2.51 204 19:20 17.07.2022
364 Rain 30 1009 65 10000 2.68 202 17:42 17.07.2022
365 Rain 30 1009 63 10000 2.96 188 17:22 17.07.2022
366 Clouds 30 1009 63 10000 3.55 181 16:28 17.07.2022
367 Clouds 30 1008 61 10000 3.55 181 15:37 17.07.2022
368 Clouds 31 1007 62 10000 3.99 188 13:51 17.07.2022
369 Clouds 32 1006 62 10000 4.71 179 12:40 17.07.2022
370 Clouds 34 1005 51 10000 3.64 199 10:18 17.07.2022
371 Clouds 32 1008 56 10000 3.79 209 06:58 17.07.2022
372 Clouds 28 1008 74 10000 2.71 240 02:34 17.07.2022
373 Clouds 27 1007 81 10000 2.04 256 23:23 16.07.2022
374 Clouds 26 1007 81 10000 2.56 257 21:59 16.07.2022
375 Clouds 26 1008 80 10000 2.91 251 20:28 16.07.2022
376 Rain 27 1008 78 10000 3.38 247 18:43 16.07.2022
377 Rain 27 1008 78 10000 2.58 214 17:25 16.07.2022
378 Rain 29 1007 77 10000 2.42 189 15:50 16.07.2022
379 Rain 31 1003 61 10000 4.62 175 12:26 16.07.2022
380 Clouds 30 1004 56 10000 4.84 178 10:18 16.07.2022
381 Clouds 32 1004 54 10000 4.62 184 09:25 16.07.2022
382 Rain 33 1004 54 10000 4.62 184 08:40 16.07.2022
383 Clouds 32 1006 56 10000 2.99 207 06:57 16.07.2022
384 Clouds 29 1007 72 10000 1.22 229 03:32 16.07.2022
385 Clouds 27 1005 86 10000 1.8 248 23:54 15.07.2022
386 Clouds 28 1004 87 10000 1.59 238 22:46 15.07.2022
387 Clouds 28 1004 87 10000 1.82 237 21:52 15.07.2022
388 Clouds 28 1005 87 10000 1.81 223 20:35 15.07.2022
389 Clouds 28 1006 82 10000 2.29 206 18:46 15.07.2022
390 Clouds 29 1007 80 10000 2.23 196 17:51 15.07.2022
391 Clouds 29 1006 77 10000 2.4 188 16:23 15.07.2022
392 Clouds 30 1004 68 10000 2.28 217 13:48 15.07.2022
393 Clouds 31 1003 63 10000 4.22 244 12:22 15.07.2022
394 Rain 31 1003 61 10000 4.35 243 10:51 15.07.2022
395 Clouds 32 1005 63 10000 4.66 235 07:47 15.07.2022
396 Clouds 28 1004 77 10000 2.19 225 02:47 15.07.2022
397 Clouds 27 1003 77 10000 2.18 219 00:39 15.07.2022
398 Clouds 27 1002 76 10000 2.41 221 22:54 14.07.2022
399 Clouds 27 1002 76 10000 2.52 228 21:57 14.07.2022
400 Clouds 26 1004 79 10000 2.52 228 21:33 14.07.2022
401 Clouds 27 1003 76 10000 2.98 235 20:57 14.07.2022
402 Clouds 27 1003 76 10000 2.98 235 20:37 14.07.2022
403 Clouds 27 1003 75 10000 3.5 238 20:18 14.07.2022
404 Rain 25 1006 77 10000 3.44 228 16:42 14.07.2022
405 Rain 26 1005 76 10000 3.42 231 16:18 14.07.2022
406 Rain 28 1004 76 10000 3.63 233 14:44 14.07.2022
407 Clouds 28 1003 72 10000 4.5 226 13:33 14.07.2022
408 Clouds 32 1002 64 10000 6.4 237 12:19 14.07.2022
409 Clouds 34 1002 65 10000 5.76 233 11:25 14.07.2022
410 Clouds 33 1002 65 10000 5.76 233 10:39 14.07.2022
411 Clouds 33 1004 61 10000 5.15 232 08:22 14.07.2022
412 Clouds 28 1006 83 10000 2.21 210 03:36 14.07.2022
413 Rain 26 1004 85 10000 2.75 211 00:55 14.07.2022
414 Clouds 26 1003 85 10000 2.74 218 23:41 13.07.2022
415 Clouds 25 1003 85 10000 2.4 238 22:27 13.07.2022
416 Clouds 25 1003 85 10000 2.4 238 21:32 13.07.2022
417 Clouds 26 1003 86 10000 2.66 237 20:38 13.07.2022
418 Clouds 26 1006 88 10000 2.43 239 17:59 13.07.2022
419 Clouds 26 1006 89 10000 2.16 244 17:20 13.07.2022
420 Clouds 26 1005 89 10000 1.99 247 15:59 13.07.2022
421 Clouds 26 1004 91 10000 1.45 246 13:50 13.07.2022
422 Rain 25 1002 92 10000 0.95 204 11:24 13.07.2022
423 Clouds 29 1002 92 10000 0.95 204 10:40 13.07.2022
424 Clouds 28 1003 93 10000 1.17 300 09:28 13.07.2022
425 Clouds 26 1004 93 8078 1.75 334 08:21 13.07.2022
426 Rain 25 1005 89 10000 4.64 250 04:36 13.07.2022
427 Rain 25 1003 84 10000 3.33 253 00:25 13.07.2022
428 Rain 25 1003 84 10000 2.89 252 22:46 12.07.2022
429 Rain 25 1003 84 10000 2.79 250 21:46 12.07.2022
430 Clouds 25 1004 84 10000 3.35 255 20:53 12.07.2022
431 Clouds 26 1004 82 10000 3.84 256 19:48 12.07.2022
432 Clouds 26 1005 83 10000 3.83 258 18:35 12.07.2022
433 Clouds 27 1005 83 10000 4.53 249 16:24 12.07.2022
434 Rain 26 1004 86 10000 4.14 245 14:32 12.07.2022
435 Rain 25 1004 89 10000 3.88 257 13:35 12.07.2022
436 Rain 26 1003 93 10000 3.87 236 11:54 12.07.2022
437 Clouds 32 1003 92 10000 4.38 250 10:26 12.07.2022
438 Clouds 32 1004 90 9545 4.76 256 08:46 12.07.2022
439 Clouds 31 1005 84 10000 4.28 281 07:48 12.07.2022
440 Clouds 28 1006 70 10000 5.28 283 05:45 12.07.2022
441 Clouds 29 1006 73 10000 5.04 276 04:46 12.07.2022
442 Clouds 28 1004 88 10000 4.13 273 00:20 12.07.2022
443 Clouds 27 1004 90 10000 3.67 261 22:42 11.07.2022
444 Rain 27 1005 92 10000 3.84 243 20:56 11.07.2022
445 Rain 27 1005 92 10000 3.84 243 20:32 11.07.2022
446 Clouds 28 1007 92 10000 4.1 235 18:50 11.07.2022
447 Clouds 28 1007 93 10000 3.84 234 18:28 11.07.2022
448 Clouds 27 1007 94 10000 4 225 16:26 11.07.2022
449 Clouds 29 1006 94 10000 4.72 233 15:23 11.07.2022
450 Clouds 30 1005 92 10000 5.17 227 12:42 11.07.2022
451 Clouds 28 1005 92 10000 4.52 226 11:23 11.07.2022
452 Clouds 32 1005 92 10000 3.21 223 09:55 11.07.2022
453 Clouds 31 1005 92 10000 2.64 237 09:25 11.07.2022
454 Clouds 31 1005 92 10000 2.64 237 08:31 11.07.2022
455 Rain 28 1006 86 10000 1.93 231 00:59 11.07.2022
456 Clouds 28 1005 85 10000 2.39 241 23:54 10.07.2022
457 Rain 27 1005 82 10000 2.69 261 22:45 10.07.2022
458 Clouds 29 1006 81 10000 2.99 261 20:55 10.07.2022
459 Clouds 29 1006 81 10000 2.99 261 20:34 10.07.2022
460 Clouds 29 1007 80 10000 3.4 248 19:29 10.07.2022
461 Clouds 29 1007 80 10000 3.1 251 18:23 10.07.2022
462 Clouds 30 1007 80 10000 3.1 251 17:33 10.07.2022
463 Clouds 30 1007 80 10000 3.75 248 16:21 10.07.2022
464 Clouds 30 1006 81 10000 3.83 248 14:44 10.07.2022
465 Clouds 32 1005 83 10000 2.99 242 13:29 10.07.2022
466 Clouds 32 1005 83 10000 3.2 245 11:44 10.07.2022
467 Clouds 32 1005 83 10000 3.14 241 09:45 10.07.2022
468 Clouds 32 1005 83 10000 2.8 240 08:43 10.07.2022
469 Clouds 29 1006 79 10000 2.4 259 07:19 10.07.2022
470 Clouds 26 1005 84 10000 3.91 240 23:50 09.07.2022
471 Rain 27 1005 85 10000 4.42 240 22:26 09.07.2022
472 Rain 27 1005 85 10000 4.42 240 22:26 09.07.2022
473 Rain 27 1005 85 10000 4.42 240 21:41 09.07.2022
474 Rain 26 1005 87 10000 5.1 248 19:44 09.07.2022
475 Rain 27 1006 86 7500 5.24 230 18:28 09.07.2022
476 Clouds 27 1006 86 7500 5.24 230 17:32 09.07.2022
477 Rain 27 1006 90 7619 4.82 217 16:34 09.07.2022
478 Rain 27 1005 88 6425 5.15 209 15:39 09.07.2022
479 Rain 27 1004 76 10000 3.68 213 14:24 09.07.2022
480 Rain 27 1004 71 10000 2.8 200 13:48 09.07.2022
481 Clouds 28 1004 65 10000 2.63 208 12:22 09.07.2022
482 Rain 32 1004 68 10000 2.05 210 10:27 09.07.2022
483 Clouds 30 1004 68 10000 2.05 210 09:57 09.07.2022
484 Clouds 32 1006 69 10000 2 210 07:44 09.07.2022
485 Clouds 29 1007 65 10000 1.7 230 04:45 09.07.2022
486 Rain 26 1005 72 10000 2.01 302 23:43 08.07.2022
487 Rain 27 1005 72 10000 2.52 286 22:34 08.07.2022
488 Clouds 27 1005 70 10000 4.23 262 21:27 08.07.2022
489 Rain 27 1005 70 10000 4.23 262 20:38 08.07.2022
490 Rain 27 1006 73 10000 5.09 253 19:38 08.07.2022
491 Rain 27 1007 75 10000 4.9 243 17:56 08.07.2022
492 Rain 27 1007 76 10000 5.39 233 16:33 08.07.2022
493 Rain 28 1006 76 10000 6.33 212 14:50 08.07.2022
494 Rain 31 1004 76 10000 6.7 205 12:42 08.07.2022
495 Clouds 33 1003 49 10000 4.54 216 10:52 08.07.2022
496 Clouds 33 1003 45 10000 4.28 223 09:58 08.07.2022
497 Clouds 33 1005 44 10000 3.96 229 07:55 08.07.2022
498 Clouds 32 1007 51 10000 3.61 238 06:23 08.07.2022
499 Rain 28 1006 73 10000 2.49 234 00:41 08.07.2022
500 Rain 28 1006 72 10000 2.7 234 22:52 07.07.2022
501 Clouds 28 1006 71 10000 2.72 246 21:48 07.07.2022
502 Clouds 28 1006 69 10000 2.91 283 19:35 07.07.2022
503 Clouds 28 1007 68 10000 2.96 262 17:50 07.07.2022
504 Clouds 29 1006 67 10000 3.61 247 16:23 07.07.2022
505 Clouds 30 1004 62 10000 3.48 194 14:21 07.07.2022
506 Clouds 31 1004 58 10000 3.46 201 12:43 07.07.2022
507 Clouds 31 1004 55 10000 3.94 205 12:23 07.07.2022
508 Rain 32 1004 55 10000 3.94 205 11:33 07.07.2022
509 Rain 32 1004 54 10000 3.51 207 10:45 07.07.2022
510 Rain 33 1004 52 10000 3.36 203 10:27 07.07.2022
511 Rain 32 1005 51 10000 3.65 194 09:22 07.07.2022
512 Clouds 32 1007 52 10000 3.13 239 05:57 07.07.2022
513 Rain 28 1006 73 10000 2.49 265 00:28 07.07.2022
514 Clouds 29 1006 73 10000 2.49 265 23:36 06.07.2022
515 Clouds 29 1006 74 10000 2.32 262 23:18 06.07.2022
516 Clouds 28 1006 74 10000 2.32 262 22:47 06.07.2022
517 Clouds 28 1006 74 10000 2.32 262 22:47 06.07.2022
518 Clouds 29 1006 78 10000 2.46 251 22:28 06.07.2022
519 Clouds 29 1007 78 10000 2.1 206 20:19 06.07.2022
520 Clouds 29 1008 74 10000 1.79 237 18:48 06.07.2022
521 Rain 29 1008 76 10000 2.5 194 16:58 06.07.2022
522 Rain 28 1007 72 10000 2.93 199 15:44 06.07.2022
523 Clouds 33 1005 67 10000 4.14 180 12:44 06.07.2022
524 Clouds 33 1004 62 10000 3.76 174 11:50 06.07.2022
525 Clouds 33 1004 57 10000 3.58 181 10:33 06.07.2022
526 Clouds 33 1005 51 10000 2.87 213 08:43 06.07.2022
527 Clouds 33 1006 50 10000 3.24 229 07:41 06.07.2022
528 Clouds 32 1007 53 10000 2.88 240 06:40 06.07.2022
529 Clouds 27 1006 83 10000 2.25 264 22:49 05.07.2022
530 Clouds 28 1005 82 10000 2.51 268 22:28 05.07.2022
531 Clouds 28 1006 82 10000 2.25 268 20:42 05.07.2022
532 Clouds 28 1006 82 10000 2.16 255 19:44 05.07.2022
533 Rain 28 1006 82 10000 2.24 223 19:26 05.07.2022
534 Rain 29 1007 82 10000 2.2 201 17:48 05.07.2022
535 Clouds 29 1007 80 10000 2.59 186 16:57 05.07.2022
536 Clouds 29 1006 80 10000 2.58 186 15:38 05.07.2022
537 Clouds 29 1005 82 10000 2.51 185 14:33 05.07.2022
538 Clouds 31 1004 75 10000 4.04 213 12:48 05.07.2022
539 Clouds 32 1004 69 10000 4.89 229 11:52 05.07.2022
540 Clouds 33 1003 67 10000 5.08 234 10:42 05.07.2022
541 Clouds 32 1004 66 9674 5.08 222 09:28 05.07.2022
542 Clouds 32 1005 65 10000 4.54 214 08:18 05.07.2022
543 Clouds 32 1006 70 10000 3.32 206 05:45 05.07.2022
544 Clouds 30 1006 77 10000 2.69 221 04:25 05.07.2022
545 Clouds 28 1005 78 10000 2.49 231 00:37 05.07.2022
546 Clouds 28 1004 79 10000 2.79 236 23:34 04.07.2022
547 Clouds 28 1004 80 10000 2.45 243 22:47 04.07.2022
548 Clouds 28 1004 80 10000 2.54 236 21:46 04.07.2022
549 Clouds 28 1004 80 10000 2.4 224 20:53 04.07.2022
550 Clouds 28 1004 80 10000 2.4 224 20:34 04.07.2022
551 Clouds 28 1004 78 10000 2.35 228 19:55 04.07.2022
552 Clouds 29 1004 78 10000 2.35 228 19:35 04.07.2022
553 Clouds 30 1005 77 10000 3.73 205 17:58 04.07.2022
554 Clouds 29 1005 75 10000 4.95 186 15:58 04.07.2022
555 Clouds 28 1005 75 10000 4.95 186 15:33 04.07.2022
556 Clouds 31 1003 65 10000 4.43 182 13:29 04.07.2022
557 Clouds 31 1003 62 10000 4.18 187 12:21 04.07.2022
558 Clouds 32 1003 60 10000 3.76 184 10:34 04.07.2022
559 Clouds 32 1003 60 10000 3.87 177 09:52 04.07.2022
560 Clouds 33 1005 75 10000 2.95 201 07:37 04.07.2022
561 Clouds 30 1007 66 10000 2.88 237 04:48 04.07.2022
562 Clouds 28 1005 72 10000 3.06 233 00:36 04.07.2022
563 Clouds 28 1004 71 10000 3.73 244 22:59 03.07.2022
564 Clouds 28 1004 69 10000 4.38 250 20:58 03.07.2022
565 Clouds 29 1004 69 10000 4.39 251 20:31 03.07.2022
566 Clouds 29 1006 68 10000 3.84 239 19:27 03.07.2022
567 Clouds 29 1006 68 10000 3.84 239 18:43 03.07.2022
568 Clouds 29 1007 68 10000 3.61 233 17:43 03.07.2022
569 Clouds 30 1005 67 10000 4.06 224 15:51 03.07.2022
570 Clouds 30 1005 66 10000 4.66 226 14:59 03.07.2022
571 Rain 30 1004 64 10000 4.04 234 14:18 03.07.2022
572 Rain 30 1004 64 10000 4.98 225 13:48 03.07.2022
573 Rain 31 1003 62 10000 3.88 233 12:33 03.07.2022
574 Clouds 31 1003 58 10000 4.62 227 11:28 03.07.2022
575 Clouds 31 1003 58 10000 4.62 227 10:38 03.07.2022
576 Clouds 32 1003 57 10000 4.01 231 09:31 03.07.2022
577 Clouds 32 1005 65 10000 4.28 240 07:35 03.07.2022
578 Clouds 28 1006 67 10000 4.13 243 02:49 03.07.2022
579 Clouds 27 1004 73 10000 2.6 225 00:20 03.07.2022
580 Clouds 27 1004 71 10000 2.95 223 22:33 02.07.2022
581 Clouds 27 1004 70 10000 3.7 231 20:50 02.07.2022
582 Rain 27 1004 69 10000 3.83 225 19:52 02.07.2022
583 Rain 27 1005 68 10000 4.43 226 19:20 02.07.2022
584 Rain 27 1006 66 10000 4.78 229 17:41 02.07.2022
585 Rain 28 1005 63 10000 4.44 237 16:49 02.07.2022
586 Clouds 30 1004 62 10000 3.1 232 14:31 02.07.2022
587 Clouds 32 1001 52 10000 4.3 224 12:21 02.07.2022
588 Clouds 32 1001 48 10000 5.4 239 11:26 02.07.2022
589 Clouds 32 1001 48 10000 5.4 239 10:37 02.07.2022
590 Rain 33 1002 49 10000 3.57 247 08:55 02.07.2022
591 Rain 32 1003 50 10000 4.33 239 08:20 02.07.2022
592 Clouds 32 1003 50 10000 4.97 248 06:59 02.07.2022
593 Clouds 27 1003 76 10000 3.09 237 01:44 02.07.2022
594 Clouds 28 1002 78 10000 2.91 240 23:37 01.07.2022
595 Clouds 27 1002 78 10000 2.98 237 22:40 01.07.2022
596 Clouds 27 1002 78 10000 3.34 241 21:40 01.07.2022
597 Clouds 27 1003 78 10000 3.31 237 20:59 01.07.2022
598 Clouds 27 1003 78 10000 3.31 237 20:38 01.07.2022
599 Rain 28 1003 79 10000 3.69 234 19:42 01.07.2022
600 Rain 27 1005 77 10000 2.82 242 17:53 01.07.2022
601 Rain 27 1004 75 10000 1.44 241 15:50 01.07.2022
602 Rain 30 1003 73 10000 1.54 214 13:54 01.07.2022
603 Clouds 33 1001 59 10000 2.84 229 11:50 01.07.2022
604 Clouds 33 1001 62 10000 5.09 214 10:20 01.07.2022
605 Clouds 33 1002 53 10000 4.58 229 08:50 01.07.2022
606 Clouds 29 1004 72 10000 3.15 248 03:18 01.07.2022
607 Rain 28 1003 77 10000 2.47 242 00:26 01.07.2022
608 Rain 28 1003 77 10000 2.85 256 22:56 30.06.2022
609 Rain 28 1003 77 10000 2.85 256 22:33 30.06.2022
610 Clouds 28 1003 76 10000 3.4 252 21:59 30.06.2022
611 Clouds 28 1003 76 10000 3.4 252 21:41 30.06.2022
612 Clouds 28 1004 78 10000 2.86 226 20:29 30.06.2022
613 Clouds 28 1004 78 10000 2.86 226 19:54 30.06.2022
614 Clouds 29 1005 75 10000 2.92 234 19:19 30.06.2022
615 Clouds 28 1005 75 10000 2.92 234 18:42 30.06.2022
616 Rain 27 1005 76 10000 1.84 230 17:38 30.06.2022
617 Rain 28 1005 78 10000 2.72 234 16:48 30.06.2022
618 Clouds 28 1004 86 10000 6.44 202 15:27 30.06.2022
619 Rain 31 1003 88 5447 6.69 193 13:30 30.06.2022
620 Clouds 31 1001 81 3182 6.21 218 12:35 30.06.2022
621 Clouds 33 1000 56 10000 4.36 203 11:28 30.06.2022
622 Clouds 34 1000 48 10000 4.2 217 09:53 30.06.2022
623 Clouds 34 1000 48 10000 4.2 217 09:32 30.06.2022
624 Clouds 34 1002 45 10000 4.05 252 07:51 30.06.2022
625 Clouds 32 1004 49 10000 4.06 256 05:57 30.06.2022
626 Clouds 27 1003 72 10000 2.33 248 00:32 30.06.2022
627 Rain 28 1003 71 10000 2.97 257 23:21 29.06.2022
628 Clouds 28 1003 71 10000 2.97 257 22:39 29.06.2022
629 Clouds 28 1003 70 10000 3.13 253 21:34 29.06.2022
630 Clouds 28 1003 73 10000 2.93 253 20:33 29.06.2022
631 Clouds 29 1003 70 10000 3.4 245 19:37 29.06.2022
632 Clouds 28 1005 71 10000 2.75 202 17:43 29.06.2022
633 Clouds 28 1004 70 10000 3.39 195 16:37 29.06.2022
634 Clouds 28 1003 63 10000 4.81 195 14:56 29.06.2022
635 Rain 33 1001 60 10000 5.27 187 12:40 29.06.2022
636 Clouds 34 1001 45 10000 4.06 192 10:56 29.06.2022
637 Clouds 34 1001 43 10000 3.5 212 09:32 29.06.2022
638 Clouds 33 1003 43 10000 3.88 243 07:39 29.06.2022
639 Clouds 31 1006 53 10000 2.87 243 04:54 29.06.2022
640 Clouds 26 1004 71 10000 2.75 255 00:58 29.06.2022
641 Clouds 27 1004 71 10000 2.75 255 00:36 29.06.2022
642 Clouds 26 1004 72 10000 2.37 239 22:54 28.06.2022
643 Clouds 27 1004 72 10000 2.37 239 22:30 28.06.2022
644 Clouds 26 1004 75 10000 2.59 232 21:54 28.06.2022
645 Clouds 27 1004 75 10000 2.59 232 21:32 28.06.2022
646 Clouds 27 1004 75 10000 2.42 226 20:35 28.06.2022
647 Clouds 29 1004 76 10000 3.19 200 19:34 28.06.2022
648 Clouds 28 1005 74 10000 3.38 195 18:46 28.06.2022
649 Clouds 29 1006 71 10000 3.39 190 17:40 28.06.2022
650 Clouds 29 1005 66 10000 3.65 189 15:57 28.06.2022
651 Clouds 28 1005 66 10000 3.65 189 15:36 28.06.2022
652 Rain 28 1004 60 10000 4.26 190 14:20 28.06.2022
653 Rain 29 1004 66 10000 3.55 206 13:51 28.06.2022
654 Rain 31 1004 59 10000 4.66 180 12:55 28.06.2022
655 Clouds 34 1004 49 10000 3.37 189 11:18 28.06.2022
656 Clouds 34 1005 49 10000 3.81 209 09:29 28.06.2022
657 Clouds 33 1005 49 10000 3.81 209 08:43 28.06.2022
658 Clouds 33 1006 48 10000 3.22 214 07:42 28.06.2022
659 Clouds 32 1008 55 10000 2.83 233 06:20 28.06.2022
660 Clouds 27 1007 84 10000 2.36 220 00:56 28.06.2022
661 Clouds 27 1007 81 10000 2.49 212 23:37 27.06.2022
662 Clouds 26 1006 80 10000 3.56 203 22:52 27.06.2022
663 Clouds 26 1006 78 10000 4.04 195 21:37 27.06.2022
664 Clouds 27 1006 77 10000 3.83 182 20:52 27.06.2022
665 Clouds 27 1006 76 10000 3.99 177 19:31 27.06.2022
666 Clouds 27 1008 75 10000 3.75 166 18:24 27.06.2022
667 Clouds 28 1007 71 10000 3.93 178 16:19 27.06.2022
668 Clouds 29 1006 69 10000 4.29 181 14:45 27.06.2022
669 Clouds 30 1006 67 10000 4.72 188 13:35 27.06.2022
670 Rain 30 1006 63 10000 5.22 184 12:52 27.06.2022
671 Rain 31 1006 52 10000 4.68 183 10:23 27.06.2022
672 Clouds 30 1007 52 10000 4.6 186 08:48 27.06.2022
673 Clouds 30 1007 51 10000 4 187 08:19 27.06.2022
674 Clouds 31 1008 54 10000 3.14 198 06:38 27.06.2022
675 Clouds 27 1009 76 10000 2.11 201 02:28 27.06.2022
676 Rain 27 1008 79 10000 2.18 210 23:55 26.06.2022
677 Clouds 27 1007 78 10000 3.44 180 21:58 26.06.2022
678 Clouds 27 1007 77 10000 3.59 185 20:44 26.06.2022
679 Clouds 28 1008 77 10000 4.45 181 19:27 26.06.2022
680 Clouds 28 1009 76 10000 4.37 176 18:28 26.06.2022
681 Clouds 28 1008 75 10000 4.4 178 16:21 26.06.2022
682 Clouds 29 1008 74 10000 4.44 183 14:34 26.06.2022
683 Clouds 30 1007 71 10000 5.1 179 13:30 26.06.2022
684 Clouds 30 1007 71 10000 5.1 179 13:30 26.06.2022
685 Rain 30 1006 67 10000 5.68 177 12:52 26.06.2022
686 Rain 30 1006 63 10000 5.19 169 11:26 26.06.2022
687 Rain 32 1006 64 10000 5.28 174 10:23 26.06.2022
688 Clouds 33 1007 64 10000 4.55 180 08:46 26.06.2022
689 Clouds 31 1007 68 10000 3.83 179 07:30 26.06.2022
690 Clouds 27 1006 78 10000 3.24 175 00:49 26.06.2022
691 Clouds 28 1006 76 10000 3.32 169 00:20 26.06.2022
692 Clouds 27 1006 76 10000 3.32 169 23:33 25.06.2022
693 Clouds 27 1005 75 10000 3.66 174 22:51 25.06.2022
694 Clouds 27 1005 75 10000 3.97 173 22:26 25.06.2022
695 Clouds 28 1006 75 10000 4.56 170 21:23 25.06.2022
696 Clouds 28 1006 75 10000 4.56 170 20:59 25.06.2022
697 Clouds 28 1006 75 10000 4.64 164 20:25 25.06.2022
698 Clouds 28 1006 76 10000 4.49 169 18:45 25.06.2022
699 Clouds 28 1007 73 10000 4.8 168 17:28 25.06.2022
700 Clouds 29 1007 73 10000 4.8 168 16:31 25.06.2022
701 Clouds 30 1005 68 10000 4.88 182 14:50 25.06.2022
702 Clouds 31 1003 58 10000 4.69 170 12:56 25.06.2022
703 Clouds 31 1003 58 10000 4.69 170 12:37 25.06.2022
704 Clouds 32 1002 54 10000 4.06 171 10:30 25.06.2022
705 Clouds 32 1004 54 10000 3.6 182 08:56 25.06.2022
706 Clouds 32 1005 54 10000 2.69 169 08:28 25.06.2022
707 Clouds 31 1006 57 10000 1.96 186 06:46 25.06.2022
708 Clouds 26 1006 81 10000 1.26 154 01:53 25.06.2022
709 Clouds 25 1005 80 10000 0.54 84 00:20 25.06.2022
710 Clouds 25 1005 78 10000 1.52 19 22:29 24.06.2022
711 Rain 26 1006 78 10000 1.58 5 21:29 24.06.2022
712 Rain 25 1006 78 10000 1.5 341 20:24 24.06.2022
713 Rain 25 1006 67 10000 2.04 314 19:43 24.06.2022
714 Rain 26 1007 68 10000 2.26 308 19:18 24.06.2022
715 Rain 26 1007 68 10000 2.26 308 18:46 24.06.2022
716 Rain 25 1008 72 10000 3.59 300 18:28 24.06.2022
717 Rain 26 1007 75 10000 3.57 287 16:48 24.06.2022
718 Rain 28 1006 67 10000 2.8 218 14:58 24.06.2022
719 Rain 29 1005 64 10000 2.84 188 14:24 24.06.2022
720 Clouds 29 1005 62 10000 3.55 191 13:46 24.06.2022
721 Clouds 33 1003 57 10000 4.79 181 11:42 24.06.2022
722 Clouds 34 1003 50 10000 4.28 191 10:42 24.06.2022
723 Clouds 34 1004 46 10000 2.42 194 09:42 24.06.2022
724 Clouds 33 1005 46 10000 1.34 225 08:54 24.06.2022
725 Clouds 33 1005 46 10000 1.34 225 08:32 24.06.2022
726 Clouds 32 1007 52 10000 0.19 215 06:44 24.06.2022
727 Rain 32 1008 55 10000 0.14 190 06:25 24.06.2022
728 Clouds 30 1008 60 10000 0.25 118 04:50 24.06.2022
729 Clouds 27 1006 81 10000 0.74 216 23:43 23.06.2022
730 Clouds 27 1006 80 10000 1.41 192 22:43 23.06.2022
731 Clouds 27 1007 77 10000 2.29 186 21:22 23.06.2022
732 Clouds 27 1007 77 10000 2.29 186 20:37 23.06.2022
733 Rain 28 1007 73 10000 3.46 164 19:53 23.06.2022
734 Clouds 30 1008 68 10000 4.45 175 18:27 23.06.2022
735 Clouds 30 1008 73 10000 4.55 177 17:34 23.06.2022
736 Clouds 31 1007 62 10000 4.16 176 16:29 23.06.2022
737 Clouds 31 1006 60 10000 3.75 162 15:26 23.06.2022
738 Clouds 31 1006 60 10000 3.75 162 14:34 23.06.2022
739 Clouds 34 1005 53 10000 4.27 170 11:41 23.06.2022
740 Clouds 33 1004 48 10000 3.69 183 10:40 23.06.2022
741 Rain 33 1006 44 10000 2.63 215 09:19 23.06.2022
742 Clouds 30 1009 56 10000 1.99 278 04:43 23.06.2022
743 Clouds 27 1008 72 10000 1.73 266 00:27 23.06.2022
744 Clouds 28 1008 72 10000 1.73 266 23:49 22.06.2022
745 Clouds 28 1008 72 10000 1.84 250 22:53 22.06.2022
746 Clouds 28 1007 72 10000 1.85 215 21:28 22.06.2022
747 Rain 28 1007 72 10000 1.85 215 20:48 22.06.2022
748 Clouds 28 1008 67 10000 2.02 202 20:18 22.06.2022
749 Rain 28 1009 69 10000 2.33 201 18:57 22.06.2022
750 Clouds 28 1009 72 10000 2.38 196 17:31 22.06.2022
751 Clouds 29 1009 73 10000 2.45 209 16:40 22.06.2022
752 Clouds 29 1008 68 10000 4.86 219 15:28 22.06.2022
753 Clouds 30 1008 68 10000 4.86 219 14:40 22.06.2022
754 Clouds 31 1006 59 10000 3.93 222 13:45 22.06.2022
755 Clouds 32 1006 53 10000 3.93 190 13:23 22.06.2022
756 Clouds 34 1006 48 10000 4.73 201 11:50 22.06.2022
757 Clouds 35 1005 46 10000 4.11 189 10:58 22.06.2022
758 Clouds 35 1006 48 10000 3.73 212 10:26 22.06.2022
759 Clouds 33 1007 51 10000 3.52 225 08:48 22.06.2022
760 Rain 32 1009 58 10000 2.65 244 06:21 22.06.2022
761 Clouds 26 1007 74 10000 1.72 255 01:52 22.06.2022
762 Clouds 26 1006 77 10000 1.79 246 00:56 22.06.2022
763 Clouds 27 1006 75 10000 1.87 212 22:40 21.06.2022
764 Clouds 27 1006 75 10000 1.66 174 20:40 21.06.2022
765 Clouds 27 1006 71 10000 1.1 212 19:18 21.06.2022
766 Clouds 28 1007 72 10000 1.99 246 17:44 21.06.2022
767 Rain 27 1006 74 10000 2.88 246 16:34 21.06.2022
768 Clouds 34 1002 48 10000 4.74 200 11:56 21.06.2022
769 Clouds 34 1002 44 10000 4.92 188 10:27 21.06.2022
770 Clouds 34 1003 43 10000 4.22 191 08:51 21.06.2022
771 Clouds 34 1004 42 10000 2.4 214 07:35 21.06.2022
772 Clouds 31 1006 52 10000 1.76 237 04:40 21.06.2022
773 Clouds 27 1004 73 10000 1.98 254 23:27 20.06.2022
774 Clouds 26 1004 73 10000 1.89 245 21:59 20.06.2022
775 Clouds 26 1004 73 10000 1.89 245 21:32 20.06.2022
776 Rain 26 1005 72 10000 2.1 222 20:25 20.06.2022
777 Rain 28 1005 69 10000 1.77 218 18:56 20.06.2022
778 Rain 28 1006 69 10000 1.47 257 18:24 20.06.2022
779 Rain 28 1006 69 10000 1.47 257 17:41 20.06.2022
780 Clouds 30 1005 66 10000 3.4 247 16:24 20.06.2022
781 Clouds 32 1004 60 10000 5.62 215 14:36 20.06.2022
782 Clouds 35 1001 47 10000 5.54 176 11:47 20.06.2022
783 Clouds 36 1002 39 10000 3.79 224 09:55 20.06.2022
784 Clouds 35 1003 38 10000 3.72 249 08:45 20.06.2022
785 Clouds 34 1004 38 10000 3.76 259 07:36 20.06.2022
786 Clouds 31 1006 48 10000 3.79 281 04:30 20.06.2022
787 Clouds 27 1006 71 10000 2.41 276 01:32 20.06.2022
788 Clouds 27 1005 72 10000 1.88 263 23:48 19.06.2022
789 Clouds 27 1005 69 10000 1.78 234 22:19 19.06.2022
790 Clouds 27 1005 69 10000 1.78 234 21:42 19.06.2022
791 Clouds 28 1005 67 10000 2.26 224 20:49 19.06.2022
792 Clouds 29 1006 59 10000 2.71 274 19:49 19.06.2022
793 Clouds 29 1007 58 10000 3.19 278 19:24 19.06.2022
794 Clouds 30 1007 58 10000 3.19 278 18:32 19.06.2022
795 Rain 29 1007 57 10000 4.19 280 17:42 19.06.2022
796 Rain 28 1007 56 10000 4.1 273 16:47 19.06.2022
797 Rain 28 1006 55 10000 4.18 258 16:23 19.06.2022
798 Rain 29 1006 54 10000 4.84 235 15:29 19.06.2022
799 Rain 30 1006 60 10000 6.35 238 14:41 19.06.2022
800 Clouds 33 1005 56 10000 6.06 231 13:52 19.06.2022
801 Clouds 36 1003 39 10000 3.21 219 12:19 19.06.2022
802 Clouds 36 1004 38 10000 3.32 247 10:52 19.06.2022
803 Clouds 35 1006 40 10000 3.24 261 08:55 19.06.2022
804 Clouds 35 1006 40 10000 3.24 261 08:31 19.06.2022
805 Clouds 33 1007 43 10000 2.86 273 06:54 19.06.2022
806 Clouds 30 1009 59 10000 2.1 250 03:38 19.06.2022
807 Clouds 29 1007 74 10000 1.68 276 00:28 19.06.2022
808 Clouds 29 1007 74 10000 1.68 276 23:59 18.06.2022
809 Clouds 29 1007 74 10000 1.68 276 23:34 18.06.2022
810 Clouds 29 1007 75 10000 2.36 249 22:23 18.06.2022
811 Clouds 30 1007 74 10000 2.77 231 20:51 18.06.2022
812 Clouds 30 1008 73 10000 3.11 221 20:18 18.06.2022
813 Clouds 31 1008 73 10000 3.39 207 18:57 18.06.2022
814 Clouds 31 1008 73 10000 3.39 207 18:38 18.06.2022
815 Clouds 31 1008 73 10000 3.39 207 18:38 18.06.2022
816 Clouds 31 1008 66 10000 3.98 200 17:29 18.06.2022
817 Clouds 31 1008 64 10000 4.38 189 15:57 18.06.2022
818 Clouds 32 1006 60 10000 4.44 192 14:58 18.06.2022
819 Clouds 32 1006 60 10000 4.44 192 14:37 18.06.2022
820 Clouds 35 1005 45 10000 2.35 186 12:31 18.06.2022
821 Clouds 35 1005 40 10000 2.39 228 11:25 18.06.2022
822 Clouds 35 1005 41 10000 2.75 222 09:46 18.06.2022
823 Clouds 35 1006 42 10000 3.09 222 08:59 18.06.2022
824 Clouds 33 1007 46 10000 3.3 214 07:34 18.06.2022
825 Clouds 33 1007 46 10000 3.3 214 07:34 18.06.2022
826 Clouds 32 1009 53 10000 3.08 218 05:58 18.06.2022
827 Clouds 27 1009 74 10000 2.59 212 02:51 18.06.2022
828 Rain 26 1008 81 10000 2.13 220 01:21 18.06.2022
829 Rain 27 1008 81 10000 2.13 220 00:32 18.06.2022
830 Rain 27 1007 81 10000 2.28 213 23:40 17.06.2022
831 Rain 28 1007 80 10000 2.41 208 22:33 17.06.2022
832 Clouds 27 1008 75 10000 2.53 190 20:29 17.06.2022
833 Clouds 27 1009 72 10000 1.21 186 19:24 17.06.2022
834 Rain 30 1009 70 10000 1.58 200 18:19 17.06.2022
835 Clouds 29 1009 71 10000 2.89 244 16:51 17.06.2022
836 Rain 29 1009 75 10000 4.46 257 16:25 17.06.2022
837 Clouds 30 1009 75 10000 4.46 257 15:41 17.06.2022
838 Clouds 30 1006 66 10000 5.79 187 14:24 17.06.2022
839 Clouds 31 1006 66 10000 5.79 187 13:59 17.06.2022
840 Clouds 31 1006 67 10000 5.57 183 13:39 17.06.2022
841 Clouds 33 1006 55 10000 4.63 170 12:29 17.06.2022
842 Clouds 34 1006 55 10000 4.63 170 11:55 17.06.2022
843 Clouds 35 1006 55 10000 4.63 170 11:34 17.06.2022
844 Clouds 35 1006 49 10000 4.17 178 09:46 17.06.2022
845 Clouds 35 1008 51 10000 3.91 188 08:26 17.06.2022
846 Clouds 34 1009 53 10000 4.43 189 06:51 17.06.2022
847 Clouds 34 1009 53 10000 4.43 189 06:51 17.06.2022
848 Clouds 31 1010 61 10000 5.05 187 04:49 17.06.2022
849 Clouds 29 1009 81 10000 3.02 182 01:57 17.06.2022
850 Clouds 28 1008 82 10000 3 184 00:24 17.06.2022
851 Clouds 29 1008 82 10000 3.18 183 22:42 16.06.2022
852 Clouds 29 1008 78 10000 3.3 178 21:23 16.06.2022
853 Clouds 29 1008 78 10000 3.3 178 20:56 16.06.2022
854 Clouds 29 1008 78 10000 3.3 178 20:36 16.06.2022
855 Clouds 29 1008 78 10000 3.3 178 20:36 16.06.2022
856 Clouds 29 1009 76 10000 3.69 177 19:45 16.06.2022
857 Clouds 29 1010 72 10000 3.94 171 18:26 16.06.2022
858 Clouds 30 1010 72 10000 3.94 171 17:43 16.06.2022
859 Clouds 29 1009 70 10000 4.17 176 16:39 16.06.2022
860 Clouds 29 1008 66 10000 4.33 174 15:22 16.06.2022
861 Clouds 30 1008 66 10000 4.33 174 14:37 16.06.2022
862 Clouds 33 1006 58 10000 5.01 173 13:22 16.06.2022
863 Clouds 33 1006 58 10000 5.01 173 12:36 16.06.2022
864 Clouds 33 1006 53 10000 4.81 173 11:51 16.06.2022
865 Clouds 33 1006 53 10000 4.81 173 11:51 16.06.2022
866 Clouds 33 1006 51 10000 4.87 176 10:55 16.06.2022
867 Clouds 33 1007 51 10000 5.11 182 10:20 16.06.2022
868 Clouds 32 1007 51 10000 5.3 185 09:21 16.06.2022
869 Clouds 32 1007 51 10000 5.3 185 08:30 16.06.2022
870 Rain 31 1009 55 10000 5.11 184 07:26 16.06.2022
871 Rain 30 1010 61 10000 4.69 183 04:50 16.06.2022
872 Rain 28 1009 74 10000 3.72 179 02:20 16.06.2022
873 Rain 27 1009 74 10000 3.72 179 01:35 16.06.2022
874 Rain 27 1008 76 10000 3.37 177 00:39 16.06.2022
875 Rain 27 1008 75 10000 3.65 179 23:33 15.06.2022
876 Clouds 28 1008 75 10000 3.81 174 22:35 15.06.2022
877 Clouds 28 1008 73 10000 3.93 174 21:21 15.06.2022
878 Clouds 28 1008 73 10000 3.93 174 20:38 15.06.2022
879 Clouds 28 1009 72 10000 4.36 180 20:19 15.06.2022
880 Clouds 28 1009 71 10000 4.42 184 19:20 15.06.2022
881 Clouds 29 1009 70 10000 4.48 175 17:56 15.06.2022
882 Clouds 29 1009 69 10000 4.51 174 16:55 15.06.2022
883 Clouds 29 1008 67 10000 4.71 180 15:36 15.06.2022
884 Clouds 31 1007 65 10000 4.82 172 13:44 15.06.2022
885 Rain 30 1006 60 10000 4.92 171 12:54 15.06.2022
886 Rain 30 1006 57 10000 4.71 170 11:52 15.06.2022
887 Rain 32 1006 54 10000 5.17 173 10:24 15.06.2022
888 Clouds 32 1006 54 10000 5.17 173 09:39 15.06.2022
889 Clouds 31 1007 52 10000 5.18 177 08:37 15.06.2022
890 Clouds 31 1008 57 10000 4.82 181 06:34 15.06.2022
891 Rain 30 1009 70 10000 4.19 179 03:59 15.06.2022
892 Clouds 28 1007 79 10000 3.9 186 01:54 15.06.2022
893 Clouds 27 1007 80 6858 3.96 180 00:50 15.06.2022
894 Clouds 28 1006 77 10000 4.3 174 23:39 14.06.2022
895 Clouds 28 1006 74 10000 4.43 176 23:18 14.06.2022
896 Clouds 28 1006 72 10000 4.44 176 22:18 14.06.2022
897 Clouds 28 1006 72 10000 4.44 176 21:33 14.06.2022
898 Clouds 28 1006 71 10000 4.34 178 20:48 14.06.2022
899 Clouds 29 1007 72 10000 4.56 179 20:28 14.06.2022
900 Clouds 29 1007 70 10000 4.68 171 18:56 14.06.2022
901 Clouds 29 1008 69 10000 4.86 170 17:40 14.06.2022
902 Clouds 29 1007 68 10000 5.04 169 16:43 14.06.2022
903 Clouds 30 1007 68 10000 5.17 168 15:50 14.06.2022
904 Clouds 30 1006 66 10000 5.1 171 15:22 14.06.2022
905 Clouds 30 1006 66 10000 5.1 171 14:32 14.06.2022
906 Clouds 31 1005 62 10000 5.28 171 13:41 14.06.2022
907 Clouds 31 1005 56 10000 5.29 168 12:42 14.06.2022
908 Rain 32 1005 52 10000 5.31 168 11:31 14.06.2022
909 Clouds 33 1005 50 10000 5.38 173 10:44 14.06.2022
910 Clouds 31 1005 50 10000 5.43 170 09:48 14.06.2022
911 Clouds 30 1006 52 10000 5.65 176 08:46 14.06.2022
912 Rain 32 1007 53 10000 5.29 177 07:31 14.06.2022
913 Rain 30 1008 61 10000 4.32 184 05:19 14.06.2022
914 Clouds 29 1008 70 10000 4.04 185 02:49 14.06.2022
915 Clouds 28 1006 77 10000 3.09 170 00:28 14.06.2022
916 Clouds 28 1005 77 10000 3.46 174 23:22 13.06.2022
917 Clouds 28 1006 76 10000 3.52 175 22:25 13.06.2022
918 Clouds 28 1006 76 10000 3.52 175 21:48 13.06.2022
919 Clouds 29 1007 69 10000 4.02 180 20:23 13.06.2022
920 Clouds 29 1006 73 10000 4.24 176 19:34 13.06.2022
921 Clouds 29 1007 67 10000 4.8 188 17:57 13.06.2022
922 Clouds 30 1007 67 10000 4.8 188 17:38 13.06.2022
923 Clouds 30 1007 65 10000 4.83 190 16:40 13.06.2022
924 Clouds 30 1007 64 10000 5.01 189 15:37 13.06.2022
925 Clouds 30 1005 63 10000 4.95 199 14:42 13.06.2022
926 Clouds 30 1005 59 10000 4.85 186 13:46 13.06.2022
927 Clouds 31 1004 51 10000 4.37 175 12:47 13.06.2022
928 Clouds 33 1004 42 10000 3.42 196 11:26 13.06.2022
929 Clouds 33 1004 40 10000 2.74 207 10:26 13.06.2022
930 Clouds 34 1004 40 10000 2.74 207 09:31 13.06.2022
931 Clouds 33 1007 43 10000 2.91 216 07:38 13.06.2022
932 Clouds 32 1008 50 10000 2.32 254 05:42 13.06.2022
933 Clouds 28 1009 69 10000 1.36 278 02:50 13.06.2022
934 Clouds 27 1008 73 10000 2.12 271 01:37 13.06.2022
935 Rain 27 1007 76 10000 1.32 215 00:18 13.06.2022
936 Rain 27 1007 74 10000 1.29 191 23:25 12.06.2022
937 Rain 27 1007 73 10000 0.86 172 22:22 12.06.2022
938 Clouds 27 1007 66 10000 1.34 265 21:22 12.06.2022
939 Clouds 29 1008 67 10000 1.64 275 20:29 12.06.2022
940 Clouds 29 1008 67 10000 1.64 275 19:30 12.06.2022
941 Clouds 29 1009 71 10000 2.79 259 17:53 12.06.2022
942 Clouds 30 1008 68 10000 3.81 238 16:24 12.06.2022
943 Clouds 31 1007 64 10000 4.74 188 14:58 12.06.2022
944 Clouds 32 1005 59 10000 5.37 185 14:23 12.06.2022
945 Clouds 32 1005 59 10000 5.37 185 13:55 12.06.2022
946 Clouds 33 1005 52 10000 4.35 169 12:40 12.06.2022
947 Clouds 34 1005 48 10000 4.68 173 11:39 12.06.2022
948 Clouds 34 1005 42 10000 4.15 191 10:22 12.06.2022
949 Clouds 34 1006 41 10000 3.05 205 08:55 12.06.2022
950 Clouds 34 1006 41 10000 3.05 205 08:36 12.06.2022
951 Clouds 35 1007 42 10000 1.95 223 07:32 12.06.2022
952 Clouds 31 1009 51 10000 2 265 04:45 12.06.2022
953 Rain 29 1009 62 10000 2.18 273 02:53 12.06.2022
954 Clouds 28 1008 70 10000 2.27 273 01:39 12.06.2022
955 Clouds 29 1007 74 10000 2.24 271 00:58 12.06.2022
956 Clouds 28 1007 75 10000 2.05 244 00:20 12.06.2022
957 Clouds 28 1007 75 10000 2.05 244 00:20 12.06.2022
958 Clouds 29 1007 75 10000 2.05 244 23:44 11.06.2022
959 Clouds 28 1006 75 10000 2.47 217 22:38 11.06.2022
960 Clouds 29 1006 74 10000 2.72 210 21:52 11.06.2022
961 Clouds 29 1007 73 10000 2.9 201 20:36 11.06.2022
962 Clouds 29 1007 73 10000 3.25 196 19:46 11.06.2022
963 Clouds 29 1008 72 10000 3.77 195 19:25 11.06.2022
964 Clouds 29 1008 72 10000 3.77 195 18:33 11.06.2022
965 Clouds 29 1008 69 10000 3.72 194 17:51 11.06.2022
966 Clouds 29 1008 64 10000 4.13 194 17:26 11.06.2022
967 Clouds 29 1008 64 10000 4.13 194 16:55 11.06.2022
968 Clouds 29 1008 61 10000 3.97 192 16:27 11.06.2022
969 Clouds 30 1008 61 10000 3.97 192 15:30 11.06.2022
970 Clouds 30 1006 58 10000 4.43 203 13:53 11.06.2022
971 Clouds 33 1005 54 10000 4.47 204 12:51 11.06.2022
972 Clouds 34 1004 47 10000 4.4 183 10:46 11.06.2022
973 Clouds 34 1005 44 10000 4.73 182 09:48 11.06.2022
974 Clouds 34 1005 42 10000 3.67 190 08:51 11.06.2022
975 Clouds 33 1006 42 10000 2.71 206 07:40 11.06.2022
976 Clouds 32 1008 46 10000 2.4 224 06:25 11.06.2022
977 Clouds 31 1009 56 10000 1.83 258 04:23 11.06.2022
978 Clouds 27 1008 70 10000 2.01 263 01:52 11.06.2022
979 Clouds 27 1007 74 10000 1.85 260 01:27 11.06.2022
980 Clouds 27 1006 73 10000 2.18 260 23:34 10.06.2022
981 Clouds 27 1006 73 10000 2.49 254 22:31 10.06.2022
982 Rain 28 1007 73 10000 2.21 247 21:50 10.06.2022
983 Clouds 28 1007 73 10000 1.38 244 20:40 10.06.2022
984 Clouds 28 1008 74 10000 0.58 233 20:21 10.06.2022
985 Clouds 28 1008 70 10000 2.15 256 20:21 10.06.2022
986 Rain 28 1008 69 10000 2.51 261 19:19 10.06.2022
987 Clouds 28 1008 69 10000 2.51 261 18:55 10.06.2022
988 Clouds 28 1009 69 10000 1.76 263 17:55 10.06.2022
989 Clouds 28 1009 69 10000 1.76 263 17:32 10.06.2022
990 Rain 28 1008 69 10000 0.88 250 16:47 10.06.2022
991 Clouds 27 1008 69 10000 1.85 279 15:40 10.06.2022
992 Clouds 29 1006 63 10000 2.8 241 14:34 10.06.2022
993 Clouds 31 1005 65 10000 4.6 186 13:23 10.06.2022
994 Clouds 34 1005 59 10000 5.51 185 11:59 10.06.2022
995 Clouds 35 1004 51 10000 4.23 184 10:59 10.06.2022
996 Clouds 35 1005 49 10000 4.28 177 10:24 10.06.2022
997 Clouds 34 1006 47 10000 4.86 181 08:58 10.06.2022
998 Clouds 34 1006 45 10000 4.18 196 07:50 10.06.2022
999 Clouds 33 1007 47 10000 3.67 212 06:47 10.06.2022
1000 Clouds 34 1008 49 10000 3.43 223 06:28 10.06.2022
1001 Clouds 32 1008 53 10000 3.55 225 04:55 10.06.2022
1002 Clouds 28 1008 63 10000 2.83 235 02:31 10.06.2022
1003 Clouds 27 1008 70 10000 2.65 244 01:37 10.06.2022
1004 Clouds 26 1006 73 10000 2.61 246 23:58 09.06.2022
1005 Clouds 27 1006 72 10000 2.95 246 22:30 09.06.2022
1006 Clouds 28 1006 71 10000 3.24 245 21:43 09.06.2022
1007 Clouds 28 1006 70 10000 3.29 244 21:24 09.06.2022
1008 Clouds 29 1006 70 10000 3.29 244 20:36 09.06.2022
1009 Clouds 28 1007 65 10000 3.75 250 19:43 09.06.2022
1010 Clouds 28 1007 69 10000 3.31 236 18:36 09.06.2022
1011 Clouds 28 1008 69 10000 4.6 201 17:28 09.06.2022
1012 Clouds 29 1007 67 10000 4.81 197 16:28 09.06.2022
1013 Clouds 30 1006 65 10000 4.98 196 14:45 09.06.2022
1014 Clouds 30 1005 62 10000 5.04 190 14:24 09.06.2022
1015 Clouds 31 1005 66 10000 5.05 188 13:30 09.06.2022
1016 Clouds 32 1005 60 10000 5.06 178 12:51 09.06.2022
1017 Clouds 33 1004 48 10000 3.67 169 11:20 09.06.2022
1018 Clouds 33 1005 47 10000 3.58 172 09:55 09.06.2022
1019 Clouds 33 1005 47 10000 3.58 172 09:55 09.06.2022
1020 Clouds 34 1005 47 10000 3.58 172 09:36 09.06.2022
1021 Clouds 33 1007 47 10000 4.19 194 08:27 09.06.2022
1022 Clouds 33 1007 48 10000 3.5 199 07:24 09.06.2022
1023 Clouds 30 1008 64 10000 2.07 230 03:29 09.06.2022
1024 Clouds 27 1007 73 10000 2.23 247 00:32 09.06.2022
1025 Clouds 27 1006 73 10000 1.85 229 22:59 08.06.2022
1026 Clouds 27 1006 73 10000 1.85 229 22:30 08.06.2022
1027 Clouds 27 1006 73 10000 1.83 222 21:59 08.06.2022
1028 Clouds 27 1006 73 10000 1.83 222 21:31 08.06.2022
1029 Clouds 27 1007 72 10000 1.98 207 20:24 08.06.2022
1030 Clouds 28 1007 73 10000 2.7 217 19:39 08.06.2022
1031 Clouds 28 1008 73 10000 2.89 209 18:48 08.06.2022
1032 Clouds 28 1008 71 10000 3.11 201 17:35 08.06.2022
1033 Clouds 28 1008 66 10000 3.68 186 15:52 08.06.2022
1034 Rain 30 1006 59 10000 3.52 180 14:18 08.06.2022
1035 Clouds 30 1005 54 10000 4.43 195 12:46 08.06.2022
1036 Rain 30 1004 50 10000 3.9 182 11:35 08.06.2022
1037 Rain 34 1004 48 10000 4.5 177 10:37 08.06.2022
1038 Clouds 33 1006 45 10000 2.89 196 09:28 08.06.2022
1039 Clouds 33 1006 45 10000 2.89 196 08:49 08.06.2022
1040 Clouds 32 1008 49 10000 3.53 217 06:43 08.06.2022
1041 Clouds 31 1009 54 10000 2.78 226 04:35 08.06.2022
1042 Rain 27 1007 69 10000 1.98 246 00:56 08.06.2022
1043 Clouds 27 1007 68 10000 1.66 234 23:31 07.06.2022
1044 Clouds 27 1007 68 10000 1.81 240 22:50 07.06.2022
1045 Clouds 27 1007 68 10000 1.81 240 22:31 07.06.2022
1046 Clouds 27 1007 67 10000 2.52 247 21:35 07.06.2022
1047 Clouds 28 1007 66 10000 2.55 247 20:59 07.06.2022
1048 Clouds 28 1007 66 10000 2.55 247 20:33 07.06.2022
1049 Rain 28 1008 66 10000 2.63 242 19:48 07.06.2022
1050 Clouds 28 1009 65 10000 3.28 243 18:24 07.06.2022
1051 Clouds 29 1009 65 10000 3.28 243 17:31 07.06.2022
1052 Clouds 29 1009 63 10000 3.98 247 16:43 07.06.2022
1053 Clouds 30 1009 62 10000 4.47 253 15:57 07.06.2022
1054 Clouds 30 1008 60 10000 4.67 259 15:27 07.06.2022
1055 Clouds 30 1008 60 10000 4.67 259 14:52 07.06.2022
1056 Clouds 30 1008 60 10000 4.67 259 14:34 07.06.2022
1057 Clouds 31 1006 58 10000 5.12 281 13:32 07.06.2022
1058 Clouds 32 1006 55 10000 5.03 283 12:52 07.06.2022
1059 Clouds 32 1005 52 10000 5.09 276 11:48 07.06.2022
1060 Clouds 33 1005 51 10000 4.47 254 10:27 07.06.2022
1061 Clouds 33 1006 51 10000 4.43 237 08:51 07.06.2022
1062 Clouds 33 1006 47 10000 4.23 249 07:34 07.06.2022
1063 Clouds 32 1008 51 10000 4.16 255 06:22 07.06.2022
1064 Clouds 29 1008 58 10000 3.57 241 03:32 07.06.2022
1065 Clouds 27 1007 69 10000 2.09 249 01:26 07.06.2022
1066 Clouds 27 1006 68 10000 2.36 244 23:46 06.06.2022
1067 Clouds 26 1006 67 10000 2.6 246 22:54 06.06.2022
1068 Clouds 26 1006 66 10000 2.69 250 22:28 06.06.2022
1069 Clouds 27 1006 65 10000 2.64 255 20:42 06.06.2022
1070 Clouds 27 1007 64 10000 2.64 267 19:24 06.06.2022
1071 Clouds 28 1007 64 10000 2.64 267 18:48 06.06.2022
1072 Clouds 28 1007 65 10000 2.71 256 17:57 06.06.2022
1073 Clouds 28 1007 65 10000 2.7 234 16:57 06.06.2022
1074 Rain 29 1007 64 10000 3.04 206 15:52 06.06.2022
1075 Rain 27 1006 68 10000 3.06 215 14:59 06.06.2022
1076 Rain 27 1006 68 10000 3.06 215 14:59 06.06.2022
1077 Rain 27 1005 70 10000 2.75 219 14:18 06.06.2022
1078 Clouds 28 1004 71 10000 4.1 193 13:20 06.06.2022
1079 Clouds 32 1004 71 10000 4.1 193 12:34 06.06.2022
1080 Clouds 33 1004 57 10000 5.03 221 11:47 06.06.2022
1081 Clouds 33 1004 51 10000 3.2 187 09:53 06.06.2022
1082 Clouds 34 1005 47 10000 3.64 188 09:18 06.06.2022
1083 Clouds 32 1005 47 10000 3.64 188 08:31 06.06.2022
1084 Clouds 32 1007 50 10000 3.22 212 07:20 06.06.2022
1085 Clouds 30 1008 55 10000 2.88 225 04:39 06.06.2022
1086 Clouds 27 1007 69 10000 2.09 238 01:57 06.06.2022
1087 Clouds 27 1006 73 10000 2.22 263 00:57 06.06.2022
1088 Clouds 27 1006 73 10000 2.22 263 00:34 06.06.2022
1089 Clouds 27 1006 71 10000 2.72 262 23:20 05.06.2022
1090 Clouds 26 1006 70 10000 2.77 261 22:21 05.06.2022
1091 Rain 26 1007 70 10000 3.06 258 20:24 05.06.2022
1092 Clouds 26 1007 70 10000 3.05 264 19:26 05.06.2022
1093 Clouds 27 1008 70 10000 2.95 250 18:19 05.06.2022
1094 Clouds 28 1008 70 10000 2.95 250 17:39 05.06.2022
1095 Clouds 29 1008 70 10000 2.59 227 17:20 05.06.2022
1096 Clouds 29 1008 70 10000 2.59 227 16:47 05.06.2022
1097 Clouds 30 1006 66 10000 2.61 187 15:28 05.06.2022
1098 Rain 30 1006 62 10000 2.55 177 14:21 05.06.2022
1099 Clouds 32 1004 59 10000 3.96 185 11:59 05.06.2022
1100 Clouds 33 1005 55 10000 4.71 191 10:45 05.06.2022
1101 Clouds 33 1005 51 10000 4.13 193 10:24 05.06.2022
1102 Clouds 34 1005 51 10000 4.13 193 09:42 05.06.2022
1103 Clouds 33 1007 53 10000 3.52 210 08:25 05.06.2022
1104 Clouds 32 1008 56 10000 2.96 233 06:25 05.06.2022
1105 Clouds 31 1009 59 10000 3.16 236 05:19 05.06.2022
1106 Clouds 28 1008 71 10000 2.75 223 02:47 05.06.2022
1107 Rain 28 1007 81 10000 2.24 225 01:24 05.06.2022
1108 Clouds 28 1006 80 10000 2.22 238 22:51 04.06.2022
1109 Clouds 28 1006 80 10000 2.47 246 21:30 04.06.2022
1110 Clouds 28 1007 79 10000 2.47 242 19:36 04.06.2022
1111 Clouds 29 1009 80 10000 2.25 215 17:21 04.06.2022
1112 Rain 29 1008 80 10000 2.33 179 16:20 04.06.2022
1113 Rain 30 1008 80 10000 2.33 179 15:39 04.06.2022
1114 Rain 30 1007 79 9111 4.53 180 13:59 04.06.2022
1115 Clouds 31 1005 70 5760 5.52 181 11:41 04.06.2022
1116 Clouds 31 1005 64 10000 5.22 179 10:54 04.06.2022
1117 Clouds 32 1005 63 10000 5.03 180 09:56 04.06.2022
1118 Clouds 32 1005 63 10000 5.03 180 09:38 04.06.2022
1119 Clouds 32 1006 63 10000 4.98 183 08:38 04.06.2022
1120 Clouds 30 1008 67 10000 3.84 182 06:32 04.06.2022
1121 Clouds 29 1009 76 10000 2.98 194 03:57 04.06.2022
1122 Rain 27 1007 83 10000 2.26 244 00:22 04.06.2022
1123 Rain 27 1007 82 10000 2.52 240 22:57 03.06.2022
1124 Rain 26 1006 82 10000 2.38 230 21:53 03.06.2022
1125 Rain 27 1007 81 10000 2.31 226 20:40 03.06.2022
1126 Clouds 27 1007 80 10000 2.59 240 19:37 03.06.2022
1127 Rain 27 1008 75 10000 4.06 174 16:59 03.06.2022
1128 Rain 29 1007 74 10000 4.19 174 15:57 03.06.2022
1129 Clouds 30 1006 73 10000 4.34 170 14:42 03.06.2022
1130 Clouds 31 1004 63 10000 5.5 174 12:21 03.06.2022
1131 Rain 32 1005 59 10000 4.36 175 09:57 03.06.2022
1132 Rain 32 1005 62 10000 4.7 180 09:29 03.06.2022
1133 Clouds 32 1006 67 10000 4.63 182 07:47 03.06.2022
1134 Clouds 32 1007 67 10000 4.15 178 07:19 03.06.2022
1135 Clouds 31 1007 67 10000 3.35 191 06:29 03.06.2022
1136 Rain 29 1008 74 10000 2.47 202 03:52 03.06.2022
1137 Clouds 28 1005 82 10000 2.6 210 23:53 02.06.2022
1138 Clouds 29 1005 82 10000 3.16 199 22:33 02.06.2022
1139 Clouds 29 1006 79 10000 3.57 171 20:57 02.06.2022
1140 Clouds 29 1006 76 10000 3.57 174 19:58 02.06.2022
1141 Clouds 29 1006 76 10000 3.57 174 19:39 02.06.2022
1142 Clouds 29 1007 75 10000 4.62 176 18:51 02.06.2022
1143 Clouds 29 1007 72 10000 4.93 171 16:30 02.06.2022
1144 Rain 29 1006 71 10000 5.2 172 15:47 02.06.2022
1145 Clouds 31 1004 69 10000 6.4 173 13:32 02.06.2022
1146 Rain 31 1004 64 10000 6.51 175 12:51 02.06.2022
1147 Clouds 32 1003 54 10000 6.1 171 10:48 02.06.2022
1148 Clouds 33 1003 50 10000 5.77 175 09:45 02.06.2022
1149 Clouds 33 1004 46 10000 4.18 179 09:26 02.06.2022
1150 Clouds 32 1005 48 10000 2.99 182 08:23 02.06.2022
1151 Clouds 33 1007 59 10000 2.08 168 06:21 02.06.2022
1152 Clouds 31 1007 66 10000 1.81 163 03:51 02.06.2022
1153 Clouds 28 1006 76 10000 1.49 274 01:33 02.06.2022
1154 Clouds 28 1005 80 10000 2.38 205 23:22 01.06.2022
1155 Clouds 28 1005 78 10000 3.3 197 22:18 01.06.2022
1156 Clouds 28 1005 75 10000 3.61 183 21:24 01.06.2022
1157 Clouds 29 1005 75 10000 3.61 183 20:39 01.06.2022
1158 Clouds 29 1005 73 10000 4.1 184 19:52 01.06.2022
1159 Rain 29 1006 72 10000 4.38 184 18:41 01.06.2022
1160 Clouds 30 1006 69 10000 5.37 177 16:58 01.06.2022
1161 Rain 30 1006 67 10000 5.33 173 15:45 01.06.2022
1162 Clouds 30 1005 64 10000 4.98 171 14:50 01.06.2022
1163 Clouds 32 1003 55 10000 4.5 175 13:26 01.06.2022
1164 Rain 35 1003 45 10000 4.18 187 11:23 01.06.2022
1165 Clouds 34 1003 44 10000 4.27 197 09:30 01.06.2022
1166 Clouds 33 1005 44 10000 2.74 225 08:19 01.06.2022
1167 Clouds 33 1006 45 10000 2.15 243 07:20 01.06.2022
1168 Clouds 31 1008 53 10000 1.46 251 04:41 01.06.2022
1169 Clouds 27 1005 78 10000 1.67 269 23:50 31.05.2022
1170 Clouds 27 1005 79 10000 1.83 271 22:41 31.05.2022
1171 Clouds 27 1005 79 10000 1.49 252 22:22 31.05.2022
1172 Clouds 27 1005 79 10000 1.49 252 21:39 31.05.2022
1173 Clouds 28 1005 79 10000 1.58 229 20:44 31.05.2022
1174 Clouds 28 1005 79 10000 1.87 204 19:31 31.05.2022
1175 Clouds 29 1006 75 10000 3.2 197 18:26 31.05.2022
1176 Clouds 28 1006 75 10000 3.2 197 17:37 31.05.2022
1177 Clouds 28 1005 67 10000 3.59 201 15:55 31.05.2022
1178 Clouds 29 1005 67 10000 3.59 201 15:34 31.05.2022
1179 Clouds 28 1003 68 10000 4.34 191 12:56 31.05.2022
1180 Rain 27 1002 64 10000 4.91 183 12:18 31.05.2022
1181 Clouds 32 1002 54 10000 4.14 191 10:25 31.05.2022
1182 Clouds 34 1004 47 10000 2.31 260 07:46 31.05.2022
1183 Clouds 33 1006 55 10000 2.49 267 06:19 31.05.2022
1184 Clouds 31 1006 67 10000 2.42 266 03:49 31.05.2022
1185 Clouds 28 1004 80 10000 1.18 269 23:45 30.05.2022
1186 Clouds 28 1004 80 10000 1.7 260 23:24 30.05.2022
1187 Clouds 29 1004 80 10000 1.7 260 22:37 30.05.2022
1188 Clouds 29 1004 80 10000 1.8 264 21:40 30.05.2022
1189 Clouds 29 1004 80 10000 2.91 267 20:51 30.05.2022
1190 Clouds 29 1005 79 10000 2.93 271 19:43 30.05.2022
1191 Clouds 29 1006 76 10000 3.48 224 17:53 30.05.2022
1192 Clouds 29 1006 74 6101 3.91 191 17:21 30.05.2022
1193 Clouds 30 1006 70 10000 3.8 183 15:54 30.05.2022
1194 Clouds 31 1003 61 10000 4.25 200 13:26 30.05.2022
1195 Clouds 33 1003 56 10000 4.64 211 11:40 30.05.2022
1196 Clouds 33 1003 56 10000 5.33 194 09:45 30.05.2022
1197 Clouds 33 1004 43 10000 3.44 230 07:34 30.05.2022
1198 Clouds 32 1006 48 10000 3.09 267 06:22 30.05.2022
1199 Clouds 31 1006 53 10000 3.07 264 04:46 30.05.2022
1200 Clouds 28 1005 73 10000 1.89 239 00:18 30.05.2022
1201 Clouds 28 1004 72 10000 2.02 248 22:40 29.05.2022
1202 Clouds 28 1004 73 10000 2.33 246 21:44 29.05.2022
1203 Clouds 29 1005 71 10000 2.98 260 20:21 29.05.2022
1204 Clouds 29 1006 71 10000 3.15 260 19:28 29.05.2022
1205 Clouds 29 1006 71 10000 3.22 253 17:56 29.05.2022
1206 Clouds 30 1006 72 10000 1.71 278 16:22 29.05.2022
1207 Clouds 30 1006 72 10000 1.71 278 15:43 29.05.2022
1208 Clouds 30 1005 70 10000 1.02 308 14:54 29.05.2022
1209 Clouds 33 1004 60 10000 2.42 180 12:33 29.05.2022
1210 Clouds 34 1003 60 10000 5.74 185 11:19 29.05.2022
1211 Clouds 34 1002 44 10000 4.63 213 09:54 29.05.2022
1212 Clouds 34 1004 41 10000 4.42 266 07:55 29.05.2022
1213 Clouds 32 1007 52 10000 5.05 261 04:58 29.05.2022
1214 Clouds 31 1007 52 10000 5.05 261 04:33 29.05.2022
1215 Clouds 27 1005 73 10000 2.61 236 01:23 29.05.2022
1216 Clouds 27 1005 72 10000 2.96 239 23:47 28.05.2022
1217 Clouds 27 1005 72 10000 3.08 240 23:19 28.05.2022
1218 Clouds 28 1005 72 10000 3.43 240 21:53 28.05.2022
1219 Rain 27 1005 71 10000 3.93 240 20:53 28.05.2022
1220 Rain 27 1006 69 10000 4.64 237 19:20 28.05.2022
1221 Rain 28 1006 67 10000 4.4 235 18:23 28.05.2022
1222 Rain 29 1006 68 10000 4.21 225 17:32 28.05.2022
1223 Clouds 28 1005 70 10000 4.25 212 15:49 28.05.2022
1224 Clouds 28 1004 71 10000 4.15 194 15:20 28.05.2022
1225 Rain 30 1003 67 10000 3.23 188 13:36 28.05.2022
1226 Rain 29 1002 63 10000 6.59 191 12:42 28.05.2022
1227 Clouds 33 1001 55 10000 5.86 176 11:37 28.05.2022
1228 Rain 33 1001 48 10000 4.39 186 10:38 28.05.2022
1229 Clouds 35 1002 46 10000 3.68 217 09:54 28.05.2022
1230 Clouds 34 1004 48 10000 2.98 239 08:21 28.05.2022
1231 Clouds 33 1005 51 10000 2.89 239 06:33 28.05.2022
1232 Clouds 32 1006 57 10000 3.3 246 04:43 28.05.2022
1233 Clouds 28 1005 70 10000 3.28 241 02:18 28.05.2022
1234 Clouds 28 1004 72 10000 3.13 238 23:55 27.05.2022
1235 Clouds 28 1004 71 10000 3.4 238 22:38 27.05.2022
1236 Clouds 28 1004 71 10000 3.4 238 22:38 27.05.2022
1237 Clouds 29 1004 69 10000 3.56 238 21:22 27.05.2022
1238 Clouds 29 1004 69 10000 3.56 238 20:43 27.05.2022
1239 Clouds 29 1005 68 10000 3.67 237 20:18 27.05.2022
1240 Clouds 29 1004 69 10000 4.05 238 19:36 27.05.2022
1241 Clouds 29 1005 68 10000 4.27 234 19:18 27.05.2022
1242 Clouds 30 1005 66 10000 3.99 247 16:43 27.05.2022
1243 Clouds 30 1005 64 10000 4.04 265 15:47 27.05.2022
1244 Clouds 30 1004 63 10000 3.86 278 14:46 27.05.2022
1245 Clouds 30 1004 63 10000 3.63 259 13:36 27.05.2022
1246 Rain 31 1003 58 10000 5.03 276 11:48 27.05.2022
1247 Clouds 31 1003 55 10000 5.62 280 11:26 27.05.2022
1248 Rain 33 1003 55 10000 5.62 280 10:35 27.05.2022
1249 Clouds 34 1003 52 10000 6.53 285 09:42 27.05.2022
1250 Clouds 33 1004 48 10000 6.9 287 08:48 27.05.2022
1251 Clouds 32 1006 58 10000 5.78 277 06:58 27.05.2022
1252 Clouds 30 1007 64 10000 4.32 254 02:57 27.05.2022
1253 Clouds 28 1005 75 10000 3.5 250 00:54 27.05.2022
1254 Clouds 28 1005 73 10000 3.58 248 22:53 26.05.2022
1255 Clouds 29 1005 71 10000 3.4 245 21:45 26.05.2022
1256 Clouds 29 1005 70 10000 3.3 244 20:59 26.05.2022
1257 Clouds 29 1005 68 10000 3.46 251 19:30 26.05.2022
1258 Clouds 30 1007 67 10000 3.82 254 18:24 26.05.2022
1259 Rain 31 1006 65 10000 3.85 254 16:59 26.05.2022
1260 Rain 31 1006 64 10000 4.15 261 15:52 26.05.2022
1261 Clouds 31 1005 63 10000 4.6 252 15:18 26.05.2022
1262 Rain 32 1004 62 10000 4.38 249 13:45 26.05.2022
1263 Clouds 34 1004 52 10000 5.15 266 11:38 26.05.2022
1264 Clouds 34 1004 49 10000 5.28 277 10:37 26.05.2022
1265 Clouds 34 1004 46 10000 5.12 271 09:37 26.05.2022
1266 Clouds 34 1005 47 10000 4.91 269 08:38 26.05.2022
1267 Clouds 31 1008 60 10000 4.3 241 05:24 26.05.2022
1268 Clouds 27 1007 78 10000 2.48 234 01:24 26.05.2022
1269 Clouds 26 1007 78 10000 2.4 234 23:40 25.05.2022
1270 Clouds 27 1006 77 10000 2.61 247 22:48 25.05.2022
1271 Clouds 26 1007 76 10000 2.87 246 21:37 25.05.2022
1272 Rain 26 1007 74 10000 3.59 249 20:39 25.05.2022
1273 Rain 26 1007 73 10000 3.71 248 19:31 25.05.2022
1274 Rain 27 1009 71 10000 4.14 250 18:20 25.05.2022
1275 Clouds 27 1009 70 10000 4.02 244 16:41 25.05.2022
1276 Clouds 29 1008 68 10000 4.84 239 15:58 25.05.2022
1277 Clouds 30 1007 68 10000 3.92 216 14:56 25.05.2022
1278 Clouds 31 1007 68 10000 3.92 216 14:33 25.05.2022
1279 Clouds 32 1006 70 10000 3.74 183 13:58 25.05.2022
1280 Clouds 32 1006 68 10000 4.02 170 12:48 25.05.2022
1281 Clouds 32 1006 63 10000 3.87 184 10:58 25.05.2022
1282 Clouds 33 1006 58 10000 3.13 206 10:20 25.05.2022
1283 Clouds 33 1007 55 10000 3.54 224 08:41 25.05.2022
1284 Clouds 33 1009 55 10000 3.79 237 07:23 25.05.2022
1285 Rain 32 1010 61 10000 4.01 227 05:18 25.05.2022
1286 Clouds 28 1009 77 10000 1.83 236 00:28 25.05.2022
1287 Clouds 28 1009 77 10000 1.83 236 23:47 24.05.2022
1288 Clouds 28 1009 76 10000 1.62 246 22:39 24.05.2022
1289 Clouds 28 1009 77 10000 2.03 265 21:43 24.05.2022
1290 Clouds 28 1009 74 10000 2.1 275 21:21 24.05.2022
1291 Clouds 29 1009 74 10000 2.1 275 20:30 24.05.2022
1292 Clouds 28 1010 74 10000 1.95 251 18:56 24.05.2022
1293 Clouds 29 1010 73 10000 2 245 16:58 24.05.2022
1294 Clouds 29 1009 72 10000 2.28 253 16:28 24.05.2022
1295 Clouds 29 1009 72 10000 2.68 241 15:18 24.05.2022
1296 Clouds 30 1008 75 10000 2.74 238 14:25 24.05.2022
1297 Clouds 30 1007 64 10000 6.34 236 13:18 24.05.2022
1298 Clouds 31 1006 64 10000 4.75 226 11:49 24.05.2022
1299 Clouds 32 1006 59 10000 4.68 211 09:47 24.05.2022
1300 Clouds 31 1006 63 10000 4.4 215 08:51 24.05.2022
1301 Clouds 31 1008 68 10000 4.81 213 06:58 24.05.2022
1302 Clouds 31 1008 60 10000 4.51 213 04:59 24.05.2022
1303 Clouds 30 1007 65 10000 4.04 204 02:42 24.05.2022
1304 Clouds 29 1007 75 10000 2.11 222 01:43 24.05.2022
1305 Clouds 28 1005 76 10000 2.15 208 23:43 23.05.2022
1306 Clouds 29 1005 76 10000 2.54 209 22:22 23.05.2022
1307 Clouds 29 1005 76 10000 2.54 209 21:41 23.05.2022
1308 Clouds 30 1005 76 10000 2.89 215 20:45 23.05.2022
1309 Clouds 30 1006 74 10000 2.8 196 19:41 23.05.2022
1310 Clouds 30 1006 72 10000 2.83 194 19:00 23.05.2022
1311 Clouds 30 1006 72 10000 2.83 194 18:37 23.05.2022
1312 Clouds 30 1007 70 10000 2.61 204 17:55 23.05.2022
1313 Clouds 30 1006 66 10000 3.82 224 15:47 23.05.2022
1314 Clouds 30 1004 58 10000 3.93 223 13:44 23.05.2022
1315 Clouds 33 1002 51 10000 4.87 255 11:36 23.05.2022
1316 Clouds 33 1002 50 10000 6.09 255 10:43 23.05.2022
1317 Clouds 33 1003 52 10000 7.61 252 09:40 23.05.2022
1318 Clouds 33 1004 55 10000 7.79 249 08:38 23.05.2022
1319 Clouds 32 1005 55 10000 6.29 242 06:47 23.05.2022
1320 Clouds 32 1005 59 10000 6.27 240 06:23 23.05.2022
1321 Clouds 28 1005 76 10000 4.4 230 02:36 23.05.2022
1322 Clouds 27 1004 83 10000 4.05 209 01:48 23.05.2022
1323 Clouds 26 1003 86 10000 3.12 211 01:19 23.05.2022
1324 Clouds 27 1002 85 10000 2.53 213 22:47 22.05.2022
1325 Clouds 27 1002 86 10000 2.03 237 22:18 22.05.2022
1326 Clouds 27 1002 86 10000 2.03 237 21:49 22.05.2022
1327 Clouds 28 1003 88 10000 2.05 236 20:42 22.05.2022
1328 Clouds 28 1003 89 10000 2.9 241 20:20 22.05.2022
1329 Clouds 27 1004 86 10000 2.74 216 18:58 22.05.2022
1330 Clouds 27 1004 86 10000 2.74 216 18:31 22.05.2022
1331 Clouds 27 1004 86 10000 3.27 212 17:55 22.05.2022
1332 Clouds 27 1004 87 10000 2.96 218 16:51 22.05.2022
1333 Clouds 27 1003 86 10000 3.55 211 15:24 22.05.2022
1334 Clouds 27 1003 86 10000 3.55 211 14:36 22.05.2022
1335 Rain 28 1002 85 10000 3.82 213 12:54 22.05.2022
1336 Clouds 28 1002 87 10000 5.59 220 12:24 22.05.2022
1337 Rain 31 1002 88 10000 6.37 225 10:38 22.05.2022
1338 Rain 29 1003 85 10000 6.5 224 09:27 22.05.2022
1339 Rain 28 1003 83 10000 5.37 221 07:44 22.05.2022
1340 Rain 27 1004 83 10000 3.55 236 06:41 22.05.2022
1341 Rain 29 1004 85 10000 1.49 264 03:53 22.05.2022
1342 Rain 27 1003 87 10000 2.91 233 00:49 22.05.2022
1343 Clouds 27 1003 87 10000 3.38 230 23:56 21.05.2022
1344 Clouds 27 1003 87 10000 3.38 226 23:27 21.05.2022
1345 Clouds 27 1003 86 10000 2.53 235 21:59 21.05.2022
1346 Clouds 27 1003 86 10000 2.53 235 21:34 21.05.2022
1347 Clouds 27 1003 87 10000 2.3 231 20:34 21.05.2022
1348 Rain 27 1004 87 10000 2.91 253 19:53 21.05.2022
1349 Clouds 27 1005 90 10000 4.27 230 18:54 21.05.2022
1350 Rain 27 1006 89 10000 5.23 239 16:57 21.05.2022
1351 Rain 27 1005 89 10000 4.28 223 14:49 21.05.2022
1352 Rain 28 1004 87 10000 2.94 241 13:55 21.05.2022
1353 Rain 28 1004 88 10000 4.84 247 13:25 21.05.2022
1354 Rain 30 1004 88 10000 4.84 247 12:39 21.05.2022
1355 Clouds 30 1003 77 10000 6.14 242 11:25 21.05.2022
1356 Clouds 30 1003 76 10000 4.18 230 10:21 21.05.2022
1357 Clouds 31 1004 75 10000 4.74 234 08:59 21.05.2022
1358 Clouds 31 1004 75 10000 4.74 234 08:38 21.05.2022
1359 Rain 27 1006 83 10000 5.85 227 06:20 21.05.2022
1360 Rain 28 1005 75 10000 3.61 216 01:41 21.05.2022
1361 Rain 28 1004 77 10000 3.05 211 23:32 20.05.2022
1362 Clouds 28 1004 78 10000 3.25 218 22:30 20.05.2022
1363 Clouds 28 1004 78 10000 3.39 215 21:56 20.05.2022
1364 Rain 28 1005 76 10000 3.1 217 21:19 20.05.2022
1365 Rain 29 1005 76 10000 3.1 217 20:45 20.05.2022
1366 Rain 29 1006 77 10000 2.66 216 19:45 20.05.2022
1367 Rain 29 1007 77 10000 2.79 225 18:49 20.05.2022
1368 Clouds 29 1008 76 10000 3.44 233 17:48 20.05.2022
1369 Clouds 29 1007 77 10000 3.79 235 16:22 20.05.2022
1370 Clouds 29 1007 77 10000 3.79 235 15:53 20.05.2022
1371 Clouds 29 1006 77 10000 3.98 224 14:32 20.05.2022
1372 Clouds 30 1006 77 10000 4.66 228 13:59 20.05.2022
1373 Clouds 31 1005 75 10000 4.18 247 11:51 20.05.2022
1374 Clouds 31 1005 70 10000 4.36 239 10:34 20.05.2022
1375 Clouds 32 1006 67 9291 5.36 216 08:59 20.05.2022
1376 Clouds 32 1006 69 9635 4.91 213 07:43 20.05.2022
1377 Clouds 31 1007 70 7807 4.86 204 06:40 20.05.2022
1378 Clouds 31 1008 69 7485 4.6 199 05:39 20.05.2022
1379 Clouds 28 1007 86 10000 1.91 167 01:29 20.05.2022
1380 Clouds 29 1006 86 10000 1.8 164 23:31 19.05.2022
1381 Rain 29 1006 86 10000 1.61 184 22:34 19.05.2022
1382 Rain 29 1007 86 10000 1.43 240 21:49 19.05.2022
1383 Rain 29 1007 85 10000 2.19 244 21:23 19.05.2022
1384 Rain 29 1007 85 10000 2.19 244 20:43 19.05.2022
1385 Rain 29 1008 83 10000 3.09 230 19:54 19.05.2022
1386 Rain 29 1009 80 10000 4.17 213 18:59 19.05.2022
1387 Clouds 30 1009 80 10000 2.91 190 17:35 19.05.2022
1388 Clouds 30 1009 82 10000 3.19 206 15:34 19.05.2022
1389 Clouds 30 1008 82 10000 3.3 199 14:35 19.05.2022
1390 Clouds 30 1008 83 10000 3.49 187 13:59 19.05.2022
1391 Clouds 32 1007 82 10000 3.07 171 11:52 19.05.2022
1392 Clouds 32 1008 81 10000 3.08 178 10:25 19.05.2022
1393 Clouds 33 1008 83 8229 2.89 183 08:33 19.05.2022
1394 Clouds 32 1010 89 10000 2.76 183 06:57 19.05.2022
1395 Clouds 27 1011 91 7040 2.41 204 02:59 19.05.2022
1396 Clouds 26 1009 92 10000 2.6 186 00:56 19.05.2022
1397 Rain 26 1009 93 10000 2.96 190 23:21 18.05.2022
1398 Clouds 26 1009 93 10000 2.96 190 22:41 18.05.2022
1399 Rain 26 1009 91 8532 2.97 195 21:33 18.05.2022
1400 Rain 26 1009 92 9546 3.55 207 20:55 18.05.2022
1401 Rain 26 1010 92 8644 3.58 213 20:19 18.05.2022
1402 Rain 27 1010 89 10000 2.27 260 18:46 18.05.2022
1403 Rain 27 1011 89 10000 2.14 256 17:41 18.05.2022
1404 Rain 27 1011 91 10000 3.1 267 17:23 18.05.2022
1405 Rain 28 1011 91 10000 3.1 267 16:36 18.05.2022
1406 Rain 27 1010 92 10000 4.29 286 15:42 18.05.2022
1407 Rain 28 1010 93 10000 5.54 283 15:19 18.05.2022
1408 Rain 29 1008 77 7371 2.01 195 13:53 18.05.2022
1409 Clouds 30 1008 69 10000 1.76 194 12:53 18.05.2022
1410 Rain 29 1007 62 10000 0.56 188 11:47 18.05.2022
1411 Rain 28 1007 62 10000 0.34 287 11:29 18.05.2022
1412 Clouds 28 1007 65 10000 0.35 220 09:59 18.05.2022
1413 Rain 30 1009 76 10000 0.67 218 07:56 18.05.2022
1414 Clouds 30 1010 82 10000 0.65 139 06:50 18.05.2022
1415 Clouds 26 1010 85 10000 1.78 51 02:44 18.05.2022
1416 Clouds 26 1009 84 10000 0.95 61 00:31 18.05.2022
1417 Rain 26 1007 82 10000 0.69 324 22:57 17.05.2022
1418 Clouds 26 1008 80 10000 1.01 250 21:21 17.05.2022
1419 Rain 26 1008 80 10000 1.01 250 20:30 17.05.2022
1420 Rain 26 1009 77 10000 1.67 114 19:29 17.05.2022
1421 Rain 26 1009 75 10000 1.63 127 17:53 17.05.2022
1422 Rain 26 1009 73 10000 1.38 137 17:22 17.05.2022
1423 Rain 26 1009 73 10000 1.38 137 16:34 17.05.2022
1424 Rain 27 1008 71 10000 1.59 153 15:33 17.05.2022
1425 Rain 28 1007 69 10000 1.62 182 14:31 17.05.2022
1426 Rain 28 1006 68 10000 1.33 160 13:54 17.05.2022
1427 Rain 26 1005 66 10000 1.91 169 12:23 17.05.2022
1428 Clouds 33 1006 66 10000 1.61 113 09:53 17.05.2022
1429 Clouds 33 1007 69 10000 1.08 107 08:44 17.05.2022
1430 Clouds 32 1009 74 10000 1.8 118 07:18 17.05.2022
1431 Clouds 28 1010 86 10000 2.73 97 04:28 17.05.2022
1432 Rain 26 1008 81 10000 2.57 100 00:47 17.05.2022
1433 Rain 26 1007 77 8409 2.37 123 22:44 16.05.2022
1434 Rain 27 1007 71 10000 2.89 127 22:18 16.05.2022
1435 Clouds 27 1007 70 10000 3.21 118 20:50 16.05.2022
1436 Rain 27 1008 76 10000 3.6 118 19:59 16.05.2022
1437 Rain 28 1008 76 10000 3.95 121 18:32 16.05.2022
1438 Rain 29 1008 67 10000 3.87 164 16:37 16.05.2022
1439 Rain 30 1006 67 10000 3.65 174 14:46 16.05.2022
1440 Rain 27 1005 77 10000 7.05 205 13:26 16.05.2022
1441 Rain 33 1005 63 10000 5.91 221 11:34 16.05.2022
1442 Rain 34 1005 54 10000 5 222 10:24 16.05.2022
1443 Clouds 34 1006 45 10000 3.28 244 07:34 16.05.2022
1444 Clouds 33 1008 48 10000 3.02 260 05:40 16.05.2022
1445 Clouds 28 1007 67 10000 2.42 269 23:59 15.05.2022
1446 Rain 28 1006 66 10000 2.74 271 22:36 15.05.2022
1447 Rain 29 1006 67 10000 2.52 261 21:48 15.05.2022
1448 Clouds 29 1007 69 10000 1.86 225 21:21 15.05.2022
1449 Rain 30 1006 71 10000 1.67 200 20:34 15.05.2022
1450 Rain 29 1008 69 10000 3.64 177 17:56 15.05.2022
1451 Rain 29 1008 67 10000 3.78 176 16:36 15.05.2022
1452 Rain 30 1006 62 10000 4.94 177 14:18 15.05.2022
1453 Rain 31 1006 65 10000 5.79 179 13:35 15.05.2022
1454 Rain 32 1005 51 10000 4.4 162 11:55 15.05.2022
1455 Clouds 35 1005 50 10000 4.81 172 10:35 15.05.2022
1456 Clouds 35 1006 46 10000 5.3 191 08:52 15.05.2022
1457 Clouds 34 1008 50 10000 4.24 188 06:59 15.05.2022
1458 Rain 33 1008 50 10000 4.24 188 06:39 15.05.2022
1459 Rain 28 1008 77 10000 1.83 158 02:24 15.05.2022
1460 Rain 29 1007 81 10000 2.02 171 23:56 14.05.2022
1461 Clouds 29 1007 81 10000 2.02 171 23:34 14.05.2022
1462 Clouds 30 1006 80 10000 2.74 175 21:45 14.05.2022
1463 Clouds 30 1007 80 10000 3.05 178 21:19 14.05.2022
1464 Rain 30 1008 78 10000 3.73 174 19:54 14.05.2022
1465 Rain 30 1008 76 10000 3.88 176 19:20 14.05.2022
1466 Rain 30 1008 76 10000 3.88 176 18:47 14.05.2022
1467 Rain 30 1009 73 10000 3.85 180 17:36 14.05.2022
1468 Clouds 31 1008 67 10000 4.07 180 15:55 14.05.2022
1469 Clouds 32 1007 63 10000 4.23 179 14:37 14.05.2022
1470 Clouds 34 1005 57 10000 4.18 172 12:51 14.05.2022
1471 Clouds 34 1005 52 10000 3.95 178 11:37 14.05.2022
1472 Clouds 34 1005 47 10000 2.82 202 10:24 14.05.2022
1473 Clouds 37 1007 100 10000 2.82 202 09:56 14.05.2022
1474 Clouds 36 1008 100 10000 2.67 225 08:59 14.05.2022
1475 Clouds 34 1008 54 10000 3.28 252 07:21 14.05.2022
1476 Clouds 31 1009 61 10000 2.65 249 03:45 14.05.2022
1477 Clouds 29 1006 79 10000 1.88 288 00:21 14.05.2022
1478 Clouds 29 1005 80 10000 2.37 272 23:23 13.05.2022
1479 Clouds 29 1005 80 10000 2.37 272 22:52 13.05.2022
1480 Clouds 30 1005 80 10000 2 276 22:20 13.05.2022
1481 Clouds 30 1005 78 10000 1.84 265 20:56 13.05.2022
1482 Rain 30 1006 77 10000 1.07 256 20:28 13.05.2022
1483 Rain 30 1006 77 10000 1.07 256 19:43 13.05.2022
1484 Rain 30 1007 76 10000 0.26 242 18:44 13.05.2022
1485 Rain 30 1007 75 10000 1.03 341 17:29 13.05.2022
1486 Rain 30 1007 75 10000 1.47 343 16:23 13.05.2022
1487 Clouds 31 1007 75 10000 1.47 343 15:43 13.05.2022
1488 Clouds 32 1005 75 10000 2.84 279 14:24 13.05.2022
1489 Clouds 33 1005 71 10000 5.47 238 12:46 13.05.2022
1490 Clouds 33 1004 62 10000 5.48 221 11:36 13.05.2022
1491 Clouds 35 1003 49 10000 3.87 178 09:43 13.05.2022
1492 Clouds 35 1004 48 10000 3.16 191 08:51 13.05.2022
1493 Clouds 34 1005 50 10000 2.94 213 07:49 13.05.2022
1494 Clouds 34 1007 53 10000 2.71 215 06:44 13.05.2022
1495 Clouds 32 1008 62 10000 2.22 226 04:48 13.05.2022
1496 Clouds 28 1006 82 10000 2.15 254 00:42 13.05.2022
1497 Clouds 29 1005 82 10000 1.45 240 22:47 12.05.2022
1498 Rain 29 1005 82 10000 1.42 200 22:29 12.05.2022
1499 Rain 29 1006 82 10000 1.65 175 20:41 12.05.2022
1500 Rain 29 1007 82 10000 0.46 162 19:24 12.05.2022
1501 Clouds 29 1008 84 10000 1.32 76 18:19 12.05.2022
1502 Rain 28 1008 90 10000 3.45 61 16:34 12.05.2022
1503 Rain 29 1005 89 3539 1.76 287 14:51 12.05.2022
1504 Rain 31 1005 75 5328 4.67 218 13:47 12.05.2022
1505 Clouds 34 1004 58 10000 3.31 188 11:25 12.05.2022
1506 Clouds 34 1005 59 10000 3.44 194 10:22 12.05.2022
1507 Clouds 33 1006 58 10000 3.97 214 08:52 12.05.2022
1508 Clouds 33 1006 54 10000 4.21 225 07:58 12.05.2022
1509 Clouds 33 1008 61 10000 2.86 260 06:55 12.05.2022
1510 Clouds 30 1009 70 10000 1.93 268 03:46 12.05.2022
1511 Clouds 28 1006 84 10000 1.46 251 00:50 12.05.2022
1512 Clouds 28 1006 83 10000 1.65 201 22:53 11.05.2022
1513 Rain 28 1006 82 10000 2.07 182 21:59 11.05.2022
1514 Rain 28 1007 81 10000 2.25 189 21:24 11.05.2022
1515 Rain 28 1007 80 8715 2.72 183 19:42 11.05.2022
1516 Rain 29 1008 75 10000 4.12 172 17:24 11.05.2022
1517 Rain 29 1007 74 10000 3.97 171 16:19 11.05.2022
1518 Rain 30 1009 100 10000 3.89 167 14:45 11.05.2022
1519 Rain 30 1006 70 10000 4.28 175 14:24 11.05.2022
1520 Clouds 30 1005 61 10000 4.41 181 12:23 11.05.2022
1521 Clouds 31 1005 61 10000 4.41 181 11:47 11.05.2022
1522 Clouds 32 1006 58 10000 3.59 183 09:29 11.05.2022
1523 Rain 30 1009 62 10000 3.43 183 06:24 11.05.2022
1524 Clouds 27 1007 83 10000 2.05 165 01:29 11.05.2022
1525 Rain 27 1006 81 10000 2.08 166 22:53 10.05.2022
1526 Rain 28 1006 80 10000 2.15 172 22:19 10.05.2022
1527 Rain 29 1007 79 10000 2.46 173 20:59 10.05.2022
1528 Rain 28 1008 78 10000 2.6 166 20:21 10.05.2022
1529 Rain 28 1008 76 10000 3.26 183 18:36 10.05.2022
1530 Rain 28 1009 76 10000 3.12 185 17:37 10.05.2022
1531 Rain 28 1008 75 10000 2.63 184 15:49 10.05.2022
1532 Clouds 29 1006 70 10000 4.58 189 12:48 10.05.2022
1533 Clouds 30 1006 65 10000 4.84 195 11:53 10.05.2022
1534 Rain 30 1006 64 10000 4.79 198 11:28 10.05.2022
1535 Clouds 29 1006 64 10000 4.79 198 10:55 10.05.2022
1536 Clouds 31 1007 67 10000 4.77 193 09:27 10.05.2022
1537 Clouds 30 1008 79 10000 3.97 200 07:47 10.05.2022
1538 Clouds 29 1010 77 10000 4.8 170 05:43 10.05.2022
1539 Rain 26 1008 84 6996 3.11 139 01:37 10.05.2022
1540 Rain 26 1007 86 10000 2.32 143 23:42 09.05.2022
1541 Rain 26 1007 86 10000 2.32 143 23:42 09.05.2022
1542 Rain 26 1007 86 10000 2.62 153 22:30 09.05.2022
1543 Rain 27 1007 86 10000 2.77 157 21:25 09.05.2022
1544 Clouds 26 1008 82 10000 2.87 165 19:52 09.05.2022
1545 Rain 29 1008 80 10000 2.75 169 18:22 09.05.2022
1546 Rain 29 1009 79 10000 2.76 177 16:55 09.05.2022
1547 Rain 29 1009 79 10000 2.76 177 16:55 09.05.2022
1548 Clouds 29 1008 78 10000 3.78 179 15:54 09.05.2022
1549 Clouds 29 1008 78 10000 3.78 179 15:34 09.05.2022
1550 Rain 29 1007 77 10000 4.42 180 14:33 09.05.2022
1551 Rain 28 1007 75 10000 4.09 175 13:51 09.05.2022
1552 Rain 28 1006 74 10000 4.16 173 12:32 09.05.2022
1553 Rain 27 1006 67 8794 4.71 176 11:43 09.05.2022
1554 Clouds 28 1005 64 10000 4.54 184 10:45 09.05.2022
1555 Rain 33 1006 60 10000 4.15 185 09:59 09.05.2022
1556 Clouds 33 1007 61 10000 2.11 170 07:56 09.05.2022
1557 Clouds 30 1009 72 7988 0.67 91 04:33 09.05.2022
1558 Clouds 30 1009 72 7988 0.67 91 04:33 09.05.2022
1559 Clouds 27 1007 83 10000 1.69 215 00:22 09.05.2022
1560 Clouds 27 1007 84 10000 2.08 222 22:58 08.05.2022
1561 Clouds 27 1007 84 7088 1.98 236 22:27 08.05.2022
1562 Clouds 28 1007 82 9364 1.69 239 20:41 08.05.2022
1563 Clouds 28 1007 80 10000 1.66 222 19:53 08.05.2022
1564 Clouds 28 1008 80 10000 1.72 199 18:59 08.05.2022
1565 Clouds 28 1008 78 10000 0.78 196 18:25 08.05.2022
1566 Clouds 27 1008 77 10000 0.28 96 17:21 08.05.2022
1567 Rain 27 1008 76 10000 0.15 53 15:43 08.05.2022
1568 Rain 27 1007 76 10000 0.45 341 15:20 08.05.2022
1569 Rain 28 1005 75 10000 1.39 344 12:41 08.05.2022
1570 Rain 30 1005 68 10000 2.24 6 10:34 08.05.2022
1571 Clouds 31 1005 62 10000 1.4 359 09:59 08.05.2022
1572 Clouds 32 1005 62 10000 1.4 359 09:33 08.05.2022
1573 Clouds 33 1007 60 7795 3.31 111 07:33 08.05.2022
1574 Clouds 29 1009 74 10000 1.72 32 04:24 08.05.2022
1575 Clouds 27 1009 79 10000 2.21 19 03:19 08.05.2022
1576 Rain 26 1006 83 10000 0.26 64 00:29 08.05.2022
1577 Clouds 26 1006 83 10000 0.26 64 23:53 07.05.2022
1578 Rain 26 1006 82 10000 0.36 160 22:57 07.05.2022
1579 Rain 26 1006 82 10000 0.36 160 22:33 07.05.2022
1580 Rain 26 1006 81 10000 0.76 212 21:43 07.05.2022
1581 Clouds 26 1007 80 10000 1.02 207 20:55 07.05.2022
1582 Clouds 26 1007 81 10000 1.05 192 19:58 07.05.2022
1583 Clouds 26 1008 79 10000 1.08 106 17:51 07.05.2022
1584 Rain 26 1008 80 10000 2.72 83 15:53 07.05.2022
1585 Rain 30 1008 100 10000 1.57 138 14:20 07.05.2022
1586 Rain 31 1007 100 10000 1.93 141 10:57 07.05.2022
1587 Rain 34 1008 100 10000 2.39 127 09:22 07.05.2022
1588 Rain 34 1008 100 6285 2.86 106 07:52 07.05.2022
1589 Rain 34 1009 100 7745 3.13 107 06:43 07.05.2022
1590 Clouds 31 1008 62 10000 3.49 67 05:22 07.05.2022
1591 Clouds 27 1007 79 10000 1.84 41 02:21 07.05.2022
1592 Clouds 27 1006 83 8238 0.67 333 23:38 06.05.2022
1593 Clouds 27 1006 81 10000 0.59 319 22:31 06.05.2022
1594 Clouds 27 1006 80 10000 0.52 252 21:43 06.05.2022
1595 Rain 27 1007 79 10000 0.99 215 20:35 06.05.2022
1596 Rain 28 1007 75 10000 1.55 199 19:31 06.05.2022
1597 Rain 28 1008 74 10000 1.7 198 19:00 06.05.2022
1598 Rain 28 1008 74 10000 1.46 200 18:19 06.05.2022
1599 Rain 29 1008 75 10000 1.98 185 16:53 06.05.2022
1600 Rain 29 1007 76 10000 2.41 179 15:42 06.05.2022
1601 Rain 29 1007 77 10000 2.67 185 14:53 06.05.2022
1602 Rain 28 1005 76 10000 4.63 178 12:56 06.05.2022
1603 Rain 29 1005 76 10000 4.63 178 12:37 06.05.2022
1604 Clouds 31 1005 72 10000 5.6 174 11:42 06.05.2022
1605 Clouds 34 1005 64 10000 5.73 162 10:30 06.05.2022
1606 Clouds 32 1005 63 10000 5 140 09:45 06.05.2022
1607 Clouds 32 1006 61 10000 4.57 112 08:27 06.05.2022
1608 Clouds 31 1007 64 10000 2.45 103 06:48 06.05.2022
1609 Clouds 32 1008 67 7800 1.87 125 05:23 06.05.2022
1610 Clouds 28 1007 65 10000 1.51 133 02:47 06.05.2022
1611 Clouds 28 1006 66 10000 0.84 171 00:19 06.05.2022
1612 Clouds 29 1006 63 10000 0.97 127 21:56 05.05.2022
1613 Clouds 29 1006 61 10000 0.81 136 21:19 05.05.2022
1614 Clouds 29 1007 60 10000 1.13 147 19:53 05.05.2022
1615 Rain 29 1007 67 10000 3.4 191 18:31 05.05.2022
1616 Clouds 29 1007 63 10000 4.27 173 16:20 05.05.2022
1617 Clouds 31 1006 58 10000 4.1 167 14:49 05.05.2022
1618 Clouds 32 1004 47 10000 4.19 146 13:22 05.05.2022
1619 Clouds 33 1004 42 10000 3.64 126 12:25 05.05.2022
1620 Clouds 34 1004 41 10000 3.99 110 10:37 05.05.2022
1621 Clouds 34 1004 41 10000 4.46 102 09:39 05.05.2022
1622 Clouds 31 1007 41 10000 3.64 80 07:34 05.05.2022
1623 Clouds 28 1010 55 10000 3.06 63 04:28 05.05.2022
1624 Clouds 25 1009 64 10000 2.95 77 01:50 05.05.2022
1625 Clouds 26 1008 66 10000 2.8 79 01:22 05.05.2022
1626 Clouds 26 1008 65 10000 2.89 72 23:47 04.05.2022
1627 Clouds 26 1008 65 10000 2.36 76 22:27 04.05.2022
1628 Clouds 26 1008 65 10000 2.36 76 21:49 04.05.2022
1629 Clouds 27 1008 65 10000 2.57 86 21:26 04.05.2022
1630 Clouds 27 1009 64 10000 3.04 83 20:22 04.05.2022
1631 Clouds 27 1008 62 10000 3.06 108 19:51 04.05.2022
1632 Rain 27 1009 60 10000 2.99 112 18:51 04.05.2022
1633 Clouds 27 1010 59 10000 2.83 111 18:22 04.05.2022
1634 Clouds 28 1010 59 10000 2.83 111 17:30 04.05.2022
1635 Clouds 29 1010 57 10000 2.75 121 15:38 04.05.2022
1636 Clouds 30 1011 100 10000 3.58 134 15:20 04.05.2022
1637 Clouds 30 1011 100 10000 3.24 133 14:20 04.05.2022
1638 Clouds 30 1010 100 10000 0.93 152 13:20 04.05.2022
1639 Clouds 29 1007 56 10000 0.41 359 12:29 04.05.2022
1640 Clouds 29 1007 56 10000 0.41 359 12:29 04.05.2022
1641 Clouds 28 1008 56 10000 0.91 358 10:40 04.05.2022
1642 Clouds 28 1008 57 10000 1.45 351 09:38 04.05.2022
1643 Clouds 28 1009 60 10000 1.52 357 08:34 04.05.2022
1644 Clouds 27 1011 52 10000 2.02 40 05:53 04.05.2022
1645 Clouds 24 1012 63 10000 2.15 326 02:49 04.05.2022
1646 Clouds 24 1010 65 10000 1.92 321 23:41 03.05.2022
1647 Clouds 24 1009 64 10000 1.33 29 22:20 03.05.2022
1648 Clouds 24 1009 64 10000 1.33 29 21:36 03.05.2022
1649 Clouds 24 1010 64 10000 1.81 46 20:52 03.05.2022
1650 Clouds 25 1011 64 10000 2.74 77 19:44 03.05.2022
1651 Clouds 25 1011 63 10000 3.63 83 18:50 03.05.2022
1652 Clouds 26 1011 63 10000 4.23 79 17:38 03.05.2022
1653 Clouds 26 1011 62 10000 4.67 83 16:35 03.05.2022
1654 Clouds 26 1010 61 10000 4.67 83 14:51 03.05.2022
1655 Clouds 27 1009 57 10000 4.64 71 12:47 03.05.2022
1656 Clouds 28 1008 54 10000 4.24 85 12:25 03.05.2022
1657 Clouds 28 1008 54 10000 4.24 85 12:25 03.05.2022
1658 Clouds 28 1008 52 10000 3.83 92 10:52 03.05.2022
1659 Clouds 28 1009 54 10000 2.37 73 08:58 03.05.2022
1660 Clouds 27 1011 57 10000 2.54 31 06:46 03.05.2022
1661 Clouds 25 1012 65 10000 2.93 39 04:58 03.05.2022
1662 Clouds 23 1009 64 10000 2.22 53 23:44 02.05.2022
1663 Clouds 24 1008 66 10000 2.43 33 22:34 02.05.2022
1664 Clouds 24 1008 67 10000 3.03 45 21:49 02.05.2022
1665 Clouds 24 1008 66 10000 3.66 57 20:50 02.05.2022
1666 Clouds 25 1009 64 10000 5.12 76 18:35 02.05.2022
1667 Clouds 25 1010 63 10000 5.4 81 17:53 02.05.2022
1668 Clouds 25 1010 63 10000 5.4 81 17:33 02.05.2022
1669 Clouds 26 1009 65 10000 6.06 88 16:20 02.05.2022
1670 Clouds 27 1008 66 10000 5.86 84 15:19 02.05.2022
1671 Clouds 27 1007 68 10000 6.02 84 13:48 02.05.2022
1672 Clouds 27 1005 66 10000 4.72 76 12:18 02.05.2022
1673 Clouds 28 1005 65 10000 4.49 82 10:25 02.05.2022
1674 Rain 29 1006 64 5747 3.36 83 08:46 02.05.2022
1675 Clouds 29 1007 58 8872 2.09 53 07:39 02.05.2022
1676 Rain 26 1008 75 10000 4.08 87 01:58 02.05.2022
1677 Rain 26 1006 76 6640 1.52 351 00:23 02.05.2022
1678 Clouds 27 1006 76 6640 1.52 351 23:46 01.05.2022
1679 Clouds 27 1005 71 10000 1.44 262 22:20 01.05.2022
1680 Clouds 29 1005 67 10000 1.76 218 20:58 01.05.2022
1681 Rain 30 1006 72 10000 1.71 193 19:49 01.05.2022
1682 Rain 30 1006 72 10000 2.64 193 18:55 01.05.2022
1683 Rain 31 1007 66 10000 3.26 197 18:18 01.05.2022
1684 Clouds 31 1006 64 10000 4.27 186 16:55 01.05.2022
1685 Clouds 31 1006 61 10000 4.23 191 16:23 01.05.2022
1686 Rain 30 1005 60 10000 4.23 184 15:22 01.05.2022
1687 Clouds 33 1005 100 10000 4.28 176 13:23 01.05.2022
1688 Clouds 35 1004 100 10000 4.74 178 10:46 01.05.2022
1689 Clouds 35 1006 100 10000 1.95 144 08:51 01.05.2022
1690 Rain 33 1008 100 10000 2.68 159 06:53 01.05.2022
1691 Rain 30 1009 100 10000 2.39 142 02:51 01.05.2022
1692 Clouds 30 1004 66 10000 2.7 173 22:52 30.04.2022
1693 Clouds 30 1004 66 10000 2.67 173 21:35 30.04.2022
1694 Clouds 31 1005 63 10000 3.42 183 20:24 30.04.2022
1695 Rain 31 1006 66 10000 3.28 184 19:33 30.04.2022
1696 Clouds 32 1007 65 10000 5.35 182 17:38 30.04.2022
1697 Clouds 32 1007 63 10000 4.71 170 16:30 30.04.2022
1698 Clouds 32 1006 59 10000 5.61 133 15:19 30.04.2022
1699 Rain 34 1006 100 10000 5.61 133 14:31 30.04.2022
1700 Clouds 34 1004 100 10000 6.13 178 12:28 30.04.2022
1701 Clouds 34 1004 100 10000 6.13 178 11:32 30.04.2022
1702 Rain 35 1006 100 10000 5.39 180 10:31 30.04.2022
1703 Clouds 35 1007 100 10000 3.45 153 08:34 30.04.2022
1704 Rain 34 1010 100 10000 2.88 161 05:19 30.04.2022
1705 Clouds 30 1007 64 10000 3.29 157 00:35 30.04.2022
1706 Clouds 30 1006 63 10000 3.63 176 23:29 29.04.2022
1707 Clouds 30 1005 62 10000 3.97 173 22:29 29.04.2022
1708 Clouds 30 1006 59 10000 3.79 166 21:26 29.04.2022
1709 Rain 31 1006 59 10000 3.79 166 20:36 29.04.2022
1710 Rain 31 1006 64 10000 4.35 166 19:33 29.04.2022
1711 Rain 31 1007 62 10000 4.7 178 17:38 29.04.2022
1712 Rain 32 1007 60 10000 4.63 189 16:43 29.04.2022
1713 Clouds 33 1005 52 10000 4.42 161 14:38 29.04.2022
1714 Clouds 33 1005 52 10000 4.42 161 14:38 29.04.2022
1715 Clouds 33 1005 52 10000 4.42 161 14:38 29.04.2022
1716 Clouds 33 1005 52 10000 4.42 161 14:38 29.04.2022
1717 Rain 33 1004 49 10000 4.43 168 13:59 29.04.2022
1718 Clouds 36 1005 100 10000 4.43 165 12:41 29.04.2022
1719 Clouds 36 1005 100 10000 2.24 148 10:56 29.04.2022
1720 Clouds 35 1009 100 10000 1.84 170 07:58 29.04.2022
1721 Clouds 34 1009 100 10000 1.71 160 07:27 29.04.2022
1722 Clouds 34 1010 100 10000 1.71 160 06:34 29.04.2022
1723 Clouds 28 1009 71 10000 1.34 222 03:23 29.04.2022
1724 Rain 26 1008 75 10000 1.07 264 00:18 29.04.2022
1725 Rain 27 1006 75 10000 2.05 217 23:26 28.04.2022
1726 Rain 26 1006 75 10000 2.05 217 22:37 28.04.2022
1727 Rain 26 1007 76 10000 1.17 199 21:44 28.04.2022
1728 Rain 27 1008 78 10000 1.19 116 20:49 28.04.2022
1729 Rain 27 1008 76 10000 2.97 127 19:57 28.04.2022
1730 Rain 27 1008 76 10000 2.97 127 19:38 28.04.2022
1731 Rain 27 1009 75 10000 4.41 117 19:19 28.04.2022
1732 Rain 26 1009 75 10000 2.85 148 17:55 28.04.2022
1733 Rain 27 1009 68 10000 3.23 169 16:58 28.04.2022
1734 Rain 27 1009 63 10000 2.09 132 16:21 28.04.2022
1735 Rain 30 1009 63 10000 2.09 132 15:49 28.04.2022
1736 Rain 30 1006 63 10000 3.66 131 15:18 28.04.2022
1737 Rain 34 1006 58 10000 4.42 117 13:42 28.04.2022
1738 Rain 35 1006 67 10000 7.32 86 12:30 28.04.2022
1739 Rain 35 1006 67 10000 7.32 86 12:30 28.04.2022
1740 Rain 36 1004 51 10000 5.18 153 11:38 28.04.2022
1741 Rain 36 1004 42 10000 6.01 186 10:27 28.04.2022
1742 Rain 36 1004 42 10000 6.01 186 09:50 28.04.2022
1743 Clouds 36 1005 42 10000 5.1 178 07:42 28.04.2022
1744 Clouds 35 1007 43 10000 4.73 179 06:51 28.04.2022
1745 Clouds 35 1007 45 10000 4.26 180 05:53 28.04.2022
1746 Clouds 34 1008 49 10000 3.96 178 04:43 28.04.2022
1747 Clouds 32 1008 60 10000 3.62 182 02:41 28.04.2022
1748 Rain 31 1005 70 10000 3.84 187 23:36 27.04.2022
1749 Rain 31 1005 69 10000 5.09 188 22:22 27.04.2022
1750 Clouds 31 1005 69 10000 5.09 188 21:46 27.04.2022
1751 Clouds 31 1005 69 10000 5.42 186 20:46 27.04.2022
1752 Rain 32 1005 69 10000 5.63 185 19:57 27.04.2022
1753 Clouds 32 1005 70 10000 5.69 185 19:36 27.04.2022
1754 Rain 33 1006 70 10000 6.18 183 18:41 27.04.2022
1755 Rain 33 1006 69 10000 6.22 182 18:20 27.04.2022
1756 Clouds 34 1005 60 10000 5.47 170 16:18 27.04.2022
1757 Clouds 38 1003 43 10000 5.24 158 13:18 27.04.2022
1758 Clouds 38 1002 35 10000 3.2 144 11:25 27.04.2022
1759 Clouds 38 1002 35 10000 3.2 144 10:45 27.04.2022
1760 Clouds 36 1006 38 10000 0.64 143 08:22 27.04.2022
1761 Clouds 35 1007 45 10000 0.76 193 06:41 27.04.2022
1762 Clouds 29 1008 67 10000 2.89 188 02:31 27.04.2022
1763 Clouds 30 1006 71 10000 4.07 188 01:21 27.04.2022
1764 Clouds 30 1006 71 10000 4.49 191 00:27 27.04.2022
1765 Clouds 30 1006 72 10000 4.85 190 23:24 26.04.2022
1766 Clouds 31 1006 72 10000 4.85 190 22:45 26.04.2022
1767 Clouds 31 1005 71 10000 5.26 185 22:19 26.04.2022
1768 Rain 31 1006 71 10000 5.86 177 21:19 26.04.2022
1769 Clouds 31 1006 71 10000 5.86 177 20:37 26.04.2022
1770 Rain 31 1006 71 10000 6.45 174 19:45 26.04.2022
1771 Rain 31 1007 70 10000 6.71 176 19:26 26.04.2022
1772 Rain 31 1007 70 10000 6.71 176 18:31 26.04.2022
1773 Clouds 31 1007 69 10000 6.54 175 17:38 26.04.2022
1774 Clouds 32 1007 67 10000 6.68 185 15:32 26.04.2022
1775 Clouds 33 1005 65 10000 7.31 190 13:40 26.04.2022
1776 Clouds 34 1004 54 10000 6.85 177 12:47 26.04.2022
1777 Clouds 35 1003 46 10000 6.15 161 11:20 26.04.2022
1778 Rain 34 1003 46 10000 6.15 161 10:30 26.04.2022
1779 Rain 30 1005 43 10000 5.72 174 08:32 26.04.2022
1780 Clouds 33 1008 53 10000 5.12 188 04:39 26.04.2022
1781 Clouds 32 1008 58 10000 5.17 188 03:59 26.04.2022
1782 Clouds 30 1006 71 10000 4.14 184 00:46 26.04.2022
1783 Rain 30 1006 70 10000 4.26 184 23:48 25.04.2022
1784 Rain 31 1005 70 10000 4.87 187 21:49 25.04.2022
1785 Rain 31 1006 70 10000 5.29 189 21:23 25.04.2022
1786 Rain 31 1006 72 10000 6.11 185 19:39 25.04.2022
1787 Rain 31 1007 70 10000 6.92 185 18:25 25.04.2022
1788 Rain 31 1007 70 10000 6.92 185 17:39 25.04.2022
1789 Clouds 32 1006 66 10000 7.35 189 15:51 25.04.2022
1790 Rain 32 1005 62 10000 7.1 191 15:18 25.04.2022
1791 Clouds 33 1004 57 10000 6.63 174 13:59 25.04.2022
1792 Clouds 36 1003 48 10000 6.2 160 12:40 25.04.2022
1793 Rain 37 1004 42 10000 5.01 173 10:29 25.04.2022
1794 Clear 36 1004 42 10000 5.01 173 09:36 25.04.2022
1795 Clouds 35 1006 44 10000 5.69 181 07:34 25.04.2022
1796 Clouds 34 1008 49 10000 5.18 185 05:53 25.04.2022
1797 Clear 29 1006 72 10000 4.09 184 01:24 25.04.2022
1798 Clear 30 1006 71 10000 4.16 185 23:54 24.04.2022
1799 Clear 29 1005 71 10000 4.43 186 22:53 24.04.2022
1800 Clear 29 1005 71 10000 4.43 186 22:32 24.04.2022
1801 Clear 29 1005 71 10000 4.43 186 22:32 24.04.2022
1802 Clear 30 1005 71 10000 4.67 189 21:54 24.04.2022
1803 Clear 30 1005 70 10000 5.23 188 21:20 24.04.2022
1804 Clear 29 1005 71 10000 5.18 185 20:38 24.04.2022
1805 Clear 30 1006 71 10000 5.7 186 19:50 24.04.2022
1806 Clear 31 1007 69 10000 6.11 182 18:28 24.04.2022
1807 Clear 31 1007 69 10000 6.11 182 17:40 24.04.2022
1808 Clear 31 1007 67 10000 6.08 179 17:19 24.04.2022
1809 Clear 32 1007 67 10000 6.08 179 16:48 24.04.2022
1810 Rain 31 1006 65 10000 5.97 179 16:20 24.04.2022
1811 Rain 32 1006 65 10000 5.97 179 15:31 24.04.2022
1812 Rain 32 1006 65 10000 5.97 179 15:31 24.04.2022
1813 Rain 33 1005 58 10000 6.12 179 14:19 24.04.2022
1814 Clouds 34 1004 50 10000 6.38 174 13:26 24.04.2022
1815 Clouds 34 1004 50 10000 6.38 174 13:26 24.04.2022
1816 Clouds 35 1004 50 10000 6.38 174 12:35 24.04.2022
1817 Clouds 36 1004 43 10000 5.8 168 11:34 24.04.2022
1818 Clouds 35 1004 41 10000 5.68 171 10:30 24.04.2022
1819 Clouds 37 1007 100 10000 5.49 180 09:29 24.04.2022
1820 Clear 37 1009 100 10000 4.76 183 06:46 24.04.2022
1821 Clear 33 1010 100 10000 4.14 191 03:57 24.04.2022
1822 Clouds 29 1008 70 10000 3.76 192 01:38 24.04.2022
1823 Clouds 29 1008 70 10000 3.76 192 01:38 24.04.2022
1824 Clouds 30 1006 72 10000 3.57 186 00:29 24.04.2022
1825 Clouds 30 1006 72 10000 3.57 186 23:44 23.04.2022
1826 Clear 30 1006 71 10000 3.87 182 23:21 23.04.2022
1827 Clear 30 1006 71 10000 4.18 188 21:51 23.04.2022
1828 Clear 30 1006 71 10000 4.18 188 21:33 23.04.2022
1829 Clear 31 1006 71 10000 4.68 187 20:45 23.04.2022
1830 Clear 30 1007 71 10000 5.29 188 19:47 23.04.2022
1831 Clear 30 1008 70 10000 5.63 187 19:19 23.04.2022
1832 Clear 31 1008 70 10000 5.63 187 18:52 23.04.2022
1833 Clear 30 1008 69 10000 5.71 189 17:51 23.04.2022
1834 Clear 30 1008 68 10000 5.62 188 17:20 23.04.2022
1835 Rain 31 1008 68 10000 5.62 188 16:40 23.04.2022
1836 Clear 32 1007 63 10000 5.92 178 15:20 23.04.2022
1837 Clear 35 1006 51 10000 6.15 175 12:44 23.04.2022
1838 Clear 37 1005 41 10000 5.39 175 10:43 23.04.2022
1839 Clear 34 1006 40 10000 5.29 179 09:30 23.04.2022
1840 Clear 35 1011 100 10000 4.61 190 06:29 23.04.2022
1841 Clear 31 1010 57 10000 3.82 186 03:54 23.04.2022
1842 Clear 28 1008 72 10000 3.22 183 00:53 23.04.2022
1843 Clear 29 1007 71 10000 3.56 181 23:29 22.04.2022
1844 Clear 29 1007 70 10000 3.56 184 22:19 22.04.2022
1845 Clear 29 1007 70 10000 3.56 184 21:41 22.04.2022
1846 Clear 30 1008 69 10000 3.74 186 20:45 22.04.2022
1847 Clouds 30 1009 68 10000 3.87 186 20:25 22.04.2022
1848 Clouds 31 1009 70 10000 4.48 191 19:18 22.04.2022
1849 Clouds 30 1009 70 10000 4.48 191 18:36 22.04.2022
1850 Clouds 31 1010 70 10000 4.67 192 17:39 22.04.2022
1851 Clouds 31 1010 68 10000 4.63 204 16:32 22.04.2022
1852 Clouds 31 1009 66 10000 4.81 207 15:32 22.04.2022
1853 Clouds 31 1009 65 10000 6.54 203 14:44 22.04.2022
1854 Clouds 34 1008 60 10000 6.25 192 13:43 22.04.2022
1855 Clouds 34 1007 49 10000 5.82 184 12:57 22.04.2022
1856 Clouds 37 1008 100 10000 5.03 173 11:43 22.04.2022
1857 Clouds 37 1008 100 10000 5.11 173 11:20 22.04.2022
1858 Clouds 37 1008 100 10000 5.11 173 10:47 22.04.2022
1859 Clouds 37 1008 100 10000 5.2 180 10:27 22.04.2022
1860 Clouds 37 1008 100 10000 5.2 180 09:42 22.04.2022
1861 Clouds 36 1009 100 10000 5.41 185 08:49 22.04.2022
1862 Clouds 35 1011 100 10000 5.15 185 06:56 22.04.2022
1863 Clouds 28 1010 69 10000 2.68 175 01:53 22.04.2022
1864 Clouds 28 1008 71 10000 2.7 180 23:53 21.04.2022
1865 Clouds 27 1008 71 10000 3.37 182 22:59 21.04.2022
1866 Clouds 27 1008 71 10000 3.67 183 21:59 21.04.2022
1867 Clouds 29 1008 71 10000 3.73 180 20:34 21.04.2022
1868 Rain 29 1008 70 10000 4.74 188 19:53 21.04.2022
1869 Rain 29 1009 69 10000 5.05 187 18:35 21.04.2022
1870 Rain 29 1009 67 10000 5.09 187 17:49 21.04.2022
1871 Clouds 29 1009 62 10000 5.28 187 16:28 21.04.2022
1872 Clear 31 1008 60 10000 5.04 182 15:20 21.04.2022
1873 Clear 32 1008 60 10000 5.04 182 14:38 21.04.2022
1874 Clouds 33 1006 53 10000 5.07 171 13:23 21.04.2022
1875 Clouds 33 1006 53 10000 5.07 171 12:41 21.04.2022
1876 Clouds 33 1006 46 10000 5.06 187 10:45 21.04.2022
1877 Clouds 33 1007 44 10000 5.62 186 08:54 21.04.2022
1878 Clouds 27 1009 45 10000 4.36 176 06:55 21.04.2022
1879 Clouds 27 1009 45 10000 4.36 176 06:55 21.04.2022
1880 Clouds 30 1010 52 10000 2.6 173 04:36 21.04.2022
1881 Clouds 30 1010 64 10000 1.84 194 03:26 21.04.2022
1882 Clouds 29 1010 64 10000 1.84 194 02:46 21.04.2022
1883 Rain 28 1008 72 10000 1.69 204 00:43 21.04.2022
1884 Clouds 28 1008 71 10000 2.05 197 23:48 20.04.2022
1885 Rain 29 1008 71 10000 2.51 197 23:21 20.04.2022
1886 Clouds 29 1008 71 10000 2.51 197 22:45 20.04.2022
1887 Clouds 29 1007 70 10000 3.28 196 22:18 20.04.2022
1888 Clouds 29 1008 70 10000 3.57 199 21:23 20.04.2022
1889 Clouds 29 1008 69 10000 3.24 205 20:22 20.04.2022
1890 Clouds 29 1008 69 10000 3.26 195 19:51 20.04.2022
1891 Clouds 29 1008 69 10000 3.26 195 19:51 20.04.2022
1892 Clouds 31 1009 68 10000 3.39 192 18:55 20.04.2022
1893 Rain 31 1010 66 10000 3.35 189 17:53 20.04.2022
1894 Clouds 32 1010 64 10000 3.17 187 16:40 20.04.2022
1895 Clouds 32 1009 62 10000 3.16 194 15:50 20.04.2022
1896 Clouds 33 1008 55 10000 4.65 190 13:41 20.04.2022
1897 Clouds 34 1006 47 10000 2.87 199 11:43 20.04.2022
1898 Clouds 35 1006 47 10000 4.55 200 10:53 20.04.2022
1899 Rain 36 1007 45 10000 5.27 200 09:45 20.04.2022
1900 Clouds 35 1007 40 10000 3.3 198 08:54 20.04.2022
1901 Clouds 34 1009 40 10000 1.22 184 08:20 20.04.2022
1902 Clouds 34 1009 42 10000 1.82 173 08:20 20.04.2022
1903 Clouds 33 1010 44 10000 1.47 132 06:49 20.04.2022
1904 Clouds 29 1012 60 10000 0.78 10 03:33 20.04.2022
1905 Clouds 27 1009 77 10000 0.8 282 00:22 20.04.2022
1906 Clouds 27 1009 77 10000 0.8 282 23:31 19.04.2022
1907 Clouds 29 1009 74 10000 1.09 247 22:24 19.04.2022
1908 Clouds 29 1009 74 10000 1.09 247 21:55 19.04.2022
1909 Clouds 29 1009 73 10000 1.05 235 21:19 19.04.2022
1910 Clouds 29 1009 73 10000 1.05 235 20:37 19.04.2022
1911 Clouds 29 1010 72 10000 1.35 238 19:43 19.04.2022
1912 Clouds 29 1011 72 10000 1.98 225 18:46 19.04.2022
1913 Clouds 29 1011 72 10000 1.98 225 18:46 19.04.2022
1914 Clouds 29 1011 71 10000 2.39 223 17:27 19.04.2022
1915 Clouds 29 1011 71 10000 2.39 223 16:43 19.04.2022
1916 Clouds 29 1010 70 10000 2.34 224 16:21 19.04.2022
1917 Clouds 30 1009 69 10000 2.92 221 14:48 19.04.2022
1918 Clouds 31 1009 70 10000 2.37 237 13:34 19.04.2022
1919 Clouds 31 1009 68 10000 2.15 239 12:50 19.04.2022
1920 Clouds 32 1009 65 10000 1.98 237 11:39 19.04.2022
1921 Rain 32 1009 66 10000 0.92 111 09:57 19.04.2022
1922 Clouds 31 1010 69 10000 0.71 120 08:54 19.04.2022
1923 Clouds 29 1013 64 10000 1.64 58 04:41 19.04.2022
1924 Clouds 27 1012 72 10000 1.95 55 03:25 19.04.2022
1925 Clouds 26 1010 80 10000 1.52 300 00:27 19.04.2022
1926 Clouds 26 1009 79 10000 1.42 311 23:25 18.04.2022
1927 Clouds 26 1010 79 10000 0.43 108 21:29 18.04.2022
1928 Clouds 26 1010 79 10000 0.43 108 20:53 18.04.2022
1929 Rain 26 1011 79 10000 0.15 331 20:27 18.04.2022
1930 Clouds 27 1010 71 10000 2.66 185 19:42 18.04.2022
1931 Clouds 26 1010 71 10000 2.74 184 18:54 18.04.2022
1932 Clouds 27 1011 70 10000 2.77 180 17:54 18.04.2022
1933 Clouds 26 1011 70 10000 2.77 180 17:33 18.04.2022
1934 Rain 26 1010 70 10000 3.18 177 16:44 18.04.2022
1935 Rain 26 1010 69 10000 3.3 178 16:21 18.04.2022
1936 Rain 26 1009 68 10000 3.33 176 14:43 18.04.2022
1937 Rain 29 1008 63 10000 3.73 160 13:35 18.04.2022
1938 Rain 29 1008 63 10000 3.73 160 13:35 18.04.2022
1939 Clouds 29 1006 53 10000 4.69 163 12:29 18.04.2022
1940 Clouds 34 1006 50 10000 5.04 160 11:27 18.04.2022
1941 Clouds 35 1006 50 10000 5.04 160 10:31 18.04.2022
1942 Rain 34 1007 47 10000 4.37 158 09:30 18.04.2022
1943 Rain 33 1009 55 10000 3.83 148 07:42 18.04.2022
1944 Rain 31 1011 61 10000 2.63 113 05:35 18.04.2022
1945 Clouds 28 1008 73 10000 1.58 156 23:51 17.04.2022
1946 Clouds 28 1007 71 10000 2.37 157 22:40 17.04.2022
1947 Clouds 28 1008 69 10000 2.6 157 21:42 17.04.2022
1948 Clouds 28 1008 67 10000 2.76 164 21:21 17.04.2022
1949 Clouds 28 1008 67 10000 2.76 164 20:33 17.04.2022
1950 Rain 28 1009 63 10000 3.91 137 19:23 17.04.2022
1951 Clouds 28 1009 60 10000 4.02 109 17:43 17.04.2022
1952 Clouds 28 1009 60 10000 7.6 95 15:39 17.04.2022
1953 Clouds 30 1008 65 10000 8.3 96 14:54 17.04.2022
1954 Clouds 31 1006 54 10000 6.08 143 13:47 17.04.2022
1955 Clouds 32 1005 47 10000 5.8 163 12:58 17.04.2022
1956 Clouds 33 1003 40 10000 5.64 169 12:18 17.04.2022
1957 Clouds 34 1003 39 10000 5.09 188 10:46 17.04.2022
1958 Clouds 34 1004 39 10000 5.01 176 10:27 17.04.2022
1959 Clouds 34 1004 39 10000 5.01 176 10:27 17.04.2022
1960 Clouds 36 1005 40 10000 5.37 175 09:28 17.04.2022
1961 Clouds 36 1005 40 10000 5.37 175 08:42 17.04.2022
1962 Clouds 36 1008 45 10000 5.08 174 07:26 17.04.2022
1963 Clear 33 1009 55 10000 4.18 167 03:53 17.04.2022
1964 Clouds 29 1007 70 10000 4.38 172 00:55 17.04.2022
1965 Clouds 30 1006 70 10000 4.54 172 23:50 16.04.2022
1966 Rain 31 1006 69 10000 4.95 160 22:27 16.04.2022
1967 Clouds 31 1006 69 10000 4.83 161 21:29 16.04.2022
1968 Rain 31 1006 68 10000 5.28 176 19:57 16.04.2022
1969 Clouds 32 1006 69 10000 6.21 174 18:55 16.04.2022
1970 Rain 32 1007 68 10000 6.79 181 17:40 16.04.2022
1971 Rain 33 1007 65 10000 6.95 179 16:34 16.04.2022
1972 Clouds 33 1005 62 10000 6.61 176 15:43 16.04.2022
1973 Clouds 32 1005 61 10000 6.73 183 14:55 16.04.2022
1974 Clear 35 1004 51 10000 6.82 182 13:57 16.04.2022
1975 Clear 36 1003 38 10000 5.39 176 13:28 16.04.2022
1976 Clear 38 1002 34 10000 5.34 190 12:20 16.04.2022
1977 Clear 39 1003 33 10000 5.58 184 10:49 16.04.2022
1978 Rain 39 1003 33 10000 6.12 172 09:44 16.04.2022
1979 Clear 39 1004 34 10000 6.15 166 08:57 16.04.2022
1980 Clear 37 1005 36 10000 5.49 165 07:32 16.04.2022
1981 Clear 36 1007 39 10000 4.69 159 06:46 16.04.2022
1982 Clear 30 1008 61 10000 2.75 156 02:33 16.04.2022
1983 Clear 29 1005 67 10000 2.14 181 00:23 16.04.2022
1984 Clear 30 1005 67 10000 2.65 190 22:57 15.04.2022
1985 Clear 30 1005 67 10000 2.65 190 22:31 15.04.2022
1986 Clear 31 1005 67 10000 3.58 196 21:47 15.04.2022
1987 Clear 30 1005 67 10000 4.39 197 20:56 15.04.2022
1988 Rain 31 1006 67 10000 5.06 200 19:59 15.04.2022
1989 Clear 31 1006 68 10000 5.07 194 19:39 15.04.2022
1990 Clear 32 1006 67 10000 5.35 197 18:46 15.04.2022
1991 Clear 32 1006 62 10000 5.66 195 18:24 15.04.2022
1992 Rain 33 1006 62 10000 5.66 195 17:32 15.04.2022
1993 Rain 33 1005 59 10000 6.62 183 16:26 15.04.2022
1994 Rain 33 1005 59 10000 6.62 183 15:59 15.04.2022
1995 Rain 34 1004 54 10000 5.87 178 14:44 15.04.2022
1996 Clear 37 1003 45 10000 6.1 171 13:34 15.04.2022
1997 Clear 38 1003 36 10000 5.3 165 12:40 15.04.2022
1998 Clear 39 1003 32 10000 5.64 171 11:55 15.04.2022
1999 Rain 39 1003 30 10000 6.16 173 10:58 15.04.2022
2000 Clear 39 1003 30 10000 6.16 173 10:40 15.04.2022
2001 Rain 39 1003 29 10000 6 171 09:41 15.04.2022
2002 Clear 39 1004 30 10000 4.85 172 09:19 15.04.2022
2003 Clouds 36 1007 39 10000 3.21 174 07:24 15.04.2022
2004 Clouds 35 1008 43 10000 2.46 179 05:58 15.04.2022
2005 Clouds 30 1008 58 10000 1.45 215 02:34 15.04.2022
2006 Clouds 30 1006 68 10000 3.06 179 23:30 14.04.2022
2007 Clouds 29 1005 68 10000 3.38 181 22:47 14.04.2022
2008 Clouds 29 1005 68 10000 3.88 179 22:29 14.04.2022
2009 Clouds 30 1005 68 10000 3.88 179 21:57 14.04.2022
2010 Rain 30 1005 68 10000 4.27 175 20:35 14.04.2022
2011 Rain 32 1006 63 10000 5.06 182 19:23 14.04.2022
2012 Rain 32 1006 60 10000 5.64 189 18:18 14.04.2022
2013 Clouds 31 1006 57 10000 5.81 193 17:28 14.04.2022
2014 Clouds 33 1006 57 10000 5.81 193 16:33 14.04.2022
2015 Rain 36 1004 33 10000 3.46 170 14:28 14.04.2022
2016 Clear 36 1003 40 10000 4.94 164 13:39 14.04.2022
2017 Clear 37 1003 34 10000 4.93 161 12:51 14.04.2022
2018 Rain 37 1003 34 10000 4.93 161 12:30 14.04.2022
2019 Clear 39 1002 26 10000 5.1 177 11:24 14.04.2022
2020 Rain 38 1002 26 10000 5.1 177 10:41 14.04.2022
2021 Clear 38 1003 24 10000 3.83 179 09:57 14.04.2022
2022 Rain 37 1004 25 10000 2.58 190 08:44 14.04.2022
2023 Clouds 36 1007 38 10000 2.52 193 06:51 14.04.2022
2024 Clouds 31 1008 64 10000 2.61 195 03:28 14.04.2022
2025 Clouds 29 1004 69 10000 3.81 181 23:25 13.04.2022
2026 Clouds 29 1004 68 10000 3.91 180 22:19 13.04.2022
2027 Clouds 31 1004 68 10000 3.91 180 21:34 13.04.2022
2028 Rain 30 1005 66 10000 4.04 185 20:22 13.04.2022
2029 Rain 31 1005 68 10000 4.39 181 19:32 13.04.2022
2030 Clouds 31 1006 65 10000 5.56 187 18:20 13.04.2022
2031 Rain 32 1006 61 10000 5.97 183 17:24 13.04.2022
2032 Clouds 33 1006 61 10000 5.97 183 16:34 13.04.2022
2033 Rain 33 1005 57 10000 6.36 186 15:38 13.04.2022
2034 Clouds 35 1004 53 10000 6.56 187 14:50 13.04.2022
2035 Clouds 34 1004 46 10000 5.65 160 14:19 13.04.2022
2036 Clouds 36 1003 44 10000 5.87 168 13:28 13.04.2022
2037 Clouds 37 1002 38 10000 5.22 176 12:25 13.04.2022
2038 Clouds 37 1002 38 10000 5.22 176 12:25 13.04.2022
2039 Clouds 38 1003 38 10000 5.61 175 10:49 13.04.2022
2040 Clouds 38 1003 38 10000 6.43 170 09:41 13.04.2022
2041 Clouds 38 1004 37 10000 6.04 167 08:42 13.04.2022
2042 Rain 35 1007 42 10000 3.58 171 06:51 13.04.2022
2043 Rain 35 1008 46 10000 3.03 181 06:25 13.04.2022
2044 Clouds 34 1008 46 10000 3.03 181 05:36 13.04.2022
2045 Clouds 29 1005 74 10000 3.53 170 00:22 13.04.2022
2046 Rain 29 1005 74 10000 3.53 170 23:45 12.04.2022
2047 Clouds 30 1005 72 10000 4.12 176 22:18 12.04.2022
2048 Clouds 30 1005 72 10000 4.9 181 21:18 12.04.2022
2049 Clouds 30 1005 72 10000 4.9 181 20:41 12.04.2022
2050 Rain 30 1006 70 10000 5.03 181 19:48 12.04.2022
2051 Rain 30 1006 70 10000 5.03 181 19:30 12.04.2022
2052 Rain 30 1007 67 10000 5.32 185 18:26 12.04.2022
2053 Rain 31 1007 67 10000 6.19 181 17:23 12.04.2022
2054 Clouds 31 1006 65 10000 6.49 176 16:22 12.04.2022
2055 Clouds 32 1006 65 10000 6.49 176 15:33 12.04.2022
2056 Clouds 32 1005 60 10000 6.31 179 14:26 12.04.2022
2057 Clouds 35 1005 59 10000 6.47 183 13:36 12.04.2022
2058 Clouds 35 1004 48 10000 6.11 182 12:52 12.04.2022
2059 Clouds 35 1003 42 10000 4.26 167 11:46 12.04.2022
2060 Clouds 34 1003 41 10000 3.85 161 10:35 12.04.2022
2061 Clouds 34 1005 43 10000 4.1 180 09:18 12.04.2022
2062 Clouds 34 1006 41 10000 4.73 172 07:55 12.04.2022
2063 Clouds 33 1009 46 10000 4.08 177 05:50 12.04.2022
2064 Clouds 33 1009 52 10000 4.05 178 04:55 12.04.2022
2065 Rain 29 1007 69 10000 4.12 179 23:59 11.04.2022
2066 Rain 29 1006 68 10000 4.14 179 22:44 11.04.2022
2067 Rain 30 1006 66 10000 3.9 185 21:37 11.04.2022
2068 Rain 30 1007 63 10000 3.87 187 20:56 11.04.2022
2069 Clouds 30 1007 63 10000 4.14 191 20:29 11.04.2022
2070 Clouds 30 1007 65 10000 4.73 191 19:42 11.04.2022
2071 Rain 30 1007 65 10000 5.14 187 19:18 11.04.2022
2072 Rain 30 1007 65 10000 5.14 187 18:47 11.04.2022
2073 Rain 30 1008 68 10000 5.95 184 17:56 11.04.2022
2074 Clear 31 1008 67 10000 5.85 182 16:54 11.04.2022
2075 Clear 31 1008 63 10000 5.85 188 15:54 11.04.2022
2076 Clouds 32 1006 63 10000 6.64 196 13:59 11.04.2022
2077 Clouds 34 1005 48 10000 5.7 179 12:47 11.04.2022
2078 Clouds 34 1004 41 10000 5.51 174 12:29 11.04.2022
2079 Rain 34 1004 41 10000 5.51 174 11:30 11.04.2022
2080 Clouds 35 1004 38 10000 6.17 173 10:24 11.04.2022
2081 Clouds 35 1005 38 10000 5.84 172 08:56 11.04.2022
2082 Clouds 34 1009 46 10000 4.46 181 06:21 11.04.2022
2083 Clouds 29 1008 70 10000 3.19 156 01:23 11.04.2022
2084 Clouds 30 1007 70 10000 3.43 172 22:33 10.04.2022
2085 Clouds 30 1007 68 10000 3.91 178 21:55 10.04.2022
2086 Clouds 30 1007 66 10000 4.33 183 21:26 10.04.2022
2087 Clouds 30 1007 66 10000 4.33 183 20:30 10.04.2022
2088 Clouds 30 1007 66 10000 4.6 189 19:41 10.04.2022
2089 Clouds 30 1008 64 10000 5.04 193 19:18 10.04.2022
2090 Clouds 30 1008 64 10000 5.04 193 18:38 10.04.2022
2091 Clouds 30 1009 63 10000 5.41 197 17:51 10.04.2022
2092 Clouds 30 1009 63 10000 5.41 197 17:31 10.04.2022
2093 Clouds 31 1008 62 10000 6.34 195 15:53 10.04.2022
2094 Clouds 33 1007 60 10000 6.42 194 14:49 10.04.2022
2095 Clouds 34 1006 52 10000 5.8 180 13:49 10.04.2022
2096 Clouds 36 1005 42 10000 5.1 173 12:33 10.04.2022
2097 Clouds 36 1005 37 10000 5.22 181 11:45 10.04.2022
2098 Clouds 36 1005 36 10000 6.02 182 11:24 10.04.2022
2099 Clouds 36 1005 36 10000 6.02 182 10:38 10.04.2022
2100 Clouds 36 1005 35 10000 6.43 179 09:46 10.04.2022
2101 Clouds 36 1006 35 10000 6.03 177 08:40 10.04.2022
2102 Clouds 37 1008 37 10000 5.04 176 08:18 10.04.2022
2103 Clouds 35 1009 38 10000 4.49 176 06:59 10.04.2022
2104 Clouds 31 1010 47 10000 3.38 171 03:40 10.04.2022
2105 Clouds 29 1009 60 10000 3.09 172 02:19 10.04.2022
2106 Clouds 29 1008 61 10000 4.26 167 23:54 09.04.2022
2107 Clouds 30 1007 60 10000 4.24 170 22:56 09.04.2022
2108 Clouds 29 1007 60 10000 4.24 170 22:38 09.04.2022
2109 Clouds 30 1008 56 10000 4.04 176 21:23 09.04.2022
2110 Clouds 30 1008 56 10000 4.04 176 20:30 09.04.2022
2111 Clouds 31 1008 57 10000 4.53 184 19:57 09.04.2022
2112 Clouds 31 1008 57 10000 4.53 184 19:39 09.04.2022
2113 Clouds 31 1009 52 10000 5.41 189 18:23 09.04.2022
2114 Clouds 31 1009 52 10000 5.41 189 17:49 09.04.2022
2115 Clouds 31 1008 43 10000 4.33 169 16:57 09.04.2022
2116 Clouds 31 1008 43 10000 4.33 169 16:38 09.04.2022
2117 Clouds 31 1008 43 10000 4.33 169 16:38 09.04.2022
2118 Clouds 31 1008 43 10000 4.33 169 16:38 09.04.2022
2119 Clouds 31 1008 43 10000 4.33 169 16:38 09.04.2022
2120 Clouds 31 1008 43 10000 4.33 169 16:38 09.04.2022
2121 Clouds 33 1008 36 10000 3.06 175 15:50 09.04.2022
2122 Clouds 34 1007 33 10000 2.47 195 15:25 09.04.2022
2123 Clouds 34 1006 31 10000 2.1 202 14:25 09.04.2022
2124 Clouds 35 1005 28 10000 2.27 204 13:26 09.04.2022
2125 Clouds 36 1005 28 10000 2.27 204 12:54 09.04.2022
2126 Clouds 37 1005 26 10000 1.73 201 11:45 09.04.2022
2127 Clouds 36 1005 25 10000 1.38 197 10:51 09.04.2022
2128 Clouds 36 1006 25 10000 1.05 191 10:18 09.04.2022
2129 Clouds 35 1007 26 10000 0.55 175 09:22 09.04.2022
2130 Clouds 34 1008 26 10000 0.59 157 07:49 09.04.2022
2131 Clouds 31 1011 34 10000 1.25 42 03:57 09.04.2022
2132 Clouds 28 1009 40 10000 1.16 89 00:34 09.04.2022
2133 Clouds 28 1009 38 10000 2.5 100 23:22 08.04.2022
2134 Clouds 29 1008 37 10000 2.47 92 21:43 08.04.2022
2135 Clouds 29 1009 36 10000 2.75 93 20:43 08.04.2022
2136 Clouds 30 1010 35 10000 3.23 91 19:46 08.04.2022
2137 Clouds 31 1010 36 10000 3.38 120 18:42 08.04.2022
2138 Clouds 31 1010 33 10000 3.39 106 18:18 08.04.2022
2139 Clouds 32 1010 31 10000 3.2 84 17:27 08.04.2022
2140 Clouds 32 1010 31 10000 3.2 84 16:52 08.04.2022
2141 Clouds 32 1009 29 10000 2.75 67 16:26 08.04.2022
2142 Clouds 32 1009 29 10000 2.75 67 15:33 08.04.2022
2143 Clouds 32 1008 29 10000 1.28 71 14:45 08.04.2022
2144 Clouds 34 1008 27 10000 1.05 179 13:59 08.04.2022
2145 Clouds 34 1007 27 10000 3.01 194 13:30 08.04.2022
2146 Clouds 35 1006 25 10000 2.08 208 12:45 08.04.2022
2147 Clouds 36 1006 22 10000 0.41 117 10:56 08.04.2022
2148 Clouds 36 1007 22 10000 1.25 98 09:41 08.04.2022
2149 Clouds 36 1008 23 10000 1.95 100 08:59 08.04.2022
2150 Clouds 35 1009 24 10000 1.72 95 07:43 08.04.2022
2151 Clouds 34 1011 26 10000 1.53 68 06:44 08.04.2022
2152 Clouds 27 1013 36 10000 2.95 49 02:37 08.04.2022
2153 Clouds 27 1010 39 10000 4.14 79 00:29 08.04.2022
2154 Clouds 28 1010 39 10000 4.14 79 23:42 07.04.2022
2155 Clouds 28 1009 38 10000 3.84 83 22:41 07.04.2022
2156 Clouds 28 1009 37 10000 4.06 82 22:23 07.04.2022
2157 Clouds 28 1009 37 10000 4.06 82 21:58 07.04.2022
2158 Clouds 28 1010 35 10000 4.21 79 21:28 07.04.2022
2159 Clouds 29 1010 35 10000 4.21 79 20:42 07.04.2022
2160 Clouds 29 1011 33 10000 4.71 88 19:25 07.04.2022
2161 Clouds 32 1011 31 10000 5.18 75 17:28 07.04.2022
2162 Rain 32 1011 31 10000 5.18 75 16:51 07.04.2022
2163 Clouds 32 1011 31 10000 5.18 75 16:33 07.04.2022
2164 Clouds 32 1010 30 10000 5.42 68 15:40 07.04.2022
2165 Clouds 33 1008 29 10000 3.05 58 13:52 07.04.2022
2166 Clouds 34 1007 32 10000 0.34 31 13:23 07.04.2022
2167 Clouds 34 1007 32 10000 0.45 108 11:49 07.04.2022
2168 Clouds 35 1006 29 10000 0.81 95 10:46 07.04.2022
2169 Clouds 35 1008 29 10000 2.09 72 08:43 07.04.2022
2170 Clouds 34 1011 31 10000 3.81 74 06:59 07.04.2022
2171 Clouds 32 1013 37 10000 4.35 73 04:36 07.04.2022
2172 Clouds 28 1012 45 10000 3.77 88 02:34 07.04.2022
2173 Clouds 30 1010 48 10000 2.66 86 00:43 07.04.2022
2174 Clouds 30 1009 47 10000 2.39 91 23:28 06.04.2022
2175 Rain 30 1009 47 10000 2.39 91 22:44 06.04.2022
2176 Clouds 31 1010 47 10000 2.73 107 22:19 06.04.2022
2177 Clouds 31 1010 46 10000 3.03 105 20:47 06.04.2022
2178 Rain 31 1011 46 10000 3.22 110 19:59 06.04.2022
2179 Rain 31 1011 46 10000 3.35 123 19:20 06.04.2022
2180 Rain 33 1011 46 10000 3.35 123 18:48 06.04.2022
2181 Clouds 33 1012 44 10000 3.78 109 17:36 06.04.2022
2182 Clouds 34 1012 42 10000 4.17 96 16:39 06.04.2022
2183 Clouds 34 1011 40 10000 4.41 95 16:19 06.04.2022
2184 Clouds 35 1011 40 10000 4.41 95 15:40 06.04.2022
2185 Rain 36 1009 40 10000 4.49 148 13:34 06.04.2022
2186 Rain 37 1007 29 10000 1.58 194 12:29 06.04.2022
2187 Rain 37 1007 29 10000 0.55 178 10:57 06.04.2022
2188 Rain 37 1007 29 10000 0.55 178 10:33 06.04.2022
2189 Clouds 37 1008 28 10000 0.99 56 09:46 06.04.2022
2190 Clouds 37 1009 28 10000 2.03 54 08:51 06.04.2022
2191 Clouds 36 1010 30 10000 2.25 52 07:57 06.04.2022
2192 Clouds 34 1013 37 10000 3.18 52 05:23 06.04.2022
2193 Clouds 28 1011 49 10000 1.96 82 00:20 06.04.2022
2194 Rain 29 1011 49 10000 1.96 82 23:47 05.04.2022
2195 Clouds 30 1011 47 10000 2.35 87 21:48 05.04.2022
2196 Clouds 30 1011 47 10000 2.35 87 21:48 05.04.2022
2197 Clouds 30 1011 47 10000 2.35 87 21:48 05.04.2022
2198 Rain 30 1012 47 10000 2.42 84 20:58 05.04.2022
2199 Rain 30 1012 47 10000 2.69 90 20:23 05.04.2022
2200 Clouds 30 1013 44 10000 3.5 88 18:28 05.04.2022
2201 Rain 32 1013 42 10000 3.63 84 17:20 05.04.2022
2202 Clouds 32 1013 42 10000 3.63 84 16:42 05.04.2022
2203 Clouds 33 1012 39 10000 3.51 86 15:50 05.04.2022
2204 Clouds 33 1012 39 10000 3.51 86 15:30 05.04.2022
2205 Rain 34 1010 36 10000 3.16 98 13:46 05.04.2022
2206 Clouds 35 1008 32 10000 3.25 95 12:29 05.04.2022
2207 Clouds 35 1008 32 10000 3.25 95 11:43 05.04.2022
2208 Clouds 35 1009 32 10000 2.94 101 11:24 05.04.2022
2209 Clouds 36 1009 32 10000 2.98 104 09:31 05.04.2022
2210 Clouds 35 1012 33 10000 3.24 81 08:27 05.04.2022
2211 Clouds 29 1016 45 10000 1.54 56 03:37 05.04.2022
2212 Clouds 26 1013 54 10000 1.78 50 23:38 04.04.2022
2213 Clouds 26 1012 54 10000 2.47 54 22:37 04.04.2022
2214 Clouds 26 1012 52 10000 2.84 61 21:46 04.04.2022
2215 Clouds 27 1013 51 10000 3.02 67 21:18 04.04.2022
2216 Clouds 27 1013 51 10000 3.02 67 20:47 04.04.2022
2217 Clouds 29 1014 49 10000 3.55 74 19:28 04.04.2022
2218 Clouds 29 1014 49 10000 3.55 74 18:40 04.04.2022
2219 Clouds 31 1014 49 10000 3.7 94 17:19 04.04.2022
2220 Clouds 31 1014 49 10000 4.08 108 16:28 04.04.2022
2221 Clouds 31 1014 49 10000 4.08 108 15:33 04.04.2022
2222 Clouds 32 1014 48 10000 4.81 117 14:46 04.04.2022
2223 Clouds 32 1012 40 10000 2.91 71 13:59 04.04.2022
2224 Clouds 32 1011 39 10000 2.96 62 12:58 04.04.2022
2225 Clouds 33 1010 37 10000 3.43 70 11:29 04.04.2022
2226 Clouds 33 1010 36 10000 3.2 57 09:53 04.04.2022
2227 Clouds 28 1015 41 10000 2.22 38 05:34 04.04.2022
2228 Clouds 24 1015 51 10000 2.08 11 02:59 04.04.2022
2229 Clouds 22 1012 56 10000 2.35 343 23:19 03.04.2022
2230 Clouds 24 1012 56 10000 2.15 354 22:00 03.04.2022
2231 Clouds 24 1013 55 10000 2.29 16 21:27 03.04.2022
2232 Clouds 24 1013 55 10000 2.29 16 20:30 03.04.2022
2233 Clouds 24 1014 52 10000 3.91 68 18:46 03.04.2022
2234 Clouds 25 1015 52 10000 4.45 72 17:55 03.04.2022
2235 Clouds 25 1015 52 10000 4.45 72 17:35 03.04.2022
2236 Clouds 25 1015 52 10000 5.33 78 16:49 03.04.2022
2237 Clouds 25 1014 52 10000 5.59 84 15:56 03.04.2022
2238 Clouds 26 1013 51 10000 5.41 83 14:25 03.04.2022
2239 Clouds 26 1012 48 10000 4.72 85 13:28 03.04.2022
2240 Clouds 27 1011 45 10000 3.49 54 11:50 03.04.2022
2241 Clouds 29 1012 45 10000 3.05 44 09:57 03.04.2022
2242 Clouds 27 1013 45 10000 2.9 60 08:57 03.04.2022
2243 Clouds 26 1016 47 10000 3.58 35 05:45 03.04.2022
2244 Clouds 23 1015 58 10000 3.72 60 02:55 03.04.2022
2245 Clouds 23 1013 63 10000 2.55 48 23:48 02.04.2022
2246 Clouds 23 1013 63 10000 2 16 22:45 02.04.2022
2247 Clouds 23 1013 62 10000 2.2 351 21:56 02.04.2022
2248 Clouds 23 1013 62 10000 2.12 11 21:20 02.04.2022
2249 Clouds 24 1013 62 10000 2.12 11 20:36 02.04.2022
2250 Clouds 24 1013 62 10000 2.12 11 20:36 02.04.2022
2251 Clouds 24 1015 61 10000 4.34 74 18:47 02.04.2022
2252 Clouds 24 1015 61 10000 5.16 73 18:19 02.04.2022
2253 Clouds 25 1015 60 10000 5.48 72 17:23 02.04.2022
2254 Clouds 24 1015 61 10000 5.53 73 15:55 02.04.2022
2255 Clouds 24 1014 60 10000 5.53 72 15:20 02.04.2022
2256 Clouds 24 1014 60 10000 5.53 72 14:31 02.04.2022
2257 Clouds 25 1013 58 10000 6.09 84 13:34 02.04.2022
2258 Clouds 26 1011 54 10000 7.05 86 12:21 02.04.2022
2259 Clouds 28 1011 51 10000 6.96 85 10:31 02.04.2022
2260 Clouds 29 1012 51 10000 7.24 86 08:33 02.04.2022
2261 Clouds 28 1015 57 10000 3.91 74 05:24 02.04.2022
2262 Clouds 25 1014 60 10000 3.6 48 02:56 02.04.2022
2263 Clouds 27 1011 63 10000 5.02 53 23:54 01.04.2022
2264 Clouds 27 1010 63 10000 5.53 61 22:51 01.04.2022
2265 Clouds 27 1011 63 10000 6.41 67 21:24 01.04.2022
2266 Clouds 27 1011 63 10000 6.41 67 20:48 01.04.2022
2267 Clouds 28 1011 63 10000 6.32 72 19:50 01.04.2022
2268 Clouds 28 1012 62 10000 6.88 75 19:26 01.04.2022
2269 Clouds 29 1012 62 10000 6.88 75 18:42 01.04.2022
2270 Clouds 29 1012 60 10000 6.99 72 17:43 01.04.2022
2271 Clouds 30 1012 58 10000 7.31 69 16:33 01.04.2022
2272 Clouds 30 1010 55 10000 7.63 68 15:18 01.04.2022
2273 Clouds 32 1009 52 10000 7.38 71 14:18 01.04.2022
2274 Clouds 34 1009 53 10000 5.63 71 13:32 01.04.2022
2275 Clouds 34 1007 51 10000 6.13 88 12:30 01.04.2022
2276 Clouds 34 1006 40 10000 4.27 33 10:54 01.04.2022
2277 Clouds 35 1006 40 10000 3.63 15 09:49 01.04.2022
2278 Clouds 34 1009 41 10000 1.99 353 07:50 01.04.2022
2279 Clouds 32 1011 47 10000 2.61 74 05:45 01.04.2022
2280 Clouds 31 1012 52 10000 3.49 84 04:43 01.04.2022
2281 Clouds 30 1011 64 10000 3.5 75 03:21 01.04.2022
2282 Clouds 29 1010 68 10000 2.19 57 01:52 01.04.2022
2283 Clouds 30 1008 67 10000 1.26 316 22:37 31.03.2022
2284 Clouds 29 1007 67 10000 1 268 21:44 31.03.2022
2285 Clouds 30 1007 67 10000 2.2 256 20:51 31.03.2022
2286 Clouds 30 1007 67 10000 2.2 256 20:51 31.03.2022
2287 Clouds 30 1008 67 10000 2.45 242 20:28 31.03.2022
2288 Clouds 31 1008 70 10000 2.62 236 19:43 31.03.2022
2289 Clouds 30 1009 70 10000 3.23 204 18:35 31.03.2022
2290 Rain 33 1009 57 10000 3.58 163 16:53 31.03.2022
2291 Rain 33 1008 47 10000 1.81 115 15:58 31.03.2022
2292 Rain 34 1007 46 10000 0.99 123 15:29 31.03.2022
2293 Rain 34 1007 46 10000 0.99 123 14:49 31.03.2022
2294 Clouds 34 1006 45 10000 0.6 134 13:53 31.03.2022
2295 Clouds 35 1005 43 10000 3 321 11:31 31.03.2022
2296 Clouds 36 1005 38 10000 1.1 157 10:27 31.03.2022
2297 Clouds 37 1005 38 10000 1.1 157 09:40 31.03.2022
2298 Clouds 34 1008 37 10000 1.47 41 07:49 31.03.2022
2299 Clouds 30 1011 55 10000 0.44 304 03:48 31.03.2022
2300 Clouds 28 1007 67 10000 1.59 237 23:25 30.03.2022
2301 Clouds 28 1007 67 10000 2.1 233 22:19 30.03.2022
2302 Clouds 29 1007 67 10000 2.1 233 21:31 30.03.2022
2303 Clouds 29 1008 67 10000 2.42 233 20:44 30.03.2022
2304 Clouds 29 1008 66 10000 2.67 222 19:48 30.03.2022
2305 Clouds 30 1008 65 10000 3.62 205 18:44 30.03.2022
2306 Clouds 30 1009 64 10000 3.99 200 17:52 30.03.2022
2307 Clouds 31 1009 62 10000 4.12 202 17:23 30.03.2022
2308 Clouds 31 1009 62 10000 4.12 202 16:41 30.03.2022
2309 Clouds 32 1008 58 10000 4.34 192 15:59 30.03.2022
2310 Clouds 32 1008 53 10000 3.72 170 14:36 30.03.2022
2311 Clouds 33 1007 54 10000 3.35 195 13:22 30.03.2022
2312 Clouds 33 1007 54 10000 3.35 195 12:32 30.03.2022
2313 Clouds 34 1006 45 10000 3.98 179 10:48 30.03.2022
2314 Clouds 34 1006 42 10000 2.92 165 09:55 30.03.2022
2315 Clouds 32 1008 44 10000 1.86 148 08:21 30.03.2022
2316 Clouds 32 1010 46 10000 1.62 132 06:50 30.03.2022
2317 Rain 31 1011 49 10000 1.06 130 05:40 30.03.2022
2318 Clouds 28 1010 73 10000 0.91 119 01:48 30.03.2022
2319 Clouds 27 1008 77 10000 2.16 182 22:42 29.03.2022
2320 Clouds 29 1008 76 10000 2.55 182 21:49 29.03.2022
2321 Clouds 29 1009 74 10000 3.37 176 21:28 29.03.2022
2322 Rain 29 1009 73 10000 3.76 176 20:25 29.03.2022
2323 Clouds 29 1009 73 10000 2.3 183 19:31 29.03.2022
2324 Rain 29 1010 68 10000 3.75 181 18:53 29.03.2022
2325 Clouds 29 1010 66 10000 4.56 185 17:48 29.03.2022
2326 Clouds 29 1010 64 10000 4.6 179 17:18 29.03.2022
2327 Clouds 29 1010 64 10000 4.6 179 16:52 29.03.2022
2328 Clouds 30 1009 61 10000 4.81 183 15:20 29.03.2022
2329 Clouds 30 1009 61 10000 4.81 183 14:43 29.03.2022
2330 Clouds 31 1008 59 10000 3.7 168 13:33 29.03.2022
2331 Clouds 33 1005 53 10000 5.76 158 11:58 29.03.2022
2332 Clouds 33 1006 50 10000 4.75 148 10:59 29.03.2022
2333 Clouds 33 1006 48 10000 4.08 148 09:50 29.03.2022
2334 Clouds 33 1007 45 10000 4.38 175 08:32 29.03.2022
2335 Clouds 31 1011 49 10000 3 154 05:44 29.03.2022
2336 Rain 27 1010 73 10000 0.66 220 01:32 29.03.2022
2337 Rain 27 1008 72 10000 0.97 297 23:26 28.03.2022
2338 Rain 27 1008 72 10000 0.97 297 22:55 28.03.2022
2339 Rain 27 1008 72 10000 0.97 297 22:30 28.03.2022
2340 Rain 28 1009 70 10000 1.11 271 21:18 28.03.2022
2341 Clouds 28 1009 65 10000 1.28 141 20:32 28.03.2022
2342 Clouds 29 1010 65 10000 0.6 183 19:46 28.03.2022
2343 Clouds 30 1010 63 10000 2.25 215 19:28 28.03.2022
2344 Clouds 29 1010 63 10000 2.25 215 18:40 28.03.2022
2345 Clouds 30 1010 63 10000 3.03 202 17:39 28.03.2022
2346 Clouds 30 1010 66 10000 2.56 223 16:38 28.03.2022
2347 Clouds 31 1009 60 10000 5.35 184 14:50 28.03.2022
2348 Clouds 32 1008 58 10000 4.73 170 14:22 28.03.2022
2349 Clouds 34 1006 51 10000 4.66 167 12:41 28.03.2022
2350 Clouds 34 1005 44 10000 5.25 170 11:38 28.03.2022
2351 Clouds 34 1006 42 10000 4.08 185 09:43 28.03.2022
2352 Clouds 34 1007 46 10000 3.91 185 09:19 28.03.2022
2353 Clouds 35 1008 39 10000 5.34 174 08:23 28.03.2022
2354 Clouds 35 1008 39 10000 5.34 174 07:40 28.03.2022
2355 Clouds 31 1011 61 10000 3.16 170 04:18 28.03.2022
2356 Clouds 30 1008 74 10000 2.77 170 23:43 27.03.2022
2357 Clouds 28 1008 72 10000 3.31 181 22:25 27.03.2022
2358 Clouds 28 1008 72 10000 3.31 181 21:42 27.03.2022
2359 Clouds 29 1009 71 10000 3.64 181 20:58 27.03.2022
2360 Clouds 30 1009 66 10000 3.73 177 19:49 27.03.2022
2361 Clouds 30 1010 62 10000 3.88 163 19:26 27.03.2022
2362 Rain 31 1010 60 10000 4.22 162 18:28 27.03.2022
2363 Clouds 31 1010 60 10000 4.22 162 17:40 27.03.2022
2364 Clouds 31 1011 61 10000 2.84 182 17:20 27.03.2022
2365 Clear 32 1008 63 10000 5.82 195 15:25 27.03.2022
2366 Clear 33 1006 54 10000 5.47 178 13:56 27.03.2022
2367 Clear 34 1006 47 10000 5.11 171 12:38 27.03.2022
2368 Clouds 34 1006 40 10000 5.34 171 11:20 27.03.2022
2369 Clear 36 1008 40 10000 4.91 176 08:53 27.03.2022
2370 Clear 34 1011 49 10000 4.29 184 05:54 27.03.2022
2371 Clouds 29 1010 73 10000 3.49 181 00:57 27.03.2022
2372 Clouds 28 1009 74 10000 3.27 185 23:46 26.03.2022
2373 Clouds 29 1009 74 10000 3.77 183 22:38 26.03.2022
2374 Rain 29 1008 74 10000 4.09 187 21:38 26.03.2022
2375 Rain 29 1008 74 10000 4.09 187 21:38 26.03.2022
2376 Clouds 28 1008 73 10000 4.66 191 20:57 26.03.2022
2377 Clear 30 1009 72 10000 5.86 188 19:21 26.03.2022
2378 Clear 30 1010 72 10000 5.96 187 17:54 26.03.2022
2379 Clear 30 1010 72 10000 5.96 187 17:54 26.03.2022
2380 Clear 31 1010 72 10000 5.96 187 17:33 26.03.2022
2381 Clear 31 1010 68 10000 6.13 181 16:27 26.03.2022
2382 Clear 32 1010 66 10000 6.23 183 14:57 26.03.2022
2383 Clear 33 1009 63 10000 6.52 186 13:53 26.03.2022
2384 Clouds 34 1010 100 10000 5.61 178 12:51 26.03.2022
2385 Clouds 35 1007 47 10000 5.18 169 11:41 26.03.2022
2386 Clouds 37 1009 100 10000 5.16 174 10:22 26.03.2022
2387 Clouds 35 1010 100 10000 4.75 176 08:34 26.03.2022
2388 Clear 35 1013 100 10000 4.33 187 05:54 26.03.2022
2389 Clear 34 1014 100 10000 4.39 190 04:21 26.03.2022
2390 Clear 29 1010 74 10000 3.68 181 23:51 25.03.2022
2391 Clear 29 1009 72 10000 4.27 185 21:35 25.03.2022
2392 Clear 29 1009 71 10000 4.63 185 20:46 25.03.2022
2393 Rain 30 1009 72 10000 5.37 185 19:28 25.03.2022
2394 Rain 31 1009 72 10000 5.37 185 18:47 25.03.2022
2395 Rain 30 1010 71 10000 5.6 184 17:37 25.03.2022
2396 Clouds 30 1010 70 10000 5.59 184 16:50 25.03.2022
2397 Clouds 30 1010 69 10000 5.91 177 15:57 25.03.2022
2398 Clouds 32 1009 66 10000 6.29 184 13:58 25.03.2022
2399 Clouds 32 1008 64 10000 6.77 183 12:32 25.03.2022
2400 Rain 33 1006 45 10000 6 178 09:55 25.03.2022
2401 Clouds 33 1007 44 10000 6 181 09:26 25.03.2022
2402 Clouds 33 1008 45 10000 5.98 183 07:51 25.03.2022
2403 Rain 34 1009 46 10000 5.34 183 07:23 25.03.2022
2404 Clouds 33 1010 51 10000 4.6 184 05:23 25.03.2022
2405 Clouds 28 1009 76 10000 3.23 169 00:33 25.03.2022
2406 Clouds 28 1007 73 10000 3.1 184 22:30 24.03.2022
2407 Clouds 29 1007 72 10000 3.43 187 21:34 24.03.2022
2408 Clouds 29 1007 69 10000 4.2 186 19:50 24.03.2022
2409 Rain 29 1008 70 10000 5.13 180 18:54 24.03.2022
2410 Rain 30 1009 69 10000 5.4 179 17:39 24.03.2022
2411 Clouds 30 1009 67 10000 5.51 180 16:54 24.03.2022
2412 Clouds 30 1009 64 10000 5.28 183 15:19 24.03.2022
2413 Clouds 30 1009 64 10000 5.28 183 14:41 24.03.2022
2414 Clouds 30 1008 63 10000 5.36 184 13:54 24.03.2022
2415 Clouds 31 1007 60 10000 5.61 187 12:39 24.03.2022
2416 Clouds 31 1006 51 10000 5.17 182 11:31 24.03.2022
2417 Rain 31 1005 46 10000 5.61 173 09:36 24.03.2022
2418 Clouds 31 1006 45 10000 5.76 178 08:40 24.03.2022
2419 Clouds 31 1006 45 10000 5.76 178 08:40 24.03.2022
2420 Clouds 33 1009 49 10000 4.51 187 06:19 24.03.2022
2421 Clouds 27 1009 72 10000 2.86 187 01:28 24.03.2022
2422 Clouds 26 1007 73 10000 3.68 189 22:29 23.03.2022
2423 Clouds 28 1007 73 10000 3.68 186 21:25 23.03.2022
2424 Clouds 28 1007 73 10000 3.68 186 20:47 23.03.2022
2425 Clouds 29 1008 72 10000 4.06 188 19:43 23.03.2022
2426 Clouds 29 1008 72 10000 4.06 188 19:43 23.03.2022
2427 Clouds 29 1009 67 10000 4.71 187 18:22 23.03.2022
2428 Clouds 29 1009 67 10000 4.71 187 17:36 23.03.2022
2429 Rain 30 1009 64 10000 4.49 179 16:18 23.03.2022
2430 Clouds 30 1008 62 10000 4.32 179 14:50 23.03.2022
2431 Clouds 28 1008 60 10000 3.98 179 13:51 23.03.2022
2432 Clouds 31 1006 56 10000 5.07 178 11:51 23.03.2022
2433 Rain 34 1006 47 10000 6.17 176 09:21 23.03.2022
2434 Clouds 32 1010 50 10000 3.45 176 06:29 23.03.2022
2435 Clouds 31 1012 61 10000 2.66 175 03:57 23.03.2022
2436 Clouds 27 1009 72 9480 2.64 191 00:29 23.03.2022
2437 Clouds 27 1008 71 10000 3.69 184 22:25 22.03.2022
2438 Clouds 28 1008 71 10000 3.81 183 21:29 22.03.2022
2439 Clouds 28 1008 71 10000 3.81 183 20:39 22.03.2022
2440 Clouds 29 1009 71 10000 3.78 178 19:31 22.03.2022
2441 Clouds 28 1010 70 10000 4.25 177 18:57 22.03.2022
2442 Clouds 29 1010 70 10000 4.9 173 17:47 22.03.2022
2443 Clouds 29 1010 69 10000 5.18 174 17:23 22.03.2022
2444 Clouds 30 1010 67 10000 5.28 177 15:52 22.03.2022
2445 Clouds 30 1009 66 10000 5.35 173 15:21 22.03.2022
2446 Clouds 31 1009 66 10000 5.35 173 14:46 22.03.2022
2447 Clouds 30 1009 64 10000 4.94 176 14:24 22.03.2022
2448 Clouds 31 1007 61 10000 5.51 175 12:41 22.03.2022
2449 Rain 32 1006 51 10000 6.13 176 11:26 22.03.2022
2450 Rain 32 1006 47 10000 5.93 183 09:55 22.03.2022
2451 Rain 32 1007 45 10000 5.75 184 07:48 22.03.2022
2452 Clouds 32 1010 49 10000 4.71 174 04:36 22.03.2022
2453 Clouds 31 1010 59 10000 3.94 168 02:54 22.03.2022
2454 Clouds 28 1008 74 10000 3.55 178 23:21 21.03.2022
2455 Clouds 28 1008 74 10000 4.11 171 21:51 21.03.2022
2456 Clouds 28 1008 71 10000 4.35 168 20:45 21.03.2022
2457 Rain 28 1009 71 10000 4.33 160 20:26 21.03.2022
2458 Clouds 28 1009 71 10000 4.33 160 19:53 21.03.2022
2459 Clouds 28 1009 69 10000 4.67 170 19:23 21.03.2022
2460 Clouds 29 1010 70 10000 4.93 161 17:43 21.03.2022
2461 Clouds 30 1010 69 10000 5.19 169 17:00 21.03.2022
2462 Clouds 30 1010 69 10000 5.19 169 16:36 21.03.2022
2463 Clouds 30 1010 67 10000 5.14 175 15:46 21.03.2022
2464 Rain 30 1009 65 10000 5.78 176 14:48 21.03.2022
2465 Clouds 31 1009 64 10000 5.92 168 13:35 21.03.2022
2466 Rain 31 1007 62 10000 6.53 171 12:31 21.03.2022
2467 Rain 31 1006 58 10000 6.71 171 11:39 21.03.2022
2468 Rain 33 1006 51 10000 7.21 171 09:54 21.03.2022
2469 Clouds 33 1007 47 10000 6.97 171 07:54 21.03.2022
2470 Rain 33 1008 47 10000 6.74 171 06:31 21.03.2022
2471 Clouds 29 1010 57 10000 5.64 162 02:33 21.03.2022
2472 Rain 26 1007 70 10000 4.96 176 23:32 20.03.2022
2473 Rain 26 1007 72 10000 5.46 174 22:42 20.03.2022
2474 Rain 27 1006 74 7799 5.75 175 21:44 20.03.2022
2475 Rain 28 1006 71 10000 5.2 177 20:59 20.03.2022
2476 Rain 28 1006 71 10000 5.2 177 20:59 20.03.2022
2477 Clouds 28 1006 71 10000 5.2 177 20:39 20.03.2022
2478 Clouds 28 1007 71 10000 5.06 184 19:56 20.03.2022
2479 Clouds 28 1008 71 10000 5.23 189 19:25 20.03.2022
2480 Clouds 30 1008 70 10000 5.52 188 17:50 20.03.2022
2481 Clouds 30 1008 69 10000 5.42 183 17:28 20.03.2022
2482 Clouds 30 1008 69 10000 5.42 183 16:40 20.03.2022
2483 Clouds 29 1007 67 10000 5.81 182 14:53 20.03.2022
2484 Clouds 29 1006 65 10000 5.75 184 13:39 20.03.2022
2485 Clouds 29 1004 60 10000 6.4 181 12:20 20.03.2022
2486 Rain 30 1003 48 10000 6.18 184 10:28 20.03.2022
2487 Clouds 35 1004 42 10000 6.09 181 08:26 20.03.2022
2488 Clouds 33 1006 43 10000 5.64 173 06:40 20.03.2022
2489 Rain 31 1009 58 10000 2.82 153 03:27 20.03.2022
2490 Rain 27 1007 71 10000 2.16 145 00:54 20.03.2022
2491 Rain 27 1007 71 10000 2.16 145 00:54 20.03.2022
2492 Clouds 27 1007 66 10000 3.3 169 00:34 20.03.2022
2493 Clouds 27 1005 65 10000 3.5 174 22:39 19.03.2022
2494 Clouds 27 1005 68 10000 4.79 194 21:27 19.03.2022
2495 Clouds 28 1006 69 10000 5.18 193 19:39 19.03.2022
2496 Clouds 27 1006 69 10000 5.4 192 18:44 19.03.2022
2497 Clouds 29 1006 70 10000 6.34 189 17:55 19.03.2022
2498 Clouds 31 1006 70 10000 6.34 189 17:33 19.03.2022
2499 Clouds 31 1007 66 10000 6.39 193 15:40 19.03.2022
2500 Clouds 33 1005 60 10000 6.3 193 14:21 19.03.2022
2501 Clouds 33 1004 54 10000 5.64 184 12:56 19.03.2022
2502 Clouds 33 1004 54 10000 5.64 184 12:37 19.03.2022
2503 Clouds 34 1003 52 10000 5.12 186 11:46 19.03.2022
2504 Clouds 35 1002 41 10000 5.75 184 09:55 19.03.2022
2505 Clouds 33 1007 38 10000 1.38 141 05:48 19.03.2022
2506 Clouds 28 1009 51 10000 1.69 107 02:37 19.03.2022
2507 Clouds 27 1007 64 10000 2.21 75 00:54 19.03.2022
2508 Clouds 28 1006 67 10000 2.12 85 23:19 18.03.2022
2509 Clouds 27 1006 67 10000 2.5 92 22:22 18.03.2022
2510 Clouds 28 1006 65 10000 2.77 101 20:40 18.03.2022
2511 Clouds 28 1006 63 10000 2.35 98 19:45 18.03.2022
2512 Clouds 28 1007 61 10000 2.31 103 19:18 18.03.2022
2513 Clouds 30 1007 61 10000 2.64 167 17:27 18.03.2022
2514 Clouds 30 1007 61 10000 2.64 167 16:42 18.03.2022
2515 Clouds 30 1006 57 10000 4 205 14:29 18.03.2022
2516 Clouds 31 1006 57 10000 4 205 13:41 18.03.2022
2517 Clouds 32 1004 49 10000 5.34 172 11:43 18.03.2022
2518 Clouds 34 1002 40 10000 5.66 171 10:27 18.03.2022
2519 Clouds 34 1002 40 10000 5.66 171 10:27 18.03.2022
2520 Clouds 35 1004 38 10000 5.31 178 09:20 18.03.2022
2521 Clouds 35 1005 38 10000 4.97 177 07:43 18.03.2022
2522 Clouds 34 1009 43 10000 4.04 177 05:20 18.03.2022
2523 Clouds 30 1008 66 10000 3.1 182 01:55 18.03.2022
2524 Clouds 29 1006 74 10000 3.02 174 00:20 18.03.2022
2525 Clouds 29 1006 73 10000 3.39 178 22:54 17.03.2022
2526 Clouds 29 1006 73 10000 3.93 182 22:20 17.03.2022
2527 Clouds 29 1006 73 10000 3.93 182 21:46 17.03.2022
2528 Clouds 29 1006 73 10000 4.15 189 20:58 17.03.2022
2529 Rain 29 1006 72 10000 4.57 191 20:28 17.03.2022
2530 Clouds 29 1006 72 10000 4.57 191 19:39 17.03.2022
2531 Clouds 29 1007 72 10000 4.36 196 18:55 17.03.2022
2532 Clouds 29 1007 71 10000 5.5 190 17:47 17.03.2022
2533 Clouds 30 1007 68 10000 5.56 189 16:29 17.03.2022
2534 Clouds 30 1007 68 10000 5.56 189 15:43 17.03.2022
2535 Clouds 30 1006 66 10000 5.37 184 15:18 17.03.2022
2536 Clouds 31 1005 64 10000 5.42 178 13:47 17.03.2022
2537 Clouds 32 1004 62 10000 5.88 179 12:47 17.03.2022
2538 Clouds 35 1004 56 10000 6.07 181 11:36 17.03.2022
2539 Clouds 36 1003 46 10000 5.98 184 10:44 17.03.2022
2540 Clouds 36 1003 41 10000 5.45 188 09:37 17.03.2022
2541 Clouds 36 1005 41 10000 5.48 183 08:20 17.03.2022
2542 Clouds 34 1007 45 10000 4.39 178 05:53 17.03.2022
2543 Clouds 33 1009 48 10000 4 181 04:40 17.03.2022
2544 Clouds 28 1007 75 10000 3.66 184 00:27 17.03.2022
2545 Clouds 28 1006 75 10000 4.31 189 22:56 16.03.2022
2546 Clouds 28 1006 75 10000 4.31 189 22:36 16.03.2022
2547 Clouds 28 1006 74 10000 4.7 187 21:56 16.03.2022
2548 Clouds 29 1006 74 10000 4.86 186 20:40 16.03.2022
2549 Clouds 30 1007 72 10000 5.18 188 19:23 16.03.2022
2550 Rain 29 1007 72 10000 5.36 186 18:42 16.03.2022
2551 Clouds 30 1007 71 10000 6.03 189 17:49 16.03.2022
2552 Clouds 30 1007 71 10000 6.03 189 17:31 16.03.2022
2553 Clouds 30 1007 69 10000 6.87 181 16:21 16.03.2022
2554 Clouds 31 1007 66 10000 6.89 178 14:50 16.03.2022
2555 Clouds 32 1006 64 10000 6.48 172 13:36 16.03.2022
2556 Rain 32 1005 61 10000 7.03 172 12:55 16.03.2022
2557 Rain 36 1004 46 10000 6.1 166 11:23 16.03.2022
2558 Rain 36 1004 46 10000 6.1 166 10:32 16.03.2022
2559 Rain 37 1004 43 10000 5.81 171 09:56 16.03.2022
2560 Clear 37 1005 41 10000 5.94 176 07:43 16.03.2022
2561 Clouds 33 1008 54 10000 4.07 193 02:45 16.03.2022
2562 Clouds 29 1005 77 10000 3.67 193 22:55 15.03.2022
2563 Clouds 28 1005 77 10000 3.67 193 22:35 15.03.2022
2564 Clouds 30 1005 76 10000 4.64 179 20:55 15.03.2022
2565 Rain 29 1006 75 10000 5.17 179 19:39 15.03.2022
2566 Rain 29 1006 75 10000 5.92 178 17:46 15.03.2022
2567 Clouds 30 1006 73 10000 6.01 181 16:38 15.03.2022
2568 Clouds 30 1006 71 10000 6.34 191 15:38 15.03.2022
2569 Clouds 31 1006 68 10000 6.31 194 14:53 15.03.2022
2570 Clouds 31 1005 65 10000 6.17 190 13:56 15.03.2022
2571 Clouds 32 1004 61 10000 5.34 195 13:21 15.03.2022
2572 Clouds 35 1003 57 10000 6.32 195 11:33 15.03.2022
2573 Clouds 36 1003 45 10000 5.38 187 10:27 15.03.2022
2574 Clouds 36 1004 43 10000 5.51 181 09:20 15.03.2022
2575 Clouds 36 1005 44 10000 5.93 174 08:21 15.03.2022
2576 Rain 36 1005 44 10000 5.93 174 07:36 15.03.2022
2577 Clouds 33 1007 50 10000 4.78 186 05:55 15.03.2022
2578 Clouds 28 1007 76 10000 3.75 180 00:25 15.03.2022
2579 Clouds 28 1006 76 10000 4.25 180 23:28 14.03.2022
2580 Clouds 28 1006 76 10000 4.25 180 22:49 14.03.2022
2581 Clouds 30 1006 76 10000 4.29 184 21:51 14.03.2022
2582 Clouds 30 1006 75 10000 4.12 186 20:55 14.03.2022
2583 Clouds 30 1007 75 10000 4.18 185 20:24 14.03.2022
2584 Clouds 30 1007 73 10000 4.31 181 19:22 14.03.2022
2585 Clouds 30 1007 73 10000 5.54 183 17:55 14.03.2022
2586 Rain 30 1007 73 10000 5.54 183 17:33 14.03.2022
2587 Clouds 30 1008 69 10000 5.91 190 16:27 14.03.2022
2588 Clouds 31 1008 68 10000 5.9 192 14:47 14.03.2022
2589 Clouds 31 1006 65 10000 6.09 193 13:20 14.03.2022
2590 Clouds 34 1005 56 10000 6.31 187 10:59 14.03.2022
2591 Clouds 35 1005 50 10000 6.04 185 09:56 14.03.2022
2592 Clouds 35 1005 47 10000 5.73 180 09:23 14.03.2022
2593 Clouds 35 1005 47 10000 5.73 180 08:57 14.03.2022
2594 Clouds 36 1006 46 10000 6.07 177 08:24 14.03.2022
2595 Clouds 34 1008 45 10000 5.52 176 05:51 14.03.2022
2596 Rain 31 1009 58 10000 3.17 181 02:57 14.03.2022
2597 Rain 29 1009 66 10000 3.47 188 01:33 14.03.2022
2598 Clouds 29 1007 72 10000 3.3 194 23:25 13.03.2022
2599 Clouds 29 1006 72 10000 3.74 192 21:40 13.03.2022
2600 Clouds 29 1006 71 10000 4.31 185 21:19 13.03.2022
2601 Clouds 29 1006 71 10000 4.31 185 20:43 13.03.2022
2602 Rain 29 1006 70 10000 4.7 178 20:20 13.03.2022
2603 Clouds 30 1006 70 10000 4.7 178 19:40 13.03.2022
2604 Rain 30 1007 68 10000 4.98 176 19:19 13.03.2022
2605 Clouds 31 1007 70 10000 5.27 183 18:40 13.03.2022
2606 Clouds 31 1007 68 10000 5.34 184 17:47 13.03.2022
2607 Clouds 30 1008 66 10000 5.44 187 17:22 13.03.2022
2608 Clouds 31 1008 66 10000 5.44 187 16:43 13.03.2022
2609 Clouds 31 1008 65 10000 5.62 185 16:20 13.03.2022
2610 Clouds 31 1008 65 10000 5.62 185 15:33 13.03.2022
2611 Rain 31 1006 63 10000 5.77 186 13:53 13.03.2022
2612 Rain 32 1006 61 10000 5.83 191 13:19 13.03.2022
2613 Rain 33 1005 57 10000 6.18 189 12:19 13.03.2022
2614 Clouds 35 1005 57 10000 6.18 189 11:36 13.03.2022
2615 Clouds 35 1004 50 10000 6.42 187 10:48 13.03.2022
2616 Clouds 37 1004 46 10000 6.11 191 10:25 13.03.2022
2617 Clouds 37 1004 46 10000 6.11 191 09:41 13.03.2022
2618 Clouds 37 1004 46 10000 6.11 191 09:41 13.03.2022
2619 Clouds 37 1004 43 10000 6.3 188 08:47 13.03.2022
2620 Clouds 37 1005 38 10000 5 181 07:47 13.03.2022
2621 Clouds 35 1008 44 10000 4.14 159 05:48 13.03.2022
2622 Clouds 30 1009 60 10000 3.35 172 02:50 13.03.2022
2623 Rain 28 1006 73 10000 3.48 172 00:20 13.03.2022
2624 Clouds 29 1006 72 10000 3.36 165 22:37 12.03.2022
2625 Rain 29 1006 71 10000 3.23 185 20:54 12.03.2022
2626 Rain 29 1006 70 10000 3.69 186 19:50 12.03.2022
2627 Clouds 29 1006 70 10000 3.69 186 19:32 12.03.2022
2628 Rain 31 1007 66 10000 4.4 180 18:27 12.03.2022
2629 Clouds 31 1007 66 10000 4.4 180 17:34 12.03.2022
2630 Rain 31 1007 64 10000 5.11 180 16:24 12.03.2022
2631 Rain 31 1006 62 10000 5.19 186 15:24 12.03.2022
2632 Rain 33 1006 62 10000 5.19 186 14:40 12.03.2022
2633 Clouds 34 1005 60 10000 5.35 187 13:32 12.03.2022
2634 Clouds 36 1003 45 10000 4.72 186 11:56 12.03.2022
2635 Clouds 36 1003 45 10000 4.72 186 11:38 12.03.2022
2636 Rain 36 1003 41 10000 4.94 181 10:58 12.03.2022
2637 Rain 36 1003 41 10000 4.94 181 10:58 12.03.2022
2638 Clouds 37 1003 40 10000 5.96 181 09:45 12.03.2022
2639 Rain 36 1003 38 10000 5.97 180 08:56 12.03.2022
2640 Clouds 36 1006 38 10000 3.68 160 07:20 12.03.2022
2641 Clouds 32 1009 49 10000 3.02 177 03:36 12.03.2022
2642 Clouds 28 1007 72 10000 2.65 168 23:56 11.03.2022
2643 Clouds 28 1007 72 10000 2.65 168 23:56 11.03.2022
2644 Clouds 28 1006 71 10000 2.8 175 23:18 11.03.2022
2645 Clouds 28 1006 70 10000 3.14 180 21:35 11.03.2022
2646 Rain 28 1006 70 10000 3.48 192 20:55 11.03.2022
2647 Clouds 28 1006 70 10000 3.48 192 20:34 11.03.2022
2648 Clouds 28 1007 71 10000 4.18 193 19:49 11.03.2022
2649 Rain 29 1007 70 10000 4.39 194 19:22 11.03.2022
2650 Clouds 31 1007 71 10000 5.31 187 17:30 11.03.2022
2651 Clouds 31 1008 65 10000 5.15 189 16:27 11.03.2022
2652 Clouds 31 1008 65 10000 5.15 189 15:53 11.03.2022
2653 Clouds 32 1006 58 10000 4.65 183 14:19 11.03.2022
2654 Clouds 33 1005 52 10000 4.38 196 12:44 11.03.2022
2655 Clouds 33 1003 53 10000 5 170 12:21 11.03.2022
2656 Clouds 34 1003 53 10000 5 170 11:51 11.03.2022
2657 Clouds 36 1003 46 10000 5.36 184 09:40 11.03.2022
2658 Clouds 36 1004 45 10000 6.01 185 08:47 11.03.2022
2659 Clouds 35 1005 40 10000 5.38 179 07:53 11.03.2022
2660 Clear 34 1007 41 10000 4.3 169 07:28 11.03.2022
2661 Clear 33 1008 44 10000 3.16 167 05:42 11.03.2022
2662 Rain 30 1009 58 10000 2.76 179 02:56 11.03.2022
2663 Rain 28 1007 75 10000 2.72 188 23:31 10.03.2022
2664 Clouds 28 1007 74 10000 2.79 204 22:29 10.03.2022
2665 Clouds 28 1007 74 10000 3.1 194 21:27 10.03.2022
2666 Rain 27 1007 74 10000 3.1 194 20:49 10.03.2022
2667 Clear 28 1008 72 10000 4 183 19:23 10.03.2022
2668 Clear 28 1008 73 10000 4.33 188 18:39 10.03.2022
2669 Clear 30 1009 71 10000 5.5 189 16:54 10.03.2022
2670 Clear 30 1009 69 10000 5.5 186 15:41 10.03.2022
2671 Clear 31 1007 67 10000 5.9 179 14:23 10.03.2022
2672 Clouds 31 1007 64 10000 5.41 181 12:49 10.03.2022
2673 Clouds 32 1006 58 10000 5.18 182 11:39 10.03.2022
2674 Rain 34 1006 48 10000 4.76 192 10:19 10.03.2022
2675 Rain 34 1006 47 10000 4.99 195 08:48 10.03.2022
2676 Clouds 33 1009 50 10000 3.86 179 05:50 10.03.2022
2677 Rain 30 1011 60 10000 3.81 173 03:33 10.03.2022
2678 Clouds 28 1008 74 10000 3.51 182 00:23 10.03.2022
2679 Clouds 28 1007 73 10000 3.73 186 22:43 09.03.2022
2680 Clouds 28 1008 72 10000 4.11 186 21:48 09.03.2022
2681 Clouds 28 1008 71 10000 4.21 186 20:59 09.03.2022
2682 Clouds 28 1009 68 10000 4.2 189 19:28 09.03.2022
2683 Clouds 29 1009 68 10000 4.8 189 17:57 09.03.2022
2684 Clouds 29 1009 65 10000 4.89 188 17:23 09.03.2022
2685 Rain 30 1009 63 10000 4.64 185 15:41 09.03.2022
2686 Clouds 30 1008 55 10000 4.09 182 14:27 09.03.2022
2687 Clouds 31 1008 55 10000 4.09 182 13:50 09.03.2022
2688 Rain 33 1005 43 10000 3.17 198 12:25 09.03.2022
2689 Rain 34 1005 43 10000 3.17 198 11:48 09.03.2022
2690 Rain 34 1005 38 10000 2.34 183 10:55 09.03.2022
2691 Rain 34 1006 36 10000 1.12 202 09:28 09.03.2022
2692 Clouds 34 1006 36 10000 1.12 202 08:44 09.03.2022
2693 Clouds 32 1010 42 10000 0.47 201 05:56 09.03.2022
2694 Clouds 27 1010 56 10000 0.43 284 00:58 09.03.2022
2695 Clouds 26 1010 56 10000 0.45 267 23:46 08.03.2022
2696 Clouds 26 1009 56 10000 0.62 275 22:45 08.03.2022
2697 Clouds 27 1009 55 10000 0.85 268 21:46 08.03.2022
2698 Clouds 27 1009 55 10000 1.19 279 21:19 08.03.2022
2699 Clouds 27 1010 54 10000 1.7 280 20:18 08.03.2022
2700 Clouds 28 1009 60 10000 2.12 224 18:55 08.03.2022
2701 Clouds 28 1010 59 10000 2.39 223 17:58 08.03.2022
2702 Clouds 29 1011 57 10000 2.53 217 16:37 08.03.2022
2703 Clouds 30 1010 52 10000 2.41 216 14:36 08.03.2022
2704 Clouds 31 1008 48 10000 3.04 237 13:23 08.03.2022
2705 Clouds 32 1007 44 10000 3.61 191 12:20 08.03.2022
2706 Clouds 33 1007 44 10000 3.61 191 11:41 08.03.2022
2707 Clouds 33 1006 37 10000 1.96 136 10:27 08.03.2022
2708 Clouds 33 1007 37 10000 1.79 120 08:54 08.03.2022
2709 Clouds 31 1011 46 10000 1.75 33 05:49 08.03.2022
2710 Clouds 26 1012 68 10000 1.94 28 01:49 08.03.2022
2711 Rain 26 1010 79 10000 4.15 73 22:41 07.03.2022
2712 Rain 25 1010 80 10000 4.62 65 21:36 07.03.2022
2713 Rain 25 1010 76 10000 5.72 66 20:55 07.03.2022
2714 Rain 26 1011 75 10000 5.47 74 20:29 07.03.2022
2715 Clouds 26 1011 75 10000 5.47 74 19:48 07.03.2022
2716 Clouds 26 1011 69 10000 3.91 70 18:48 07.03.2022
2717 Clouds 26 1011 71 10000 4.11 67 18:25 07.03.2022
2718 Clouds 26 1011 70 10000 2.35 54 16:56 07.03.2022
2719 Clouds 27 1011 70 10000 2.35 54 16:34 07.03.2022
2720 Clear 29 1010 66 9340 3.82 78 14:40 07.03.2022
2721 Clouds 33 1007 64 10000 4.92 186 12:34 07.03.2022
2722 Rain 34 1005 47 10000 5.47 197 10:48 07.03.2022
2723 Clouds 35 1005 44 10000 5.82 199 10:25 07.03.2022
2724 Clouds 34 1009 44 10000 4.28 168 07:24 07.03.2022
2725 Clouds 27 1009 75 10000 2.36 204 00:24 07.03.2022
2726 Clouds 28 1009 75 10000 2.36 204 23:58 06.03.2022
2727 Clouds 28 1009 75 10000 2.28 206 23:18 06.03.2022
2728 Clouds 28 1009 74 10000 2.84 201 22:24 06.03.2022
2729 Clouds 29 1009 74 10000 3.73 188 20:56 06.03.2022
2730 Clouds 29 1009 74 10000 4.29 195 20:28 06.03.2022
2731 Clear 29 1010 73 10000 5.13 190 19:29 06.03.2022
2732 Clear 30 1010 72 10000 5.3 179 18:25 06.03.2022
2733 Clear 30 1010 70 10000 5.63 188 17:22 06.03.2022
2734 Clear 30 1010 70 10000 5.63 188 16:44 06.03.2022
2735 Clear 30 1010 70 10000 5.63 188 16:44 06.03.2022
2736 Clouds 30 1010 68 10000 5.88 191 16:20 06.03.2022
2737 Clouds 30 1010 67 10000 6.23 182 14:57 06.03.2022
2738 Clouds 31 1010 67 10000 6.23 182 14:38 06.03.2022
2739 Rain 31 1009 64 10000 5.81 178 13:36 06.03.2022
2740 Rain 32 1007 62 10000 6.17 178 12:35 06.03.2022
2741 Clouds 33 1006 49 10000 5.6 177 11:27 06.03.2022
2742 Clouds 35 1006 45 10000 5.89 180 10:29 06.03.2022
2743 Clouds 35 1006 43 10000 5.92 179 08:40 06.03.2022
2744 Clouds 35 1007 43 10000 5.86 176 08:20 06.03.2022
2745 Clouds 35 1009 47 10000 5.43 177 06:22 06.03.2022
2746 Clouds 29 1009 75 10000 3.63 187 00:55 06.03.2022
2747 Clouds 28 1009 75 10000 3.94 179 00:33 06.03.2022
2748 Clouds 28 1009 75 10000 3.94 179 00:33 06.03.2022
2749 Clouds 29 1007 75 10000 4.45 178 23:26 05.03.2022
2750 Clouds 28 1007 75 10000 4.45 178 22:57 05.03.2022
2751 Clouds 29 1007 74 10000 4.53 183 22:23 05.03.2022
2752 Clouds 29 1007 74 10000 4.63 184 21:23 05.03.2022
2753 Clouds 29 1008 74 10000 5.03 183 19:53 05.03.2022
2754 Clouds 30 1008 74 10000 5.84 182 18:56 05.03.2022
2755 Clouds 30 1009 72 10000 6.18 182 18:27 05.03.2022
2756 Clouds 29 1009 70 10000 6.15 185 16:49 05.03.2022
2757 Clouds 31 1009 68 10000 6.36 181 15:31 05.03.2022
2758 Rain 31 1008 64 10000 6.18 180 14:47 05.03.2022
2759 Clouds 31 1007 60 10000 5.95 172 14:29 05.03.2022
2760 Rain 32 1006 57 10000 5.94 168 13:22 05.03.2022
2761 Rain 35 1005 50 10000 6.25 171 11:48 05.03.2022
2762 Rain 35 1005 40 10000 5.37 180 11:19 05.03.2022
2763 Clouds 36 1005 38 10000 5.15 177 10:20 05.03.2022
2764 Clouds 36 1006 38 10000 5.78 172 09:22 05.03.2022
2765 Clouds 36 1007 37 10000 5.39 171 07:38 05.03.2022
2766 Clouds 34 1009 42 10000 4.07 182 05:43 05.03.2022
2767 Clouds 31 1010 55 10000 3.19 181 03:18 05.03.2022
2768 Clouds 29 1008 72 10000 3.29 172 23:37 04.03.2022
2769 Clouds 29 1007 71 10000 3.41 176 22:42 04.03.2022
2770 Clouds 29 1007 69 10000 3.61 175 21:49 04.03.2022
2771 Clouds 30 1007 67 10000 3.66 180 20:54 04.03.2022
2772 Rain 30 1008 65 10000 3.99 185 20:24 04.03.2022
2773 Clouds 30 1008 65 10000 3.99 185 19:36 04.03.2022
2774 Rain 30 1008 64 10000 4.74 185 18:44 04.03.2022
2775 Rain 30 1009 64 10000 5.45 192 17:32 04.03.2022
2776 Clouds 30 1009 67 10000 6.21 196 16:46 04.03.2022
2777 Clouds 31 1008 59 10000 5.36 186 15:29 04.03.2022
2778 Clouds 32 1007 54 10000 5.34 184 14:29 04.03.2022
2779 Rain 32 1006 47 10000 4.96 192 13:26 04.03.2022
2780 Rain 34 1005 43 10000 5.3 199 11:41 04.03.2022
2781 Rain 35 1005 38 10000 5.19 201 10:50 04.03.2022
2782 Rain 36 1005 35 10000 4.45 195 09:42 04.03.2022
2783 Clear 38 1005 35 10000 3.42 179 08:36 04.03.2022
2784 Rain 37 1008 38 10000 1.93 151 07:23 04.03.2022
2785 Rain 32 1012 48 10000 0.96 200 03:50 04.03.2022
2786 Clear 27 1010 73 10000 1.98 205 00:24 04.03.2022
2787 Clear 28 1009 74 10000 3.08 203 22:26 03.03.2022
2788 Clear 28 1009 74 10000 3.08 203 21:41 03.03.2022
2789 Clear 28 1009 73 10000 3.57 198 21:21 03.03.2022
2790 Clear 29 1010 73 10000 3.73 200 19:50 03.03.2022
2791 Clouds 29 1010 73 10000 3.93 203 18:53 03.03.2022
2792 Clear 29 1010 71 10000 4.77 200 18:22 03.03.2022
2793 Clouds 29 1011 69 10000 4.92 197 17:28 03.03.2022
2794 Clouds 30 1010 67 10000 4.88 185 16:22 03.03.2022
2795 Clouds 30 1010 65 10000 5.08 168 15:20 03.03.2022
2796 Clouds 30 1010 65 10000 5.08 168 14:42 03.03.2022
2797 Clouds 31 1009 55 10000 4.24 179 13:19 03.03.2022
2798 Clouds 34 1007 50 10000 4.94 190 11:54 03.03.2022
2799 Clouds 34 1007 44 10000 4.81 187 10:42 03.03.2022
2800 Clouds 34 1007 41 10000 5.17 186 08:57 03.03.2022
2801 Clouds 34 1009 41 10000 4.96 187 07:45 03.03.2022
2802 Clouds 34 1010 41 10000 3.53 184 06:35 03.03.2022
2803 Clear 28 1012 67 10000 2.21 231 01:52 03.03.2022
2804 Clear 28 1010 74 10000 2.13 197 23:29 02.03.2022
2805 Clear 28 1010 74 10000 2.13 197 22:52 02.03.2022
2806 Clear 29 1010 73 10000 2.73 192 21:30 02.03.2022
2807 Clear 29 1010 73 10000 3.23 187 20:45 02.03.2022
2808 Clear 28 1010 72 10000 3.42 186 20:24 02.03.2022
2809 Clear 30 1010 72 10000 3.42 186 19:35 02.03.2022
2810 Clear 29 1010 70 10000 3.66 186 18:44 02.03.2022
2811 Clear 28 1011 69 10000 4.43 185 17:59 02.03.2022
2812 Clear 30 1011 67 10000 4.5 186 17:28 02.03.2022
2813 Clear 30 1011 67 10000 4.5 186 16:45 02.03.2022
2814 Clear 30 1011 63 10000 4.93 189 14:45 02.03.2022
2815 Clouds 31 1009 57 10000 4.78 190 13:24 02.03.2022
2816 Clouds 32 1009 58 10000 5.18 191 12:43 02.03.2022
2817 Clouds 33 1008 50 10000 5.33 194 11:51 02.03.2022
2818 Clouds 33 1007 43 10000 4.77 192 11:24 02.03.2022
2819 Clouds 33 1007 43 10000 4.77 192 11:24 02.03.2022
2820 Clouds 34 1007 40 10000 3.93 183 09:46 02.03.2022
2821 Clouds 35 1008 42 10000 3.85 182 08:59 02.03.2022
2822 Clouds 35 1009 42 10000 4.23 178 07:39 02.03.2022
2823 Clouds 35 1010 39 10000 3.15 159 06:54 02.03.2022
2824 Clouds 30 1013 57 10000 2.12 200 02:54 02.03.2022
2825 Clouds 28 1011 73 10000 2.04 211 00:29 02.03.2022
2826 Rain 28 1010 75 10000 2.14 195 22:48 01.03.2022
2827 Clouds 28 1010 74 10000 2.64 185 22:21 01.03.2022
2828 Clouds 28 1010 73 10000 3.51 185 21:25 01.03.2022
2829 Clouds 28 1010 73 10000 3.51 185 20:32 01.03.2022
2830 Clouds 29 1010 71 10000 3.89 182 19:44 01.03.2022
2831 Clouds 29 1011 68 10000 3.8 180 18:51 01.03.2022
2832 Clouds 29 1011 69 10000 4.94 184 18:21 01.03.2022
2833 Clouds 29 1011 69 10000 4.94 184 17:30 01.03.2022
2834 Clouds 30 1011 67 10000 4.79 187 16:34 01.03.2022
2835 Clouds 30 1011 64 10000 4.93 184 15:41 01.03.2022
2836 Clouds 31 1011 63 10000 5.24 186 14:40 01.03.2022
2837 Clouds 31 1010 60 10000 5.44 188 13:58 01.03.2022
2838 Clear 31 1009 55 10000 5.33 191 13:25 01.03.2022
2839 Clear 33 1008 54 10000 5.48 192 12:33 01.03.2022
2840 Clear 35 1007 41 10000 5.36 200 10:37 01.03.2022
2841 Clear 36 1007 34 10000 4.42 189 08:45 01.03.2022
2842 Clear 35 1008 34 10000 3.44 171 07:53 01.03.2022
2843 Clouds 34 1011 40 10000 3.3 152 06:20 01.03.2022
2844 Clouds 30 1013 56 10000 1.17 139 02:44 01.03.2022
2845 Clear 27 1012 70 10000 0.92 193 00:34 01.03.2022
2846 Clear 27 1011 70 10000 1.22 185 23:30 28.02.2022
2847 Clear 27 1010 68 10000 2.27 185 22:18 28.02.2022
2848 Clear 27 1010 68 10000 2.27 185 21:37 28.02.2022
2849 Clear 27 1010 65 10000 3.1 188 19:56 28.02.2022
2850 Clear 28 1010 65 10000 3.1 188 19:36 28.02.2022
2851 Clear 28 1010 68 10000 4.5 176 18:43 28.02.2022
2852 Clear 29 1010 66 10000 4.48 180 17:33 28.02.2022
2853 Clear 29 1011 63 10000 4.27 185 16:33 28.02.2022
2854 Clear 30 1010 53 10000 3.75 198 15:24 28.02.2022
2855 Clear 30 1010 53 10000 3.75 198 14:32 28.02.2022
2856 Clear 33 1009 49 10000 3.63 206 13:47 28.02.2022
2857 Clouds 34 1008 45 10000 3.93 210 12:47 28.02.2022
2858 Clouds 34 1008 39 10000 3.42 213 11:58 28.02.2022
2859 Clouds 35 1007 35 10000 2.69 206 10:49 28.02.2022
2860 Clouds 35 1007 34 10000 2.38 195 10:21 28.02.2022
2861 Clouds 35 1007 34 10000 2.38 195 09:33 28.02.2022
2862 Clouds 35 1008 33 10000 2.08 183 08:32 28.02.2022
2863 Clouds 35 1009 34 10000 1.96 155 07:35 28.02.2022
2864 Clouds 34 1013 41 10000 2.28 104 05:21 28.02.2022
2865 Rain 32 1014 46 10000 2.31 106 04:27 28.02.2022
2866 Clouds 26 1011 59 10000 0.79 147 23:44 27.02.2022
2867 Clouds 26 1011 58 10000 0.57 173 22:35 27.02.2022
2868 Clouds 27 1011 57 10000 0.65 203 21:52 27.02.2022
2869 Rain 27 1011 57 10000 0.56 239 21:21 27.02.2022
2870 Rain 27 1011 57 10000 0.56 239 20:32 27.02.2022
2871 Clouds 27 1011 56 10000 0.99 253 19:58 27.02.2022
2872 Clouds 28 1012 56 10000 0.9 231 19:27 27.02.2022
2873 Clouds 28 1012 58 10000 1.36 193 18:47 27.02.2022
2874 Clouds 28 1012 56 10000 1.58 185 17:56 27.02.2022
2875 Clouds 28 1012 56 10000 2.17 189 17:18 27.02.2022
2876 Clear 29 1012 56 10000 3.26 193 16:21 27.02.2022
2877 Rain 31 1011 47 10000 3.58 182 13:34 27.02.2022
2878 Clouds 33 1010 40 10000 2.77 150 12:33 27.02.2022
2879 Clouds 34 1008 30 10000 2.91 69 10:59 27.02.2022
2880 Clouds 35 1008 30 10000 3.34 73 10:20 27.02.2022
2881 Clouds 35 1008 30 10000 3.34 73 09:50 27.02.2022
2882 Clouds 35 1009 29 10000 3.89 75 09:20 27.02.2022
2883 Clouds 34 1010 29 10000 4.16 73 08:20 27.02.2022
2884 Clouds 34 1010 29 10000 4.16 73 08:20 27.02.2022
2885 Clouds 32 1012 30 10000 3.74 92 05:38 27.02.2022
2886 Clouds 26 1014 31 10000 3.21 106 02:35 27.02.2022
2887 Clouds 24 1012 36 10000 2.3 328 23:30 26.02.2022
2888 Clouds 24 1012 36 10000 2.3 328 23:30 26.02.2022
2889 Clouds 24 1011 35 10000 2.46 343 22:31 26.02.2022
2890 Clouds 25 1012 33 10000 2.48 32 21:18 26.02.2022
2891 Clouds 26 1012 31 10000 2.83 57 20:27 26.02.2022
2892 Clouds 26 1012 31 10000 2.83 57 19:52 26.02.2022
2893 Clouds 26 1013 30 10000 3.32 68 19:29 26.02.2022
2894 Rain 28 1013 28 10000 3.83 70 17:55 26.02.2022
2895 Clouds 28 1013 27 10000 4.23 69 17:29 26.02.2022
2896 Clouds 28 1013 27 10000 4.23 69 17:29 26.02.2022
2897 Clouds 29 1013 29 10000 3.58 65 16:19 26.02.2022
2898 Clouds 30 1013 32 10000 3.1 71 15:25 26.02.2022
2899 Clouds 30 1013 32 10000 3.1 71 14:56 26.02.2022
2900 Clouds 31 1013 32 10000 3.1 71 14:38 26.02.2022
2901 Clouds 32 1011 30 10000 0.93 39 13:27 26.02.2022
2902 Clouds 32 1011 30 10000 0.93 39 12:52 26.02.2022
2903 Clouds 32 1010 30 10000 1.02 3 11:38 26.02.2022
2904 Clouds 33 1010 29 10000 1.67 358 10:56 26.02.2022
2905 Clouds 33 1010 29 10000 3.16 7 09:21 26.02.2022
2906 Clouds 32 1012 29 10000 3.47 30 07:57 26.02.2022
2907 Clouds 32 1012 29 10000 3.47 30 07:57 26.02.2022
2908 Clouds 25 1016 35 10000 2.68 100 03:21 26.02.2022
2909 Clouds 24 1013 41 10000 1.8 350 23:32 25.02.2022
2910 Clouds 24 1012 41 10000 2.32 347 21:49 25.02.2022
2911 Clouds 24 1012 40 10000 2.13 9 21:29 25.02.2022
2912 Clouds 25 1012 40 10000 2.13 9 20:33 25.02.2022
2913 Clouds 26 1013 39 10000 2.32 38 19:41 25.02.2022
2914 Clouds 26 1014 35 10000 3.84 66 17:35 25.02.2022
2915 Clouds 27 1014 35 10000 4.16 73 16:46 25.02.2022
2916 Clouds 28 1014 36 10000 4.18 71 15:49 25.02.2022
2917 Clear 28 1014 36 10000 4.49 70 15:23 25.02.2022
2918 Clear 29 1014 36 10000 4.49 70 14:45 25.02.2022
2919 Clear 28 1013 36 10000 4.24 75 14:18 25.02.2022
2920 Clouds 29 1012 36 10000 3.29 80 13:20 25.02.2022
2921 Clouds 31 1011 36 10000 3.22 61 11:39 25.02.2022
2922 Clouds 32 1011 34 10000 3.09 54 11:18 25.02.2022
2923 Clouds 33 1011 34 10000 3.09 47 10:23 25.02.2022
2924 Clouds 33 1011 34 10000 3.09 47 09:36 25.02.2022
2925 Clouds 32 1012 34 10000 3.69 45 07:47 25.02.2022
2926 Clouds 30 1014 34 10000 3.33 44 06:45 25.02.2022
2927 Clouds 29 1015 34 10000 3.58 50 05:37 25.02.2022
2928 Clouds 22 1015 50 10000 1.4 47 00:31 25.02.2022
2929 Clouds 23 1013 50 10000 2.38 328 22:29 24.02.2022
2930 Clouds 24 1013 50 10000 2.38 328 21:43 24.02.2022
2931 Clouds 24 1013 50 10000 2.38 328 21:43 24.02.2022
2932 Clouds 24 1013 49 10000 1.98 336 21:21 24.02.2022
2933 Clouds 25 1013 49 10000 1.98 336 20:42 24.02.2022
2934 Clouds 25 1014 45 10000 3.31 61 19:19 24.02.2022
2935 Clouds 26 1015 44 10000 4.13 68 18:20 24.02.2022
2936 Clouds 26 1015 44 10000 4.13 68 17:46 24.02.2022
2937 Clouds 26 1016 43 10000 4.85 70 16:57 24.02.2022
2938 Clear 26 1016 43 10000 5.19 72 16:25 24.02.2022
2939 Clear 27 1016 43 10000 5.19 72 15:31 24.02.2022
2940 Clear 28 1015 42 10000 4.83 76 14:43 24.02.2022
2941 Clear 28 1014 41 10000 3.56 59 13:45 24.02.2022
2942 Clear 29 1013 40 10000 2.21 16 13:27 24.02.2022
2943 Clear 32 1011 36 10000 2.98 32 10:48 24.02.2022
2944 Clear 33 1011 35 10000 3.02 44 09:41 24.02.2022
2945 Clear 32 1012 35 10000 3.29 56 08:42 24.02.2022
2946 Clear 31 1016 37 10000 3.36 77 06:25 24.02.2022
2947 Clear 29 1016 37 10000 3.36 77 05:36 24.02.2022
2948 Clear 23 1015 55 10000 1.53 347 00:30 24.02.2022
2949 Clear 24 1013 53 10000 2.1 29 21:56 23.02.2022
2950 Clear 24 1014 51 10000 2.63 50 20:33 23.02.2022
2951 Clear 24 1014 50 10000 3.13 67 19:56 23.02.2022
2952 Clouds 25 1014 48 10000 3.34 72 19:23 23.02.2022
2953 Clouds 26 1014 47 10000 3.43 76 17:47 23.02.2022
2954 Clouds 28 1014 45 10000 4.22 74 16:18 23.02.2022
2955 Clouds 30 1013 45 10000 2 97 13:36 23.02.2022
2956 Clouds 31 1010 42 10000 3.09 78 12:29 23.02.2022
2957 Clouds 32 1010 39 10000 2.53 68 10:55 23.02.2022
2958 Clouds 32 1010 37 10000 2.14 58 09:38 23.02.2022
2959 Clouds 32 1011 37 10000 2.18 57 08:36 23.02.2022
2960 Clouds 31 1013 39 10000 2.09 47 07:25 23.02.2022
2961 Clear 25 1015 57 10000 2.49 8 02:23 23.02.2022
2962 Clouds 24 1013 58 10000 2.59 51 23:50 22.02.2022
2963 Clouds 24 1013 58 10000 2.59 51 23:31 22.02.2022
2964 Clouds 25 1012 55 10000 2.12 104 22:28 22.02.2022
2965 Clouds 25 1012 55 10000 2.12 104 21:40 22.02.2022
2966 Clouds 25 1013 55 10000 1.96 92 21:19 22.02.2022
2967 Clouds 25 1013 55 10000 1.96 92 20:31 22.02.2022
2968 Clouds 26 1013 55 10000 2.33 91 19:54 22.02.2022
2969 Clouds 26 1013 55 10000 2.33 91 19:33 22.02.2022
2970 Clouds 27 1013 54 10000 2.82 105 18:35 22.02.2022
2971 Clouds 27 1014 60 10000 2.98 144 17:27 22.02.2022
2972 Clouds 27 1014 60 10000 2.98 144 16:55 22.02.2022
2973 Clouds 27 1014 58 10000 3.01 164 16:20 22.02.2022
2974 Clouds 29 1013 55 10000 2.89 170 15:21 22.02.2022
2975 Clouds 29 1012 51 10000 2.2 167 14:19 22.02.2022
2976 Clouds 31 1010 50 10000 3.45 182 11:38 22.02.2022
2977 Clear 32 1009 43 10000 2.04 156 09:44 22.02.2022
2978 Clouds 31 1013 46 10000 1.28 62 07:29 22.02.2022
2979 Clouds 30 1013 47 10000 1.35 65 06:54 22.02.2022
2980 Clouds 23 1015 62 10000 2 36 02:50 22.02.2022
2981 Clouds 23 1012 69 10000 3.78 52 23:18 21.02.2022
2982 Clouds 23 1012 69 10000 3.78 52 22:36 21.02.2022
2983 Clear 24 1012 68 10000 4.72 73 20:52 21.02.2022
2984 Clouds 24 1012 67 10000 4.67 87 18:47 21.02.2022
2985 Clouds 24 1012 68 10000 5.05 107 18:19 21.02.2022
2986 Clouds 25 1011 66 10000 4.94 106 15:49 21.02.2022
2987 Clouds 26 1010 61 10000 3.28 100 14:23 21.02.2022
2988 Clouds 27 1010 61 10000 3.28 100 13:31 21.02.2022
2989 Clouds 27 1009 64 10000 3.64 152 12:46 21.02.2022
2990 Clouds 28 1008 58 10000 3.29 150 12:21 21.02.2022
2991 Clouds 31 1007 46 10000 1.51 160 10:27 21.02.2022
2992 Clouds 31 1011 52 10000 1.58 268 06:25 21.02.2022
2993 Clouds 27 1009 78 10000 1.45 227 00:35 21.02.2022
2994 Clouds 26 1007 77 10000 2.88 196 22:32 20.02.2022
2995 Clouds 27 1007 77 10000 2.9 189 21:43 20.02.2022
2996 Rain 27 1007 77 10000 3.5 188 21:21 20.02.2022
2997 Clouds 27 1007 77 10000 3.5 188 20:43 20.02.2022
2998 Clouds 27 1008 77 10000 4.15 189 19:49 20.02.2022
2999 Clouds 28 1008 78 10000 5.26 178 18:55 20.02.2022
3000 Clouds 29 1008 78 10000 5.26 178 18:34 20.02.2022
3001 Clouds 29 1008 78 10000 5.82 172 17:55 20.02.2022
3002 Clouds 29 1009 77 10000 5.97 163 16:59 20.02.2022
3003 Clouds 28 1008 73 10000 5.25 166 14:55 20.02.2022
3004 Clouds 30 1007 71 10000 4.91 169 13:58 20.02.2022
3005 Clouds 30 1007 68 10000 4.64 176 12:42 20.02.2022
3006 Clouds 31 1007 64 10000 4.81 187 11:30 20.02.2022
3007 Rain 32 1006 55 10000 4.48 192 10:20 20.02.2022
3008 Clouds 33 1006 55 10000 4.31 188 09:24 20.02.2022
3009 Clouds 30 1010 66 10000 2.8 203 02:54 20.02.2022
3010 Clouds 27 1008 82 10000 2.02 198 00:31 20.02.2022
3011 Clouds 27 1008 83 10000 2.04 203 23:30 19.02.2022
3012 Clouds 27 1007 83 10000 2.71 206 22:23 19.02.2022
3013 Clouds 27 1007 83 10000 2.71 206 21:45 19.02.2022
3014 Clouds 27 1008 81 10000 3.51 201 20:25 19.02.2022
3015 Clouds 27 1008 81 10000 3.51 201 20:25 19.02.2022
3016 Clouds 27 1008 81 10000 3.51 201 20:24 19.02.2022
3017 Clouds 27 1008 81 10000 3.51 201 19:34 19.02.2022
3018 Clouds 28 1009 78 10000 3.7 187 18:38 19.02.2022
3019 Clouds 28 1009 77 10000 4.15 184 17:37 19.02.2022
3020 Clouds 28 1009 76 10000 4.43 181 16:44 19.02.2022
3021 Clouds 29 1009 74 10000 4.62 177 15:20 19.02.2022
3022 Clouds 29 1009 74 10000 4.62 177 14:52 19.02.2022
3023 Clouds 29 1009 72 10000 4.75 177 13:50 19.02.2022
3024 Clear 31 1007 66 10000 5.52 178 11:40 19.02.2022
3025 Clear 32 1007 60 10000 5.66 175 10:30 19.02.2022
3026 Clear 34 1007 55 10000 5.89 187 08:31 19.02.2022
3027 Clouds 32 1009 54 10000 5.65 185 06:30 19.02.2022
3028 Rain 24 1009 76 10000 2.67 192 23:55 18.02.2022
3029 Rain 27 1008 76 10000 3.5 194 22:24 18.02.2022
3030 Clouds 27 1009 78 10000 3.7 187 20:57 18.02.2022
3031 Clouds 27 1009 79 10000 3.54 185 19:55 18.02.2022
3032 Clouds 28 1010 78 10000 3.85 182 18:50 18.02.2022
3033 Clouds 28 1010 77 10000 4.39 183 18:24 18.02.2022
3034 Clouds 28 1010 77 10000 4.39 183 17:55 18.02.2022
3035 Clouds 28 1010 73 10000 4.44 182 15:23 18.02.2022
3036 Clouds 29 1009 71 10000 4.63 181 13:55 18.02.2022
3037 Clouds 29 1007 69 10000 4.93 183 12:55 18.02.2022
3038 Clouds 30 1007 68 10000 5.14 183 12:36 18.02.2022
3039 Clouds 31 1006 63 10000 5.55 184 11:40 18.02.2022
3040 Clouds 31 1006 55 10000 5.59 177 10:23 18.02.2022
3041 Rain 33 1008 53 10000 5.29 177 06:57 18.02.2022
3042 Rain 31 1009 56 10000 4.71 171 05:41 18.02.2022
3043 Clouds 25 1007 82 10000 2.13 156 23:34 17.02.2022
3044 Clouds 26 1007 82 10000 2.03 173 21:46 17.02.2022
3045 Clouds 25 1007 82 10000 2.23 171 21:20 17.02.2022
3046 Clouds 26 1007 82 10000 2.23 171 20:38 17.02.2022
3047 Clouds 26 1007 81 10000 2.55 175 19:50 17.02.2022
3048 Clouds 26 1007 80 10000 3.06 175 18:52 17.02.2022
3049 Clouds 25 1008 79 10000 3.1 177 17:55 17.02.2022
3050 Clouds 27 1008 77 10000 3.14 177 16:42 17.02.2022
3051 Clouds 26 1009 75 10000 3.4 176 15:38 17.02.2022
3052 Clouds 27 1008 71 10000 3.91 176 14:26 17.02.2022
3053 Clouds 27 1007 69 10000 4.25 180 12:38 17.02.2022
3054 Clouds 31 1005 64 10000 5.32 183 11:23 17.02.2022
3055 Clouds 32 1005 58 10000 5.12 186 08:53 17.02.2022
3056 Clouds 26 1008 78 10000 2.25 120 02:26 17.02.2022
3057 Clouds 26 1005 80 10000 1.31 122 23:21 16.02.2022
3058 Clouds 26 1005 79 10000 1.18 132 21:40 16.02.2022
3059 Clouds 26 1006 78 10000 1.01 179 19:57 16.02.2022
3060 Clouds 27 1007 82 10000 1.2 165 18:39 16.02.2022
3061 Clouds 26 1008 81 10000 1.32 174 17:53 16.02.2022
3062 Clouds 27 1009 79 10000 1.54 193 15:39 16.02.2022
3063 Clouds 27 1008 78 10000 1.66 188 15:18 16.02.2022
3064 Clouds 28 1006 72 10000 2.88 182 12:59 16.02.2022
3065 Rain 29 1006 68 10000 3.66 184 12:19 16.02.2022
3066 Rain 30 1005 61 10000 4 184 11:26 16.02.2022
3067 Clouds 30 1005 61 10000 4 184 10:33 16.02.2022
3068 Clouds 31 1006 59 10000 3.04 133 07:54 16.02.2022
3069 Clouds 30 1009 61 10000 3.52 99 06:26 16.02.2022
3070 Clouds 24 1008 92 10000 2.35 13 23:45 15.02.2022
3071 Clouds 24 1007 93 10000 2.45 349 22:29 15.02.2022
3072 Clouds 24 1007 93 10000 2.45 349 21:47 15.02.2022
3073 Clouds 24 1008 92 10000 2.22 342 21:27 15.02.2022
3074 Clouds 24 1008 92 10000 2.22 342 20:56 15.02.2022
3075 Clouds 24 1008 91 10000 2.07 353 19:57 15.02.2022
3076 Clouds 24 1009 90 10000 2.19 13 18:56 15.02.2022
3077 Clouds 25 1009 88 10000 2.06 48 18:21 15.02.2022
3078 Clouds 25 1009 88 10000 2.06 48 17:49 15.02.2022
3079 Clouds 26 1009 87 10000 2.44 61 16:38 15.02.2022
3080 Rain 26 1009 82 10000 2.13 112 15:26 15.02.2022
3081 Rain 27 1008 81 8746 1.52 168 13:27 15.02.2022
3082 Rain 30 1006 74 6786 2.19 132 11:58 15.02.2022
3083 Rain 30 1006 65 7228 2.32 119 10:59 15.02.2022
3084 Clouds 30 1006 63 9496 2.74 105 09:31 15.02.2022
3085 Rain 30 1009 54 10000 4.24 76 06:52 15.02.2022
3086 Clouds 29 1012 64 10000 3.53 77 03:55 15.02.2022
3087 Clouds 26 1008 80 10000 1.99 88 22:36 14.02.2022
3088 Clouds 26 1007 78 10000 2.15 89 21:35 14.02.2022
3089 Clouds 26 1007 77 10000 2.41 87 20:30 14.02.2022
3090 Clouds 26 1008 77 10000 1.85 108 19:32 14.02.2022
3091 Clouds 26 1008 75 7106 1.93 154 18:42 14.02.2022
3092 Clouds 27 1009 70 10000 2.26 140 17:58 14.02.2022
3093 Clouds 27 1009 66 10000 2.1 128 17:25 14.02.2022
3094 Clouds 27 1009 65 10000 2.28 106 16:19 14.02.2022
3095 Clouds 28 1008 68 10000 3.75 102 13:54 14.02.2022
3096 Clouds 29 1007 63 10000 3.35 126 13:26 14.02.2022
3097 Clouds 29 1007 58 10000 1.93 144 12:33 14.02.2022
3098 Clouds 30 1006 54 10000 2.19 123 11:54 14.02.2022
3099 Clouds 32 1006 51 10000 2.22 94 10:37 14.02.2022
3100 Rain 31 1006 49 10000 0.97 110 08:43 14.02.2022
3101 Clouds 31 1006 48 10000 2.13 164 07:30 14.02.2022
3102 Clouds 26 1007 76 10000 2.43 187 23:45 13.02.2022
3103 Clouds 26 1006 75 10000 2.51 184 22:42 13.02.2022
3104 Clouds 27 1006 75 10000 2.96 184 22:23 13.02.2022
3105 Clouds 27 1006 75 10000 2.96 184 21:30 13.02.2022
3106 Clouds 27 1006 74 10000 3.22 190 20:33 13.02.2022
3107 Clouds 28 1006 73 10000 3.35 192 19:30 13.02.2022
3108 Clouds 28 1007 72 10000 3.85 189 18:46 13.02.2022
3109 Clouds 28 1007 71 10000 4.55 188 18:26 13.02.2022
3110 Clouds 29 1008 68 10000 5 191 15:54 13.02.2022
3111 Clouds 29 1007 66 10000 4.75 187 15:24 13.02.2022
3112 Clouds 29 1007 31 10000 4.31 181 14:22 13.02.2022
3113 Clouds 30 1006 61 10000 4.2 173 12:50 13.02.2022
3114 Clouds 32 1005 53 10000 4.1 173 11:44 13.02.2022
3115 Clouds 33 1004 48 10000 3.74 178 10:33 13.02.2022
3116 Clouds 31 1004 47 10000 4.11 187 09:45 13.02.2022
3117 Clouds 33 1005 45 10000 3.76 177 07:48 13.02.2022
3118 Rain 25 1007 76 10000 2.02 180 00:35 13.02.2022
3119 Clouds 26 1006 75 10000 2.34 190 23:42 12.02.2022
3120 Clouds 26 1006 75 10000 2.26 203 22:33 12.02.2022
3121 Clouds 26 1006 74 10000 2.81 203 21:27 12.02.2022
3122 Clouds 27 1006 74 10000 2.81 203 20:34 12.02.2022
3123 Clouds 26 1007 74 10000 3.56 190 19:27 12.02.2022
3124 Clouds 26 1007 74 10000 3.56 190 18:53 12.02.2022
3125 Clouds 27 1007 73 10000 3.67 192 18:35 12.02.2022
3126 Clouds 27 1008 73 10000 3.54 207 16:58 12.02.2022
3127 Clouds 27 1009 70 10000 3.41 194 16:25 12.02.2022
3128 Clouds 27 1009 70 10000 3.41 194 15:51 12.02.2022
3129 Clouds 28 1008 67 10000 3.24 183 14:31 12.02.2022
3130 Clouds 28 1007 62 10000 3.25 162 13:19 12.02.2022
3131 Clouds 30 1005 54 10000 3.9 168 10:41 12.02.2022
3132 Clouds 31 1005 51 10000 3.46 174 09:39 12.02.2022
3133 Clouds 31 1006 50 10000 2.81 184 09:21 12.02.2022
3134 Clouds 30 1007 52 10000 2.15 192 08:18 12.02.2022
3135 Clouds 30 1007 52 10000 2.15 192 08:18 12.02.2022
3136 Clouds 31 1009 54 10000 3.02 175 05:33 12.02.2022
3137 Clouds 29 1011 66 10000 1.31 206 04:27 12.02.2022
3138 Clouds 26 1010 74 10000 1.52 255 02:18 12.02.2022
3139 Clouds 27 1008 73 10000 1.59 211 22:29 11.02.2022
3140 Clouds 27 1008 73 10000 1.59 211 21:55 11.02.2022
3141 Clouds 28 1008 73 10000 2.31 209 20:41 11.02.2022
3142 Clouds 27 1008 73 10000 2.39 202 19:47 11.02.2022
3143 Clouds 27 1010 74 10000 2.27 200 19:27 11.02.2022
3144 Clouds 28 1010 70 10000 2.63 195 17:59 11.02.2022
3145 Clouds 28 1010 68 10000 2.68 206 17:26 11.02.2022
3146 Clouds 28 1010 68 10000 2.89 201 16:23 11.02.2022
3147 Clouds 27 1010 66 10000 3.46 180 14:43 11.02.2022
3148 Clouds 27 1009 64 10000 4.13 168 14:21 11.02.2022
3149 Clouds 28 1009 64 10000 4.13 168 13:59 11.02.2022
3150 Clouds 28 1009 64 10000 4.13 168 13:39 11.02.2022
3151 Clouds 32 1007 56 10000 4.25 166 11:42 11.02.2022
3152 Rain 32 1006 49 10000 4.54 168 09:58 11.02.2022
3153 Rain 33 1006 49 10000 4.79 170 08:49 11.02.2022
3154 Clouds 34 1007 46 10000 4.32 169 08:26 11.02.2022
3155 Clouds 33 1008 45 10000 3.34 183 07:18 11.02.2022
3156 Clouds 28 1010 72 10000 2.34 195 02:26 11.02.2022
3157 Clouds 27 1009 77 10000 2.05 191 00:52 11.02.2022
3158 Clouds 28 1008 75 10000 2.52 198 22:51 10.02.2022
3159 Clouds 28 1008 75 10000 2.9 191 21:46 10.02.2022
3160 Clouds 28 1008 74 10000 3.29 190 20:59 10.02.2022
3161 Clouds 28 1008 74 10000 3.29 190 20:38 10.02.2022
3162 Clouds 28 1009 73 10000 3.94 187 19:26 10.02.2022
3163 Clouds 29 1009 73 10000 3.94 187 18:46 10.02.2022
3164 Clouds 28 1009 71 10000 5.09 189 17:26 10.02.2022
3165 Clouds 28 1009 71 10000 5.09 189 16:50 10.02.2022
3166 Clouds 29 1010 68 10000 5.14 188 15:51 10.02.2022
3167 Clouds 29 1010 68 10000 5.14 188 15:30 10.02.2022
3168 Clouds 29 1009 64 10000 5.01 180 14:48 10.02.2022
3169 Clouds 29 1009 61 10000 4.56 182 14:24 10.02.2022
3170 Clouds 29 1008 58 10000 4.84 184 13:29 10.02.2022
3171 Rain 30 1008 60 10000 5.43 184 12:45 10.02.2022
3172 Clouds 31 1007 54 10000 5 190 11:33 10.02.2022
3173 Clouds 31 1007 49 10000 5.16 184 10:44 10.02.2022
3174 Clouds 33 1006 42 10000 5.83 180 09:57 10.02.2022
3175 Clouds 33 1007 39 10000 4.44 178 09:23 10.02.2022
3176 Clouds 33 1009 42 10000 2.89 150 07:28 10.02.2022
3177 Clouds 31 1012 51 10000 2.41 95 04:55 10.02.2022
3178 Clouds 28 1011 68 10000 1.38 244 01:48 10.02.2022
3179 Clouds 27 1010 74 10000 1.26 247 00:47 10.02.2022
3180 Clouds 27 1009 75 10000 1.92 226 00:27 10.02.2022
3181 Rain 27 1009 75 10000 2.49 209 23:22 09.02.2022
3182 Clouds 26 1009 75 10000 2.49 209 22:35 09.02.2022
3183 Rain 26 1009 74 10000 2.67 211 21:50 09.02.2022
3184 Clouds 27 1009 74 10000 3.22 210 21:28 09.02.2022
3185 Clouds 28 1009 74 10000 3.22 210 20:47 09.02.2022
3186 Clouds 28 1010 73 10000 3.76 202 20:24 09.02.2022
3187 Clouds 28 1010 73 10000 3.76 202 19:45 09.02.2022
3188 Clouds 28 1010 72 10000 4.44 193 19:22 09.02.2022
3189 Clouds 29 1011 73 10000 5.52 187 17:35 09.02.2022
3190 Clouds 29 1011 71 10000 5.61 184 16:32 09.02.2022
3191 Clouds 29 1011 67 10000 5.02 183 15:33 09.02.2022
3192 Clouds 29 1009 62 10000 4.11 165 14:25 09.02.2022
3193 Clouds 30 1008 57 10000 5.81 178 12:27 09.02.2022
3194 Clouds 31 1008 49 10000 5.84 176 10:47 09.02.2022
3195 Clouds 34 1007 44 10000 6.49 179 09:59 09.02.2022
3196 Clouds 33 1007 38 10000 5.36 181 09:23 09.02.2022
3197 Clouds 33 1007 38 10000 5.36 181 09:23 09.02.2022
3198 Clouds 34 1007 38 10000 5.36 181 08:58 09.02.2022
3199 Clouds 35 1008 37 10000 3.8 185 07:34 09.02.2022
3200 Clear 32 1011 41 10000 2.17 182 05:30 09.02.2022
3201 Clear 32 1013 49 10000 2 183 03:50 09.02.2022
3202 Clear 27 1010 68 10000 1.52 191 00:21 09.02.2022
3203 Clear 27 1009 67 10000 2.16 218 23:29 08.02.2022
3204 Clear 27 1009 67 10000 2.16 218 22:43 08.02.2022
3205 Rain 27 1009 67 10000 2.96 212 22:20 08.02.2022
3206 Clear 28 1009 67 10000 2.96 212 21:38 08.02.2022
3207 Rain 28 1009 66 10000 3.6 200 21:19 08.02.2022
3208 Clouds 28 1009 66 10000 3.6 200 20:41 08.02.2022
3209 Rain 28 1009 66 10000 4.14 193 19:41 08.02.2022
3210 Rain 29 1010 67 10000 5.47 193 18:25 08.02.2022
3211 Rain 29 1010 67 10000 5.47 193 17:33 08.02.2022
3212 Rain 30 1010 62 10000 5.39 188 15:52 08.02.2022
3213 Clear 30 1009 52 10000 4.36 186 15:28 08.02.2022
3214 Clear 31 1008 45 10000 2.85 177 13:54 08.02.2022
3215 Rain 32 1007 45 10000 2.93 177 12:39 08.02.2022
3216 Rain 35 1006 37 10000 3.21 183 10:55 08.02.2022
3217 Rain 35 1007 35 10000 2.3 179 09:51 08.02.2022
3218 Clouds 35 1007 35 10000 1.86 172 08:54 08.02.2022
3219 Clouds 35 1010 38 10000 0.62 133 06:50 08.02.2022
3220 Clouds 32 1012 42 10000 1.1 336 04:40 08.02.2022
3221 Clouds 32 1013 47 10000 1.5 323 04:22 08.02.2022
3222 Clouds 30 1013 47 10000 1.5 323 03:36 08.02.2022
3223 Clouds 29 1012 52 10000 1.26 295 03:18 08.02.2022
3224 Clouds 28 1012 52 10000 1.26 295 02:59 08.02.2022
3225 Clouds 28 1012 52 10000 1.26 295 02:36 08.02.2022
3226 Clouds 27 1011 57 10000 1.48 294 02:18 08.02.2022
3227 Clouds 26 1011 57 10000 1.48 294 01:45 08.02.2022
3228 Clouds 26 1011 63 10000 1.58 280 01:25 08.02.2022
3229 Clouds 26 1011 63 10000 1.58 280 00:55 08.02.2022
3230 Clouds 26 1010 68 10000 1.35 230 00:32 08.02.2022
3231 Clouds 26 1010 68 10000 1.48 198 23:44 07.02.2022
3232 Clouds 26 1009 67 10000 1.8 180 23:18 07.02.2022
3233 Clouds 27 1009 67 10000 1.8 180 22:59 07.02.2022
3234 Clouds 27 1009 67 10000 1.8 180 22:59 07.02.2022
3235 Rain 27 1009 66 10000 1.75 202 22:19 07.02.2022
3236 Rain 27 1009 66 10000 1.75 202 21:51 07.02.2022
3237 Clouds 27 1009 66 10000 2.24 214 21:27 07.02.2022
3238 Rain 27 1009 66 10000 2.24 214 20:45 07.02.2022
3239 Clouds 27 1010 65 10000 2.56 214 20:27 07.02.2022
3240 Rain 28 1010 65 10000 2.56 214 19:47 07.02.2022
3241 Clouds 27 1010 63 10000 2.97 211 18:40 07.02.2022
3242 Rain 29 1010 62 10000 3.65 205 17:33 07.02.2022
3243 Rain 29 1010 59 10000 3.62 211 16:52 07.02.2022
3244 Rain 30 1010 55 10000 3.3 202 15:48 07.02.2022
3245 Rain 30 1010 46 10000 1.32 198 14:19 07.02.2022
3246 Rain 31 1008 44 10000 1.38 198 13:27 07.02.2022
3247 Clouds 32 1008 44 10000 1.38 198 12:35 07.02.2022
3248 Clouds 34 1008 40 10000 1.11 231 11:40 07.02.2022
3249 Rain 34 1007 38 10000 1.21 220 11:22 07.02.2022
3250 Rain 34 1007 38 10000 1.21 220 10:41 07.02.2022
3251 Rain 34 1007 37 10000 1.15 209 10:22 07.02.2022
3252 Rain 35 1007 37 10000 1.15 209 09:51 07.02.2022
3253 Rain 34 1008 37 10000 0.54 181 09:18 07.02.2022
3254 Clouds 34 1009 38 10000 0.77 110 07:44 07.02.2022
3255 Clouds 33 1010 39 10000 1.47 67 06:34 07.02.2022
3256 Clouds 31 1013 45 10000 2.48 66 04:31 07.02.2022
3257 Clouds 27 1013 53 10000 2.58 59 02:37 07.02.2022
3258 Clouds 25 1011 61 10000 1.82 24 00:20 07.02.2022
3259 Clouds 25 1010 60 10000 1.82 0 23:20 06.02.2022
3260 Clouds 26 1010 60 10000 1.82 0 22:41 06.02.2022
3261 Clouds 26 1010 59 10000 1.42 1 21:38 06.02.2022
3262 Clouds 26 1010 58 10000 1.18 41 21:20 06.02.2022
3263 Clouds 26 1010 58 10000 1.18 41 20:48 06.02.2022
3264 Clouds 26 1011 58 10000 1.27 61 20:21 06.02.2022
3265 Clouds 27 1012 58 10000 1.21 77 18:54 06.02.2022
3266 Clouds 28 1012 58 10000 0.44 308 18:28 06.02.2022
3267 Clouds 28 1012 58 10000 0.44 308 17:30 06.02.2022
3268 Clear 28 1012 58 10000 1.33 295 16:51 06.02.2022
3269 Clear 29 1012 57 10000 2.03 302 15:51 06.02.2022
3270 Clear 29 1012 57 10000 2.57 299 15:28 06.02.2022
3271 Rain 29 1012 57 10000 2.57 299 14:59 06.02.2022
3272 Rain 29 1011 56 10000 3.53 298 13:59 06.02.2022
3273 Clouds 30 1011 53 10000 3.76 293 13:20 06.02.2022
3274 Clouds 31 1009 43 10000 2.73 258 12:19 06.02.2022
3275 Clouds 32 1008 38 10000 1.77 243 10:33 06.02.2022
3276 Clouds 32 1008 37 10000 1.15 217 09:36 06.02.2022
3277 Clouds 33 1009 37 10000 0.56 139 08:41 06.02.2022
3278 Clouds 31 1011 39 10000 2.29 83 06:31 06.02.2022
3279 Clouds 30 1014 44 10000 2.61 80 05:28 06.02.2022
3280 Clouds 25 1013 59 10000 3.11 95 02:25 06.02.2022
3281 Clouds 25 1012 62 10000 3.23 89 00:32 06.02.2022
3282 Clouds 25 1011 64 10000 2.26 88 23:38 05.02.2022
3283 Clouds 25 1011 63 10000 1.91 67 21:46 05.02.2022
3284 Clouds 26 1011 63 10000 1.78 65 20:39 05.02.2022
3285 Clouds 26 1012 62 10000 1.29 46 20:19 05.02.2022
3286 Clouds 26 1012 62 10000 1.29 46 19:41 05.02.2022
3287 Clouds 27 1012 63 10000 1.35 230 18:26 05.02.2022
3288 Clouds 27 1012 63 10000 1.35 230 17:34 05.02.2022
3289 Clouds 29 1012 61 10000 2.45 178 15:43 05.02.2022
3290 Rain 29 1012 59 10000 3.13 169 15:25 05.02.2022
3291 Clouds 30 1010 51 10000 3.08 155 13:24 05.02.2022
3292 Clouds 31 1010 49 10000 2.11 205 12:42 05.02.2022
3293 Clouds 32 1008 42 10000 0.64 282 11:18 05.02.2022
3294 Clouds 32 1008 42 10000 0.64 282 10:43 05.02.2022
3295 Clouds 32 1009 41 10000 0.2 93 09:49 05.02.2022
3296 Clouds 32 1011 40 10000 3.18 112 08:21 05.02.2022
3297 Clouds 31 1012 45 10000 3.81 106 06:58 05.02.2022
3298 Clouds 31 1013 46 10000 3.97 95 05:44 05.02.2022
3299 Clouds 26 1013 62 10000 4.11 97 01:47 05.02.2022
3300 Clouds 26 1012 66 10000 3.65 86 01:18 05.02.2022
3301 Clouds 25 1012 75 10000 2.61 64 00:36 05.02.2022
3302 Clouds 25 1011 76 10000 1.92 54 23:33 04.02.2022
3303 Clouds 25 1010 71 10000 1.93 63 22:28 04.02.2022
3304 Clouds 26 1010 71 10000 1.93 63 21:36 04.02.2022
3305 Clouds 26 1010 67 10000 1.73 55 21:18 04.02.2022
3306 Clouds 26 1010 65 10000 1.4 62 20:21 04.02.2022
3307 Clouds 26 1011 59 10000 1.86 122 18:27 04.02.2022
3308 Clouds 26 1011 54 10000 2.35 97 15:55 04.02.2022
3309 Clouds 27 1010 52 10000 2.27 83 14:56 04.02.2022
3310 Rain 27 1010 51 10000 3.03 72 13:55 04.02.2022
3311 Rain 31 1009 49 10000 2.9 53 12:43 04.02.2022
3312 Rain 32 1008 48 10000 1.11 25 11:43 04.02.2022
3313 Clouds 32 1008 46 10000 1.2 96 10:37 04.02.2022
3314 Clouds 34 1008 46 10000 2 148 08:49 04.02.2022
3315 Clouds 32 1011 50 10000 2.43 90 06:57 04.02.2022
3316 Clouds 28 1013 68 10000 0.97 62 02:51 04.02.2022
3317 Clouds 27 1012 76 10000 0.37 160 01:56 04.02.2022
3318 Clouds 26 1010 77 10000 1.92 187 23:31 03.02.2022
3319 Clouds 26 1009 76 10000 1.98 195 22:46 03.02.2022
3320 Clouds 27 1009 75 10000 1.99 198 21:49 03.02.2022
3321 Clouds 27 1009 74 10000 2.06 204 20:41 03.02.2022
3322 Clouds 27 1010 73 10000 2.1 194 20:19 03.02.2022
3323 Clouds 27 1010 73 10000 2.1 194 19:32 03.02.2022
3324 Clouds 27 1010 71 10000 2.59 187 18:40 03.02.2022
3325 Clouds 28 1011 69 10000 2.83 187 17:35 03.02.2022
3326 Clouds 28 1011 68 10000 2.9 185 16:35 03.02.2022
3327 Clouds 28 1011 65 10000 3 179 14:49 03.02.2022
3328 Clouds 30 1009 62 10000 4.13 189 12:58 03.02.2022
3329 Clouds 32 1008 51 10000 4.92 180 11:23 03.02.2022
3330 Clouds 33 1008 45 10000 5.05 187 08:37 03.02.2022
3331 Rain 31 1012 50 10000 3.73 170 05:26 03.02.2022
3332 Rain 25 1011 83 10000 2.06 190 00:32 03.02.2022
3333 Clear 25 1010 82 10000 2.23 199 23:43 02.02.2022
3334 Rain 26 1009 78 10000 2.61 191 22:19 02.02.2022
3335 Rain 26 1009 78 10000 2.61 191 21:34 02.02.2022
3336 Clear 26 1010 77 10000 2.98 186 20:51 02.02.2022
3337 Clear 27 1010 75 10000 3.25 183 19:59 02.02.2022
3338 Clear 27 1011 73 10000 3.54 182 19:27 02.02.2022
3339 Clear 27 1010 73 10000 3.55 189 18:46 02.02.2022
3340 Clear 27 1011 72 10000 3.75 187 17:57 02.02.2022
3341 Clear 28 1011 71 10000 4.2 185 17:19 02.02.2022
3342 Clear 28 1011 71 10000 4.2 185 16:42 02.02.2022
3343 Clear 30 1010 61 10000 4.76 160 13:28 02.02.2022
3344 Clear 30 1009 57 10000 5.56 154 12:25 02.02.2022
3345 Clear 32 1009 57 10000 5.56 154 11:34 02.02.2022
3346 Clear 33 1009 48 10000 4.93 178 10:22 02.02.2022
3347 Clear 33 1010 47 10000 5.47 183 07:35 02.02.2022
3348 Clouds 26 1009 78 10000 3.36 200 22:52 01.02.2022
3349 Clouds 27 1009 77 10000 3.61 195 21:51 01.02.2022
3350 Clouds 27 1009 76 10000 4.35 187 20:35 01.02.2022
3351 Clear 28 1010 73 10000 4.87 186 17:44 01.02.2022
3352 Clear 28 1010 72 10000 4.87 186 16:39 01.02.2022
3353 Clouds 29 1009 65 10000 5.49 168 14:24 01.02.2022
3354 Clouds 30 1008 65 10000 5.5 166 12:43 01.02.2022
3355 Clear 32 1008 59 10000 5.51 173 11:30 01.02.2022
3356 Clear 32 1012 51 10000 5.5 179 04:53 01.02.2022
3357 Clouds 26 1009 76 10000 3.6 181 23:41 31.01.2022
3358 Clouds 27 1009 76 10000 3.87 178 22:58 31.01.2022
3359 Clear 27 1008 76 10000 4.11 175 21:40 31.01.2022
3360 Clear 27 1008 75 10000 4.07 174 21:19 31.01.2022
3361 Clear 27 1009 75 10000 4.36 178 20:29 31.01.2022
3362 Clear 27 1009 74 10000 4.71 185 19:29 31.01.2022
3363 Clear 27 1010 74 10000 5.37 188 18:26 31.01.2022
3364 Clear 28 1009 72 10000 5.31 192 17:32 31.01.2022
3365 Clear 28 1010 71 10000 5.81 186 16:29 31.01.2022
3366 Clear 28 1010 70 10000 5.96 181 14:54 31.01.2022
3367 Clear 29 1009 67 10000 5.73 180 14:22 31.01.2022
3368 Clear 30 1008 65 10000 5.57 169 12:39 31.01.2022
3369 Clear 31 1008 58 10000 5.57 169 11:55 31.01.2022
3370 Clear 33 1007 49 10000 5.27 177 10:50 31.01.2022
3371 Clear 33 1007 49 10000 5.27 177 10:50 31.01.2022
3372 Clear 33 1007 46 10000 5.55 181 10:25 31.01.2022
3373 Clear 33 1007 45 10000 5.85 181 09:23 31.01.2022
3374 Clear 34 1007 45 10000 5.85 181 08:47 31.01.2022
3375 Clear 34 1008 46 10000 5.53 185 08:20 31.01.2022
3376 Clouds 33 1010 50 10000 5.4 184 06:18 31.01.2022
3377 Clear 25 1009 75 10000 3.4 202 00:46 31.01.2022
3378 Clear 27 1008 74 10000 3.96 196 22:40 30.01.2022
3379 Clouds 27 1008 74 10000 4.24 191 22:22 30.01.2022
3380 Clouds 26 1008 74 10000 4.24 191 21:38 30.01.2022
3381 Clouds 26 1008 75 10000 4.71 187 21:18 30.01.2022
3382 Clouds 27 1008 75 10000 4.71 187 20:45 30.01.2022
3383 Clouds 27 1008 75 10000 5.02 185 20:27 30.01.2022
3384 Clouds 28 1009 74 10000 5.4 182 19:24 30.01.2022
3385 Clouds 27 1009 74 10000 5.4 182 18:36 30.01.2022
3386 Clouds 27 1009 72 10000 5.4 186 17:54 30.01.2022
3387 Clouds 27 1009 70 10000 5.68 187 17:21 30.01.2022
3388 Clouds 29 1009 70 10000 5.68 187 16:39 30.01.2022
3389 Clouds 29 1010 66 10000 5.81 187 16:21 30.01.2022
3390 Clouds 28 1010 66 10000 5.81 187 15:50 30.01.2022
3391 Clouds 29 1010 66 10000 5.81 187 15:31 30.01.2022
3392 Rain 30 1009 62 10000 5.61 186 14:46 30.01.2022
3393 Rain 30 1009 62 10000 5.61 186 14:46 30.01.2022
3394 Clouds 31 1006 53 10000 5.1 157 12:47 30.01.2022
3395 Clouds 33 1006 44 10000 4.7 149 11:53 30.01.2022
3396 Clouds 36 1006 36 10000 4.12 162 10:32 30.01.2022
3397 Clouds 36 1006 32 10000 3.8 180 09:50 30.01.2022
3398 Rain 35 1006 29 10000 2.23 199 08:54 30.01.2022
3399 Rain 35 1009 30 10000 1.14 269 07:28 30.01.2022
3400 Clouds 27 1010 56 10000 2.4 309 01:56 30.01.2022
3401 Clouds 27 1010 56 10000 2.4 309 01:56 30.01.2022
3402 Clouds 26 1008 74 10000 2.05 276 00:22 30.01.2022
3403 Clouds 26 1008 76 10000 2.21 259 23:18 29.01.2022
3404 Clouds 27 1008 75 10000 2.73 226 21:49 29.01.2022
3405 Clouds 27 1008 75 10000 2.89 209 21:24 29.01.2022
3406 Clouds 27 1008 74 10000 3.23 199 20:28 29.01.2022
3407 Clouds 28 1008 74 10000 3.23 199 19:34 29.01.2022
3408 Clouds 28 1009 73 10000 3.7 197 18:52 29.01.2022
3409 Clouds 28 1009 74 10000 4.86 195 18:18 29.01.2022
3410 Clouds 28 1009 75 10000 5.06 196 17:28 29.01.2022
3411 Clouds 29 1009 73 10000 5.46 194 15:50 29.01.2022
3412 Rain 30 1007 66 10000 6.04 180 13:59 29.01.2022
3413 Rain 30 1007 66 10000 6.04 180 13:41 29.01.2022
3414 Clouds 30 1006 58 10000 5.5 162 13:22 29.01.2022
3415 Clouds 32 1006 52 10000 4.58 153 11:47 29.01.2022
3416 Clear 34 1005 47 10000 4.77 160 10:54 29.01.2022
3417 Clear 35 1006 41 10000 4.66 179 08:42 29.01.2022
3418 Clouds 33 1008 40 10000 3.22 196 06:37 29.01.2022
3419 Rain 26 1010 75 10000 2.41 188 00:34 29.01.2022
3420 Clouds 26 1009 75 10000 2.54 194 23:44 28.01.2022
3421 Clouds 26 1009 75 10000 2.94 193 22:48 28.01.2022
3422 Clouds 26 1008 74 10000 3.19 188 22:20 28.01.2022
3423 Clouds 26 1008 75 10000 3.21 188 20:42 28.01.2022
3424 Clear 26 1009 75 10000 3.43 194 20:23 28.01.2022
3425 Clear 27 1010 74 10000 3.71 201 19:28 28.01.2022
3426 Clear 27 1010 74 10000 3.71 201 18:38 28.01.2022
3427 Clear 28 1010 73 10000 5.15 199 16:39 28.01.2022
3428 Clear 28 1010 66 10000 4.81 181 14:59 28.01.2022
3429 Clear 30 1009 60 10000 4.38 171 13:34 28.01.2022
3430 Rain 31 1007 46 10000 4.08 183 12:26 28.01.2022
3431 Clear 33 1007 42 10000 4.64 175 10:32 28.01.2022
3432 Rain 34 1007 41 10000 5.59 186 09:47 28.01.2022
3433 Clear 33 1009 39 10000 4.12 183 07:43 28.01.2022
3434 Clouds 32 1010 39 10000 2.94 183 06:30 28.01.2022
3435 Clouds 29 1012 50 10000 1.76 174 03:51 28.01.2022
3436 Clouds 27 1011 65 10000 0.65 193 02:29 28.01.2022
3437 Clouds 26 1011 65 10000 0.65 193 01:57 28.01.2022
3438 Clouds 26 1011 65 10000 0.65 193 01:57 28.01.2022
3439 Rain 25 1010 70 10000 0.73 211 01:29 28.01.2022
3440 Clear 26 1009 69 10000 1.25 185 22:39 27.01.2022
3441 Clear 26 1009 69 10000 1.64 205 21:41 27.01.2022
3442 Clear 27 1009 68 10000 2.49 198 20:59 27.01.2022
3443 Clear 27 1010 66 10000 2.82 197 19:47 27.01.2022
3444 Clouds 27 1010 65 10000 3.86 203 18:22 27.01.2022
3445 Clouds 28 1010 63 10000 4.3 205 16:59 27.01.2022
3446 Clear 29 1009 49 10000 3.16 205 14:23 27.01.2022
3447 Clouds 29 1008 47 10000 3.22 183 12:49 27.01.2022
3448 Clouds 30 1007 42 10000 2.7 187 12:18 27.01.2022
3449 Clouds 29 1007 38 10000 2.7 203 09:48 27.01.2022
3450 Rain 33 1007 36 10000 1.39 181 08:40 27.01.2022
3451 Rain 34 1008 37 10000 0.81 162 07:53 27.01.2022
3452 Clouds 29 1012 59 10000 0.91 196 03:34 27.01.2022
3453 Clouds 25 1009 78 10000 1.83 191 00:24 27.01.2022
3454 Rain 26 1009 75 10000 2.3 182 22:28 26.01.2022
3455 Rain 26 1009 75 10000 2.3 182 21:44 26.01.2022
3456 Clouds 26 1009 74 10000 2.85 182 20:52 26.01.2022
3457 Clouds 26 1009 74 10000 2.85 182 20:32 26.01.2022
3458 Clouds 27 1010 73 10000 3.16 185 19:49 26.01.2022
3459 Clouds 28 1010 72 10000 3.71 189 18:48 26.01.2022
3460 Clear 27 1010 72 10000 4.68 192 18:24 26.01.2022
3461 Clear 27 1010 72 10000 4.68 192 17:33 26.01.2022
3462 Clear 27 1010 69 10000 4.92 199 16:49 26.01.2022
3463 Clear 28 1010 67 10000 4.72 196 16:22 26.01.2022
3464 Clear 29 1010 64 10000 4.19 184 14:40 26.01.2022
3465 Clear 31 1007 48 10000 4.26 180 12:20 26.01.2022
3466 Clear 32 1007 43 10000 4.48 196 10:52 26.01.2022
3467 Clear 32 1007 40 10000 4.6 204 09:52 26.01.2022
3468 Clear 33 1007 39 10000 3.81 200 08:49 26.01.2022
3469 Clear 32 1009 41 10000 2 173 06:36 26.01.2022
3470 Clouds 25 1009 72 10000 1.63 172 00:24 26.01.2022
3471 Clouds 25 1009 72 10000 1.63 172 23:41 25.01.2022
3472 Clouds 25 1009 71 10000 1.29 185 22:48 25.01.2022
3473 Clouds 25 1009 70 10000 1.47 188 22:18 25.01.2022
3474 Clouds 26 1009 69 10000 2 197 21:27 25.01.2022
3475 Rain 26 1009 69 10000 2 197 20:45 25.01.2022
3476 Clouds 26 1009 68 10000 2.6 199 19:54 25.01.2022
3477 Clear 26 1010 68 10000 3.03 206 19:23 25.01.2022
3478 Rain 27 1009 68 10000 3.79 204 17:56 25.01.2022
3479 Rain 27 1009 66 10000 4 199 17:18 25.01.2022
3480 Rain 28 1009 66 10000 4 199 16:34 25.01.2022
3481 Clear 28 1009 59 10000 3.69 197 15:39 25.01.2022
3482 Clear 29 1009 50 10000 3.38 194 15:19 25.01.2022
3483 Clear 29 1009 50 10000 3.38 194 14:51 25.01.2022
3484 Rain 31 1007 39 10000 2.76 188 12:20 25.01.2022
3485 Rain 34 1007 34 10000 1.73 221 09:24 25.01.2022
3486 Clear 34 1008 36 10000 0.88 185 07:52 25.01.2022
3487 Clear 34 1009 41 10000 0.68 138 06:55 25.01.2022
3488 Clouds 32 1012 49 10000 0.45 189 05:23 25.01.2022
3489 Rain 24 1010 70 10000 0.74 2 00:31 25.01.2022
3490 Rain 24 1010 70 10000 1.12 335 23:36 24.01.2022
3491 Rain 24 1009 71 10000 1.49 330 23:18 24.01.2022
3492 Rain 24 1009 71 10000 1.49 330 22:42 24.01.2022
3493 Rain 25 1009 71 10000 1.42 314 21:58 24.01.2022
3494 Rain 25 1009 71 10000 1.42 314 21:32 24.01.2022
3495 Rain 25 1009 71 10000 1.41 254 20:38 24.01.2022
3496 Rain 25 1009 70 10000 2.29 231 20:20 24.01.2022
3497 Clear 26 1009 70 10000 2.29 231 19:38 24.01.2022
3498 Clear 26 1009 69 10000 2.78 226 18:47 24.01.2022
3499 Rain 26 1009 60 10000 2.69 212 17:24 24.01.2022
3500 Clear 27 1009 60 10000 2.69 212 16:58 24.01.2022
3501 Clear 27 1009 60 10000 2.69 212 16:58 24.01.2022
3502 Clear 27 1009 60 10000 2.69 212 16:58 24.01.2022
3503 Rain 27 1009 60 10000 2.69 212 16:30 24.01.2022
3504 Clear 28 1009 43 10000 2.73 176 14:54 24.01.2022
3505 Rain 29 1008 41 10000 2.7 163 13:38 24.01.2022
3506 Clear 31 1007 38 10000 3.04 162 12:32 24.01.2022
3507 Rain 32 1007 33 10000 4.69 176 11:21 24.01.2022
3508 Rain 33 1007 31 10000 4.06 187 09:50 24.01.2022
3509 Rain 33 1007 31 10000 2.89 193 09:25 24.01.2022
3510 Clear 32 1010 35 10000 1.26 204 07:28 24.01.2022
3511 Clear 23 1011 71 10000 0.75 262 01:34 24.01.2022
3512 Clear 23 1010 77 10000 0.79 325 00:47 24.01.2022
3513 Clear 23 1009 77 10000 1.15 258 00:28 24.01.2022
3514 Clear 24 1009 76 10000 1.66 234 22:46 23.01.2022
3515 Clear 25 1008 75 10000 2.11 224 21:51 23.01.2022
3516 Clear 25 1008 73 10000 2.18 213 21:27 23.01.2022
3517 Clear 25 1008 73 10000 2.18 213 20:54 23.01.2022
3518 Clear 25 1009 71 10000 2.74 200 19:55 23.01.2022
3519 Clear 26 1009 70 10000 3.31 195 18:52 23.01.2022
3520 Clear 26 1009 71 10000 4.56 193 17:54 23.01.2022
3521 Clear 27 1009 70 10000 4.71 193 16:52 23.01.2022
3522 Clear 28 1009 58 10000 4.74 178 15:18 23.01.2022
3523 Rain 28 1009 58 10000 4.74 178 14:33 23.01.2022
3524 Clear 29 1008 53 10000 4.48 158 13:43 23.01.2022
3525 Clear 30 1007 50 10000 4.22 148 12:40 23.01.2022
3526 Clear 30 1007 47 10000 4.21 155 12:18 23.01.2022
3527 Clear 32 1007 40 10000 4.1 166 11:25 23.01.2022
3528 Clear 32 1007 40 10000 4.1 166 10:57 23.01.2022
3529 Clear 33 1006 36 10000 3.44 177 10:23 23.01.2022
3530 Clear 32 1007 34 10000 2.48 192 09:22 23.01.2022
3531 Clear 32 1011 43 10000 1.7 255 05:59 23.01.2022
3532 Clear 25 1011 77 10000 2.02 292 02:25 23.01.2022
3533 Clear 24 1011 77 10000 2.02 292 01:35 23.01.2022
3534 Clear 24 1010 82 10000 1.9 289 00:41 23.01.2022
3535 Clear 24 1009 81 10000 1.82 270 23:57 22.01.2022
3536 Clear 24 1008 79 10000 1.92 242 22:48 22.01.2022
3537 Clear 24 1008 76 10000 2.12 202 21:58 22.01.2022
3538 Clear 25 1008 72 10000 3.3 179 20:26 22.01.2022
3539 Clear 25 1008 72 10000 3.3 179 19:34 22.01.2022
3540 Clouds 26 1009 71 10000 4.05 179 18:36 22.01.2022
3541 Clouds 26 1009 69 10000 3.62 173 17:42 22.01.2022
3542 Clouds 26 1009 70 10000 3.3 169 16:57 22.01.2022
3543 Clouds 26 1010 69 10000 3.4 168 16:20 22.01.2022
3544 Clouds 27 1010 69 10000 3.4 168 15:42 22.01.2022
3545 Clouds 28 1009 63 10000 3.97 171 14:22 22.01.2022
3546 Clouds 28 1008 64 10000 3.71 174 13:27 22.01.2022
3547 Clouds 29 1007 64 10000 4.24 175 12:32 22.01.2022
3548 Clouds 29 1007 60 10000 5.05 173 11:58 22.01.2022
3549 Clouds 31 1006 54 10000 5.66 170 10:39 22.01.2022
3550 Clouds 31 1006 50 10000 5.13 160 10:19 22.01.2022
3551 Clouds 31 1006 48 10000 5.41 173 08:54 22.01.2022
3552 Clouds 31 1006 48 10000 5.41 173 08:31 22.01.2022
3553 Clear 28 1011 59 10000 2.09 203 05:20 22.01.2022
3554 Clear 24 1011 79 10000 2.63 243 02:27 22.01.2022
3555 Clear 24 1009 80 10000 3.56 211 23:49 21.01.2022
3556 Clear 25 1008 79 10000 3.29 191 22:58 21.01.2022
3557 Clear 25 1009 77 10000 4.21 176 20:48 21.01.2022
3558 Clouds 26 1010 77 10000 3.8 169 19:20 21.01.2022
3559 Clouds 27 1010 77 10000 4.4 174 17:48 21.01.2022
3560 Clouds 28 1011 76 10000 4.15 167 15:48 21.01.2022
3561 Clouds 28 1011 73 10000 3.68 164 14:41 21.01.2022
3562 Clouds 28 1009 66 10000 4.32 169 12:43 21.01.2022
3563 Clouds 30 1008 56 10000 5.12 165 11:29 21.01.2022
3564 Clouds 30 1007 53 10000 4.92 168 10:27 21.01.2022
3565 Clouds 30 1008 51 10000 5 172 08:50 21.01.2022
3566 Clouds 30 1010 53 10000 4.43 179 07:48 21.01.2022
3567 Clouds 25 1012 76 10000 2.52 199 01:48 21.01.2022
3568 Clouds 26 1010 72 7599 3.21 200 22:47 20.01.2022
3569 Clouds 25 1009 69 10000 3.81 201 21:48 20.01.2022
3570 Clouds 26 1009 66 10000 3.85 195 21:24 20.01.2022
3571 Clouds 28 1010 65 10000 4.19 194 19:46 20.01.2022
3572 Clouds 28 1010 66 10000 4.28 189 19:18 20.01.2022
3573 Clouds 28 1010 63 10000 4.67 197 17:36 20.01.2022
3574 Clouds 28 1011 64 10000 4.78 194 15:59 20.01.2022
3575 Clouds 28 1010 62 10000 5.25 194 15:29 20.01.2022
3576 Clouds 28 1010 59 10000 4.98 192 14:18 20.01.2022
3577 Clouds 29 1009 56 10000 5.14 191 12:44 20.01.2022
3578 Clouds 30 1008 51 10000 5.82 191 12:26 20.01.2022
3579 Clouds 31 1007 41 10000 5.47 185 10:58 20.01.2022
3580 Clouds 32 1007 38 10000 5.7 185 09:43 20.01.2022
3581 Clouds 32 1007 36 10000 5.98 188 08:37 20.01.2022
3582 Clouds 31 1011 42 10000 2.7 134 06:19 20.01.2022
3583 Clouds 24 1010 59 10000 1.51 56 23:56 19.01.2022
3584 Clouds 24 1010 56 10000 1.23 49 22:37 19.01.2022
3585 Clouds 25 1010 52 10000 1.21 61 21:26 19.01.2022
3586 Clouds 24 1010 52 10000 1.21 61 20:55 19.01.2022
3587 Clear 25 1010 50 10000 1.03 38 20:24 19.01.2022
3588 Clouds 27 1010 45 10000 0.45 100 18:49 19.01.2022
3589 Clouds 27 1010 44 10000 0.53 46 17:50 19.01.2022
3590 Clouds 27 1010 42 10000 0.75 352 17:18 19.01.2022
3591 Clouds 29 1010 39 10000 0.66 163 14:55 19.01.2022
3592 Clouds 30 1009 36 10000 0.63 334 13:20 19.01.2022
3593 Clouds 31 1008 35 10000 0.9 217 11:54 19.01.2022
3594 Clouds 32 1008 33 10000 0.55 104 10:52 19.01.2022
3595 Clouds 31 1008 32 10000 1.37 57 09:35 19.01.2022
3596 Clouds 32 1009 34 10000 2.3 45 07:34 19.01.2022
3597 Clouds 30 1013 41 10000 3.21 57 05:19 19.01.2022
3598 Clouds 25 1012 55 10000 3.02 98 23:53 18.01.2022
3599 Clouds 25 1012 55 10000 3.02 98 23:53 18.01.2022
3600 Clouds 24 1011 53 10000 2.57 95 23:18 18.01.2022
3601 Clouds 25 1011 51 10000 1.9 83 21:43 18.01.2022
3602 Clouds 26 1011 58 10000 1.2 176 19:57 18.01.2022
3603 Clouds 27 1011 58 10000 1.2 176 19:38 18.01.2022
3604 Clouds 27 1011 57 10000 2.1 164 19:18 18.01.2022
3605 Rain 28 1011 54 10000 2.21 160 17:59 18.01.2022
3606 Rain 29 1012 51 10000 1.89 168 17:27 18.01.2022
3607 Rain 30 1012 47 10000 2.1 175 15:56 18.01.2022
3608 Rain 29 1011 43 10000 1.69 162 15:23 18.01.2022
3609 Clouds 31 1011 40 10000 1.2 159 13:32 18.01.2022
3610 Rain 33 1009 31 10000 2.88 77 10:49 18.01.2022
3611 Clouds 33 1009 30 10000 3.01 85 09:39 18.01.2022
3612 Clouds 33 1010 31 10000 3.22 81 07:58 18.01.2022
3613 Clouds 33 1011 34 10000 3.31 68 07:21 18.01.2022
3614 Clouds 24 1013 51 10000 1.57 111 00:21 18.01.2022
3615 Clouds 25 1012 50 10000 1.82 102 22:30 17.01.2022
3616 Clouds 25 1012 49 10000 1.75 102 21:36 17.01.2022
3617 Clouds 25 1012 49 10000 2.15 90 20:29 17.01.2022
3618 Clear 27 1012 53 10000 2.04 149 18:31 17.01.2022
3619 Rain 28 1012 49 10000 2.16 138 17:51 17.01.2022
3620 Rain 28 1012 46 10000 1.69 167 16:53 17.01.2022
3621 Rain 29 1012 43 10000 2.01 235 15:24 17.01.2022
3622 Rain 29 1012 43 10000 2.01 235 14:57 17.01.2022
3623 Clear 30 1012 41 10000 1.68 233 13:30 17.01.2022
3624 Clouds 31 1010 38 10000 1.44 207 12:57 17.01.2022
3625 Rain 32 1010 35 10000 0.66 174 11:50 17.01.2022
3626 Rain 33 1009 32 10000 0.32 147 10:38 17.01.2022
3627 Rain 33 1009 32 10000 0.56 116 09:35 17.01.2022
3628 Clouds 33 1011 34 10000 1.4 79 07:47 17.01.2022
3629 Clouds 33 1012 37 10000 1.48 65 07:19 17.01.2022
3630 Clouds 24 1014 70 10000 1.17 256 00:57 17.01.2022
3631 Clouds 24 1013 70 10000 1.62 234 22:31 16.01.2022
3632 Clouds 25 1012 68 10000 1.9 208 20:38 16.01.2022
3633 Clouds 26 1012 67 10000 3.3 187 18:53 16.01.2022
3634 Clouds 27 1012 66 10000 3.43 189 17:59 16.01.2022
3635 Clouds 27 1012 63 10000 3.58 185 17:23 16.01.2022
3636 Clouds 27 1012 63 10000 3.58 185 16:38 16.01.2022
3637 Clouds 28 1012 56 10000 3.5 184 14:31 16.01.2022
3638 Rain 29 1012 52 10000 3.23 195 13:49 16.01.2022
3639 Clouds 30 1011 49 10000 3.98 197 12:49 16.01.2022
3640 Clouds 32 1011 45 10000 4.42 203 11:43 16.01.2022
3641 Clouds 32 1010 40 10000 4.14 198 10:55 16.01.2022
3642 Clouds 32 1010 37 10000 3.33 193 10:19 16.01.2022
3643 Clouds 33 1010 37 10000 3.33 193 09:51 16.01.2022
3644 Rain 33 1010 37 10000 2.48 183 09:22 16.01.2022
3645 Rain 33 1010 37 10000 2.48 183 09:22 16.01.2022
3646 Clouds 32 1011 38 10000 2 161 07:33 16.01.2022
3647 Clouds 24 1014 71 10000 1.2 170 00:42 16.01.2022
3648 Clouds 24 1013 70 10000 1.73 159 23:49 15.01.2022
3649 Clouds 25 1012 68 10000 2.12 165 21:37 15.01.2022
3650 Clouds 25 1012 67 10000 2.1 174 21:19 15.01.2022
3651 Clouds 25 1012 67 10000 2.1 174 20:39 15.01.2022
3652 Clouds 26 1013 64 10000 2.47 189 19:29 15.01.2022
3653 Clouds 26 1013 65 10000 2.8 186 18:44 15.01.2022
3654 Clouds 27 1013 62 10000 3.51 184 17:25 15.01.2022
3655 Clouds 28 1013 60 10000 3.63 190 15:42 15.01.2022
3656 Clear 29 1012 51 10000 4.01 199 13:52 15.01.2022
3657 Clouds 32 1011 42 10000 4.17 198 11:46 15.01.2022
3658 Clouds 33 1010 33 10000 3.4 174 10:25 15.01.2022
3659 Clouds 31 1013 37 10000 2.97 135 06:40 15.01.2022
3660 Clear 24 1013 71 10000 1.06 153 23:49 14.01.2022
3661 Clear 24 1012 70 10000 1.51 170 21:41 14.01.2022
3662 Clear 25 1012 69 10000 2.2 170 20:37 14.01.2022
3663 Clear 25 1012 67 10000 2.17 171 19:58 14.01.2022
3664 Clouds 26 1013 66 10000 2.37 166 18:46 14.01.2022
3665 Clouds 26 1013 67 10000 3.86 171 17:54 14.01.2022
3666 Clear 27 1013 65 10000 3.59 173 16:47 14.01.2022
3667 Clear 27 1013 63 10000 3.68 179 15:33 14.01.2022
3668 Clear 28 1012 57 10000 3.88 191 14:29 14.01.2022
3669 Clouds 29 1011 47 10000 3.55 195 12:59 14.01.2022
3670 Clouds 31 1011 40 10000 3.06 190 12:20 14.01.2022
3671 Clouds 32 1010 34 10000 2.66 182 10:46 14.01.2022
3672 Clouds 32 1010 32 10000 2.36 148 08:54 14.01.2022
3673 Clouds 32 1011 34 10000 2.78 134 07:46 14.01.2022
3674 Clear 28 1016 61 10000 2.27 112 03:19 14.01.2022
3675 Clouds 25 1014 73 10000 1.91 115 00:35 14.01.2022
3676 Clouds 25 1012 71 10000 2.08 170 21:55 13.01.2022
3677 Clouds 25 1012 71 10000 2.08 170 21:30 13.01.2022
3678 Clouds 25 1012 71 10000 2.08 170 21:30 13.01.2022
3679 Clouds 25 1012 70 10000 2.21 183 20:33 13.01.2022
3680 Clouds 26 1013 70 10000 3.64 170 19:32 13.01.2022
3681 Clouds 26 1013 69 10000 3.88 169 18:50 13.01.2022
3682 Clouds 27 1013 64 10000 3.64 176 16:58 13.01.2022
3683 Clouds 28 1013 60 10000 3.35 182 15:49 13.01.2022
3684 Clouds 28 1013 58 10000 3.84 186 15:26 13.01.2022
3685 Clouds 29 1012 54 10000 4.16 196 13:36 13.01.2022
3686 Clouds 33 1010 45 10000 4.94 197 11:43 13.01.2022
3687 Clouds 33 1009 31 10000 3.05 182 09:37 13.01.2022
3688 Clouds 33 1009 30 10000 3.09 164 08:52 13.01.2022
3689 Clouds 34 1010 29 10000 3.23 150 08:18 13.01.2022
3690 Clear 33 1012 31 10000 2.99 131 07:20 13.01.2022
3691 Clear 32 1014 38 10000 3.29 120 05:21 13.01.2022
3692 Clear 31 1014 38 10000 3.29 120 04:55 13.01.2022
3693 Clear 26 1014 64 10000 2.55 121 01:41 13.01.2022
3694 Clouds 25 1013 68 10000 0.91 112 23:54 12.01.2022
3695 Clouds 25 1013 68 10000 0.91 112 23:34 12.01.2022
3696 Clouds 25 1013 66 10000 1.15 133 22:35 12.01.2022
3697 Clouds 25 1012 65 10000 1.42 158 21:49 12.01.2022
3698 Clouds 26 1012 62 10000 1.87 159 21:20 12.01.2022
3699 Clouds 26 1012 62 10000 1.87 159 20:49 12.01.2022
3700 Clouds 26 1014 54 10000 0.97 151 19:23 12.01.2022
3701 Clouds 27 1014 65 10000 2.63 188 18:27 12.01.2022
3702 Clouds 28 1014 63 10000 3.14 184 16:58 12.01.2022
3703 Clouds 28 1014 58 10000 3.01 195 15:49 12.01.2022
3704 Clouds 29 1014 54 10000 3.11 208 14:45 12.01.2022
3705 Clouds 30 1012 46 10000 2.89 215 12:57 12.01.2022
3706 Clouds 32 1010 36 10000 1.64 173 09:58 12.01.2022
3707 Clouds 32 1011 36 10000 2.55 117 07:59 12.01.2022
3708 Clouds 32 1011 36 10000 2.55 117 07:33 12.01.2022
3709 Clouds 30 1015 48 10000 2.78 95 04:54 12.01.2022
3710 Clouds 24 1012 72 10000 1.41 174 23:27 11.01.2022
3711 Clouds 24 1012 72 10000 1.41 174 22:40 11.01.2022
3712 Clouds 24 1011 71 10000 2.17 187 22:18 11.01.2022
3713 Clouds 25 1011 70 10000 2.69 192 20:40 11.01.2022
3714 Clouds 26 1012 68 10000 3.02 192 19:40 11.01.2022
3715 Clouds 26 1013 63 10000 3.07 186 17:55 11.01.2022
3716 Clear 27 1013 61 10000 3.02 188 16:59 11.01.2022
3717 Clear 27 1013 61 10000 3.02 188 16:35 11.01.2022
3718 Clear 29 1012 54 10000 3.43 191 14:57 11.01.2022
3719 Clear 28 1012 54 10000 3.43 191 14:38 11.01.2022
3720 Rain 30 1011 50 10000 3.53 198 13:53 11.01.2022
3721 Clouds 30 1010 43 10000 3.3 193 13:28 11.01.2022
3722 Rain 32 1011 43 10000 3.46 196 12:37 11.01.2022
3723 Rain 34 1010 30 10000 2.26 156 10:45 11.01.2022
3724 Rain 34 1011 29 10000 2.88 131 08:27 11.01.2022
3725 Rain 30 1014 43 10000 1.62 134 04:30 11.01.2022
3726 Rain 30 1014 43 10000 1.62 134 04:30 11.01.2022
3727 Rain 24 1013 65 10000 0.63 184 00:28 11.01.2022
3728 Clouds 24 1013 65 10000 0.63 184 23:40 10.01.2022
3729 Rain 23 1013 65 10000 1.01 230 22:43 10.01.2022
3730 Rain 24 1012 64 10000 1.43 222 22:18 10.01.2022
3731 Rain 24 1012 64 10000 1.43 222 21:42 10.01.2022
3732 Rain 24 1012 64 10000 1.75 218 21:18 10.01.2022
3733 Clear 24 1012 64 10000 1.75 218 20:55 10.01.2022
3734 Rain 24 1013 62 10000 2.18 206 20:23 10.01.2022
3735 Rain 26 1013 62 10000 2.18 206 19:39 10.01.2022
3736 Rain 26 1013 62 10000 2.18 206 19:39 10.01.2022
3737 Rain 26 1013 59 10000 2.3 192 19:19 10.01.2022
3738 Rain 26 1013 61 10000 3.03 187 18:47 10.01.2022
3739 Rain 28 1013 56 10000 3.07 199 16:51 10.01.2022
3740 Clouds 28 1013 56 10000 3.07 199 16:33 10.01.2022
3741 Rain 29 1012 47 10000 3.07 196 14:49 10.01.2022
3742 Clear 30 1011 43 10000 2.98 196 13:35 10.01.2022
3743 Rain 32 1010 35 10000 2.99 199 11:57 10.01.2022
3744 Rain 33 1009 30 10000 1.86 185 10:50 10.01.2022
3745 Rain 34 1009 28 10000 1.51 168 09:40 10.01.2022
3746 Clear 32 1013 33 10000 2.58 124 05:52 10.01.2022
3747 Clear 27 1014 41 10000 1.78 72 02:38 10.01.2022
3748 Clear 23 1012 48 10000 1.03 29 01:21 10.01.2022
3749 Clear 22 1012 47 10000 1.04 70 00:21 10.01.2022
3750 Rain 23 1011 47 10000 0.74 93 22:47 09.01.2022
3751 Clear 23 1011 48 10000 0.78 127 22:21 09.01.2022
3752 Clear 24 1011 48 10000 0.78 127 21:41 09.01.2022
3753 Clear 24 1010 48 10000 0.99 127 21:22 09.01.2022
3754 Rain 25 1010 48 10000 0.99 127 20:47 09.01.2022
3755 Rain 25 1011 47 10000 1.24 126 20:28 09.01.2022
3756 Clear 26 1011 47 10000 1.24 126 19:41 09.01.2022
3757 Clear 26 1011 45 10000 1.05 117 19:21 09.01.2022
3758 Clear 26 1011 52 10000 1.35 149 18:41 09.01.2022
3759 Clear 26 1011 49 10000 1.21 145 18:23 09.01.2022
3760 Clear 26 1011 49 10000 1.21 145 17:30 09.01.2022
3761 Clear 27 1011 46 10000 1.26 154 16:50 09.01.2022
3762 Rain 28 1011 44 10000 1.75 191 15:51 09.01.2022
3763 Clear 29 1011 44 10000 1.75 191 15:32 09.01.2022
3764 Rain 29 1011 41 10000 2.07 192 14:39 09.01.2022
3765 Clear 30 1010 38 10000 1.64 181 13:49 09.01.2022
3766 Clear 31 1009 32 10000 1.64 144 12:19 09.01.2022
3767 Clear 32 1009 32 10000 1.64 144 11:38 09.01.2022
3768 Clear 33 1008 26 10000 1.45 95 09:55 09.01.2022
3769 Clear 33 1009 27 10000 1.84 87 09:24 09.01.2022
3770 Clear 33 1009 28 10000 2.18 86 07:54 09.01.2022
3771 Clear 23 1013 49 10000 1.48 24 01:30 09.01.2022
3772 Clear 23 1012 51 10000 1.26 13 00:50 09.01.2022
3773 Clear 23 1011 50 10000 1.76 345 23:36 08.01.2022
3774 Clear 23 1011 49 10000 1.76 333 22:56 08.01.2022
3775 Rain 25 1011 49 10000 1.48 314 21:32 08.01.2022
3776 Clear 25 1011 50 10000 1.21 271 20:44 08.01.2022
3777 Clear 25 1012 48 10000 0.95 227 20:23 08.01.2022
3778 Clouds 26 1012 52 10000 1.9 182 19:22 08.01.2022
3779 Clouds 27 1012 47 10000 1.67 163 17:43 08.01.2022
3780 Rain 28 1012 44 10000 1 165 16:57 08.01.2022
3781 Clouds 29 1013 42 10000 0.62 257 15:34 08.01.2022
3782 Clouds 30 1012 38 10000 0.77 265 14:25 08.01.2022
3783 Rain 32 1010 32 10000 1.08 18 11:43 08.01.2022
3784 Clouds 33 1009 28 10000 1.83 29 10:40 08.01.2022
3785 Rain 33 1009 27 10000 2.07 38 10:22 08.01.2022
3786 Rain 33 1009 27 10000 2.07 38 09:34 08.01.2022
3787 Clouds 32 1013 36 10000 2.44 67 06:22 08.01.2022
3788 Clear 25 1014 54 10000 1.42 28 01:46 08.01.2022
3789 Clouds 24 1013 55 10000 0.93 10 23:36 07.01.2022
3790 Rain 25 1012 52 10000 0.69 17 21:49 07.01.2022
3791 Rain 26 1012 51 10000 0.48 57 20:34 07.01.2022
3792 Rain 26 1013 49 10000 0.61 94 19:27 07.01.2022
3793 Clear 26 1013 53 10000 0.68 147 18:49 07.01.2022
3794 Rain 27 1013 51 10000 1.13 169 18:21 07.01.2022
3795 Rain 27 1013 49 10000 1.26 177 17:24 07.01.2022
3796 Clear 30 1013 44 10000 1.4 199 14:56 07.01.2022
3797 Clear 30 1014 100 10000 0.88 227 13:52 07.01.2022
3798 Clear 30 1012 38 10000 0.42 294 12:51 07.01.2022
3799 Clear 32 1011 31 10000 1.47 36 11:28 07.01.2022
3800 Rain 31 1015 35 10000 2.68 71 04:54 07.01.2022
3801 Clear 28 1015 41 10000 1.88 91 02:53 07.01.2022
3802 Clear 24 1014 46 10000 1.61 95 01:49 07.01.2022
3803 Clear 23 1013 49 10000 1.25 83 01:26 07.01.2022
3804 Rain 23 1013 48 10000 1.34 79 00:31 07.01.2022
3805 Rain 25 1012 45 10000 1.82 91 22:33 06.01.2022
3806 Clear 25 1011 42 10000 2.12 102 20:51 06.01.2022
3807 Rain 25 1012 41 10000 1.9 101 20:18 06.01.2022
3808 Rain 25 1012 41 10000 1.9 101 19:38 06.01.2022
3809 Rain 26 1013 44 10000 1.28 132 17:51 06.01.2022
3810 Clouds 27 1013 44 10000 0.96 152 17:27 06.01.2022
3811 Clouds 27 1013 44 10000 0.96 152 16:38 06.01.2022
3812 Clouds 28 1013 43 10000 1.33 231 15:44 06.01.2022
3813 Clouds 29 1014 100 10000 1.83 225 15:22 06.01.2022
3814 Clouds 29 1011 39 10000 1.33 211 14:20 06.01.2022
3815 Clouds 30 1011 34 10000 1.33 211 13:39 06.01.2022
3816 Clouds 31 1010 28 10000 1.32 64 12:21 06.01.2022
3817 Rain 33 1010 32 10000 1.32 64 11:30 06.01.2022
3818 Rain 33 1009 29 10000 1.88 57 10:50 06.01.2022
3819 Clouds 33 1013 100 10000 2.23 38 06:54 06.01.2022
3820 Clouds 23 1013 54 10000 0.86 48 00:34 06.01.2022
3821 Clouds 24 1012 54 10000 0.36 120 23:33 05.01.2022
3822 Clouds 24 1012 53 10000 0.11 107 22:48 05.01.2022
3823 Clouds 24 1011 52 10000 0.57 51 22:26 05.01.2022
3824 Clouds 24 1011 51 10000 0.63 47 21:28 05.01.2022
3825 Clouds 25 1011 51 10000 0.63 47 20:30 05.01.2022
3826 Rain 26 1012 49 10000 0.6 8 19:29 05.01.2022
3827 Clouds 26 1012 49 10000 0.37 14 18:21 05.01.2022
3828 Clouds 27 1012 48 10000 0.73 289 16:57 05.01.2022
3829 Rain 27 1013 47 10000 1.54 252 16:19 05.01.2022
3830 Clouds 28 1012 45 10000 1.81 224 15:19 05.01.2022
3831 Rain 30 1013 100 10000 1.88 196 13:34 05.01.2022
3832 Clouds 31 1010 35 10000 0.26 196 12:20 05.01.2022
3833 Rain 33 1012 100 10000 0.76 27 08:35 05.01.2022
3834 Clouds 32 1013 100 10000 1.7 17 06:46 05.01.2022
3835 Clouds 23 1013 57 10000 1.48 337 01:46 05.01.2022
3836 Clouds 24 1012 56 10000 0.97 317 23:43 04.01.2022
3837 Clouds 24 1011 55 10000 1.32 338 23:21 04.01.2022
3838 Clouds 24 1012 55 10000 1.12 328 21:41 04.01.2022
3839 Clouds 25 1012 54 10000 0.52 352 20:42 04.01.2022
3840 Clouds 26 1013 49 10000 0.62 84 18:39 04.01.2022
3841 Clouds 27 1013 48 10000 1.82 75 17:30 04.01.2022
3842 Clouds 27 1013 46 10000 2.33 32 16:34 04.01.2022
3843 Clouds 28 1013 43 10000 3.37 9 15:25 04.01.2022
3844 Clouds 28 1013 43 10000 3.37 9 14:38 04.01.2022
3845 Clouds 29 1012 41 10000 3.39 9 13:56 04.01.2022
3846 Clouds 30 1010 38 10000 1.6 347 12:22 04.01.2022
3847 Rain 31 1009 35 10000 1.49 1 10:23 04.01.2022
3848 Clouds 32 1010 36 10000 1.44 2 08:57 04.01.2022
3849 Clouds 30 1013 40 10000 1.39 55 06:28 04.01.2022
3850 Clouds 24 1013 61 10000 0.63 291 00:42 04.01.2022
3851 Clouds 24 1013 61 10000 1.05 306 23:54 03.01.2022
3852 Clouds 25 1012 58 10000 1.79 319 22:22 03.01.2022
3853 Clouds 25 1012 58 10000 1.79 319 21:39 03.01.2022
3854 Clouds 25 1012 56 10000 1.35 320 20:41 03.01.2022
3855 Clouds 26 1013 54 10000 1.6 101 18:55 03.01.2022
3856 Clouds 26 1013 54 10000 1.6 101 18:30 03.01.2022
3857 Clouds 26 1013 51 10000 1.73 91 17:21 03.01.2022
3858 Clouds 27 1013 51 10000 1.73 91 16:53 03.01.2022
3859 Clouds 29 1013 49 10000 1.72 30 14:31 03.01.2022
3860 Clouds 29 1011 44 10000 1.53 13 12:52 03.01.2022
3861 Clouds 30 1011 43 10000 1.68 17 11:50 03.01.2022
3862 Clouds 30 1010 40 10000 2.05 34 10:38 03.01.2022
3863 Clouds 31 1009 40 10000 2.62 50 09:28 03.01.2022
3864 Clouds 31 1010 41 10000 2.6 46 07:53 03.01.2022
3865 Clouds 24 1015 54 10000 2.16 54 02:56 03.01.2022
3866 Clouds 23 1012 58 10000 1.82 18 23:24 02.01.2022
3867 Clouds 23 1012 58 10000 1.82 18 22:56 02.01.2022
3868 Clouds 23 1012 57 10000 1.97 40 21:58 02.01.2022
3869 Clouds 23 1013 55 10000 2.17 42 20:50 02.01.2022
3870 Clouds 24 1013 54 10000 2.65 40 20:29 02.01.2022
3871 Clouds 24 1013 54 10000 2.65 40 19:31 02.01.2022
3872 Clouds 25 1014 52 10000 3.44 54 18:56 02.01.2022
3873 Clouds 25 1014 51 10000 2.85 62 17:57 02.01.2022
3874 Clouds 25 1014 51 10000 2.85 62 17:39 02.01.2022
3875 Clouds 26 1015 51 10000 2.6 69 17:20 02.01.2022
3876 Clouds 26 1014 50 10000 2.63 78 16:28 02.01.2022
3877 Clouds 27 1014 48 10000 1.62 80 14:41 02.01.2022
3878 Clouds 28 1013 45 10000 0.9 24 13:25 02.01.2022
3879 Clouds 29 1012 44 10000 1.1 22 12:32 02.01.2022
3880 Clouds 30 1013 100 10000 1.8 33 11:49 02.01.2022
3881 Clouds 30 1011 40 10000 2.45 21 10:53 02.01.2022
3882 Clouds 30 1011 40 10000 2.74 10 09:56 02.01.2022
3883 Clouds 30 1012 41 10000 3.14 34 07:34 02.01.2022
3884 Clear 25 1017 56 10000 2.58 91 02:51 02.01.2022
3885 Clouds 22 1014 60 10000 2.83 17 23:42 01.01.2022
3886 Clouds 23 1014 58 10000 2.98 3 23:23 01.01.2022
3887 Clouds 24 1013 57 10000 2.53 28 22:25 01.01.2022
3888 Clouds 24 1013 57 10000 2.53 28 21:44 01.01.2022
3889 Clouds 24 1013 55 10000 2.47 39 20:56 01.01.2022
3890 Clear 25 1014 54 10000 2.92 40 20:20 01.01.2022
3891 Clear 25 1014 54 10000 2.92 40 19:33 01.01.2022
3892 Clear 25 1015 51 10000 3.02 51 18:29 01.01.2022
3893 Clear 26 1015 49 10000 3.61 59 16:55 01.01.2022
3894 Clear 26 1015 49 10000 3.61 59 16:34 01.01.2022
3895 Clear 27 1015 49 10000 4.03 63 15:33 01.01.2022
3896 Clear 28 1015 46 10000 3.82 86 14:22 01.01.2022
3897 Clouds 28 1013 44 10000 2.66 88 13:28 01.01.2022
3898 Clear 29 1012 42 10000 2.25 74 11:59 01.01.2022
3899 Clear 30 1012 40 10000 2.35 56 11:24 01.01.2022
3900 Clear 30 1012 40 10000 2.35 56 10:43 01.01.2022
3901 Clear 31 1013 100 10000 2.2 21 09:47 01.01.2022
3902 Clear 31 1014 100 10000 3.15 17 08:27 01.01.2022
3903 Clear 31 1015 100 10000 3.15 17 07:56 01.01.2022
3904 Clear 31 1015 100 10000 3.15 17 07:37 01.01.2022
3905 Clouds 30 1016 100 10000 3.15 44 06:43 01.01.2022
3906 Clouds 27 1017 45 10000 2.55 57 04:39 01.01.2022
3907 Clouds 26 1017 49 10000 1.95 74 03:48 01.01.2022
3908 Clouds 23 1015 56 10000 1.21 345 23:53 31.12.2021
3909 Clouds 23 1014 53 10000 1.8 34 21:56 31.12.2021
3910 Clouds 24 1014 53 10000 1.8 34 21:32 31.12.2021
3911 Clouds 25 1015 52 10000 2.37 50 19:43 31.12.2021
3912 Clouds 25 1015 52 10000 3.28 70 18:47 31.12.2021
3913 Clouds 26 1015 51 10000 3.62 68 17:49 31.12.2021
3914 Clouds 26 1015 50 10000 3.39 62 17:22 31.12.2021
3915 Clouds 26 1015 50 10000 3.39 62 16:46 31.12.2021
3916 Clouds 27 1016 50 10000 3.42 59 16:18 31.12.2021
3917 Clouds 26 1016 50 10000 3.42 59 15:42 31.12.2021
3918 Clouds 27 1015 49 10000 3.92 53 15:20 31.12.2021
3919 Clouds 28 1017 100 10000 3.92 53 14:37 31.12.2021
3920 Clouds 28 1016 100 10000 4.29 37 13:45 31.12.2021
3921 Clouds 29 1016 100 10000 4.09 23 12:50 31.12.2021
3922 Clouds 29 1013 42 10000 2.17 36 12:19 31.12.2021
3923 Clouds 30 1013 42 10000 2.17 36 11:41 31.12.2021
3924 Clouds 30 1012 40 10000 2.21 38 10:48 31.12.2021
3925 Clouds 31 1014 100 10000 2.17 32 10:25 31.12.2021
3926 Clouds 31 1014 100 10000 2.17 32 09:34 31.12.2021
3927 Clouds 31 1015 100 10000 2.21 25 08:50 31.12.2021
3928 Clouds 31 1015 100 10000 2.71 14 07:49 31.12.2021
3929 Clouds 25 1017 56 10000 4.26 77 02:36 31.12.2021
3930 Clouds 24 1014 59 10000 2.59 42 23:18 30.12.2021
3931 Clouds 25 1013 58 10000 2.59 13 22:27 30.12.2021
3932 Clouds 25 1013 58 10000 2.59 13 21:39 30.12.2021
3933 Clouds 25 1013 57 10000 2.15 11 20:58 30.12.2021
3934 Clouds 26 1013 57 10000 2.15 11 20:35 30.12.2021
3935 Clear 26 1014 56 10000 2.57 36 19:53 30.12.2021
3936 Clouds 26 1015 55 10000 3.25 51 19:28 30.12.2021
3937 Clouds 27 1015 54 10000 3.29 53 18:26 30.12.2021
3938 Clouds 27 1016 54 10000 2.6 60 16:39 30.12.2021
3939 Clouds 27 1016 53 10000 2.68 59 15:53 30.12.2021
3940 Clouds 27 1016 53 10000 2.68 59 15:53 30.12.2021
3941 Clear 27 1016 51 10000 2.6 44 14:51 30.12.2021
3942 Clear 28 1016 51 10000 2.6 44 14:31 30.12.2021
3943 Clouds 29 1016 100 10000 3.03 32 13:24 30.12.2021
3944 Clouds 30 1013 44 10000 3.13 47 11:45 30.12.2021
3945 Clouds 32 1014 100 10000 3.99 60 10:28 30.12.2021
3946 Clouds 32 1014 100 10000 3.99 60 09:44 30.12.2021
3947 Clouds 31 1016 100 10000 4.84 73 06:56 30.12.2021
3948 Clouds 30 1019 100 10000 5.02 76 04:56 30.12.2021
3949 Clouds 28 1017 47 10000 4.39 83 03:40 30.12.2021
3950 Clouds 26 1016 56 10000 3.39 78 02:27 30.12.2021
3951 Clouds 26 1014 57 10000 3.44 21 23:37 29.12.2021
3952 Clouds 26 1013 58 10000 3.36 4 22:35 29.12.2021
3953 Clouds 26 1013 60 10000 3.03 353 21:55 29.12.2021
3954 Clouds 27 1013 60 10000 2.91 347 20:57 29.12.2021
3955 Clouds 27 1013 60 10000 2.29 353 20:29 29.12.2021
3956 Clouds 27 1013 60 10000 2.29 353 19:31 29.12.2021
3957 Clouds 28 1014 53 10000 3.19 51 18:36 29.12.2021
3958 Clouds 28 1015 52 10000 3.25 55 17:42 29.12.2021
3959 Clouds 29 1015 52 10000 2.97 63 17:23 29.12.2021
3960 Clouds 29 1015 51 10000 3.41 77 16:21 29.12.2021
3961 Clouds 29 1015 50 10000 3.82 82 15:21 29.12.2021
3962 Clouds 30 1013 47 10000 2.01 74 12:57 29.12.2021
3963 Clouds 30 1013 47 10000 3.72 71 12:32 29.12.2021
3964 Clouds 31 1012 45 10000 3.6 56 11:22 29.12.2021
3965 Clouds 31 1011 44 10000 4.16 60 09:30 29.12.2021
3966 Clouds 31 1012 43 10000 4.12 60 07:30 29.12.2021
3967 Clouds 31 1013 45 10000 4.56 60 06:32 29.12.2021
3968 Clouds 31 1014 45 10000 4.54 66 05:55 29.12.2021
3969 Clouds 30 1015 48 10000 4.15 68 04:57 29.12.2021
3970 Clouds 25 1014 55 10000 2.65 58 00:43 29.12.2021
3971 Clouds 25 1013 57 10000 1.94 38 23:58 28.12.2021
3972 Clouds 26 1013 57 10000 2.18 41 22:57 28.12.2021
3973 Clouds 26 1012 57 10000 2.28 51 22:25 28.12.2021
3974 Clouds 26 1012 57 10000 2.28 51 22:25 28.12.2021
3975 Clouds 26 1012 57 10000 2.28 51 22:25 28.12.2021
3976 Clouds 26 1012 57 10000 2.28 51 21:54 28.12.2021
3977 Clouds 26 1012 57 10000 2.28 51 21:54 28.12.2021
3978 Clouds 27 1012 57 10000 2.28 51 21:35 28.12.2021
3979 Clouds 27 1013 58 10000 2.1 33 20:25 28.12.2021
3980 Clouds 27 1013 57 10000 2.64 18 18:54 28.12.2021
3981 Clouds 27 1014 55 10000 3.77 48 18:27 28.12.2021
3982 Clouds 28 1014 55 10000 3.77 48 17:34 28.12.2021
3983 Clouds 28 1014 53 10000 4.26 75 16:20 28.12.2021
3984 Clouds 29 1014 53 10000 4.26 75 15:41 28.12.2021
3985 Clouds 29 1014 52 10000 4.74 74 14:55 28.12.2021
3986 Clouds 29 1014 52 10000 4.74 74 14:37 28.12.2021
3987 Clouds 30 1014 49 10000 5.07 67 14:18 28.12.2021
3988 Clouds 30 1014 49 10000 5.07 67 13:37 28.12.2021
3989 Clouds 31 1012 46 10000 4.31 60 12:56 28.12.2021
3990 Clouds 31 1011 44 10000 3.22 57 12:20 28.12.2021
3991 Clouds 32 1011 41 10000 2.79 60 10:19 28.12.2021
3992 Clear 32 1012 41 10000 3.17 63 07:33 28.12.2021
3993 Clear 27 1017 49 10000 4.18 64 03:37 28.12.2021
3994 Clouds 25 1014 60 10000 3.32 66 23:40 27.12.2021
3995 Clouds 26 1013 58 10000 3.09 61 22:21 27.12.2021
3996 Clouds 27 1013 58 10000 3.09 61 21:30 27.12.2021
3997 Clouds 27 1013 57 10000 3.17 69 20:39 27.12.2021
3998 Clouds 27 1013 56 10000 3.27 74 19:49 27.12.2021
3999 Rain 28 1014 54 10000 3.28 52 19:27 27.12.2021
4000 Clouds 29 1014 52 10000 3.33 42 17:54 27.12.2021
4001 Clouds 29 1014 52 10000 3.33 42 17:54 27.12.2021
4002 Rain 29 1015 50 10000 2.64 48 17:28 27.12.2021
4003 Clouds 30 1015 49 10000 2.77 48 16:23 27.12.2021
4004 Clouds 30 1015 49 10000 2.77 48 15:44 27.12.2021
4005 Rain 31 1016 100 10000 2.6 18 14:24 27.12.2021
4006 Clouds 31 1012 47 10000 1.89 343 12:56 27.12.2021
4007 Clouds 33 1013 100 10000 2.08 50 10:56 27.12.2021
4008 Clouds 33 1013 100 10000 2.57 69 10:27 27.12.2021
4009 Clear 33 1013 100 10000 3.04 78 09:27 27.12.2021
4010 Clear 33 1015 100 10000 3.14 70 07:34 27.12.2021
4011 Clouds 32 1016 100 10000 4.71 77 06:29 27.12.2021
4012 Clouds 25 1016 71 10000 1.86 17 01:57 27.12.2021
4013 Clouds 26 1014 66 10000 1.51 21 23:50 26.12.2021
4014 Clouds 26 1014 66 10000 1.58 25 23:20 26.12.2021
4015 Clouds 27 1014 65 10000 0.98 24 21:41 26.12.2021
4016 Clouds 27 1014 64 10000 1.6 66 19:57 26.12.2021
4017 Rain 26 1015 69 10000 2.09 52 18:53 26.12.2021
4018 Clouds 27 1015 68 10000 2.53 75 18:22 26.12.2021
4019 Clouds 28 1015 63 10000 2.29 84 15:54 26.12.2021
4020 Clouds 30 1014 58 10000 1.57 70 13:51 26.12.2021
4021 Clouds 30 1014 58 10000 1.57 70 13:32 26.12.2021
4022 Rain 30 1013 58 10000 0.83 50 12:37 26.12.2021
4023 Clouds 30 1012 57 10000 1.31 79 11:56 26.12.2021
4024 Clouds 31 1011 53 10000 2.14 71 09:42 26.12.2021
4025 Clouds 32 1011 53 10000 1.88 62 08:59 26.12.2021
4026 Clouds 32 1011 53 10000 1.88 62 08:38 26.12.2021
4027 Clouds 31 1013 52 10000 2.49 37 06:47 26.12.2021
4028 Clouds 25 1014 78 10000 1.62 44 00:45 26.12.2021
4029 Clouds 25 1013 73 10000 2.05 74 23:49 25.12.2021
4030 Rain 25 1013 73 10000 1.9 79 23:25 25.12.2021
4031 Clouds 25 1013 72 10000 2.29 94 22:21 25.12.2021
4032 Clouds 26 1012 72 10000 2.81 104 20:36 25.12.2021
4033 Clouds 26 1013 72 10000 2.7 111 19:20 25.12.2021
4034 Clouds 27 1013 72 10000 2.79 110 18:54 25.12.2021
4035 Clouds 27 1014 71 10000 3.14 105 16:58 25.12.2021
4036 Clouds 27 1014 69 10000 3.16 96 15:54 25.12.2021
4037 Clouds 29 1012 66 10000 3.42 93 14:25 25.12.2021
4038 Clouds 30 1012 60 10000 3.75 95 12:42 25.12.2021
4039 Rain 32 1010 51 10000 0.36 353 11:27 25.12.2021
4040 Clouds 32 1009 48 10000 0.54 27 09:49 25.12.2021
4041 Clouds 32 1010 46 10000 2.11 71 07:51 25.12.2021
4042 Clouds 25 1013 75 10000 1.8 37 01:45 25.12.2021
4043 Clear 24 1011 77 10000 1.66 8 00:27 25.12.2021
4044 Clear 25 1011 73 10000 0.91 49 22:28 24.12.2021
4045 Clear 26 1011 70 10000 1.31 120 19:37 24.12.2021
4046 Clear 27 1011 69 10000 1.74 125 19:19 24.12.2021
4047 Clear 28 1012 69 10000 2.39 158 16:50 24.12.2021
4048 Clear 28 1012 67 10000 2.77 156 15:54 24.12.2021
4049 Clear 29 1012 67 10000 2.77 156 15:34 24.12.2021
4050 Clear 29 1011 65 10000 2.91 150 14:40 24.12.2021
4051 Clouds 29 1011 63 10000 2.8 145 14:19 24.12.2021
4052 Clouds 30 1011 63 10000 2.8 145 13:34 24.12.2021
4053 Clouds 31 1010 61 10000 3.09 157 12:47 24.12.2021
4054 Clouds 31 1009 55 10000 3.99 169 11:52 24.12.2021
4055 Clouds 32 1009 49 10000 4.07 171 11:25 24.12.2021
4056 Clouds 32 1009 49 10000 4.07 171 10:46 24.12.2021
4057 Clouds 32 1008 46 10000 3.88 180 09:32 24.12.2021
4058 Clouds 32 1009 42 10000 1.55 178 08:23 24.12.2021
4059 Clouds 33 1009 42 10000 1.55 178 07:47 24.12.2021
4060 Clouds 27 1013 56 10000 1.2 19 02:33 24.12.2021
4061 Clouds 24 1010 67 10000 0.7 337 23:56 23.12.2021
4062 Clouds 25 1010 68 10000 0.96 299 22:56 23.12.2021
4063 Clouds 25 1010 68 10000 0.96 299 22:37 23.12.2021
4064 Clouds 25 1010 68 10000 0.96 243 22:18 23.12.2021
4065 Clouds 26 1010 67 10000 1.16 224 20:56 23.12.2021
4066 Clouds 27 1011 66 10000 1.6 213 19:47 23.12.2021
4067 Clouds 27 1011 67 10000 2.97 187 18:34 23.12.2021
4068 Clouds 27 1012 65 10000 3.02 193 17:55 23.12.2021
4069 Clouds 28 1012 62 10000 3.12 180 16:43 23.12.2021
4070 Rain 28 1012 59 10000 3.27 192 16:23 23.12.2021
4071 Clouds 29 1012 59 10000 3.27 192 15:31 23.12.2021
4072 Clouds 29 1012 59 10000 3.27 192 15:31 23.12.2021
4073 Clouds 29 1012 55 10000 3.5 185 14:43 23.12.2021
4074 Clouds 29 1011 48 10000 2.98 175 14:19 23.12.2021
4075 Clouds 30 1010 46 10000 2.6 161 12:48 23.12.2021
4076 Clouds 32 1008 41 10000 1.04 210 10:43 23.12.2021
4077 Clouds 32 1008 37 10000 0.82 261 09:35 23.12.2021
4078 Clouds 32 1009 36 10000 0.52 270 08:59 23.12.2021
4079 Clear 32 1011 37 10000 1.17 23 06:48 23.12.2021
4080 Clear 29 1014 43 10000 2.54 343 03:41 23.12.2021
4081 Clouds 23 1011 56 10000 1.08 323 22:57 22.12.2021
4082 Clouds 24 1011 56 10000 1.08 323 22:32 22.12.2021
4083 Clouds 24 1011 55 10000 1.2 305 21:53 22.12.2021
4084 Clouds 24 1011 54 10000 0.88 288 21:28 22.12.2021
4085 Clouds 25 1011 54 10000 0.88 288 20:41 22.12.2021
4086 Clouds 25 1011 53 10000 0.69 314 20:20 22.12.2021
4087 Clouds 25 1012 51 10000 0.35 351 19:19 22.12.2021
4088 Clouds 27 1012 50 10000 1.31 259 17:39 22.12.2021
4089 Clouds 28 1011 48 10000 1.7 261 16:36 22.12.2021
4090 Clouds 28 1011 46 10000 1.32 238 15:36 22.12.2021
4091 Clouds 30 1010 39 10000 1.25 225 13:23 22.12.2021
4092 Clouds 30 1009 35 10000 0.68 211 12:19 22.12.2021
4093 Rain 32 1008 31 10000 0.51 63 09:53 22.12.2021
4094 Rain 32 1008 31 10000 0.51 63 09:31 22.12.2021
4095 Clouds 32 1011 35 10000 1.9 7 07:22 22.12.2021
4096 Clouds 30 1013 37 10000 2.26 356 05:41 22.12.2021
4097 Clouds 30 1014 40 10000 2.76 345 05:22 22.12.2021
4098 Clouds 29 1014 40 10000 2.76 345 04:45 22.12.2021
4099 Rain 28 1015 44 10000 2.62 344 04:19 22.12.2021
4100 Clouds 26 1015 44 10000 2.62 344 03:32 22.12.2021
4101 Clouds 23 1012 54 10000 1.78 347 23:58 21.12.2021
4102 Clouds 23 1012 54 10000 2.05 340 22:49 21.12.2021
4103 Clouds 23 1012 53 10000 2.31 327 22:27 21.12.2021
4104 Clouds 24 1012 53 10000 2.31 327 21:43 21.12.2021
4105 Clear 24 1012 52 10000 2.38 320 20:53 21.12.2021
4106 Clear 24 1012 51 10000 2.52 314 20:20 21.12.2021
4107 Clear 24 1012 51 10000 2.52 314 19:41 21.12.2021
4108 Clouds 25 1013 52 10000 2.09 303 18:36 21.12.2021
4109 Clouds 25 1013 51 10000 2.23 293 17:59 21.12.2021
4110 Clouds 25 1013 51 10000 2.23 293 17:40 21.12.2021
4111 Clouds 27 1013 48 10000 1.89 279 15:46 21.12.2021
4112 Clouds 27 1013 47 10000 1.24 272 14:59 21.12.2021
4113 Clouds 28 1012 45 10000 1.51 224 13:44 21.12.2021
4114 Clouds 29 1011 42 10000 1.6 202 12:58 21.12.2021
4115 Clouds 31 1010 34 10000 0.53 240 10:53 21.12.2021
4116 Clouds 31 1009 32 10000 0.68 334 09:57 21.12.2021
4117 Clouds 31 1010 33 10000 0.7 341 09:18 21.12.2021
4118 Clouds 31 1010 33 10000 0.7 341 09:18 21.12.2021
4119 Clouds 31 1011 34 10000 0.96 29 07:50 21.12.2021
4120 Clouds 31 1012 36 10000 1.85 30 07:25 21.12.2021
4121 Clouds 29 1014 43 10000 2.42 34 04:48 21.12.2021
4122 Clouds 26 1015 52 10000 2.68 21 02:39 21.12.2021
4123 Clouds 21 1013 58 10000 2.09 340 23:57 20.12.2021
4124 Clouds 23 1012 56 10000 2.21 335 22:48 20.12.2021
4125 Clouds 23 1012 54 10000 2.1 340 22:27 20.12.2021
4126 Clouds 23 1012 52 10000 2.16 354 21:28 20.12.2021
4127 Clouds 23 1012 52 10000 2.16 354 20:57 20.12.2021
4128 Clouds 24 1012 52 10000 2.16 354 20:32 20.12.2021
4129 Clouds 24 1012 51 10000 2.42 356 19:38 20.12.2021
4130 Clouds 24 1013 50 10000 2.58 351 19:20 20.12.2021
4131 Clouds 24 1013 50 10000 2.7 348 18:33 20.12.2021
4132 Clouds 25 1013 49 10000 2.52 342 17:51 20.12.2021
4133 Clouds 25 1013 47 10000 2.15 346 16:47 20.12.2021
4134 Clouds 25 1013 46 10000 2.08 352 16:25 20.12.2021
4135 Clouds 26 1013 46 10000 2.08 352 15:40 20.12.2021
4136 Clear 26 1013 44 10000 2.27 340 14:26 20.12.2021
4137 Clouds 27 1012 42 10000 2.88 353 12:40 20.12.2021
4138 Clouds 29 1010 36 10000 3.37 355 10:51 20.12.2021
4139 Clouds 29 1010 34 10000 3.8 353 09:44 20.12.2021
4140 Clear 30 1010 34 10000 3.78 355 08:56 20.12.2021
4141 Clear 30 1010 34 10000 3.78 355 08:38 20.12.2021
4142 Clear 30 1011 34 10000 3.56 3 07:38 20.12.2021
4143 Clouds 29 1012 36 10000 3.03 14 06:39 20.12.2021
4144 Clouds 22 1015 55 10000 1.56 331 01:33 20.12.2021
4145 Clouds 22 1013 57 10000 0.63 115 23:28 19.12.2021
4146 Clouds 21 1013 57 10000 0.63 115 22:44 19.12.2021
4147 Clouds 22 1012 56 10000 1.06 50 21:32 19.12.2021
4148 Clouds 22 1013 55 10000 1.55 55 20:44 19.12.2021
4149 Clouds 23 1013 52 10000 1.72 71 20:23 19.12.2021
4150 Clouds 24 1013 52 10000 1.72 71 19:42 19.12.2021
4151 Clouds 24 1014 50 10000 2.79 77 18:46 19.12.2021
4152 Clouds 25 1014 48 10000 2.6 60 17:54 19.12.2021
4153 Clouds 24 1014 48 10000 2.6 60 17:35 19.12.2021
4154 Clouds 24 1014 46 10000 2.68 42 16:41 19.12.2021
4155 Clouds 24 1014 45 10000 2.19 72 15:56 19.12.2021
4156 Clouds 26 1014 45 10000 2.4 99 15:25 19.12.2021
4157 Clouds 25 1014 45 10000 2.4 99 14:45 19.12.2021
4158 Clouds 26 1013 44 10000 1.6 65 13:35 19.12.2021
4159 Clouds 26 1012 44 10000 1.61 324 12:59 19.12.2021
4160 Clouds 28 1012 44 10000 1.61 324 12:31 19.12.2021
4161 Clouds 28 1011 42 10000 1.95 284 11:38 19.12.2021
4162 Clouds 29 1011 40 10000 1.74 267 10:50 19.12.2021
4163 Clouds 30 1010 38 10000 1.64 273 10:22 19.12.2021
4164 Clouds 30 1010 38 10000 1.14 286 08:51 19.12.2021
4165 Clouds 29 1013 40 10000 0.64 327 06:51 19.12.2021
4166 Clouds 24 1015 53 10000 2.91 69 01:52 19.12.2021
4167 Clouds 24 1014 55 10000 2.76 74 00:54 19.12.2021
4168 Clouds 23 1012 52 10000 3.39 61 23:18 18.12.2021
4169 Clouds 24 1012 52 10000 3.54 62 22:28 18.12.2021
4170 Clouds 24 1012 52 10000 3.54 62 21:44 18.12.2021
4171 Clouds 25 1011 52 10000 4.55 60 21:25 18.12.2021
4172 Clouds 25 1011 52 10000 4.55 60 20:43 18.12.2021
4173 Clouds 25 1012 53 10000 5.44 69 19:38 18.12.2021
4174 Clouds 26 1013 52 10000 5.21 73 18:25 18.12.2021
4175 Clouds 26 1013 52 10000 5.21 73 17:49 18.12.2021
4176 Clouds 27 1013 51 10000 5.72 68 16:48 18.12.2021
4177 Clouds 28 1013 49 10000 5.2 66 16:20 18.12.2021
4178 Clouds 29 1012 48 10000 4.52 59 15:24 18.12.2021
4179 Clouds 29 1011 46 10000 4.22 73 13:58 18.12.2021
4180 Rain 30 1010 43 10000 6.35 75 11:57 18.12.2021
4181 Clouds 31 1008 39 10000 4.49 62 09:59 18.12.2021
4182 Clouds 33 1008 39 10000 4.49 62 09:32 18.12.2021
4183 Clouds 32 1008 38 10000 3.77 68 08:36 18.12.2021
4184 Clouds 32 1011 41 10000 2.49 59 07:24 18.12.2021
4185 Clouds 27 1013 50 10000 6.1 80 01:46 18.12.2021
4186 Clouds 28 1011 51 10000 3.97 68 23:51 17.12.2021
4187 Clouds 28 1010 51 10000 3.97 65 22:40 17.12.2021
4188 Clouds 28 1010 51 10000 3.97 70 21:49 17.12.2021
4189 Clouds 29 1010 51 10000 3.82 72 20:44 17.12.2021
4190 Clouds 29 1010 51 10000 3.67 67 19:57 17.12.2021
4191 Clouds 30 1011 52 10000 4.21 58 18:40 17.12.2021
4192 Clouds 30 1011 51 10000 4.16 58 17:59 17.12.2021
4193 Clouds 30 1012 50 10000 3.95 62 16:53 17.12.2021
4194 Clouds 30 1012 49 10000 3.63 63 16:28 17.12.2021
4195 Clouds 30 1012 49 10000 3.63 63 15:49 17.12.2021
4196 Clouds 31 1011 48 10000 3.41 62 14:43 17.12.2021
4197 Clouds 31 1010 46 10000 2.36 49 13:51 17.12.2021
4198 Clouds 32 1009 44 10000 1.06 50 12:36 17.12.2021
4199 Clouds 33 1007 37 10000 2.26 77 10:42 17.12.2021
4200 Clouds 34 1007 36 10000 2.19 70 09:47 17.12.2021
4201 Rain 34 1007 37 10000 2.13 64 08:32 17.12.2021
4202 Clouds 34 1008 37 10000 2.37 60 07:38 17.12.2021
4203 Clouds 31 1012 43 10000 3.72 15 04:41 17.12.2021
4204 Clouds 24 1011 56 10000 3.21 349 00:28 17.12.2021
4205 Clouds 25 1010 54 10000 3.52 345 22:25 16.12.2021
4206 Clouds 26 1010 54 10000 3.52 345 21:55 16.12.2021
4207 Clouds 26 1010 54 10000 3.52 345 21:36 16.12.2021
4208 Clouds 26 1010 54 10000 3.37 341 20:40 16.12.2021
4209 Rain 26 1011 53 10000 3.01 349 19:52 16.12.2021
4210 Rain 27 1011 52 10000 2.79 349 18:45 16.12.2021
4211 Rain 27 1011 52 10000 2.81 348 18:26 16.12.2021
4212 Clouds 27 1011 52 10000 2.81 348 17:35 16.12.2021
4213 Rain 29 1011 52 10000 2.67 347 16:23 16.12.2021
4214 Rain 29 1011 51 10000 2.52 338 15:22 16.12.2021
4215 Clouds 30 1010 48 10000 2.13 341 13:44 16.12.2021
4216 Clouds 32 1009 43 10000 2.55 0 11:48 16.12.2021
4217 Clouds 32 1008 39 10000 2.78 8 11:18 16.12.2021
4218 Clouds 33 1008 39 10000 2.78 8 10:39 16.12.2021
4219 Rain 33 1007 38 10000 2.67 1 09:39 16.12.2021
4220 Clouds 31 1011 41 10000 2.98 355 06:23 16.12.2021
4221 Clouds 27 1013 53 10000 3.16 350 03:19 16.12.2021
4222 Clouds 24 1011 62 10000 2.92 342 23:36 15.12.2021
4223 Clouds 24 1010 61 10000 3.08 339 22:49 15.12.2021
4224 Clouds 24 1010 60 10000 2.75 338 22:19 15.12.2021
4225 Clouds 25 1010 60 10000 2.75 338 21:31 15.12.2021
4226 Rain 25 1010 58 10000 2.54 342 20:32 15.12.2021
4227 Rain 25 1010 57 10000 2.65 340 19:53 15.12.2021
4228 Rain 26 1011 56 10000 2.76 340 18:40 15.12.2021
4229 Rain 27 1011 54 10000 2.88 343 17:57 15.12.2021
4230 Rain 27 1011 54 10000 2.88 343 17:39 15.12.2021
4231 Clouds 27 1011 53 10000 2.94 349 16:35 15.12.2021
4232 Clouds 28 1011 53 10000 3.18 349 15:47 15.12.2021
4233 Clouds 28 1011 53 10000 3.18 349 15:47 15.12.2021
4234 Rain 28 1011 52 10000 3.39 348 15:29 15.12.2021
4235 Clouds 28 1011 52 10000 3.35 347 14:43 15.12.2021
4236 Clouds 29 1009 49 10000 3.59 349 12:52 15.12.2021
4237 Clouds 32 1008 42 10000 3.31 359 10:49 15.12.2021
4238 Clouds 32 1008 39 10000 2.86 5 09:28 15.12.2021
4239 Clouds 32 1009 39 10000 2.69 7 07:44 15.12.2021
4240 Clouds 23 1013 55 10000 3.17 325 01:39 15.12.2021
4241 Clouds 23 1011 62 10000 2.34 321 23:44 14.12.2021
4242 Clouds 23 1011 62 10000 2.12 318 22:49 14.12.2021
4243 Clouds 23 1011 62 10000 2.12 318 22:49 14.12.2021
4244 Clouds 23 1011 62 10000 2.12 318 22:30 14.12.2021
4245 Clouds 24 1011 61 10000 1.95 315 20:57 14.12.2021
4246 Clouds 24 1011 59 10000 1.48 320 19:44 14.12.2021
4247 Clouds 24 1011 59 10000 1.48 320 19:44 14.12.2021
4248 Clouds 24 1012 58 10000 0.88 354 19:20 14.12.2021
4249 Rain 25 1012 57 10000 1.39 6 18:29 14.12.2021
4250 Clouds 25 1012 57 10000 1.39 6 17:33 14.12.2021
4251 Clouds 26 1012 56 10000 1.73 15 16:42 14.12.2021
4252 Clouds 26 1012 54 10000 2.52 23 15:41 14.12.2021
4253 Clouds 27 1011 53 10000 3.71 10 13:32 14.12.2021
4254 Clouds 29 1009 45 10000 2.47 5 12:26 14.12.2021
4255 Clouds 30 1008 42 10000 2.14 3 11:24 14.12.2021
4256 Clouds 31 1008 41 10000 1.89 2 10:25 14.12.2021
4257 Clouds 30 1008 41 10000 1.89 2 09:53 14.12.2021
4258 Clouds 30 1010 41 10000 1.96 2 08:28 14.12.2021
4259 Clouds 31 1010 41 10000 1.96 2 07:59 14.12.2021
4260 Clouds 29 1013 43 10000 1.61 44 05:38 14.12.2021
4261 Clouds 23 1012 60 10000 3.06 357 22:59 13.12.2021
4262 Clouds 23 1011 59 10000 3.04 355 21:53 13.12.2021
4263 Clouds 24 1011 59 10000 3.04 355 21:33 13.12.2021
4264 Clouds 24 1012 58 10000 2.74 359 20:45 13.12.2021
4265 Clear 24 1012 56 10000 2.7 29 19:53 13.12.2021
4266 Clouds 25 1012 54 10000 3.32 51 19:19 13.12.2021
4267 Clouds 25 1013 53 10000 4.41 67 17:26 13.12.2021
4268 Clouds 26 1014 52 10000 4.7 72 15:56 13.12.2021
4269 Clouds 26 1014 52 10000 4.7 72 15:38 13.12.2021
4270 Clouds 27 1013 49 10000 5.41 76 13:47 13.12.2021
4271 Clouds 28 1011 46 10000 3.78 64 12:59 13.12.2021
4272 Clouds 29 1011 44 10000 3.9 60 12:19 13.12.2021
4273 Clouds 30 1011 44 10000 3.9 60 11:35 13.12.2021
4274 Clouds 30 1010 42 10000 3.81 55 10:47 13.12.2021
4275 Clouds 31 1010 41 10000 3.79 46 10:21 13.12.2021
4276 Clouds 31 1011 40 10000 3.8 43 07:57 13.12.2021
4277 Clear 29 1014 44 10000 3.32 46 05:36 13.12.2021
4278 Clouds 26 1015 52 10000 3.82 34 03:30 13.12.2021
4279 Clear 24 1013 64 10000 1.92 53 23:27 12.12.2021
4280 Clear 25 1012 64 10000 2.06 44 21:50 12.12.2021
4281 Clear 26 1013 61 10000 3.04 36 20:28 12.12.2021
4282 Clear 26 1014 58 10000 3.16 30 18:43 12.12.2021
4283 Clear 26 1014 56 10000 3.5 34 17:45 12.12.2021
4284 Clear 27 1014 51 10000 2.66 29 16:28 12.12.2021
4285 Clear 27 1014 51 10000 2.66 29 15:51 12.12.2021
4286 Clear 27 1014 50 10000 3.17 42 15:26 12.12.2021
4287 Clear 27 1014 50 10000 3.17 42 14:37 12.12.2021
4288 Clear 28 1013 49 10000 3.66 42 13:33 12.12.2021
4289 Clear 29 1012 46 10000 3.2 55 12:32 12.12.2021
4290 Clear 30 1011 41 10000 2.96 74 11:44 12.12.2021
4291 Clear 30 1011 38 10000 3.42 77 11:24 12.12.2021
4292 Clear 31 1010 36 10000 2.74 76 10:28 12.12.2021
4293 Rain 31 1010 36 10000 2.74 76 09:38 12.12.2021
4294 Clear 31 1011 35 10000 1.99 61 08:33 12.12.2021
4295 Clear 30 1014 39 10000 2.09 5 06:20 12.12.2021
4296 Clear 29 1015 42 10000 2.08 27 04:56 12.12.2021
4297 Clear 27 1016 45 10000 2.21 22 03:57 12.12.2021
4298 Clear 23 1014 56 10000 1.67 351 23:47 11.12.2021
4299 Clear 23 1013 54 10000 1.8 18 22:23 11.12.2021
4300 Clear 24 1013 54 10000 1.8 18 21:52 11.12.2021
4301 Clear 24 1013 53 10000 2.01 24 20:51 11.12.2021
4302 Clear 25 1014 50 10000 2.63 47 19:27 11.12.2021
4303 Clear 25 1014 50 10000 2.63 47 18:52 11.12.2021
4304 Clear 26 1014 49 10000 2.79 57 18:21 11.12.2021
4305 Clouds 26 1014 47 10000 3.21 64 17:21 11.12.2021
4306 Clouds 27 1014 47 10000 3.23 71 15:54 11.12.2021
4307 Clouds 28 1013 48 10000 2.99 70 15:28 11.12.2021
4308 Clear 29 1012 45 10000 4.07 18 12:57 11.12.2021
4309 Rain 32 1010 40 10000 2.82 34 11:25 11.12.2021
4310 Clear 32 1010 38 10000 2.33 47 09:46 11.12.2021
4311 Clear 33 1012 39 10000 2.1 50 08:23 11.12.2021
4312 Clear 25 1015 60 10000 2.18 17 02:23 11.12.2021
4313 Clear 24 1014 65 10000 2.6 355 23:58 10.12.2021
4314 Clear 24 1013 63 10000 2.53 347 23:21 10.12.2021
4315 Clear 24 1013 60 10000 1.86 360 21:56 10.12.2021
4316 Clear 24 1013 59 10000 1.88 21 21:28 10.12.2021
4317 Rain 26 1014 56 10000 2.14 70 19:21 10.12.2021
4318 Clouds 26 1014 54 10000 2.16 64 18:19 10.12.2021
4319 Rain 27 1014 52 10000 2.17 71 16:56 10.12.2021
4320 Clouds 27 1014 52 10000 2.57 66 16:28 10.12.2021
4321 Clouds 27 1014 52 10000 2.57 66 15:40 10.12.2021
4322 Rain 27 1013 54 10000 2.39 41 15:21 10.12.2021
4323 Rain 28 1013 51 10000 2.97 18 13:51 10.12.2021
4324 Clouds 28 1012 49 10000 3.44 13 13:26 10.12.2021
4325 Clouds 29 1012 50 10000 3.62 10 12:36 10.12.2021
4326 Clouds 31 1010 45 10000 2.63 356 11:28 10.12.2021
4327 Clear 32 1010 44 10000 2.17 346 10:26 10.12.2021
4328 Clear 32 1010 43 10000 1.95 354 08:57 10.12.2021
4329 Clouds 31 1013 46 10000 1.81 22 06:50 10.12.2021
4330 Clouds 26 1016 62 10000 1.73 3 02:48 10.12.2021
4331 Clouds 23 1015 70 10000 2.18 350 00:32 10.12.2021
4332 Clouds 24 1014 69 10000 2.94 3 23:20 09.12.2021
4333 Clouds 24 1013 67 10000 2.97 4 22:24 09.12.2021
4334 Clouds 24 1013 67 10000 2.97 4 21:59 09.12.2021
4335 Clouds 25 1014 66 10000 2.59 8 20:44 09.12.2021
4336 Clouds 25 1014 64 10000 2.38 23 20:21 09.12.2021
4337 Clouds 25 1015 63 10000 2.86 26 19:21 09.12.2021
4338 Clouds 25 1015 64 10000 3.27 26 18:46 09.12.2021
4339 Clouds 26 1015 63 10000 3.7 23 17:52 09.12.2021
4340 Clouds 27 1015 62 10000 3.87 17 17:26 09.12.2021
4341 Clouds 27 1015 62 10000 3.87 17 16:54 09.12.2021
4342 Clouds 27 1015 60 10000 3.89 22 15:34 09.12.2021
4343 Clouds 28 1015 59 10000 3.99 26 14:46 09.12.2021
4344 Clouds 28 1013 54 10000 4.93 18 13:20 09.12.2021
4345 Clouds 29 1013 54 10000 4.93 18 12:37 09.12.2021
4346 Clouds 30 1012 48 10000 2.71 14 11:21 09.12.2021
4347 Clouds 32 1013 100 10000 2.93 39 09:21 09.12.2021
4348 Clouds 31 1016 100 10000 2.62 51 06:44 09.12.2021
4349 Clouds 27 1017 50 10000 1.96 24 03:40 09.12.2021
4350 Clouds 22 1014 60 10000 2.68 357 23:43 08.12.2021
4351 Clouds 23 1013 60 10000 2.84 359 23:21 08.12.2021
4352 Clouds 23 1013 60 10000 2.84 359 22:47 08.12.2021
4353 Clouds 23 1013 59 10000 2.69 0 21:40 08.12.2021
4354 Clouds 24 1013 59 10000 2.56 8 20:59 08.12.2021
4355 Clouds 24 1013 60 10000 2.62 3 19:58 08.12.2021
4356 Clouds 24 1013 60 10000 2.62 3 19:58 08.12.2021
4357 Clouds 23 1013 60 10000 2.62 3 19:33 08.12.2021
4358 Clouds 23 1014 60 10000 2.98 5 18:40 08.12.2021
4359 Clouds 24 1015 60 10000 2.68 8 17:34 08.12.2021
4360 Clouds 24 1015 58 10000 2.9 35 15:49 08.12.2021
4361 Clouds 25 1015 56 10000 3.4 29 15:28 08.12.2021
4362 Clouds 26 1015 56 10000 3.4 29 14:30 08.12.2021
4363 Clouds 30 1012 36 10000 4.17 21 10:55 08.12.2021
4364 Clouds 31 1013 100 10000 4.17 21 10:31 08.12.2021
4365 Clouds 31 1013 100 10000 3.32 28 08:55 08.12.2021
4366 Clouds 30 1015 100 10000 2.63 3 07:25 08.12.2021
4367 Clouds 23 1017 36 10000 1.48 2 02:30 08.12.2021
4368 Clouds 22 1015 52 10000 2.51 334 23:33 07.12.2021
4369 Clouds 22 1014 54 10000 2.47 313 21:40 07.12.2021
4370 Clouds 22 1014 54 10000 2.29 304 21:18 07.12.2021
4371 Clouds 23 1014 54 10000 1.44 315 20:19 07.12.2021
4372 Clouds 24 1015 53 10000 1.06 327 18:42 07.12.2021
4373 Clouds 24 1015 51 10000 0.86 41 17:29 07.12.2021
4374 Clouds 25 1015 51 10000 0.86 41 16:58 07.12.2021
4375 Clouds 25 1015 52 10000 1.31 31 16:28 07.12.2021
4376 Rain 26 1015 51 10000 2.03 22 15:23 07.12.2021
4377 Clouds 27 1014 53 10000 2.88 21 13:53 07.12.2021
4378 Clouds 28 1013 53 10000 3.3 10 12:49 07.12.2021
4379 Clouds 29 1012 48 10000 2.78 353 11:25 07.12.2021
4380 Clouds 30 1011 40 10000 1.98 360 09:55 07.12.2021
4381 Clouds 30 1012 41 10000 1.96 14 07:55 07.12.2021
4382 Clouds 29 1015 44 10000 2.09 15 05:55 07.12.2021
4383 Clouds 29 1017 74 10000 2.09 15 05:33 07.12.2021
4384 Clouds 22 1014 61 10000 1.95 336 23:45 06.12.2021
4385 Clouds 22 1014 62 10000 1.9 338 22:44 06.12.2021
4386 Clouds 22 1013 60 10000 1.83 347 22:22 06.12.2021
4387 Clouds 22 1013 61 10000 1.83 347 21:46 06.12.2021
4388 Clouds 23 1013 61 10000 1.87 337 20:33 06.12.2021
4389 Clouds 23 1014 61 10000 1.66 347 19:27 06.12.2021
4390 Clouds 23 1014 60 10000 1.66 347 18:59 06.12.2021
4391 Clouds 24 1015 58 10000 1.69 8 17:56 06.12.2021
4392 Clouds 24 1015 58 10000 1.69 8 17:37 06.12.2021
4393 Clouds 25 1015 55 10000 1.87 49 16:22 06.12.2021
4394 Clouds 25 1015 56 10000 1.79 37 15:38 06.12.2021
4395 Clouds 26 1014 54 10000 3.54 23 13:45 06.12.2021
4396 Clouds 27 1013 51 10000 4.18 10 12:39 06.12.2021
4397 Clouds 30 1011 47 10000 2.86 22 10:32 06.12.2021
4398 Clouds 30 1011 43 10000 2.27 19 08:35 06.12.2021
4399 Clear 26 1017 49 10000 1.5 343 04:28 06.12.2021
4400 Clouds 20 1014 58 10000 2.38 1 22:52 05.12.2021
4401 Clouds 20 1014 57 10000 2.74 349 21:26 05.12.2021
4402 Clouds 21 1014 57 10000 2.74 349 20:59 05.12.2021
4403 Clouds 21 1014 57 10000 2.6 354 20:19 05.12.2021
4404 Clouds 22 1014 57 10000 2.6 354 19:33 05.12.2021
4405 Clouds 23 1015 49 10000 2.38 356 18:41 05.12.2021
4406 Clouds 23 1015 49 10000 2.45 4 18:19 05.12.2021
4407 Clouds 23 1015 49 10000 2.45 4 17:47 05.12.2021
4408 Clouds 23 1015 48 10000 2.62 9 16:45 05.12.2021
4409 Clouds 23 1015 46 10000 2.61 25 16:24 05.12.2021
4410 Clouds 24 1015 44 10000 3.26 25 14:49 05.12.2021
4411 Clouds 24 1015 44 10000 3.26 25 14:30 05.12.2021
4412 Clouds 25 1014 45 10000 3.96 20 13:43 05.12.2021
4413 Clouds 25 1013 44 10000 4.12 13 12:55 05.12.2021
4414 Clouds 25 1013 43 10000 3.72 21 12:29 05.12.2021
4415 Clouds 26 1013 42 10000 3.72 21 11:49 05.12.2021
4416 Clouds 27 1012 41 10000 3.47 37 10:51 05.12.2021
4417 Clouds 28 1012 39 10000 3.07 44 09:53 05.12.2021
4418 Clouds 27 1013 41 10000 2.68 22 07:33 05.12.2021
4419 Clouds 21 1017 46 10000 2.34 16 02:25 05.12.2021
4420 Clouds 21 1015 55 10000 3.1 357 23:28 04.12.2021
4421 Clouds 21 1015 54 10000 3.01 359 21:53 04.12.2021
4422 Clouds 21 1015 54 10000 2.9 357 20:47 04.12.2021
4423 Clouds 22 1015 54 10000 2.48 357 19:54 04.12.2021
4424 Clouds 22 1015 54 10000 2.48 357 19:31 04.12.2021
4425 Clouds 23 1016 52 10000 2.7 15 17:58 04.12.2021
4426 Clouds 23 1016 52 10000 2.7 15 17:36 04.12.2021
4427 Clouds 23 1016 52 10000 2.91 31 16:48 04.12.2021
4428 Clouds 23 1016 54 10000 2.57 47 16:29 04.12.2021
4429 Clouds 25 1015 52 10000 3.6 38 14:23 04.12.2021
4430 Clouds 27 1013 44 10000 4.13 17 11:45 04.12.2021
4431 Clouds 27 1012 45 10000 4.59 10 11:25 04.12.2021
4432 Clouds 28 1012 41 10000 4.59 10 10:42 04.12.2021
4433 Clouds 28 1012 41 10000 2.94 347 08:42 04.12.2021
4434 Clouds 26 1016 43 10000 2.12 320 05:47 04.12.2021
4435 Clouds 25 1017 47 10000 1.26 339 04:41 04.12.2021
4436 Clouds 20 1016 48 10000 0.65 352 23:49 03.12.2021
4437 Clouds 21 1015 48 10000 1.45 357 22:56 03.12.2021
4438 Clouds 21 1015 49 10000 1.56 335 22:00 03.12.2021
4439 Clouds 21 1015 50 10000 1.66 337 21:25 03.12.2021
4440 Clouds 22 1015 50 10000 1.66 337 20:43 03.12.2021
4441 Clouds 22 1015 51 10000 1.85 353 19:36 03.12.2021
4442 Clouds 24 1016 50 10000 2.76 32 18:26 03.12.2021
4443 Clouds 24 1016 50 10000 2.76 32 17:44 03.12.2021
4444 Clouds 25 1016 48 10000 3.53 46 14:20 03.12.2021
4445 Clouds 26 1014 47 10000 4.24 12 12:52 03.12.2021
4446 Clouds 28 1012 50 10000 4.1 344 11:24 03.12.2021
4447 Clouds 29 1011 47 10000 2.63 333 09:57 03.12.2021
4448 Clouds 29 1013 44 10000 2.44 332 08:24 03.12.2021
4449 Clouds 28 1013 45 10000 2.44 332 07:37 03.12.2021
4450 Clear 22 1017 57 10000 2.38 109 01:56 03.12.2021
4451 Clouds 22 1016 62 10000 1.07 50 00:47 03.12.2021
4452 Clouds 22 1015 65 10000 1.48 14 23:44 02.12.2021
4453 Clouds 23 1014 64 10000 2.25 359 21:42 02.12.2021
4454 Clouds 23 1014 64 10000 2.11 354 20:57 02.12.2021
4455 Clouds 23 1014 63 10000 2.11 354 20:37 02.12.2021
4456 Clouds 23 1014 62 10000 2.44 37 19:25 02.12.2021
4457 Clouds 24 1015 60 10000 2.59 59 17:36 02.12.2021
4458 Clouds 25 1015 58 10000 2.94 72 15:42 02.12.2021
4459 Clouds 25 1015 59 10000 2.32 50 14:58 02.12.2021
4460 Clouds 26 1014 57 10000 2.17 38 13:56 02.12.2021
4461 Clouds 26 1013 57 10000 2.34 20 12:52 02.12.2021
4462 Clouds 27 1012 57 10000 2.36 354 11:56 02.12.2021
4463 Clouds 29 1011 54 10000 2.19 9 09:34 02.12.2021
4464 Clouds 28 1011 54 10000 2.15 14 08:35 02.12.2021
4465 Clouds 24 1016 61 10000 1.92 73 03:39 02.12.2021
4466 Clouds 23 1014 63 10000 1.09 31 00:52 02.12.2021
4467 Clouds 23 1012 63 10000 1.91 358 22:52 01.12.2021
4468 Clouds 23 1012 62 10000 2.18 2 22:23 01.12.2021
4469 Clouds 24 1011 62 10000 2.72 32 20:36 01.12.2021
4470 Clouds 24 1012 61 10000 3.27 54 19:53 01.12.2021
4471 Clouds 24 1012 61 10000 3.22 68 19:25 01.12.2021
4472 Clouds 24 1013 61 10000 3.49 71 17:45 01.12.2021
4473 Clouds 24 1013 61 10000 3.49 71 17:45 01.12.2021
4474 Clouds 25 1013 60 10000 3.27 68 16:42 01.12.2021
4475 Clouds 25 1013 58 10000 3.78 74 14:52 01.12.2021
4476 Clouds 26 1013 57 10000 3.41 71 13:44 01.12.2021
4477 Clouds 27 1012 55 10000 3.24 61 12:37 01.12.2021
4478 Clouds 29 1010 52 10000 3.9 48 10:42 01.12.2021
4479 Clouds 29 1010 51 10000 4.47 51 09:19 01.12.2021
4480 Clouds 28 1011 53 10000 4.43 68 08:26 01.12.2021
4481 Clouds 28 1011 54 10000 4.43 68 07:33 01.12.2021
4482 Clouds 26 1013 55 10000 4.58 62 05:51 01.12.2021
4483 Clouds 25 1015 55 10000 3.61 81 03:41 01.12.2021
4484 Clouds 24 1013 61 10000 3.63 63 00:52 01.12.2021
4485 Clouds 24 1013 60 10000 3.35 66 23:53 30.11.2021
4486 Clouds 24 1012 60 10000 3.6 75 22:49 30.11.2021
4487 Clouds 25 1011 59 10000 3.15 72 21:28 30.11.2021
4488 Clouds 25 1011 59 10000 3.15 72 20:37 30.11.2021
4489 Clouds 26 1011 58 10000 1.02 43 19:53 30.11.2021
4490 Clouds 26 1011 57 10000 1.02 43 19:30 30.11.2021
4491 Clouds 26 1012 56 10000 1.49 17 18:35 30.11.2021
4492 Rain 26 1013 58 10000 2.28 31 16:35 30.11.2021
4493 Rain 27 1013 58 10000 3.32 35 14:58 30.11.2021
4494 Rain 27 1013 57 10000 4.16 41 14:19 30.11.2021
4495 Clouds 27 1012 61 10000 4.78 48 13:25 30.11.2021
4496 Clouds 27 1012 61 10000 4.78 48 12:45 30.11.2021
4497 Clouds 28 1010 60 10000 5.73 58 11:27 30.11.2021
4498 Clouds 28 1010 60 10000 5.73 58 10:56 30.11.2021
4499 Clouds 28 1010 60 10000 5.73 58 10:31 30.11.2021
4500 Clouds 28 1009 54 10000 4.35 64 08:52 30.11.2021
4501 Clouds 29 1009 53 10000 3.4 77 08:20 30.11.2021
4502 Clouds 29 1009 53 10000 3.4 77 07:47 30.11.2021
4503 Clouds 27 1012 59 10000 4.11 32 02:29 30.11.2021
4504 Clouds 26 1012 63 10000 4.11 32 01:40 30.11.2021
4505 Clouds 26 1010 62 10000 3.24 35 23:57 29.11.2021
4506 Clouds 26 1009 62 10000 2.89 23 23:23 29.11.2021
4507 Rain 26 1009 61 10000 2.89 23 22:52 29.11.2021
4508 Clouds 26 1009 60 10000 2.89 23 22:32 29.11.2021
4509 Clouds 26 1009 60 10000 2.71 12 21:23 29.11.2021
4510 Clouds 27 1009 59 10000 2.71 12 20:57 29.11.2021
4511 Clouds 27 1010 59 10000 2.14 16 20:29 29.11.2021
4512 Clouds 27 1010 59 10000 2.14 16 19:54 29.11.2021
4513 Clouds 27 1010 59 10000 2.14 16 19:33 29.11.2021
4514 Clouds 27 1010 60 10000 2.2 51 18:48 29.11.2021
4515 Clouds 26 1011 67 10000 2.71 55 17:22 29.11.2021
4516 Clouds 26 1011 67 10000 2.71 55 16:59 29.11.2021
4517 Rain 27 1012 67 10000 3.05 51 16:29 29.11.2021
4518 Clouds 27 1012 67 10000 3.05 51 15:32 29.11.2021
4519 Clouds 27 1011 66 10000 4.18 52 14:42 29.11.2021
4520 Rain 28 1011 62 10000 4.37 63 13:32 29.11.2021
4521 Clouds 28 1009 57 10000 4.76 25 12:28 29.11.2021
4522 Clouds 28 1009 57 10000 4.76 25 11:35 29.11.2021
4523 Clouds 30 1008 52 10000 5.29 28 10:32 29.11.2021
4524 Clear 31 1008 48 10000 6.28 27 09:24 29.11.2021
4525 Clouds 30 1011 49 10000 4.67 10 06:19 29.11.2021
4526 Clouds 25 1013 65 10000 4.17 16 01:38 29.11.2021
4527 Clouds 25 1012 66 10000 4.34 16 00:38 29.11.2021
4528 Clouds 26 1011 65 10000 4.92 15 23:43 28.11.2021
4529 Clouds 26 1011 64 10000 4.86 18 22:47 28.11.2021
4530 Clouds 26 1010 65 10000 4.71 14 21:42 28.11.2021
4531 Clouds 26 1010 67 10000 3.92 10 21:19 28.11.2021
4532 Clouds 27 1011 68 10000 3.46 18 19:58 28.11.2021
4533 Clouds 27 1011 68 10000 3.7 7 18:45 28.11.2021
4534 Clouds 27 1012 67 10000 3.55 3 18:27 28.11.2021
4535 Clouds 27 1012 67 10000 3.55 3 17:49 28.11.2021
4536 Clouds 27 1012 67 10000 3.55 3 17:30 28.11.2021
4537 Clouds 27 1013 64 10000 2.55 11 16:28 28.11.2021
4538 Clouds 27 1013 64 10000 2.55 11 15:53 28.11.2021
4539 Clouds 28 1013 64 10000 2.84 24 14:57 28.11.2021
4540 Clouds 28 1013 64 10000 2.84 24 14:35 28.11.2021
4541 Clouds 29 1011 63 10000 4.52 23 12:58 28.11.2021
4542 Clouds 30 1010 59 10000 4.54 15 12:29 28.11.2021
4543 Clouds 30 1009 53 10000 4.32 17 10:53 28.11.2021
4544 Clouds 31 1009 49 10000 3.4 18 10:20 28.11.2021
4545 Clouds 31 1009 49 10000 3.4 18 09:36 28.11.2021
4546 Clouds 29 1013 51 10000 2.79 22 06:29 28.11.2021
4547 Clouds 23 1013 69 10000 3.71 25 23:33 27.11.2021
4548 Clouds 25 1011 67 10000 3.84 7 20:33 27.11.2021
4549 Clouds 25 1012 67 10000 2.65 6 18:49 27.11.2021
4550 Clouds 25 1013 66 10000 2.2 5 16:52 27.11.2021
4551 Clouds 26 1013 66 10000 2.35 43 15:55 27.11.2021
4552 Clear 27 1012 63 10000 2.54 47 13:47 27.11.2021
4553 Clouds 29 1011 57 10000 3.29 24 12:29 27.11.2021
4554 Clouds 30 1010 52 10000 4.3 17 10:32 27.11.2021
4555 Clouds 30 1009 48 10000 4.45 2 09:43 27.11.2021
4556 Clouds 30 1010 48 10000 2.98 25 07:44 27.11.2021
4557 Clouds 27 1014 52 10000 2.61 64 04:58 27.11.2021
4558 Clouds 24 1013 65 10000 2.55 19 01:53 27.11.2021
4559 Clouds 23 1012 70 10000 2.6 3 23:35 26.11.2021
4560 Clouds 23 1011 69 10000 2.25 12 22:25 26.11.2021
4561 Clouds 24 1011 69 10000 2.25 12 21:35 26.11.2021
4562 Clouds 24 1011 69 10000 2.11 8 20:46 26.11.2021
4563 Clouds 25 1011 68 10000 2.17 21 20:18 26.11.2021
4564 Clouds 25 1011 68 10000 2.17 21 19:47 26.11.2021
4565 Clouds 25 1013 68 10000 1.85 43 17:57 26.11.2021
4566 Clouds 26 1013 67 10000 1.92 44 17:22 26.11.2021
4567 Clouds 26 1013 66 10000 1.69 65 15:56 26.11.2021
4568 Clouds 29 1012 55 10000 2.27 30 13:35 26.11.2021
4569 Clouds 29 1011 55 10000 3.3 13 12:30 26.11.2021
4570 Clouds 31 1009 53 10000 3.87 353 10:38 26.11.2021
4571 Clouds 31 1009 53 10000 2.2 332 08:58 26.11.2021
4572 Clouds 30 1009 53 10000 1.42 332 08:21 26.11.2021
4573 Clouds 30 1010 50 10000 0.56 350 07:29 26.11.2021
4574 Clouds 30 1012 50 10000 0.33 90 06:27 26.11.2021
4575 Clouds 29 1013 55 10000 0.46 66 04:51 26.11.2021
4576 Clouds 27 1013 63 10000 1.99 19 02:52 26.11.2021
4577 Clouds 25 1011 77 10000 2.17 329 23:27 25.11.2021
4578 Clouds 25 1010 77 10000 2.49 329 21:48 25.11.2021
4579 Clouds 26 1011 74 10000 1.62 339 20:29 25.11.2021
4580 Clouds 26 1012 73 10000 1.41 5 18:48 25.11.2021
4581 Clouds 27 1012 62 10000 1.67 23 17:48 25.11.2021
4582 Clouds 28 1012 62 10000 1.6 16 17:25 25.11.2021
4583 Clouds 28 1012 60 10000 1.6 16 16:33 25.11.2021
4584 Clouds 28 1013 60 10000 1.45 357 15:33 25.11.2021
4585 Clouds 29 1012 59 10000 1.21 307 13:50 25.11.2021
4586 Clouds 30 1010 58 10000 0.31 28 12:28 25.11.2021
4587 Clouds 30 1010 57 10000 0.31 28 11:51 25.11.2021
4588 Clouds 32 1009 52 10000 1.05 94 09:41 25.11.2021
4589 Clouds 31 1012 56 10000 1.49 354 06:22 25.11.2021
4590 Clouds 27 1014 66 10000 1.75 70 02:50 25.11.2021
4591 Clouds 24 1012 81 10000 1.71 18 23:31 24.11.2021
4592 Clouds 25 1011 74 10000 2.36 357 22:26 24.11.2021
4593 Clouds 25 1011 73 10000 2.36 357 21:38 24.11.2021
4594 Clouds 26 1011 71 10000 2.45 346 20:53 24.11.2021
4595 Clouds 25 1011 84 10000 2.37 341 20:26 24.11.2021
4596 Clouds 27 1012 68 10000 2.58 333 18:31 24.11.2021
4597 Clouds 27 1012 66 10000 2.32 340 17:59 24.11.2021
4598 Clouds 28 1013 67 10000 1.5 50 15:47 24.11.2021
4599 Clouds 28 1013 67 10000 1.82 52 14:54 24.11.2021
4600 Clouds 28 1013 67 10000 1.8 15 14:20 24.11.2021
4601 Clouds 28 1012 65 10000 2 5 12:50 24.11.2021
4602 Clouds 29 1010 63 10000 2.78 10 11:22 24.11.2021
4603 Clouds 30 1010 63 10000 2.78 10 10:49 24.11.2021
4604 Clouds 29 1010 61 10000 3.15 27 10:26 24.11.2021
4605 Clouds 29 1010 61 10000 3.28 66 07:56 24.11.2021
4606 Clouds 29 1012 62 10000 3.09 57 06:56 24.11.2021
4607 Clouds 26 1015 65 10000 3.84 74 03:57 24.11.2021
4608 Clouds 24 1012 87 10000 1.84 84 00:58 24.11.2021
4609 Clouds 24 1010 90 10000 2.11 38 22:58 23.11.2021
4610 Clouds 24 1010 90 10000 2.11 38 22:34 23.11.2021
4611 Clouds 24 1010 90 10000 2.11 38 22:34 23.11.2021
4612 Clouds 24 1010 90 10000 2.27 9 21:44 23.11.2021
4613 Clouds 26 1011 77 10000 2.92 334 20:19 23.11.2021
4614 Clouds 26 1012 76 10000 2.57 345 18:44 23.11.2021
4615 Clouds 26 1012 76 10000 2.58 4 18:24 23.11.2021
4616 Clouds 26 1013 76 10000 2.76 36 17:23 23.11.2021
4617 Clouds 26 1013 76 10000 2.76 36 16:34 23.11.2021
4618 Clouds 27 1013 74 10000 2.85 83 15:23 23.11.2021
4619 Clouds 27 1012 74 10000 2.27 76 14:26 23.11.2021
4620 Clouds 27 1010 70 6568 3.21 85 11:57 23.11.2021
4621 Clouds 29 1009 68 7034 4.09 93 10:22 23.11.2021
4622 Clouds 30 1008 66 6035 4.23 87 09:23 23.11.2021
4623 Clouds 30 1010 65 10000 5.2 84 07:28 23.11.2021
4624 Clouds 29 1013 66 10000 4.06 66 03:56 23.11.2021
4625 Clouds 28 1012 69 10000 3.96 71 02:58 23.11.2021
4626 Clouds 27 1008 86 10000 3.33 70 23:21 22.11.2021
4627 Clouds 27 1008 86 10000 3.33 70 22:53 22.11.2021
4628 Clouds 27 1008 85 10000 3.59 63 22:27 22.11.2021
4629 Clouds 28 1008 85 10000 3.59 63 21:42 22.11.2021
4630 Clouds 28 1008 84 10000 3.09 72 20:52 22.11.2021
4631 Clouds 28 1009 82 10000 2.93 82 19:57 22.11.2021
4632 Clouds 28 1009 81 10000 3.06 91 19:19 22.11.2021
4633 Clouds 28 1009 83 10000 2.57 79 18:39 22.11.2021
4634 Clouds 28 1009 83 10000 2.32 74 17:43 22.11.2021
4635 Clouds 29 1010 79 10000 2.28 66 16:19 22.11.2021
4636 Clouds 29 1009 77 5725 3.1 80 14:18 22.11.2021
4637 Clouds 32 1007 61 10000 3.58 88 12:26 22.11.2021
4638 Clouds 33 1006 59 10000 2.87 95 10:43 22.11.2021
4639 Clouds 33 1006 57 10000 3.07 83 09:43 22.11.2021
4640 Clouds 34 1008 78 10000 3.01 77 08:40 22.11.2021
4641 Clouds 34 1011 80 10000 2.77 57 06:22 22.11.2021
4642 Clouds 27 1009 88 10000 1.72 35 23:30 21.11.2021
4643 Clouds 27 1008 87 10000 1.56 29 22:50 21.11.2021
4644 Clouds 27 1008 86 10000 1.43 13 21:57 21.11.2021
4645 Clouds 27 1008 84 10000 0.84 9 20:42 21.11.2021
4646 Clouds 28 1008 83 10000 0.49 337 19:58 21.11.2021
4647 Rain 29 1009 68 9650 1.12 174 18:25 21.11.2021
4648 Clouds 29 1009 72 9650 1.12 174 17:39 21.11.2021
4649 Rain 30 1010 69 10000 1.89 170 15:53 21.11.2021
4650 Clouds 30 1009 68 10000 1.91 168 14:45 21.11.2021
4651 Clouds 31 1009 67 10000 1.5 155 13:47 21.11.2021
4652 Clouds 32 1008 66 10000 0.76 124 12:37 21.11.2021
4653 Clouds 32 1007 64 10000 1.2 101 11:43 21.11.2021
4654 Clouds 32 1006 64 10000 1.7 91 11:24 21.11.2021
4655 Clouds 33 1007 83 10000 1.84 89 10:18 21.11.2021
4656 Clouds 33 1008 83 10000 1.59 89 08:42 21.11.2021
4657 Clouds 34 1009 83 10000 1.59 84 08:23 21.11.2021
4658 Clouds 34 1009 100 10000 1.59 84 07:47 21.11.2021
4659 Clouds 33 1011 100 10000 1.32 22 05:53 21.11.2021
4660 Clouds 32 1011 86 10000 1.31 357 05:25 21.11.2021
4661 Clouds 30 1011 75 10000 0.88 12 03:19 21.11.2021
4662 Rain 30 1011 75 10000 0.88 12 02:51 21.11.2021
4663 Clouds 28 1009 80 10000 0.67 357 00:59 21.11.2021
4664 Clouds 28 1008 80 10000 0.61 325 23:47 20.11.2021
4665 Clouds 28 1007 79 10000 0.74 279 21:41 20.11.2021
4666 Clouds 28 1007 79 10000 1 243 21:23 20.11.2021
4667 Clouds 29 1008 74 10000 1.32 204 18:46 20.11.2021
4668 Rain 29 1009 73 10000 1.4 187 18:26 20.11.2021
4669 Clouds 29 1009 73 10000 1.28 161 17:26 20.11.2021
4670 Rain 29 1009 73 10000 1.28 161 16:57 20.11.2021
4671 Rain 29 1009 70 10000 1.42 161 14:47 20.11.2021
4672 Rain 30 1008 70 10000 1.2 157 14:25 20.11.2021
4673 Clouds 30 1006 68 10000 3.2 180 12:22 20.11.2021
4674 Clouds 32 1005 63 10000 3.34 181 10:52 20.11.2021
4675 Clouds 33 1007 82 10000 2.59 182 09:39 20.11.2021
4676 Clouds 33 1007 82 10000 2.59 182 09:39 20.11.2021
4677 Clouds 34 1008 100 10000 1.38 179 07:37 20.11.2021
4678 Clouds 32 1009 63 10000 1.59 79 05:28 20.11.2021
4679 Clouds 32 1011 82 10000 1.59 79 04:50 20.11.2021
4680 Clouds 27 1009 81 10000 2.03 54 01:58 20.11.2021
4681 Clouds 26 1008 86 10000 1.64 49 00:40 20.11.2021
4682 Clouds 28 1007 88 10000 1.77 46 23:41 19.11.2021
4683 Clouds 28 1006 86 10000 1.9 39 22:21 19.11.2021
4684 Clouds 29 1006 78 10000 1.72 33 20:58 19.11.2021
4685 Clouds 29 1006 85 10000 1.72 33 20:36 19.11.2021
4686 Clouds 29 1006 77 10000 1.59 35 19:55 19.11.2021
4687 Clouds 29 1007 75 10000 1.4 51 18:54 19.11.2021
4688 Rain 29 1007 74 10000 1.2 57 18:23 19.11.2021
4689 Clouds 30 1007 73 10000 1.2 57 17:31 19.11.2021
4690 Clouds 30 1008 72 10000 1.1 56 15:58 19.11.2021
4691 Clouds 31 1007 65 10000 0.7 21 13:55 19.11.2021
4692 Clouds 33 1004 56 10000 0.69 64 10:28 19.11.2021
4693 Clouds 33 1004 56 10000 0.69 64 10:28 19.11.2021
4694 Clouds 33 1004 64 10000 0.69 64 09:38 19.11.2021
4695 Clouds 33 1005 56 10000 1.19 54 08:24 19.11.2021
4696 Clouds 32 1010 59 10000 1.72 74 04:53 19.11.2021
4697 Clouds 29 1011 71 10000 1.23 51 02:35 19.11.2021
4698 Clouds 26 1009 90 10000 1.63 31 23:51 18.11.2021
4699 Clouds 27 1008 89 10000 1.26 10 21:56 18.11.2021
4700 Clouds 28 1008 88 10000 1.17 18 20:49 18.11.2021
4701 Clouds 28 1008 72 10000 1.17 18 20:31 18.11.2021
4702 Clouds 28 1008 86 10000 0.98 30 19:52 18.11.2021
4703 Clouds 28 1008 86 10000 0.98 30 19:33 18.11.2021
4704 Rain 29 1009 86 10000 1.16 102 18:33 18.11.2021
4705 Clouds 29 1009 87 5894 1.83 100 17:51 18.11.2021
4706 Clouds 29 1009 87 5894 1.83 100 17:51 18.11.2021
4707 Clouds 29 1009 85 10000 1.25 50 16:44 18.11.2021
4708 Clouds 28 1009 68 10000 1.14 13 15:46 18.11.2021
4709 Clouds 30 1009 65 10000 1.54 340 13:31 18.11.2021
4710 Clouds 30 1008 64 10000 2.55 26 12:33 18.11.2021
4711 Clouds 31 1007 62 10000 2.44 42 11:42 18.11.2021
4712 Clouds 31 1006 62 10000 3 53 11:24 18.11.2021
4713 Clouds 32 1006 59 10000 3.76 66 09:37 18.11.2021
4714 Clouds 32 1007 58 10000 4.59 69 07:35 18.11.2021
4715 Clouds 30 1010 70 10000 4.3 69 05:55 18.11.2021
4716 Clouds 31 1010 70 10000 4.3 69 05:36 18.11.2021
4717 Clouds 27 1010 83 10000 1.34 43 01:24 18.11.2021
4718 Clouds 28 1009 84 10000 1.29 22 22:49 17.11.2021
4719 Clouds 28 1009 84 10000 1.56 6 22:21 17.11.2021
4720 Clouds 28 1009 84 10000 1.56 6 21:39 17.11.2021
4721 Clouds 28 1009 83 10000 1.71 10 20:58 17.11.2021
4722 Clouds 28 1010 82 10000 1.25 50 18:34 17.11.2021
4723 Clouds 28 1011 80 10000 1.72 76 17:28 17.11.2021
4724 Clouds 28 1011 77 10000 1.84 74 14:52 17.11.2021
4725 Clouds 31 1009 81 10000 2.38 21 12:41 17.11.2021
4726 Clouds 32 1008 79 10000 3.08 18 11:49 17.11.2021
4727 Clouds 32 1007 55 10000 2.96 19 10:32 17.11.2021
4728 Clouds 33 1007 53 9496 3.58 60 09:25 17.11.2021
4729 Clouds 33 1008 52 10000 3.66 60 07:44 17.11.2021
4730 Clouds 32 1011 58 10000 3.13 58 04:47 17.11.2021
4731 Clouds 27 1012 86 10000 2.67 359 01:45 17.11.2021
4732 Clouds 26 1009 74 10000 2.08 343 23:26 16.11.2021
4733 Clouds 27 1009 73 10000 2.45 21 21:27 16.11.2021
4734 Clouds 28 1010 73 10000 2.76 48 20:18 16.11.2021
4735 Clouds 27 1010 90 10000 3.21 67 18:54 16.11.2021
4736 Clouds 28 1010 90 10000 3.21 67 18:35 16.11.2021
4737 Clouds 28 1010 90 10000 3.21 67 18:35 16.11.2021
4738 Clouds 28 1010 70 6879 3.17 73 17:43 16.11.2021
4739 Clouds 28 1011 88 4683 3.43 75 16:49 16.11.2021
4740 Clouds 29 1011 69 10000 3.08 73 15:56 16.11.2021
4741 Clouds 28 1011 68 10000 2.81 72 15:29 16.11.2021
4742 Clouds 30 1008 66 10000 3.64 71 12:29 16.11.2021
4743 Clouds 31 1006 60 8660 4.28 72 09:49 16.11.2021
4744 Clouds 32 1007 63 7893 4.48 75 08:48 16.11.2021
4745 Clouds 31 1007 64 10000 3.42 81 07:34 16.11.2021
4746 Clouds 28 1012 73 10000 1.25 33 02:50 16.11.2021
4747 Clouds 27 1009 88 10000 1.66 355 23:23 15.11.2021
4748 Clouds 27 1009 88 10000 1.66 355 22:39 15.11.2021
4749 Clouds 27 1008 87 10000 1.6 357 21:54 15.11.2021
4750 Clouds 27 1008 86 10000 1.18 2 21:29 15.11.2021
4751 Clouds 27 1009 85 10000 0.89 27 20:26 15.11.2021
4752 Clouds 27 1009 84 10000 0.94 46 18:49 15.11.2021
4753 Clouds 29 1010 73 10000 1.46 42 16:56 15.11.2021
4754 Clouds 29 1010 72 10000 1.74 53 15:44 15.11.2021
4755 Clouds 28 1010 81 10000 2.02 44 15:25 15.11.2021
4756 Clouds 30 1009 81 10000 1.81 15 13:35 15.11.2021
4757 Clouds 31 1007 78 10000 2.13 8 11:54 15.11.2021
4758 Clouds 32 1006 55 7458 2.09 42 09:30 15.11.2021
4759 Clouds 32 1007 54 10000 2.34 48 07:58 15.11.2021
4760 Clouds 31 1011 55 10000 2.21 50 05:25 15.11.2021
4761 Clouds 25 1011 83 10000 1.71 30 00:32 15.11.2021
4762 Clouds 26 1009 73 10000 1.34 34 22:38 14.11.2021
4763 Clouds 26 1009 73 10000 1.22 33 20:51 14.11.2021
4764 Clouds 27 1011 71 10000 1.53 39 19:18 14.11.2021
4765 Clouds 27 1011 71 10000 1.5 48 18:54 14.11.2021
4766 Clouds 27 1011 71 10000 1.5 48 18:36 14.11.2021
4767 Clouds 27 1011 71 10000 1.49 55 18:18 14.11.2021
4768 Clouds 28 1011 70 10000 1.49 55 17:57 14.11.2021
4769 Clouds 28 1011 70 10000 1.49 55 17:39 14.11.2021
4770 Clouds 28 1012 69 10000 1.76 50 17:21 14.11.2021
4771 Clouds 28 1012 69 10000 1.76 50 16:49 14.11.2021
4772 Clouds 28 1012 69 10000 2.11 48 16:21 14.11.2021
4773 Clouds 28 1012 69 10000 2.11 48 15:46 14.11.2021
4774 Clouds 28 1012 68 10000 2.45 43 15:18 14.11.2021
4775 Clouds 28 1012 67 10000 2.45 43 14:32 14.11.2021
4776 Clouds 28 1011 67 10000 2.59 43 13:59 14.11.2021
4777 Clouds 28 1011 68 10000 2.59 43 13:40 14.11.2021
4778 Clouds 28 1009 68 10000 3.73 60 12:29 14.11.2021
4779 Clouds 28 1009 68 10000 3.73 60 11:58 14.11.2021
4780 Clouds 29 1009 66 10000 4.46 73 10:45 14.11.2021
4781 Clouds 29 1008 66 10000 4.68 79 10:26 14.11.2021
4782 Clouds 30 1008 65 10000 4.81 87 08:56 14.11.2021
4783 Clouds 29 1010 64 10000 4.55 87 07:24 14.11.2021
4784 Clouds 25 1012 80 10000 2.44 72 01:24 14.11.2021
4785 Clouds 26 1010 72 10000 1.09 24 22:27 13.11.2021
4786 Clouds 26 1010 72 10000 1.09 24 22:27 13.11.2021
4787 Rain 26 1010 72 10000 1.09 24 21:57 13.11.2021
4788 Clouds 26 1010 72 10000 1.21 8 21:25 13.11.2021
4789 Clouds 26 1011 71 10000 0.99 334 19:47 13.11.2021
4790 Clouds 26 1011 70 10000 1.3 353 18:33 13.11.2021
4791 Clouds 26 1011 69 10000 1.77 355 17:56 13.11.2021
4792 Clouds 27 1012 68 10000 1.51 8 16:38 13.11.2021
4793 Clouds 27 1012 68 10000 1.55 36 15:34 13.11.2021
4794 Clouds 28 1012 67 10000 1.87 63 14:33 13.11.2021
4795 Clouds 28 1012 66 10000 2.58 69 13:38 13.11.2021
4796 Clouds 28 1010 65 10000 3.31 54 12:28 13.11.2021
4797 Clouds 29 1010 65 10000 3.31 54 11:38 13.11.2021
4798 Clouds 29 1009 63 10000 3.89 56 10:45 13.11.2021
4799 Clouds 29 1008 63 9435 3.83 62 10:22 13.11.2021
4800 Clouds 29 1008 62 9435 3.83 62 09:38 13.11.2021
4801 Clouds 29 1008 61 8865 3.87 64 08:56 13.11.2021
4802 Rain 30 1008 62 8865 3.87 64 08:30 13.11.2021
4803 Clouds 30 1011 63 10000 3.3 59 05:59 13.11.2021
4804 Clouds 28 1013 68 10000 2.24 29 04:30 13.11.2021
4805 Clouds 26 1012 73 10000 2.49 28 01:38 13.11.2021
4806 Clouds 26 1010 77 10000 1.5 16 22:58 12.11.2021
4807 Clouds 26 1010 76 10000 1.65 18 21:46 12.11.2021
4808 Clouds 27 1010 69 10000 2.5 14 19:55 12.11.2021
4809 Clouds 28 1011 69 10000 2.57 11 19:28 12.11.2021
4810 Clouds 27 1011 69 10000 2.57 11 18:46 12.11.2021
4811 Clouds 28 1012 67 10000 2.02 5 16:35 12.11.2021
4812 Clouds 28 1012 66 10000 2.2 54 15:33 12.11.2021
4813 Clouds 30 1009 65 10000 2.05 45 11:58 12.11.2021
4814 Clouds 31 1009 61 10000 2.74 17 10:51 12.11.2021
4815 Clouds 31 1008 60 10000 3.43 12 09:44 12.11.2021
4816 Clouds 32 1008 54 10000 3.3 17 08:39 12.11.2021
4817 Clouds 28 1013 68 10000 2.06 349 03:18 12.11.2021
4818 Clouds 26 1011 83 10000 1.79 345 23:42 11.11.2021
4819 Clouds 26 1010 71 10000 1.51 359 22:36 11.11.2021
4820 Rain 27 1010 71 10000 1.24 39 21:27 11.11.2021
4821 Clouds 27 1010 71 10000 1.24 39 20:42 11.11.2021
4822 Clouds 27 1011 71 10000 1.45 52 19:20 11.11.2021
4823 Clouds 28 1011 63 10000 1.94 94 17:44 11.11.2021
4824 Rain 28 1012 61 10000 1.85 91 16:58 11.11.2021
4825 Clouds 29 1012 58 10000 2.33 43 14:58 11.11.2021
4826 Clouds 29 1011 57 10000 2.89 17 14:29 11.11.2021
4827 Clouds 29 1011 57 10000 2.89 17 13:39 11.11.2021
4828 Clouds 30 1010 57 10000 2.86 6 12:50 11.11.2021
4829 Clouds 31 1008 54 10000 2.93 6 10:44 11.11.2021
4830 Clouds 32 1008 53 10000 2.45 10 09:36 11.11.2021
4831 Clouds 32 1008 52 10000 1.93 18 07:59 11.11.2021
4832 Clouds 30 1010 56 10000 0.98 7 05:55 11.11.2021
4833 Clouds 25 1011 71 10000 2.21 327 23:45 10.11.2021
4834 Clouds 26 1010 69 10000 2.56 313 22:24 10.11.2021
4835 Clouds 26 1010 69 10000 2.56 313 21:31 10.11.2021
4836 Clouds 26 1010 70 10000 2.25 319 20:47 10.11.2021
4837 Clouds 26 1010 69 10000 2.08 334 19:47 10.11.2021
4838 Clouds 26 1011 69 10000 1.6 356 19:27 10.11.2021
4839 Clouds 27 1012 64 10000 2.3 69 16:38 10.11.2021
4840 Clouds 27 1012 72 10000 2.22 69 15:40 10.11.2021
4841 Clouds 29 1011 61 10000 2.64 51 13:51 10.11.2021
4842 Clouds 29 1011 61 10000 2.64 42 12:59 10.11.2021
4843 Clouds 30 1010 68 10000 2.73 37 11:36 10.11.2021
4844 Clouds 32 1009 53 10000 2.72 55 08:51 10.11.2021
4845 Clouds 32 1009 53 10000 2.72 55 08:33 10.11.2021
4846 Clouds 31 1011 57 10000 1.85 82 06:40 10.11.2021
4847 Clouds 31 1012 59 10000 1.21 73 05:51 10.11.2021
4848 Clouds 25 1011 87 10000 1.54 11 00:27 10.11.2021
4849 Clouds 26 1010 73 10000 1.93 1 21:51 09.11.2021
4850 Clouds 27 1011 73 10000 1.68 13 20:32 09.11.2021
4851 Clouds 27 1011 73 10000 1.15 356 19:26 09.11.2021
4852 Clouds 28 1012 71 10000 1.57 10 17:57 09.11.2021
4853 Clouds 28 1013 69 10000 2 32 16:24 09.11.2021
4854 Clouds 28 1012 69 10000 2.21 38 14:52 09.11.2021
4855 Clouds 29 1011 67 10000 2.57 51 12:53 09.11.2021
4856 Clouds 30 1010 65 10000 2.83 56 11:58 09.11.2021
4857 Clouds 30 1009 64 10000 3.17 57 10:45 09.11.2021
4858 Clouds 30 1009 64 10000 3.18 64 09:40 09.11.2021
4859 Clouds 30 1010 63 10000 2.94 69 08:27 09.11.2021
4860 Clouds 30 1012 63 10000 1.98 51 05:57 09.11.2021
4861 Clouds 27 1013 87 10000 3.22 21 02:25 09.11.2021
4862 Clouds 27 1013 87 10000 3.22 21 01:46 09.11.2021
4863 Clouds 27 1011 92 10000 2.44 51 23:59 08.11.2021
4864 Clouds 27 1010 92 10000 2.82 60 22:59 08.11.2021
4865 Clouds 27 1010 91 10000 3.27 61 22:28 08.11.2021
4866 Clouds 27 1009 89 10000 3.35 70 20:56 08.11.2021
4867 Clouds 27 1009 74 10000 2.89 81 19:53 08.11.2021
4868 Clouds 28 1010 74 10000 3.14 81 18:57 08.11.2021
4869 Clouds 29 1010 73 10000 3.7 75 16:34 08.11.2021
4870 Clouds 29 1010 72 7822 2.95 79 15:26 08.11.2021
4871 Clouds 29 1010 71 7822 2.95 79 14:42 08.11.2021
4872 Clouds 29 1010 70 5964 2.68 61 13:49 08.11.2021
4873 Clouds 30 1009 69 10000 2.45 43 12:35 08.11.2021
4874 Clouds 30 1007 67 10000 3.11 46 11:24 08.11.2021
4875 Clouds 31 1006 65 10000 3.66 57 09:47 08.11.2021
4876 Clouds 31 1006 69 10000 3.97 62 08:55 08.11.2021
4877 Clouds 32 1010 88 4524 4.56 70 07:36 08.11.2021
4878 Rain 31 1012 100 10000 4.13 62 04:42 08.11.2021
4879 Rain 29 1010 76 6404 3 69 03:28 08.11.2021
4880 Clouds 27 1008 90 10000 1.74 355 23:47 07.11.2021
4881 Clouds 27 1007 88 10000 1.75 314 22:20 07.11.2021
4882 Clouds 27 1007 81 10000 1.54 286 21:20 07.11.2021
4883 Clouds 28 1008 81 10000 1.69 250 19:54 07.11.2021
4884 Clouds 27 1009 80 10000 1.3 145 18:22 07.11.2021
4885 Clouds 27 1009 79 8452 1.63 123 16:54 07.11.2021
4886 Clouds 27 1009 78 6199 1.96 100 15:54 07.11.2021
4887 Clouds 27 1008 78 10000 1.88 96 14:34 07.11.2021
4888 Rain 28 1008 77 10000 2.03 93 13:54 07.11.2021
4889 Clouds 30 1006 75 10000 2.3 95 11:44 07.11.2021
4890 Clouds 33 1005 55 10000 2.35 87 09:57 07.11.2021
4891 Clouds 32 1005 51 10000 2.24 80 08:31 07.11.2021
4892 Clouds 29 1009 77 10000 1.69 59 02:41 07.11.2021
4893 Clouds 26 1007 88 10000 0.94 3 23:38 06.11.2021
4894 Clouds 26 1006 87 10000 0.47 345 22:48 06.11.2021
4895 Clouds 27 1006 86 10000 0.11 235 21:33 06.11.2021
4896 Clouds 27 1006 85 10000 0.38 188 20:50 06.11.2021
4897 Rain 27 1007 81 5872 1.37 133 18:56 06.11.2021
4898 Rain 28 1008 81 10000 1.26 147 16:47 06.11.2021
4899 Rain 28 1008 81 10000 1.26 147 16:47 06.11.2021
4900 Rain 28 1008 81 10000 1.26 147 16:47 06.11.2021
4901 Rain 28 1008 81 10000 1.26 147 16:47 06.11.2021
4902 Rain 28 1008 80 10000 1.73 148 15:21 06.11.2021
4903 Clouds 28 1008 79 10000 1.52 141 13:38 06.11.2021
4904 Rain 29 1005 79 10000 0.41 109 12:28 06.11.2021
4905 Rain 31 1007 100 5987 0.7 128 09:33 06.11.2021
4906 Clouds 31 1008 85 10000 0.23 320 07:55 06.11.2021
4907 Clouds 29 1009 76 10000 1.54 333 02:36 06.11.2021
4908 Clouds 28 1007 90 10000 1.62 347 23:37 05.11.2021
4909 Clouds 27 1007 89 10000 1.81 336 22:34 05.11.2021
4910 Rain 27 1007 86 10000 1.71 321 21:26 05.11.2021
4911 Rain 27 1007 84 10000 1.52 270 20:20 05.11.2021
4912 Rain 27 1007 84 10000 1.52 270 19:48 05.11.2021
4913 Rain 28 1008 83 10000 1.01 249 18:40 05.11.2021
4914 Rain 28 1009 81 10000 1.05 230 17:28 05.11.2021
4915 Clouds 28 1009 80 10000 1.09 218 15:38 05.11.2021
4916 Clouds 29 1009 76 10000 0.74 236 13:37 05.11.2021
4917 Clouds 32 1006 65 10000 1.28 239 11:22 05.11.2021
4918 Clouds 33 1006 52 10000 0.33 353 08:40 05.11.2021
4919 Clouds 33 1008 53 10000 2.03 28 07:26 05.11.2021
4920 Clouds 32 1011 59 10000 2.1 3 04:44 05.11.2021
4921 Clouds 29 1011 70 10000 1.95 26 02:25 05.11.2021
4922 Clouds 28 1010 75 10000 1.57 37 00:40 05.11.2021
4923 Clouds 28 1009 73 10000 1.59 44 23:18 04.11.2021
4924 Clouds 28 1009 72 10000 1.77 55 22:19 04.11.2021
4925 Clouds 28 1009 71 10000 1.77 55 21:32 04.11.2021
4926 Clouds 28 1009 71 10000 1.86 59 20:40 04.11.2021
4927 Clouds 28 1009 85 10000 1.9 47 20:20 04.11.2021
4928 Clouds 28 1009 85 10000 1.9 47 19:40 04.11.2021
4929 Clouds 28 1010 84 10000 1.97 46 18:44 04.11.2021
4930 Rain 29 1011 68 10000 1.96 31 17:48 04.11.2021
4931 Clouds 28 1011 81 10000 1.82 37 16:41 04.11.2021
4932 Clouds 30 1010 64 10000 1.29 86 14:28 04.11.2021
4933 Clouds 31 1008 58 10000 0.96 118 11:44 04.11.2021
4934 Clouds 33 1007 55 10000 0.62 64 09:29 04.11.2021
4935 Clouds 32 1007 56 10000 0.62 64 08:30 04.11.2021
4936 Clouds 32 1008 57 10000 1.38 356 07:34 04.11.2021
4937 Clouds 26 1011 82 10000 1.48 357 23:54 03.11.2021
4938 Clouds 27 1010 82 10000 1.46 28 22:50 03.11.2021
4939 Clouds 27 1010 81 10000 1.64 36 21:47 03.11.2021
4940 Clouds 27 1010 81 10000 1.38 34 21:25 03.11.2021
4941 Clouds 27 1010 82 10000 1.4 43 20:34 03.11.2021
4942 Clouds 27 1010 80 10000 1.51 35 19:40 03.11.2021
4943 Clouds 27 1011 80 10000 1.44 43 18:51 03.11.2021
4944 Rain 27 1011 79 10000 1.47 49 18:18 03.11.2021
4945 Rain 27 1012 79 10000 1.58 58 17:20 03.11.2021
4946 Clouds 28 1012 77 10000 1.53 60 15:56 03.11.2021
4947 Clouds 28 1012 75 10000 1.53 60 15:38 03.11.2021
4948 Clouds 29 1011 65 10000 2.09 65 13:46 03.11.2021
4949 Clouds 31 1009 59 10000 2.79 80 11:39 03.11.2021
4950 Clouds 32 1008 52 10000 2.89 82 10:53 03.11.2021
4951 Clouds 33 1007 50 10000 2.74 75 10:18 03.11.2021
4952 Clouds 32 1008 51 10000 2.64 69 09:28 03.11.2021
4953 Clouds 32 1011 77 10000 2.41 56 08:21 03.11.2021
4954 Clouds 32 1011 78 10000 2.28 33 07:38 03.11.2021
4955 Clouds 31 1015 87 10000 2.28 21 04:24 03.11.2021
4956 Clouds 26 1013 83 10000 2.21 20 01:42 03.11.2021
4957 Clouds 27 1011 83 10000 1.83 33 23:32 02.11.2021
4958 Clouds 27 1010 83 10000 1.33 83 22:21 02.11.2021
4959 Rain 25 1010 88 10000 1.74 99 20:48 02.11.2021
4960 Clouds 26 1011 80 10000 1.99 104 20:23 02.11.2021
4961 Rain 26 1011 80 10000 1.99 104 19:40 02.11.2021
4962 Rain 26 1011 80 10000 1.65 155 18:36 02.11.2021
4963 Clouds 27 1012 81 10000 1.84 140 17:56 02.11.2021
4964 Clouds 27 1012 81 10000 1.84 140 17:31 02.11.2021
4965 Rain 28 1013 79 10000 1.06 108 16:27 02.11.2021
4966 Rain 28 1012 77 10000 2 114 14:58 02.11.2021
4967 Rain 29 1013 85 10000 1.77 109 13:44 02.11.2021
4968 Rain 29 1011 68 10000 1.19 58 13:25 02.11.2021
4969 Rain 29 1010 68 10000 1.56 67 12:20 02.11.2021
4970 Clouds 30 1009 69 10000 2.18 87 11:27 02.11.2021
4971 Rain 31 1009 66 10000 2.18 87 10:45 02.11.2021
4972 Rain 31 1008 68 10000 2.55 96 10:22 02.11.2021
4973 Clouds 33 1011 81 10000 3.59 99 08:22 02.11.2021
4974 Clouds 32 1013 83 10000 4.57 86 06:29 02.11.2021
4975 Clouds 29 1014 76 10000 4.42 73 03:30 02.11.2021
4976 Clouds 26 1011 87 10000 1.29 29 00:25 02.11.2021
4977 Clouds 26 1010 87 10000 1.38 347 22:19 01.11.2021
4978 Clouds 26 1011 87 10000 1.64 10 20:46 01.11.2021
4979 Clouds 26 1011 87 10000 1.65 22 20:26 01.11.2021
4980 Clouds 26 1011 87 10000 1.65 22 19:43 01.11.2021
4981 Clouds 26 1012 88 10000 2 10 18:54 01.11.2021
4982 Clouds 27 1012 77 10000 1.97 359 17:56 01.11.2021
4983 Clouds 27 1013 77 10000 3.06 347 16:58 01.11.2021
4984 Clouds 27 1013 76 10000 3.06 347 16:32 01.11.2021
4985 Clouds 27 1013 75 10000 3.91 350 15:39 01.11.2021
4986 Rain 27 1013 75 10000 3.92 356 15:19 01.11.2021
4987 Rain 27 1013 73 10000 3.92 356 14:38 01.11.2021
4988 Rain 27 1012 72 10000 3.57 13 14:19 01.11.2021
4989 Rain 28 1011 73 5759 2.91 68 12:41 01.11.2021
4990 Rain 29 1010 69 10000 2.88 69 11:39 01.11.2021
4991 Rain 32 1009 62 10000 2.22 77 10:20 01.11.2021
4992 Clouds 32 1010 58 10000 2.55 60 08:19 01.11.2021
4993 Clouds 32 1010 60 10000 2.55 60 07:46 01.11.2021
4994 Clouds 30 1014 70 10000 2.74 22 03:53 01.11.2021
4995 Clouds 27 1013 87 10000 2.4 48 01:44 01.11.2021
4996 Clouds 26 1011 92 10000 1.9 43 23:18 31.10.2021
4997 Clouds 26 1011 81 10000 1.51 40 20:51 31.10.2021
4998 Clouds 26 1012 81 10000 1.38 305 19:24 31.10.2021
4999 Clouds 26 1012 83 10000 1.38 305 18:43 31.10.2021
5000 Clouds 26 1013 83 8087 0.73 167 17:59 31.10.2021
5001 Clouds 26 1013 83 5009 1.51 108 16:27 31.10.2021
5002 Rain 26 1012 81 10000 1.21 135 14:41 31.10.2021
5003 Clouds 27 1011 81 10000 1.11 168 12:55 31.10.2021
5004 Rain 29 1010 77 9827 1.77 168 11:42 31.10.2021
5005 Rain 29 1010 77 9827 1.77 168 11:42 31.10.2021
5006 Rain 30 1009 68 10000 2.47 151 10:48 31.10.2021
5007 Clouds 32 1011 83 10000 2.25 101 09:23 31.10.2021
5008 Clouds 31 1012 81 10000 2.25 101 08:41 31.10.2021
5009 Clouds 27 1014 86 10000 2.57 345 02:26 31.10.2021
5010 Clouds 26 1011 82 10000 2.38 296 23:54 30.10.2021
5011 Clouds 26 1011 82 10000 1.88 285 21:50 30.10.2021
5012 Clouds 26 1011 82 10000 0.72 282 21:26 30.10.2021
5013 Clouds 27 1012 82 10000 1.62 237 19:40 30.10.2021
5014 Rain 26 1013 82 6514 1.63 144 17:48 30.10.2021
5015 Rain 26 1013 81 10000 2.53 87 15:34 30.10.2021
5016 Rain 27 1013 90 10000 1.44 89 13:59 30.10.2021
5017 Rain 26 1011 79 10000 1.44 89 13:38 30.10.2021
5018 Rain 28 1013 90 8653 0.87 101 13:19 30.10.2021
5019 Clouds 30 1010 75 10000 0.82 119 11:49 30.10.2021
5020 Rain 32 1010 67 10000 0.91 131 10:34 30.10.2021
5021 Clouds 32 1010 62 10000 1.17 31 08:55 30.10.2021
5022 Clouds 32 1012 78 10000 1.6 115 07:55 30.10.2021
5023 Clouds 31 1014 78 10000 2.53 14 05:45 30.10.2021
5024 Clouds 27 1013 85 10000 2.6 350 02:26 30.10.2021
5025 Clouds 26 1012 83 10000 1.95 336 23:20 29.10.2021
5026 Clouds 26 1012 83 10000 1.95 336 22:33 29.10.2021
5027 Clouds 27 1012 81 10000 1.39 315 20:55 29.10.2021
5028 Clouds 27 1012 75 10000 1.39 315 20:31 29.10.2021
5029 Clouds 28 1013 72 10000 0.7 223 18:49 29.10.2021
5030 Clouds 28 1013 70 10000 1.31 169 17:28 29.10.2021
5031 Clouds 28 1012 68 10000 1.87 178 15:22 29.10.2021
5032 Clouds 31 1009 64 10000 3.41 183 12:29 29.10.2021
5033 Clouds 31 1009 61 10000 3.53 181 10:46 29.10.2021
5034 Clouds 31 1010 64 10000 3.75 175 08:47 29.10.2021
5035 Clouds 25 1012 82 10000 1.64 36 00:46 29.10.2021
5036 Clouds 25 1011 81 10000 1.52 19 23:46 28.10.2021
5037 Clouds 25 1011 80 10000 1.09 358 22:20 28.10.2021
5038 Clouds 25 1011 79 10000 1.1 342 20:57 28.10.2021
5039 Clouds 26 1011 78 10000 1.23 327 19:52 28.10.2021
5040 Clouds 26 1012 77 10000 1.13 347 18:30 28.10.2021
5041 Clouds 26 1013 76 10000 1.18 26 17:20 28.10.2021
5042 Clouds 26 1012 76 10000 1.9 28 16:24 28.10.2021
5043 Clouds 26 1012 75 10000 2.61 23 14:40 28.10.2021
5044 Clouds 26 1010 75 10000 2.1 34 13:30 28.10.2021
5045 Clouds 26 1010 75 10000 2.4 24 12:47 28.10.2021
5046 Rain 27 1008 74 10000 3 11 11:20 28.10.2021
5047 Rain 28 1009 77 10000 3.1 12 09:55 28.10.2021
5048 Rain 28 1009 76 10000 3.1 12 09:35 28.10.2021
5049 Rain 28 1009 75 10000 3.96 24 08:36 28.10.2021
5050 Rain 28 1010 85 10000 4.7 16 07:40 28.10.2021
5051 Clouds 28 1010 79 10000 2.16 3 00:40 28.10.2021
5052 Clouds 27 1009 81 10000 2.44 353 22:45 27.10.2021
5053 Clouds 27 1009 79 10000 2.51 1 21:35 27.10.2021
5054 Clouds 27 1009 78 10000 2.63 354 20:58 27.10.2021
5055 Clouds 27 1009 78 10000 2.63 354 20:39 27.10.2021
5056 Clouds 28 1010 78 10000 1.72 342 19:44 27.10.2021
5057 Clouds 29 1011 62 10000 1.34 353 18:55 27.10.2021
5058 Clouds 29 1011 60 10000 1.33 69 16:49 27.10.2021
5059 Clouds 29 1011 60 10000 1.36 48 16:23 27.10.2021
5060 Clouds 30 1010 59 10000 2.24 26 15:23 27.10.2021
5061 Clouds 30 1010 59 10000 2.24 26 15:23 27.10.2021
5062 Clouds 30 1009 57 10000 2.8 23 13:42 27.10.2021
5063 Clouds 32 1007 51 10000 3.25 21 10:59 27.10.2021
5064 Clouds 32 1007 51 10000 3.25 21 10:36 27.10.2021
5065 Clouds 32 1008 49 10000 2.95 24 08:58 27.10.2021
5066 Clouds 32 1009 50 10000 2.58 31 07:37 27.10.2021
5067 Clouds 30 1012 57 10000 3.15 19 05:36 27.10.2021
5068 Clouds 25 1010 78 10000 2.25 8 01:18 27.10.2021
5069 Clouds 25 1010 78 10000 2.25 8 00:33 27.10.2021
5070 Clouds 27 1010 65 10000 2.48 6 23:51 26.10.2021
5071 Clouds 27 1010 65 10000 2.41 11 22:42 26.10.2021
5072 Clouds 27 1010 65 10000 2.28 12 22:19 26.10.2021
5073 Clouds 28 1010 65 10000 2.22 359 20:51 26.10.2021
5074 Clouds 28 1011 64 10000 1.84 346 19:33 26.10.2021
5075 Clouds 28 1011 63 10000 1.69 354 18:53 26.10.2021
5076 Clouds 29 1011 58 10000 2.41 347 16:58 26.10.2021
5077 Clouds 30 1011 59 10000 1.86 337 15:34 26.10.2021
5078 Clouds 30 1007 62 10000 0.61 283 11:49 26.10.2021
5079 Clouds 33 1007 47 10000 0.91 272 10:42 26.10.2021
5080 Clouds 33 1009 49 10000 1.8 336 07:51 26.10.2021
5081 Clouds 32 1010 51 10000 1.75 322 07:21 26.10.2021
5082 Clouds 26 1009 87 10000 2.03 335 23:51 25.10.2021
5083 Clouds 26 1009 88 10000 2.04 333 22:55 25.10.2021
5084 Clouds 26 1009 88 10000 1.88 327 22:21 25.10.2021
5085 Clouds 26 1009 88 10000 1.88 327 21:39 25.10.2021
5086 Clouds 26 1010 89 10000 1.44 334 20:19 25.10.2021
5087 Clouds 27 1011 66 10000 1.42 343 19:26 25.10.2021
5088 Clouds 27 1011 88 10000 1.42 343 18:59 25.10.2021
5089 Clouds 27 1011 86 10000 1.05 12 18:20 25.10.2021
5090 Clouds 28 1011 82 10000 1.28 63 16:27 25.10.2021
5091 Clouds 29 1011 82 10000 1.69 48 14:36 25.10.2021
5092 Clouds 30 1009 78 10000 2.4 17 12:30 25.10.2021
5093 Clouds 31 1008 60 10000 2.34 44 10:25 25.10.2021
5094 Clouds 31 1009 59 10000 1.71 33 08:37 25.10.2021
5095 Clouds 30 1013 68 10000 1.53 340 06:26 25.10.2021
5096 Clouds 25 1013 84 10000 1.52 314 02:31 25.10.2021
5097 Clouds 25 1011 89 10000 0.85 4 00:46 25.10.2021
5098 Clouds 26 1011 89 10000 1.06 32 23:47 24.10.2021
5099 Clouds 26 1011 89 10000 1.24 51 22:56 24.10.2021
5100 Clouds 26 1011 70 10000 1.24 51 22:31 24.10.2021
5101 Clouds 26 1011 70 10000 1.24 49 21:57 24.10.2021
5102 Clouds 26 1012 69 10000 1.3 54 20:45 24.10.2021
5103 Clouds 26 1012 69 10000 1.43 33 20:26 24.10.2021
5104 Clouds 27 1013 68 10000 2 32 18:52 24.10.2021
5105 Clouds 26 1013 86 10000 2.14 41 17:57 24.10.2021
5106 Clouds 27 1013 86 10000 1.82 47 16:52 24.10.2021
5107 Clouds 27 1013 84 10000 1.34 51 15:37 24.10.2021
5108 Clouds 27 1011 83 10000 1.33 19 13:49 24.10.2021
5109 Clouds 28 1011 82 10000 1.5 38 12:41 24.10.2021
5110 Clouds 30 1010 75 9829 1.65 49 11:41 24.10.2021
5111 Clouds 31 1010 69 9777 1.92 45 10:45 24.10.2021
5112 Clouds 31 1010 67 10000 2.21 32 09:38 24.10.2021
5113 Clouds 29 1014 66 10000 2.16 35 05:35 24.10.2021
5114 Clouds 26 1012 77 10000 1.28 1 00:44 24.10.2021
5115 Clouds 26 1011 78 10000 1.33 353 23:32 23.10.2021
5116 Clouds 26 1012 77 10000 1.48 350 21:50 23.10.2021
5117 Clouds 26 1013 77 10000 1.86 28 19:47 23.10.2021
5118 Clouds 27 1014 77 10000 1.74 41 18:48 23.10.2021
5119 Clouds 27 1014 76 10000 1.74 47 18:21 23.10.2021
5120 Clouds 27 1014 75 10000 1.74 47 17:42 23.10.2021
5121 Clouds 27 1014 74 10000 2.35 77 16:20 23.10.2021
5122 Clouds 28 1013 72 10000 2.75 84 13:57 23.10.2021
5123 Clouds 27 1015 90 10000 2.2 15 03:32 23.10.2021
5124 Clouds 26 1012 86 10000 2.83 24 23:42 22.10.2021
5125 Clouds 26 1011 86 10000 2.33 29 22:44 22.10.2021
5126 Clouds 26 1012 86 10000 2.47 99 19:51 22.10.2021
5127 Rain 26 1013 85 4171 2.69 117 18:40 22.10.2021
5128 Rain 27 1013 84 10000 3.29 115 17:25 22.10.2021
5129 Rain 27 1012 82 10000 2.68 96 14:58 22.10.2021
5130 Rain 27 1011 81 10000 1.59 97 13:35 22.10.2021
5131 Clouds 30 1009 77 10000 1.94 112 10:58 22.10.2021
5132 Clouds 30 1009 73 10000 1.94 112 10:37 22.10.2021
5133 Rain 31 1009 65 10000 2.23 100 09:36 22.10.2021
5134 Clouds 32 1011 61 10000 0.87 82 07:53 22.10.2021
5135 Clouds 32 1012 61 8634 0.79 71 07:21 22.10.2021
5136 Clouds 27 1013 82 10000 1.63 94 02:37 22.10.2021
5137 Clouds 27 1013 82 10000 1.63 94 02:37 22.10.2021
5138 Clouds 27 1013 82 10000 1.63 94 02:37 22.10.2021
5139 Clouds 26 1010 86 10000 0.76 160 23:51 21.10.2021
5140 Clouds 26 1010 86 10000 0.68 223 22:47 21.10.2021
5141 Clouds 27 1010 82 10000 1.27 178 21:39 21.10.2021
5142 Clouds 27 1011 82 10000 1.79 176 20:26 21.10.2021
5143 Rain 27 1011 81 10000 1.79 176 19:56 21.10.2021
5144 Rain 27 1012 81 8779 2.71 183 19:26 21.10.2021
5145 Rain 27 1012 81 8779 2.71 183 18:38 21.10.2021
5146 Rain 27 1012 80 10000 2.65 183 17:53 21.10.2021
5147 Rain 27 1012 80 10000 3.09 180 17:18 21.10.2021
5148 Rain 27 1012 81 9982 3.64 164 15:33 21.10.2021
5149 Rain 28 1011 78 9289 3.06 153 14:57 21.10.2021
5150 Clouds 28 1011 79 9289 3.06 153 14:37 21.10.2021
5151 Rain 29 1008 78 10000 1.5 130 11:59 21.10.2021
5152 Clouds 32 1008 60 10000 1.21 246 09:42 21.10.2021
5153 Clouds 32 1010 63 10000 2.5 222 08:20 21.10.2021
5154 Clouds 31 1012 70 10000 2.61 212 06:54 21.10.2021
5155 Clouds 27 1011 78 8960 0.74 194 00:51 21.10.2021
5156 Clouds 27 1011 84 10000 1.32 227 22:36 20.10.2021
5157 Clouds 27 1011 83 10000 1.66 224 21:50 20.10.2021
5158 Clouds 27 1011 83 10000 1.88 212 20:59 20.10.2021
5159 Rain 27 1011 83 10000 1.88 212 20:39 20.10.2021
5160 Clouds 27 1012 83 10000 2.03 207 20:19 20.10.2021
5161 Clouds 28 1012 82 10000 1.65 187 19:26 20.10.2021
5162 Rain 28 1012 81 10000 1.65 187 18:45 20.10.2021
5163 Rain 28 1012 80 10000 1.59 180 17:36 20.10.2021
5164 Rain 30 1011 77 10000 2.14 165 14:56 20.10.2021
5165 Clouds 32 1009 61 10000 1.65 321 09:57 20.10.2021
5166 Clouds 31 1012 64 10000 2.27 318 06:57 20.10.2021
5167 Clouds 27 1015 81 10000 2.28 329 02:37 20.10.2021
5168 Clouds 26 1013 87 10000 2.09 320 00:34 20.10.2021
5169 Clouds 26 1013 87 10000 2.09 320 00:33 20.10.2021
5170 Clouds 26 1012 85 10000 1.94 301 22:53 19.10.2021
5171 Clouds 26 1012 83 10000 1.88 297 21:37 19.10.2021
5172 Rain 26 1013 82 10000 1.9 274 20:27 19.10.2021
5173 Rain 26 1013 82 10000 1.67 255 19:59 19.10.2021
5174 Clouds 27 1013 82 10000 1.67 255 19:36 19.10.2021
5175 Clouds 27 1014 82 10000 1.82 238 18:40 19.10.2021
5176 Rain 27 1014 81 10000 1.62 220 17:52 19.10.2021
5177 Clouds 28 1014 80 10000 1.26 193 15:30 19.10.2021
5178 Clouds 28 1013 79 10000 1.45 182 14:40 19.10.2021
5179 Clouds 28 1012 79 10000 2.25 176 13:55 19.10.2021
5180 Clouds 29 1010 77 10000 2.6 196 12:23 19.10.2021
5181 Clouds 30 1010 77 10000 2.48 199 11:24 19.10.2021
5182 Clouds 30 1010 73 10000 2.2 201 09:55 19.10.2021
5183 Clouds 30 1011 73 10000 1.48 207 08:56 19.10.2021
5184 Clouds 25 1014 86 10000 1.39 340 02:25 19.10.2021
5185 Clouds 24 1012 84 10000 1.98 335 23:59 18.10.2021
5186 Clouds 24 1012 84 10000 1.98 335 23:40 18.10.2021
5187 Clouds 25 1012 84 10000 1.9 336 22:56 18.10.2021
5188 Clouds 25 1012 83 10000 1.84 325 22:18 18.10.2021
5189 Clouds 25 1012 82 10000 1.75 324 20:50 18.10.2021
5190 Clouds 25 1013 81 10000 2.05 315 20:30 18.10.2021
5191 Clouds 25 1013 81 10000 2.11 312 19:32 18.10.2021
5192 Clouds 25 1014 81 10000 1.9 319 18:59 18.10.2021
5193 Clouds 25 1014 80 10000 2.58 337 16:48 18.10.2021
5194 Clouds 25 1013 80 10000 3.09 342 14:47 18.10.2021
5195 Clouds 26 1010 77 10000 1.93 11 12:20 18.10.2021
5196 Clouds 26 1009 74 10000 1.61 70 10:22 18.10.2021
5197 Clouds 26 1010 74 10000 1.71 70 08:21 18.10.2021
5198 Rain 23 1010 88 10000 4.95 2 00:30 18.10.2021
5199 Rain 23 1009 89 10000 4.25 327 22:56 17.10.2021
5200 Clouds 23 1010 88 8486 3.84 322 21:45 17.10.2021
5201 Rain 23 1010 87 10000 3.67 317 20:57 17.10.2021
5202 Clouds 23 1011 87 8860 3.57 324 20:25 17.10.2021
5203 Rain 23 1011 87 8860 3.57 324 19:38 17.10.2021
5204 Rain 23 1012 87 7752 3.42 336 18:35 17.10.2021
5205 Rain 24 1013 85 7582 3.64 350 16:47 17.10.2021
5206 Rain 24 1012 84 10000 2.57 319 14:40 17.10.2021
5207 Rain 24 1011 84 10000 2.89 328 14:21 17.10.2021
5208 Rain 24 1011 83 10000 2.89 328 13:33 17.10.2021
5209 Rain 25 1010 85 10000 2.7 320 11:49 17.10.2021
5210 Rain 25 1010 85 10000 2.53 4 10:19 17.10.2021
5211 Rain 25 1010 83 10000 3.02 45 09:21 17.10.2021
5212 Clouds 24 1011 91 10000 4.7 79 06:52 17.10.2021
5213 Rain 25 1008 87 10000 0.74 56 00:35 17.10.2021
5214 Clouds 25 1008 86 10000 2.43 83 23:31 16.10.2021
5215 Rain 25 1009 85 5461 1.91 92 21:28 16.10.2021
5216 Rain 24 1009 96 5461 1.91 92 20:30 16.10.2021
5217 Rain 25 1009 84 4097 2.08 64 19:42 16.10.2021
5218 Rain 26 1010 83 3541 2.64 37 19:20 16.10.2021
5219 Rain 26 1010 81 3541 2.64 37 18:45 16.10.2021
5220 Rain 27 1010 77 5176 2.29 11 18:24 16.10.2021
5221 Rain 27 1010 74 5176 2.29 11 17:49 16.10.2021
5222 Rain 27 1010 73 6173 0.38 218 17:20 16.10.2021
5223 Rain 28 1008 67 9003 2.5 181 13:45 16.10.2021
5224 Clouds 32 1006 61 10000 3.92 184 11:25 16.10.2021
5225 Clouds 32 1006 59 10000 4.52 185 09:38 16.10.2021
5226 Clouds 31 1008 65 10000 1.66 151 06:48 16.10.2021
5227 Clouds 26 1007 87 10000 0.76 320 01:24 16.10.2021
5228 Clouds 26 1006 86 10000 1.97 288 23:27 15.10.2021
5229 Clouds 26 1006 86 10000 1.95 284 22:22 15.10.2021
5230 Rain 26 1006 85 10000 1.95 284 21:50 15.10.2021
5231 Clouds 26 1006 85 10000 1.86 270 21:19 15.10.2021
5232 Clouds 26 1006 84 10000 1.57 283 20:41 15.10.2021
5233 Clouds 26 1006 83 10000 1.72 268 19:21 15.10.2021
5234 Clouds 27 1007 82 10000 1.75 266 18:29 15.10.2021
5235 Clouds 27 1007 79 10000 2.01 236 16:19 15.10.2021
5236 Rain 27 1006 78 10000 2.64 215 14:37 15.10.2021
5237 Clouds 28 1003 71 10000 4.18 222 12:28 15.10.2021
5238 Rain 28 1003 68 7648 4.12 215 11:20 15.10.2021
5239 Clouds 30 1003 67 7648 4.12 215 10:34 15.10.2021
5240 Clouds 31 1003 67 6354 4.35 208 08:36 15.10.2021
5241 Rain 29 1006 79 10000 2.08 214 05:31 15.10.2021
5242 Rain 29 1006 79 10000 2.08 214 05:31 15.10.2021
5243 Clouds 26 1005 85 10000 1.86 272 00:30 15.10.2021
5244 Clouds 26 1004 85 10000 1.95 259 23:34 14.10.2021
5245 Clouds 26 1004 85 10000 1.95 259 23:34 14.10.2021
5246 Clouds 26 1003 85 10000 2.37 248 22:40 14.10.2021
5247 Clouds 26 1003 84 10000 2.55 229 21:40 14.10.2021
5248 Rain 26 1004 84 10000 2.98 229 20:22 14.10.2021
5249 Rain 26 1004 84 10000 2.98 229 19:50 14.10.2021
5250 Rain 26 1005 83 10000 3.19 230 18:45 14.10.2021
5251 Rain 26 1005 82 10000 4.14 223 17:24 14.10.2021
5252 Rain 26 1005 82 10000 4.14 223 16:33 14.10.2021
5253 Rain 27 1004 80 10000 4.31 219 15:22 14.10.2021
5254 Clouds 27 1004 77 10000 4.08 218 14:30 14.10.2021
5255 Clouds 27 1004 77 10000 4.08 218 14:30 14.10.2021
5256 Rain 27 1003 76 10000 3.97 220 13:35 14.10.2021
5257 Rain 29 1001 66 10000 5.28 218 11:35 14.10.2021
5258 Clouds 32 1001 64 10000 5.3 225 09:33 14.10.2021
5259 Clouds 31 1004 67 10000 5.07 238 06:27 14.10.2021
5260 Rain 27 1003 80 10000 2.73 223 00:49 14.10.2021
5261 Rain 28 1003 76 10000 2.86 241 22:46 13.10.2021
5262 Clouds 28 1003 77 10000 2.84 246 21:37 13.10.2021
5263 Clouds 28 1003 78 10000 2.76 245 20:45 13.10.2021
5264 Clouds 28 1003 79 10000 3.55 234 19:41 13.10.2021
5265 Rain 28 1004 77 10000 3.98 232 18:48 13.10.2021
5266 Rain 28 1005 73 10000 3.02 218 17:28 13.10.2021
5267 Clouds 29 1004 71 10000 2.8 194 14:55 13.10.2021
5268 Clouds 30 1004 70 10000 2.8 194 14:34 13.10.2021
5269 Clouds 31 1002 68 10000 3.67 183 12:48 13.10.2021
5270 Clouds 32 1001 65 10000 4.29 201 11:38 13.10.2021
5271 Clouds 32 1001 62 10000 3.84 231 10:21 13.10.2021
5272 Clouds 32 1003 58 10000 5.56 229 07:54 13.10.2021
5273 Rain 30 1006 69 10000 4 229 04:50 13.10.2021
5274 Clouds 27 1004 77 10000 2.34 225 02:22 13.10.2021
5275 Clouds 27 1003 78 10000 2.63 237 23:38 12.10.2021
5276 Clouds 27 1003 79 10000 2.68 225 22:53 12.10.2021
5277 Clouds 27 1003 80 10000 2.68 225 22:34 12.10.2021
5278 Clouds 28 1004 78 10000 2.95 215 20:54 12.10.2021
5279 Clouds 28 1004 78 10000 2.95 215 20:31 12.10.2021
5280 Rain 28 1004 80 10000 2.68 214 19:42 12.10.2021
5281 Rain 28 1006 77 10000 3.14 224 18:26 12.10.2021
5282 Rain 28 1006 76 10000 3.25 223 17:21 12.10.2021
5283 Rain 28 1005 75 10000 3.52 218 16:24 12.10.2021
5284 Clouds 29 1005 65 10000 3.52 218 15:33 12.10.2021
5285 Clouds 29 1003 70 10000 4.35 215 13:46 12.10.2021
5286 Clouds 30 1002 70 10000 4.62 204 13:18 12.10.2021
5287 Clouds 31 1002 76 10000 4.7 196 11:30 12.10.2021
5288 Clouds 31 1002 71 10000 5.16 200 09:41 12.10.2021
5289 Clouds 31 1003 63 7990 3.94 216 08:26 12.10.2021
5290 Rain 32 1004 64 10000 3.11 218 06:45 12.10.2021
5291 Clouds 31 1006 68 10000 1.79 242 04:39 12.10.2021
5292 Clouds 28 1006 78 10000 0.27 142 02:55 12.10.2021
5293 Clouds 27 1004 78 10000 2 260 23:49 11.10.2021
5294 Clouds 28 1003 78 10000 2.12 240 23:28 11.10.2021
5295 Clouds 28 1003 78 10000 2.12 240 23:28 11.10.2021
5296 Clouds 28 1003 78 10000 2.12 240 22:47 11.10.2021
5297 Rain 28 1004 77 10000 2.8 226 21:25 11.10.2021
5298 Clouds 28 1005 78 10000 1.99 275 19:53 11.10.2021
5299 Clouds 28 1005 79 10000 1.99 275 19:34 11.10.2021
5300 Clouds 29 1005 78 10000 3.15 227 18:23 11.10.2021
5301 Rain 28 1006 76 10000 3.39 221 16:40 11.10.2021
5302 Clouds 29 1005 75 9978 2.98 215 16:20 11.10.2021
5303 Rain 29 1005 73 9978 2.98 215 15:44 11.10.2021
5304 Rain 29 1004 73 10000 3.11 204 14:53 11.10.2021
5305 Clouds 29 1003 72 10000 2.9 213 14:19 11.10.2021
5306 Clouds 30 1003 71 10000 2.9 213 13:35 11.10.2021
5307 Clouds 31 1001 71 8200 3.46 209 11:18 11.10.2021
5308 Clouds 31 1002 77 10000 4.08 205 09:46 11.10.2021
5309 Clouds 32 1004 63 6251 3.74 235 07:57 11.10.2021
5310 Clouds 28 1005 77 10000 3 234 01:44 11.10.2021
5311 Clouds 28 1004 76 10000 2.62 246 00:57 11.10.2021
5312 Clouds 28 1004 75 10000 2.62 246 00:36 11.10.2021
5313 Clouds 28 1003 73 10000 3.06 240 22:35 10.10.2021
5314 Rain 28 1003 73 10000 3.14 233 21:49 10.10.2021
5315 Rain 29 1004 73 10000 2.46 228 20:57 10.10.2021
5316 Rain 29 1004 73 10000 2.46 228 20:38 10.10.2021
5317 Rain 29 1004 72 10000 2.69 225 20:19 10.10.2021
5318 Clouds 28 1004 73 10000 2.69 225 19:40 10.10.2021
5319 Rain 29 1005 73 10000 3.35 234 18:55 10.10.2021
5320 Rain 28 1006 72 10000 2.96 227 17:58 10.10.2021
5321 Clouds 29 1005 71 10000 2.97 228 15:48 10.10.2021
5322 Clouds 30 1005 68 10000 2.63 249 14:45 10.10.2021
5323 Clouds 30 1003 67 10000 3.32 204 13:39 10.10.2021
5324 Clouds 31 1002 65 10000 4.12 205 12:43 10.10.2021
5325 Clouds 32 1002 63 10000 3.64 225 11:29 10.10.2021
5326 Clouds 32 1002 63 10000 3.64 225 11:29 10.10.2021
5327 Clouds 33 1002 61 10000 3.53 244 10:25 10.10.2021
5328 Clouds 33 1003 59 10000 4.33 254 08:54 10.10.2021
5329 Clouds 33 1005 56 10000 4.83 241 07:57 10.10.2021
5330 Clouds 30 1007 68 10000 3.93 240 03:47 10.10.2021
5331 Clouds 30 1007 68 10000 3.93 240 03:47 10.10.2021
5332 Clouds 27 1006 79 10000 2.7 219 01:43 10.10.2021
5333 Clouds 26 1005 78 10000 3.67 222 00:41 10.10.2021
5334 Clouds 27 1005 78 10000 3.68 215 23:23 09.10.2021
5335 Clouds 27 1005 75 10000 3.74 216 21:52 09.10.2021
5336 Rain 27 1005 75 10000 3.79 215 21:29 09.10.2021
5337 Rain 27 1006 75 10000 3.58 214 19:50 09.10.2021
5338 Rain 27 1006 75 10000 3.58 214 19:31 09.10.2021
5339 Rain 27 1006 74 10000 3.36 223 18:34 09.10.2021
5340 Rain 27 1006 74 10000 3.38 235 17:43 09.10.2021
5341 Rain 28 1006 73 10000 2.88 247 16:19 09.10.2021
5342 Clouds 28 1005 69 10000 3.71 229 13:47 09.10.2021
5343 Rain 28 1004 69 7803 4.01 213 13:24 09.10.2021
5344 Rain 30 1003 71 10000 4.03 205 11:56 09.10.2021
5345 Clouds 31 1003 67 10000 3.56 206 10:42 09.10.2021
5346 Rain 31 1003 67 10000 3.23 214 09:54 09.10.2021
5347 Rain 31 1004 64 10000 3.13 205 08:32 09.10.2021
5348 Rain 31 1004 70 10000 1.86 184 07:49 09.10.2021
5349 Clouds 31 1006 74 10000 2.15 166 05:39 09.10.2021
5350 Clouds 29 1007 80 10000 1.7 164 03:44 09.10.2021
5351 Clouds 27 1007 80 10000 1.68 184 02:41 09.10.2021
5352 Clouds 28 1004 80 10000 2.11 179 23:55 08.10.2021
5353 Clouds 28 1004 81 10000 2.11 179 23:31 08.10.2021
5354 Clouds 28 1004 79 10000 2.08 178 22:25 08.10.2021
5355 Clouds 28 1004 78 10000 2.08 178 21:35 08.10.2021
5356 Rain 29 1005 77 10000 2.15 154 19:39 08.10.2021
5357 Clouds 29 1006 76 10000 2.99 171 17:36 08.10.2021
5358 Rain 29 1006 76 10000 2.97 165 16:53 08.10.2021
5359 Rain 28 1006 76 10000 3.43 167 16:24 08.10.2021
5360 Clouds 29 1004 76 10000 4.54 156 13:58 08.10.2021
5361 Clouds 30 1004 75 10000 4.54 156 13:35 08.10.2021
5362 Clouds 30 1002 64 10000 5.33 169 11:33 08.10.2021
5363 Rain 32 1002 55 10000 4.21 166 10:41 08.10.2021
5364 Clouds 33 1003 62 10000 1.75 185 09:25 08.10.2021
5365 Clouds 28 1005 81 10000 1.25 262 00:34 08.10.2021
5366 Clouds 28 1004 79 10000 1.86 261 23:21 07.10.2021
5367 Clouds 28 1004 76 10000 1.29 249 21:46 07.10.2021
5368 Rain 28 1005 76 10000 1.3 247 21:26 07.10.2021
5369 Clouds 28 1005 76 10000 0.93 241 20:22 07.10.2021
5370 Clouds 28 1006 75 10000 0.93 222 19:29 07.10.2021
5371 Rain 28 1006 74 10000 1.37 203 18:24 07.10.2021
5372 Rain 28 1006 75 10000 1.54 173 17:24 07.10.2021
5373 Rain 28 1006 74 10000 1.73 165 15:53 07.10.2021
5374 Clouds 29 1005 61 10000 1.69 133 14:21 07.10.2021
5375 Rain 29 1005 71 10000 1.69 133 13:38 07.10.2021
5376 Rain 30 1004 70 10000 0.88 141 12:45 07.10.2021
5377 Clouds 31 1003 68 10000 0.52 42 10:56 07.10.2021
5378 Clouds 32 1003 67 10000 1.11 29 10:19 07.10.2021
5379 Rain 32 1003 63 10000 1.11 29 09:33 07.10.2021
5380 Clouds 32 1003 56 10000 1.69 53 08:41 07.10.2021
5381 Clouds 32 1004 65 10000 1.87 5 07:43 07.10.2021
5382 Clouds 31 1005 66 8624 2.65 346 07:19 07.10.2021
5383 Clouds 27 1005 84 10000 2.17 300 02:26 07.10.2021
5384 Clouds 26 1004 83 10000 1.37 303 23:55 06.10.2021
5385 Clouds 26 1004 83 10000 1.15 262 22:50 06.10.2021
5386 Clouds 26 1004 84 10000 1.67 223 21:53 06.10.2021
5387 Rain 27 1004 84 8484 1.26 197 20:35 06.10.2021
5388 Rain 27 1005 83 6668 0.78 149 19:53 06.10.2021
5389 Clouds 27 1005 82 6077 0.18 48 18:40 06.10.2021
5390 Rain 28 1006 82 6450 0.58 6 16:56 06.10.2021
5391 Rain 28 1005 78 10000 0.36 287 15:27 06.10.2021
5392 Rain 29 1003 71 10000 1.3 309 13:55 06.10.2021
5393 Clouds 29 1002 72 10000 1.64 351 12:59 06.10.2021
5394 Rain 29 1002 71 10000 1.64 351 12:40 06.10.2021
5395 Clouds 30 1002 68 10000 2.09 324 12:21 06.10.2021
5396 Clouds 32 1002 68 10000 1.95 330 10:18 06.10.2021
5397 Clouds 32 1002 64 10000 1.95 330 09:39 06.10.2021
5398 Clouds 31 1003 71 10000 2.79 331 08:42 06.10.2021
5399 Clouds 31 1004 74 10000 3.1 335 07:44 06.10.2021
5400 Rain 29 1007 79 10000 3.82 325 05:26 06.10.2021
5401 Rain 25 1006 86 10000 3.59 286 00:28 06.10.2021
5402 Clouds 25 1006 85 10000 3.59 286 23:57 05.10.2021
5403 Clouds 25 1006 85 10000 3.59 286 23:38 05.10.2021
5404 Clouds 25 1005 85 10000 3.05 280 23:20 05.10.2021
5405 Clouds 26 1005 85 10000 2.15 295 22:27 05.10.2021
5406 Clouds 26 1005 85 10000 2.15 295 22:27 05.10.2021
5407 Clouds 26 1005 85 10000 2.15 295 21:47 05.10.2021
5408 Rain 26 1006 85 10000 1.64 334 20:41 05.10.2021
5409 Rain 26 1007 84 10000 1.86 333 20:23 05.10.2021
5410 Rain 26 1007 83 10000 1.86 333 19:42 05.10.2021
5411 Rain 26 1007 81 10000 1.54 336 18:49 05.10.2021
5412 Rain 28 1008 77 10000 1.26 345 16:36 05.10.2021
5413 Rain 28 1007 74 10000 2.73 352 14:36 05.10.2021
5414 Rain 30 1006 70 10000 3.1 344 13:34 05.10.2021
5415 Clouds 31 1005 60 10000 3.58 349 12:46 05.10.2021
5416 Clouds 33 1004 62 10000 3.97 351 11:59 05.10.2021
5417 Clouds 33 1004 59 10000 4.08 351 10:44 05.10.2021
5418 Clouds 33 1005 59 10000 4.55 360 09:25 05.10.2021
5419 Clouds 30 1009 72 10000 2.75 338 03:57 05.10.2021
5420 Clouds 26 1007 87 10000 2.53 320 23:53 04.10.2021
5421 Clouds 26 1006 87 10000 2.45 316 22:35 04.10.2021
5422 Clouds 27 1007 83 10000 2.07 313 19:38 04.10.2021
5423 Rain 27 1008 79 10000 1.93 323 18:34 04.10.2021
5424 Rain 28 1008 75 10000 1.05 358 16:24 04.10.2021
5425 Clear 29 1008 75 10000 1.05 358 15:31 04.10.2021
5426 Clouds 29 1007 73 10000 1.49 77 14:42 04.10.2021
5427 Clouds 29 1006 69 9396 1.76 63 13:50 04.10.2021
5428 Clouds 30 1005 62 10000 1.03 64 13:24 04.10.2021
5429 Clouds 31 1004 58 10000 1.55 60 12:26 04.10.2021
5430 Clouds 32 1004 58 10000 1.55 60 11:30 04.10.2021
5431 Clouds 33 1005 51 10000 1.71 32 09:59 04.10.2021
5432 Clouds 33 1005 56 10000 2.08 23 08:40 04.10.2021
5433 Clouds 32 1008 63 10000 1.58 5 07:19 04.10.2021
5434 Rain 25 1007 81 10000 0.57 311 00:29 04.10.2021
5435 Clouds 26 1007 83 10000 0.18 264 22:34 03.10.2021
5436 Clouds 26 1007 82 10000 0.57 190 21:39 03.10.2021
5437 Rain 25 1007 81 10000 1.08 174 20:59 03.10.2021
5438 Clouds 25 1008 81 10000 1.58 198 19:57 03.10.2021
5439 Rain 26 1009 81 10000 1.75 180 18:34 03.10.2021
5440 Rain 26 1009 80 10000 2.24 167 17:48 03.10.2021
5441 Rain 27 1009 75 10000 2.53 175 15:57 03.10.2021
5442 Clouds 29 1008 74 10000 2.53 175 14:46 03.10.2021
5443 Clouds 28 1007 73 10000 2.92 195 13:58 03.10.2021
5444 Rain 30 1006 72 10000 2.77 195 13:21 03.10.2021
5445 Clouds 30 1005 70 10000 2.05 198 12:29 03.10.2021
5446 Rain 32 1005 67 10000 1.41 203 10:37 03.10.2021
5447 Clouds 32 1006 69 10000 0.93 238 08:36 03.10.2021
5448 Clouds 26 1008 88 10000 0.48 210 01:30 03.10.2021
5449 Clouds 26 1007 86 10000 0.21 104 22:34 02.10.2021
5450 Clouds 27 1008 86 10000 1.08 213 20:55 02.10.2021
5451 Clouds 27 1009 83 10000 1.81 261 19:40 02.10.2021
5452 Rain 27 1009 82 10000 1.66 217 18:51 02.10.2021
5453 Rain 27 1010 81 10000 1.98 193 17:41 02.10.2021
5454 Rain 27 1010 81 10000 2.54 189 17:19 02.10.2021
5455 Clouds 26 1009 83 10000 4.51 187 14:49 02.10.2021
5456 Clouds 30 1009 68 10000 2.64 158 15:49 30.09.2021
5457 Clouds 29 1008 66 10000 2.69 153 14:48 30.09.2021
5458 Rain 30 1006 72 10000 3.25 169 12:36 30.09.2021
5459 Rain 30 1005 71 10000 3.91 176 11:34 30.09.2021
5460 Clouds 30 1005 74 10000 3.99 180 10:40 30.09.2021
5461 Clouds 33 1006 69 10000 3.74 187 08:56 30.09.2021
5462 Clouds 34 1007 59 10000 3.33 192 08:27 30.09.2021
5463 Clear 32 1009 69 10000 2.32 199 05:53 30.09.2021
5464 Clouds 28 1009 79 10000 1.01 225 02:59 30.09.2021
5465 Clouds 28 1008 79 10000 1.2 220 00:40 30.09.2021
5466 Rain 28 1007 77 10000 1.71 241 23:29 29.09.2021
5467 Rain 29 1007 77 10000 1.91 235 21:55 29.09.2021
5468 Rain 29 1007 76 10000 2.13 234 20:57 29.09.2021
5469 Rain 28 1007 76 5490 2.25 205 20:22 29.09.2021
5470 Rain 29 1008 72 8674 2.04 209 19:28 29.09.2021
5471 Rain 30 1008 69 10000 2.12 183 18:22 29.09.2021
5472 Rain 29 1008 80 9390 2.31 171 16:56 29.09.2021
5473 Rain 29 1008 80 9390 2.31 171 16:32 29.09.2021
5474 Clouds 30 1008 79 9070 2.33 170 15:43 29.09.2021
5475 Clouds 31 1007 78 10000 2.45 169 14:38 29.09.2021
5476 Clouds 32 1006 76 10000 2.78 177 13:34 29.09.2021
5477 Clouds 33 1005 74 10000 3.1 180 12:40 29.09.2021
5478 Clouds 34 1004 61 10000 2.33 188 11:23 29.09.2021
5479 Clouds 35 1004 52 10000 2.33 188 10:32 29.09.2021
5480 Rain 34 1005 57 10000 0.83 141 09:43 29.09.2021
5481 Clouds 34 1007 51 10000 1.63 32 07:55 29.09.2021
5482 Clouds 33 1008 57 10000 1.99 21 06:49 29.09.2021
5483 Clouds 27 1007 83 10000 1.73 344 00:28 29.09.2021
5484 Clouds 27 1007 82 10000 1.81 333 22:45 28.09.2021
5485 Rain 27 1008 82 10000 1.84 326 22:22 28.09.2021
5486 Rain 27 1008 81 10000 1.64 320 21:23 28.09.2021
5487 Rain 27 1009 80 10000 1.28 247 19:53 28.09.2021
5488 Rain 27 1009 80 10000 1.28 247 19:32 28.09.2021
5489 Rain 27 1010 79 10000 1.51 263 18:41 28.09.2021
5490 Rain 28 1010 75 10000 1.15 221 16:57 28.09.2021
5491 Clouds 29 1008 72 10000 1.49 177 15:21 28.09.2021
5492 Clouds 30 1006 68 10000 1.85 153 13:27 28.09.2021
5493 Clouds 31 1005 67 10000 1.94 143 12:26 28.09.2021
5494 Clouds 31 1005 67 10000 1.94 143 11:51 28.09.2021
5495 Clouds 31 1005 68 10000 1.94 143 11:32 28.09.2021
5496 Clouds 30 1005 71 10000 1.9 160 10:30 28.09.2021
5497 Clouds 32 1006 71 10000 0.85 220 09:29 28.09.2021
5498 Rain 32 1006 70 10000 0.85 220 08:44 28.09.2021
5499 Clouds 32 1008 68 10000 0.48 279 08:24 28.09.2021
5500 Clouds 32 1009 64 10000 0.55 334 06:46 28.09.2021
5501 Clouds 27 1010 81 10000 1.8 24 02:56 28.09.2021
5502 Clouds 26 1009 85 10000 1.72 3 00:34 28.09.2021
5503 Clouds 26 1008 85 10000 1.17 358 23:52 27.09.2021
5504 Clouds 26 1008 85 10000 0.8 16 23:25 27.09.2021
5505 Clouds 26 1008 84 10000 0.8 16 22:31 27.09.2021
5506 Clouds 26 1008 83 10000 0.87 48 21:38 27.09.2021
5507 Clouds 26 1009 82 10000 1.68 76 20:29 27.09.2021
5508 Clouds 26 1009 81 10000 2.25 61 19:40 27.09.2021
5509 Clouds 26 1010 81 10000 2.41 66 18:54 27.09.2021
5510 Rain 26 1010 79 10000 2.09 78 17:41 27.09.2021
5511 Clouds 26 1010 78 7548 1.39 130 17:21 27.09.2021
5512 Rain 26 1010 76 7548 1.39 130 16:37 27.09.2021
5513 Rain 26 1010 76 7548 1.39 130 16:37 27.09.2021
5514 Rain 26 1009 75 10000 1.53 178 15:39 27.09.2021
5515 Rain 26 1008 75 10000 2.11 181 13:57 27.09.2021
5516 Rain 29 1006 71 10000 2.89 182 12:26 27.09.2021
5517 Clouds 31 1005 58 10000 3.52 181 10:51 27.09.2021
5518 Clouds 32 1006 59 10000 3.42 178 09:42 27.09.2021
5519 Clouds 31 1007 63 10000 2.91 156 07:57 27.09.2021
5520 Clouds 27 1010 77 10000 1.72 85 03:40 27.09.2021
5521 Clouds 25 1007 86 10000 1.25 116 23:53 26.09.2021
5522 Clouds 25 1007 85 10000 0.69 95 22:18 26.09.2021
5523 Rain 25 1007 84 10000 0.69 95 21:30 26.09.2021
5524 Rain 25 1008 83 10000 1.05 88 20:30 26.09.2021
5525 Rain 25 1008 95 10000 1.2 110 19:54 26.09.2021
5526 Rain 26 1009 81 10000 1.53 110 19:26 26.09.2021
5527 Rain 26 1009 81 10000 1.53 110 19:26 26.09.2021
5528 Rain 26 1009 81 10000 1.53 110 19:26 26.09.2021
5529 Rain 26 1009 81 10000 1.53 110 19:26 26.09.2021
5530 Rain 26 1009 81 10000 1.53 110 19:26 26.09.2021
5531 Rain 26 1009 81 10000 1.53 110 19:26 26.09.2021
5532 Rain 26 1009 81 10000 1.53 110 19:26 26.09.2021
5533 Rain 26 1009 81 10000 1.53 110 19:26 26.09.2021
5534 Rain 26 1009 81 10000 1.53 110 19:26 26.09.2021
5535 Rain 26 1009 81 10000 1.53 110 18:41 26.09.2021
5536 Rain 26 1009 80 10000 1.8 110 17:48 26.09.2021
5537 Rain 26 1009 79 10000 1.88 122 17:20 26.09.2021
5538 Rain 26 1009 79 10000 1.87 123 16:23 26.09.2021
5539 Rain 26 1009 79 10000 1.87 123 15:47 26.09.2021
5540 Rain 27 1007 80 10000 1.94 145 14:23 26.09.2021
5541 Clouds 27 1007 79 10000 1.94 145 13:43 26.09.2021
5542 Clouds 26 1007 94 10000 2.58 150 12:31 26.09.2021
5543 Clouds 27 1006 93 10000 2.91 142 11:56 26.09.2021
5544 Clouds 28 1006 94 10000 3.17 131 11:26 26.09.2021
5545 Clouds 30 1006 94 10000 3.45 126 09:52 26.09.2021
5546 Clouds 29 1007 94 10000 3.43 120 08:52 26.09.2021
5547 Rain 25 1006 90 5847 1.79 146 01:18 26.09.2021
5548 Rain 25 1006 90 5847 1.79 146 01:18 26.09.2021
5549 Rain 26 1006 83 10000 2.12 151 00:18 26.09.2021
5550 Rain 25 1005 83 10000 1.95 145 22:39 25.09.2021
5551 Rain 25 1006 82 10000 1.08 136 22:19 25.09.2021
5552 Rain 25 1006 89 10000 1.08 136 21:46 25.09.2021
5553 Rain 25 1006 81 10000 0.02 148 20:52 25.09.2021
5554 Rain 25 1007 87 10000 1.08 4 19:41 25.09.2021
5555 Rain 25 1008 86 10000 1.41 292 18:28 25.09.2021
5556 Rain 25 1008 85 10000 1.41 292 17:45 25.09.2021
5557 Rain 26 1007 77 10000 1.22 118 14:39 25.09.2021
5558 Clouds 27 1006 78 10000 1.49 138 13:55 25.09.2021
5559 Clouds 28 1006 77 10000 1.72 145 12:46 25.09.2021
5560 Clouds 28 1005 75 10000 0.82 201 11:27 25.09.2021
5561 Rain 28 1005 79 7850 1.28 257 10:20 25.09.2021
5562 Rain 28 1005 79 6513 1.93 274 09:22 25.09.2021
5563 Rain 28 1007 81 10000 1.2 261 07:48 25.09.2021
5564 Rain 26 1006 91 10000 1.44 241 00:52 25.09.2021
5565 Rain 26 1006 83 10000 2.69 245 22:18 24.09.2021
5566 Rain 26 1006 83 10000 2.69 245 21:34 24.09.2021
5567 Rain 26 1007 83 10000 2.34 251 20:32 24.09.2021
5568 Rain 26 1008 82 10000 2.55 270 19:31 24.09.2021
5569 Rain 26 1009 82 10000 3.21 253 18:20 24.09.2021
5570 Clouds 26 1009 81 10000 3.21 253 17:50 24.09.2021
5571 Rain 26 1009 81 10000 3.21 253 17:31 24.09.2021
5572 Rain 27 1009 94 10000 3.44 263 15:39 24.09.2021
5573 Rain 28 1006 73 10000 2.47 247 13:27 24.09.2021
5574 Rain 27 1006 84 10000 2.47 247 12:43 24.09.2021
5575 Rain 29 1006 71 10000 3.07 248 12:25 24.09.2021
5576 Clouds 31 1005 74 10000 3.25 260 10:53 24.09.2021
5577 Clouds 31 1006 62 10000 4 266 09:37 24.09.2021
5578 Clouds 31 1008 81 10000 3.76 282 07:57 24.09.2021
5579 Rain 31 1009 80 10000 4.18 297 06:59 24.09.2021
5580 Rain 30 1010 80 10000 4.19 296 05:57 24.09.2021
5581 Clouds 27 1009 83 10000 1.8 294 02:29 24.09.2021
5582 Rain 26 1008 86 10000 2.11 283 22:37 23.09.2021
5583 Rain 27 1008 85 10000 2.24 268 21:58 23.09.2021
5584 Rain 27 1008 83 10000 2.44 259 20:52 23.09.2021
5585 Clouds 27 1009 83 10000 2.56 256 20:27 23.09.2021
5586 Rain 27 1009 82 6658 1.94 242 18:32 23.09.2021
5587 Rain 28 1009 82 10000 2.39 204 15:53 23.09.2021
5588 Clouds 28 1008 83 10000 2.58 203 15:19 23.09.2021
5589 Rain 28 1007 81 10000 2.8 206 14:24 23.09.2021
5590 Clouds 28 1006 79 10000 2.79 223 13:26 23.09.2021
5591 Clouds 28 1006 81 10000 2.79 223 12:54 23.09.2021
5592 Rain 29 1006 81 8327 2.8 224 12:26 23.09.2021
5593 Rain 30 1006 75 8327 2.8 224 11:56 23.09.2021
5594 Rain 30 1006 71 5768 3.15 239 10:29 23.09.2021
5595 Clouds 30 1006 74 5768 3.15 239 09:54 23.09.2021
5596 Clouds 29 1006 75 10000 2.74 249 08:55 23.09.2021
5597 Clouds 29 1010 78 10000 1.5 209 05:29 23.09.2021
5598 Clouds 25 1007 91 10000 1.74 241 23:48 22.09.2021
5599 Rain 25 1006 91 10000 1.96 236 22:49 22.09.2021
5600 Rain 25 1006 91 10000 1.99 237 22:18 22.09.2021
5601 Rain 25 1006 91 10000 1.99 237 21:41 22.09.2021
5602 Rain 25 1007 90 10000 2.73 228 20:57 22.09.2021
5603 Rain 25 1007 90 10000 2.34 230 19:34 22.09.2021
5604 Rain 25 1008 89 10000 2.55 224 18:47 22.09.2021
5605 Rain 25 1009 89 10000 2.72 223 18:23 22.09.2021
5606 Rain 26 1009 88 10000 2.77 219 16:41 22.09.2021
5607 Rain 26 1008 86 10000 2.15 212 15:38 22.09.2021
5608 Rain 26 1006 84 8416 2.25 226 14:25 22.09.2021
5609 Rain 29 1005 76 10000 3.2 198 12:55 22.09.2021
5610 Rain 29 1004 72 10000 3.85 211 10:59 22.09.2021
5611 Clouds 29 1004 73 10000 3.01 226 09:29 22.09.2021
5612 Clouds 29 1004 76 10000 3.01 226 08:35 22.09.2021
5613 Clouds 28 1006 84 10000 2.64 236 07:30 22.09.2021
5614 Clouds 29 1008 83 10000 2.72 220 06:19 22.09.2021
5615 Clouds 29 1008 80 10000 2.72 220 05:42 22.09.2021
5616 Clouds 26 1008 87 10000 2.03 224 03:58 22.09.2021
5617 Clouds 25 1008 87 10000 1.82 240 02:55 22.09.2021
5618 Rain 26 1005 88 10000 2.48 237 23:31 21.09.2021
5619 Rain 26 1004 87 10000 0.89 212 21:47 21.09.2021
5620 Rain 26 1006 87 10000 1.91 148 20:27 21.09.2021
5621 Rain 26 1007 86 6466 2.1 127 19:24 21.09.2021
5622 Rain 27 1007 84 10000 2.34 140 17:59 21.09.2021
5623 Rain 28 1008 78 10000 2.6 150 16:40 21.09.2021
5624 Rain 28 1007 78 8994 2.73 161 15:56 21.09.2021
5625 Clouds 28 1006 77 10000 2.74 174 14:58 21.09.2021
5626 Clouds 28 1005 75 10000 2.6 169 13:57 21.09.2021
5627 Rain 29 1005 88 10000 2.6 169 13:39 21.09.2021
5628 Clouds 29 1005 87 7552 2.49 164 12:44 21.09.2021
5629 Clouds 32 1003 80 8102 3 175 10:39 21.09.2021
5630 Rain 27 1005 80 6942 2.86 188 08:41 21.09.2021
5631 Clouds 26 1006 80 9786 1.72 159 07:37 21.09.2021
5632 Rain 25 1008 95 10000 2.4 336 01:53 21.09.2021
5633 Rain 25 1006 93 10000 2.06 315 22:50 20.09.2021
5634 Rain 24 1006 93 10000 2.4 309 21:42 20.09.2021
5635 Rain 24 1006 92 10000 2.74 309 21:20 20.09.2021
5636 Rain 25 1008 87 10000 1.2 257 19:46 20.09.2021
5637 Rain 26 1009 85 10000 1.49 251 17:54 20.09.2021
5638 Rain 26 1009 82 10000 1.49 232 16:57 20.09.2021
5639 Rain 26 1009 80 10000 1.38 219 15:57 20.09.2021
5640 Rain 26 1009 80 10000 1.38 219 15:34 20.09.2021
5641 Rain 28 1007 81 10000 0.49 207 14:26 20.09.2021
5642 Clouds 29 1006 87 10000 0.96 46 12:44 20.09.2021
5643 Clouds 30 1006 87 10000 1.66 43 12:21 20.09.2021
5644 Clouds 30 1006 87 10000 1.66 43 12:21 20.09.2021
5645 Clouds 30 1005 84 10000 1.42 23 10:49 20.09.2021
5646 Rain 30 1005 71 8835 1.75 356 09:48 20.09.2021
5647 Clouds 30 1006 73 6011 1.74 340 09:29 20.09.2021
5648 Rain 30 1006 71 6011 1.74 340 08:34 20.09.2021
5649 Clouds 26 1008 82 10000 1.42 292 02:29 20.09.2021
5650 Rain 26 1007 81 10000 1.86 290 22:57 19.09.2021
5651 Rain 26 1007 80 10000 1.92 293 21:48 19.09.2021
5652 Rain 26 1008 81 10000 1.91 279 20:59 19.09.2021
5653 Rain 26 1009 80 10000 1.99 236 19:54 19.09.2021
5654 Rain 26 1009 80 10000 1.21 213 18:42 19.09.2021
5655 Rain 26 1010 80 10000 1.46 189 17:33 19.09.2021
5656 Rain 26 1010 79 10000 1.79 190 16:32 19.09.2021
5657 Rain 26 1010 79 10000 1.39 159 15:31 19.09.2021
5658 Clouds 26 1009 80 10000 1.97 108 14:48 19.09.2021
5659 Clouds 26 1007 81 10000 3.48 143 13:46 19.09.2021
5660 Clouds 27 1007 80 10000 3.03 151 12:52 19.09.2021
5661 Rain 27 1007 78 7179 4.52 109 11:39 19.09.2021
5662 Rain 27 1006 78 4922 4.32 80 11:20 19.09.2021
5663 Rain 32 1006 64 6361 2.58 39 09:50 19.09.2021
5664 Rain 32 1006 64 10000 1.93 333 08:49 19.09.2021
5665 Clouds 32 1009 65 10000 2.28 306 06:43 19.09.2021
5666 Clouds 28 1008 72 10000 1.5 253 00:20 19.09.2021
5667 Clouds 28 1008 72 10000 1.61 236 22:54 18.09.2021
5668 Rain 29 1008 75 10000 1.84 217 21:26 18.09.2021
5669 Clouds 29 1008 74 10000 1.84 217 20:45 18.09.2021
5670 Rain 29 1009 72 10000 1.74 222 19:41 18.09.2021
5671 Rain 29 1010 72 10000 1.84 199 19:21 18.09.2021
5672 Rain 29 1010 71 10000 1.84 199 18:37 18.09.2021
5673 Rain 29 1011 72 10000 2.2 195 17:46 18.09.2021
5674 Rain 30 1011 72 10000 2.12 189 16:34 18.09.2021
5675 Clouds 31 1007 66 10000 2.25 173 13:50 18.09.2021
5676 Clouds 31 1007 66 10000 2.25 173 13:30 18.09.2021
5677 Clouds 33 1006 61 10000 2.94 179 12:50 18.09.2021
5678 Clouds 34 1006 59 10000 3.13 196 11:42 18.09.2021
5679 Clouds 34 1006 56 10000 3.24 197 10:35 18.09.2021
5680 Clouds 34 1006 55 10000 3.92 199 09:48 18.09.2021
5681 Clouds 34 1007 57 10000 3.88 193 09:19 18.09.2021
5682 Clouds 33 1009 60 10000 2.22 163 06:54 18.09.2021
5683 Clouds 27 1009 81 10000 0.82 141 00:42 18.09.2021
5684 Clouds 27 1008 80 10000 0.99 174 23:52 17.09.2021
5685 Clouds 27 1008 75 10000 1.33 165 22:40 17.09.2021
5686 Rain 27 1008 75 10000 1.73 173 22:20 17.09.2021
5687 Rain 28 1009 75 10000 1.97 186 21:23 17.09.2021
5688 Rain 29 1010 72 10000 2.8 179 19:23 17.09.2021
5689 Rain 29 1010 71 10000 3.22 182 17:29 17.09.2021
5690 Clouds 29 1010 70 10000 3.45 181 16:27 17.09.2021
5691 Rain 30 1008 66 10000 3.81 178 14:23 17.09.2021
5692 Clouds 32 1006 60 10000 4 175 10:53 17.09.2021
5693 Rain 32 1007 62 10000 4.13 184 08:52 17.09.2021
5694 Clouds 32 1009 61 10000 3.66 182 07:33 17.09.2021
5695 Clouds 29 1011 76 10000 2.36 184 03:54 17.09.2021
5696 Clouds 27 1008 86 10000 1.58 186 23:35 16.09.2021
5697 Clouds 27 1008 85 10000 1.83 178 22:28 16.09.2021
5698 Clouds 27 1008 85 10000 1.83 178 21:51 16.09.2021
5699 Rain 27 1008 84 10000 2.05 169 21:24 16.09.2021
5700 Clouds 28 1009 84 10000 2.4 172 20:19 16.09.2021
5701 Clouds 28 1010 79 10000 2.75 169 18:21 16.09.2021
5702 Clouds 28 1010 78 10000 2.75 169 17:33 16.09.2021
5703 Rain 29 1009 76 7887 3.6 177 14:59 16.09.2021
5704 Clouds 29 1008 75 10000 3.12 183 14:26 16.09.2021
5705 Clouds 29 1007 72 10000 4.45 187 12:51 16.09.2021
5706 Clouds 30 1006 71 10000 4.83 185 12:29 16.09.2021
5707 Clouds 31 1006 68 10000 4.98 177 11:26 16.09.2021
5708 Clouds 31 1006 65 10000 4.98 177 10:33 16.09.2021
5709 Rain 31 1006 67 10000 4.83 178 09:58 16.09.2021
5710 Clouds 30 1007 75 10000 4.02 185 08:42 16.09.2021
5711 Rain 29 1008 78 10000 3.16 201 07:36 16.09.2021
5712 Rain 29 1009 81 10000 3.28 198 06:46 16.09.2021
5713 Clouds 27 1010 86 10000 1.93 132 05:26 16.09.2021
5714 Clouds 25 1009 88 10000 0.52 261 01:41 16.09.2021
5715 Rain 26 1008 86 10000 0.47 56 23:47 15.09.2021
5716 Rain 27 1008 84 10000 0.22 116 22:47 15.09.2021
5717 Rain 27 1008 84 10000 0.22 116 22:47 15.09.2021
5718 Rain 27 1008 82 10000 0.8 205 21:48 15.09.2021
5719 Rain 27 1008 82 10000 1.34 192 21:28 15.09.2021
5720 Rain 27 1009 79 10000 1.98 235 19:58 15.09.2021
5721 Rain 28 1010 79 10000 1.9 222 19:27 15.09.2021
5722 Rain 28 1011 78 10000 1.63 210 18:19 15.09.2021
5723 Rain 28 1011 79 10000 1.76 212 16:59 15.09.2021
5724 Clouds 28 1010 79 10000 1.55 217 15:46 15.09.2021
5725 Clouds 28 1009 77 10000 1.82 228 14:45 15.09.2021
5726 Clouds 28 1007 75 10000 4.33 226 13:52 15.09.2021
5727 Clouds 28 1007 94 10000 4.33 226 13:30 15.09.2021
5728 Clouds 29 1006 95 9103 5.62 220 12:48 15.09.2021
5729 Clouds 30 1005 97 2297 3.52 220 11:52 15.09.2021
5730 Clouds 30 1005 97 2297 3.52 220 11:52 15.09.2021
5731 Rain 31 1005 97 2297 3.52 220 11:31 15.09.2021
5732 Clouds 29 1005 88 1775 1.41 175 10:55 15.09.2021
5733 Rain 31 1006 70 10000 1.36 239 09:29 15.09.2021
5734 Rain 30 1007 76 10000 2.26 52 07:48 15.09.2021
5735 Rain 27 1010 79 10000 2.6 302 04:24 15.09.2021
5736 Clouds 27 1007 93 10000 2.03 277 22:59 14.09.2021
5737 Clouds 27 1007 92 10000 2.14 252 21:40 14.09.2021
5738 Rain 28 1008 91 8999 2.59 253 20:38 14.09.2021
5739 Clouds 28 1008 72 10000 2.7 244 19:41 14.09.2021
5740 Rain 29 1009 71 10000 2.45 241 17:34 14.09.2021
5741 Clouds 29 1009 71 10000 2.49 234 16:58 14.09.2021
5742 Rain 29 1008 72 9523 2.5 237 15:30 14.09.2021
5743 Clouds 29 1007 70 7330 2.37 261 14:31 14.09.2021
5744 Clouds 31 1006 63 10000 2.6 248 11:52 14.09.2021
5745 Clouds 31 1006 82 10000 1.8 240 10:54 14.09.2021
5746 Clouds 32 1006 82 7122 1.5 276 09:50 14.09.2021
5747 Rain 30 1006 81 5930 1.47 318 08:39 14.09.2021
5748 Rain 30 1009 67 10000 3.97 308 06:23 14.09.2021
5749 Rain 28 1006 67 10000 2.97 272 23:54 13.09.2021
5750 Rain 29 1006 67 10000 3.37 269 22:46 13.09.2021
5751 Rain 29 1006 66 10000 3.44 270 22:23 13.09.2021
5752 Rain 29 1006 66 10000 3.44 270 21:45 13.09.2021
5753 Rain 29 1006 66 10000 3.44 269 20:48 13.09.2021
5754 Rain 29 1008 77 10000 3.94 264 18:46 13.09.2021
5755 Clouds 30 1008 66 10000 3.21 270 17:42 13.09.2021
5756 Rain 30 1008 67 10000 3.11 266 16:50 13.09.2021
5757 Rain 30 1008 67 10000 3.11 266 16:50 13.09.2021
5758 Rain 30 1006 66 10000 4.11 259 14:57 13.09.2021
5759 Clouds 34 1004 53 10000 5.31 275 11:55 13.09.2021
5760 Clouds 34 1003 54 10000 4.46 281 10:58 13.09.2021
5761 Clouds 34 1004 54 10000 4.49 294 09:31 13.09.2021
5762 Clouds 28 1006 69 10000 2.64 259 01:24 13.09.2021
5763 Clouds 28 1005 66 10000 3.21 261 22:55 12.09.2021
5764 Clouds 28 1005 66 10000 3.36 265 22:24 12.09.2021
5765 Clouds 28 1006 79 10000 3.33 263 21:23 12.09.2021
5766 Clouds 29 1006 64 10000 3.3 264 20:21 12.09.2021
5767 Clouds 29 1006 82 10000 2.82 247 19:49 12.09.2021
5768 Clouds 29 1007 82 10000 2.8 251 19:18 12.09.2021
5769 Rain 29 1007 82 10000 2.68 260 18:19 12.09.2021
5770 Rain 30 1007 83 10000 2.31 272 15:59 12.09.2021
5771 Clouds 31 1006 83 10000 2.41 269 14:48 12.09.2021
5772 Clouds 32 1004 78 10000 3.92 253 12:47 12.09.2021
5773 Clouds 33 1003 56 8930 3.91 253 10:35 12.09.2021
5774 Clouds 33 1004 58 10000 3.53 279 08:40 12.09.2021
5775 Clouds 32 1006 59 10000 4.2 272 07:39 12.09.2021
5776 Clouds 27 1006 91 10000 2.75 261 00:48 12.09.2021
5777 Clouds 27 1007 94 10000 2.62 299 22:59 11.09.2021
5778 Clouds 27 1007 93 9882 3.6 323 21:39 11.09.2021
5779 Clouds 28 1008 86 10000 1.93 304 19:55 11.09.2021
5780 Clouds 28 1008 87 10000 1.82 286 18:30 11.09.2021
5781 Rain 28 1009 87 10000 2.27 276 17:29 11.09.2021
5782 Clouds 28 1009 87 10000 3.05 285 15:37 11.09.2021
5783 Clouds 29 1007 89 10000 3.66 229 13:25 11.09.2021
5784 Rain 28 1006 88 10000 3.4 231 11:45 11.09.2021
5785 Clouds 28 1006 88 10000 3.05 220 10:40 11.09.2021
5786 Clouds 31 1007 88 10000 3.19 220 09:28 11.09.2021
5787 Clouds 31 1009 91 10000 3.44 206 07:44 11.09.2021
5788 Clouds 29 1011 95 10000 2.51 197 04:23 11.09.2021
5789 Clouds 27 1008 80 10000 3.09 227 22:47 10.09.2021
5790 Clouds 27 1008 81 10000 3.02 225 22:18 10.09.2021
5791 Clouds 27 1008 81 10000 3.02 225 21:40 10.09.2021
5792 Clouds 27 1009 83 10000 2.51 229 19:32 10.09.2021
5793 Rain 28 1010 82 10000 1.82 194 17:58 10.09.2021
5794 Rain 27 1009 83 10000 1.62 238 16:28 10.09.2021
5795 Rain 28 1007 79 10000 2.49 241 13:32 10.09.2021
5796 Rain 28 1005 86 9187 2.53 251 10:54 10.09.2021
5797 Clouds 31 1007 67 10000 3.32 196 08:26 10.09.2021
5798 Clouds 28 1007 81 6135 3.03 187 07:43 10.09.2021
5799 Rain 26 1006 89 10000 1.75 157 00:40 10.09.2021
5800 Rain 26 1006 87 10000 0.76 203 21:54 09.09.2021
5801 Rain 26 1006 86 10000 1.22 215 20:48 09.09.2021
5802 Rain 27 1007 86 10000 1.64 220 20:28 09.09.2021
5803 Clouds 27 1008 84 10000 2.58 252 18:46 09.09.2021
5804 Clouds 27 1008 84 10000 3.13 272 17:51 09.09.2021
5805 Rain 27 1008 82 10000 3.33 275 16:39 09.09.2021
5806 Rain 27 1006 81 5230 3.63 173 15:25 09.09.2021
5807 Rain 29 1004 75 10000 2.81 127 12:33 09.09.2021
5808 Rain 29 1004 74 10000 2.98 120 11:23 09.09.2021
5809 Clouds 29 1004 76 10000 2.74 127 09:36 09.09.2021
5810 Clouds 28 1006 85 10000 1.74 142 07:56 09.09.2021
5811 Rain 28 1007 79 10000 1.1 197 05:51 09.09.2021
5812 Clouds 26 1005 87 10000 2.38 221 00:33 09.09.2021
5813 Rain 26 1005 85 8807 3.93 202 21:49 08.09.2021
5814 Rain 26 1005 86 8017 3.89 208 20:49 08.09.2021
5815 Rain 26 1006 86 7699 2.93 273 19:46 08.09.2021
5816 Rain 26 1007 86 9206 3.17 254 18:47 08.09.2021
5817 Clouds 26 1007 86 8788 3.16 250 18:25 08.09.2021
5818 Clouds 26 1007 84 8788 3.16 250 17:40 08.09.2021
5819 Rain 26 1006 83 7430 2.86 239 15:35 08.09.2021
5820 Rain 27 1005 81 10000 1.27 221 13:33 08.09.2021
5821 Rain 28 1004 80 7202 0.52 77 12:41 08.09.2021
5822 Rain 28 1003 79 4582 0.55 61 12:23 08.09.2021
5823 Rain 29 1003 75 4936 0.4 256 11:26 08.09.2021
5824 Rain 31 1003 69 4936 0.4 256 10:31 08.09.2021
5825 Clouds 30 1003 67 10000 1.53 303 09:55 08.09.2021
5826 Clouds 30 1005 72 7970 2.3 310 07:45 08.09.2021
5827 Clouds 30 1005 72 7970 2.3 310 07:45 08.09.2021
5828 Clouds 29 1006 81 6618 3.25 308 06:43 08.09.2021
5829 Rain 25 1006 88 10000 3.25 278 23:28 07.09.2021
5830 Rain 25 1006 88 10000 3.91 281 22:19 07.09.2021
5831 Rain 26 1006 86 10000 3.96 274 20:41 07.09.2021
5832 Rain 26 1008 84 6624 2.58 298 18:53 07.09.2021
5833 Rain 26 1008 84 3406 1.42 275 18:25 07.09.2021
5834 Rain 26 1008 84 6099 1.27 237 17:25 07.09.2021
5835 Rain 27 1008 84 10000 2.9 211 15:56 07.09.2021
5836 Rain 28 1007 82 2910 1.64 196 14:48 07.09.2021
5837 Rain 28 1006 79 6147 1.83 201 13:50 07.09.2021
5838 Rain 28 1005 79 10000 1.96 297 11:58 07.09.2021
5839 Rain 28 1005 79 4475 2.53 324 10:48 07.09.2021
5840 Rain 30 1006 71 9964 3.04 331 09:40 07.09.2021
5841 Clouds 29 1009 80 10000 3.35 329 07:46 07.09.2021
5842 Rain 27 1010 83 10000 3.69 328 06:19 07.09.2021
5843 Clouds 28 1011 76 10000 2.86 312 02:38 07.09.2021
5844 Clouds 28 1008 76 10000 2.9 303 00:55 07.09.2021
5845 Clouds 28 1008 77 10000 2.4 297 23:43 06.09.2021
5846 Clouds 28 1008 78 10000 2.15 292 23:21 06.09.2021
5847 Rain 28 1008 78 10000 2.15 292 22:46 06.09.2021
5848 Rain 28 1008 78 10000 2.19 286 21:52 06.09.2021
5849 Clouds 28 1009 77 10000 2.5 285 19:36 06.09.2021
5850 Clouds 28 1010 77 10000 2.37 274 19:18 06.09.2021
5851 Clouds 28 1010 76 10000 2.28 266 18:27 06.09.2021
5852 Clouds 28 1010 76 10000 2.28 266 18:27 06.09.2021
5853 Clouds 28 1010 76 10000 2.28 266 17:37 06.09.2021
5854 Clouds 28 1010 76 10000 2.28 266 17:37 06.09.2021
5855 Clouds 28 1010 75 10000 2.66 261 15:59 06.09.2021
5856 Rain 30 1008 72 10000 3.7 290 14:34 06.09.2021
5857 Rain 32 1006 59 10000 4.02 288 12:48 06.09.2021
5858 Clouds 33 1006 55 10000 3.74 293 11:33 06.09.2021
5859 Clouds 33 1006 56 10000 3.82 306 09:59 06.09.2021
5860 Clouds 32 1009 60 10000 2.73 328 07:34 06.09.2021
5861 Clouds 26 1010 77 10000 1.52 305 01:32 06.09.2021
5862 Clouds 27 1009 78 10000 1.91 260 23:20 05.09.2021
5863 Clouds 27 1009 78 10000 1.91 260 22:31 05.09.2021
5864 Clouds 27 1009 79 10000 2.08 266 21:55 05.09.2021
5865 Clouds 27 1009 84 10000 1.97 276 20:55 05.09.2021
5866 Clouds 27 1011 83 10000 0.97 13 19:22 05.09.2021
5867 Clouds 27 1011 81 10000 1.32 43 17:36 05.09.2021
5868 Clouds 27 1011 81 10000 1.32 43 17:36 05.09.2021
5869 Clouds 27 1010 79 10000 0.8 26 15:40 05.09.2021
5870 Clouds 27 1009 78 10000 0.75 359 14:37 05.09.2021
5871 Clouds 28 1008 76 10000 1.85 235 12:34 05.09.2021
5872 Rain 28 1007 78 10000 1.65 233 10:59 05.09.2021
5873 Clouds 28 1007 79 10000 1.65 233 10:34 05.09.2021
5874 Clouds 27 1008 81 10000 2.31 215 09:25 05.09.2021
5875 Clouds 27 1010 84 10000 2.4 200 08:22 05.09.2021
5876 Rain 26 1010 84 10000 2.24 203 03:19 05.09.2021
5877 Clouds 26 1008 83 10000 2.09 232 00:30 05.09.2021
5878 Clouds 26 1008 83 10000 2.3 235 23:43 04.09.2021
5879 Clouds 26 1008 84 10000 2.2 227 22:36 04.09.2021
5880 Rain 26 1007 84 10000 2.08 232 21:58 04.09.2021
5881 Clouds 27 1008 85 10000 2.72 236 19:53 04.09.2021
5882 Clouds 27 1009 84 10000 3.31 240 19:27 04.09.2021
5883 Rain 27 1009 83 10000 3.79 242 16:26 04.09.2021
5884 Rain 28 1007 78 10000 4.26 251 13:36 04.09.2021
5885 Rain 31 1006 64 10000 5.51 239 11:20 04.09.2021
5886 Clouds 32 1007 61 10000 5.57 234 09:26 04.09.2021
5887 Clouds 32 1009 58 10000 5.25 234 06:55 04.09.2021
5888 Clouds 27 1007 70 10000 1.51 248 00:27 04.09.2021
5889 Clouds 27 1007 69 10000 1.51 248 23:32 03.09.2021
5890 Clouds 27 1007 68 10000 1.57 258 22:39 03.09.2021
5891 Clouds 28 1007 68 10000 1.68 259 21:35 03.09.2021
5892 Clouds 28 1008 68 10000 1.82 256 20:43 03.09.2021
5893 Rain 28 1008 67 10000 2.48 250 19:55 03.09.2021
5894 Rain 28 1008 67 10000 2.74 245 19:19 03.09.2021
5895 Clouds 28 1009 66 10000 2.71 241 17:53 03.09.2021
5896 Clouds 28 1009 67 10000 3.47 238 16:37 03.09.2021
5897 Clouds 29 1007 70 10000 3.92 243 14:58 03.09.2021
5898 Clouds 30 1005 68 10000 5.09 235 12:24 03.09.2021
5899 Clouds 30 1005 66 10000 5.12 235 10:31 03.09.2021
5900 Clouds 30 1006 64 8132 4.59 237 08:59 03.09.2021
5901 Clouds 30 1006 65 9547 4.66 236 07:44 03.09.2021
5902 Rain 26 1007 82 10000 2.56 280 01:40 03.09.2021
5903 Rain 27 1006 81 10000 2.35 242 23:20 02.09.2021
5904 Rain 27 1006 82 10000 2.42 231 21:35 02.09.2021
5905 Rain 27 1007 79 10000 2.59 205 19:55 02.09.2021
5906 Rain 28 1008 82 10000 2.74 203 17:32 02.09.2021
5907 Rain 28 1007 75 9575 4.14 174 15:52 02.09.2021
5908 Clouds 29 1006 72 10000 4.43 188 13:57 02.09.2021
5909 Clouds 30 1005 69 10000 5.28 189 12:48 02.09.2021
5910 Clouds 31 1004 69 10000 5.08 189 11:35 02.09.2021
5911 Clouds 31 1004 71 10000 4.41 195 09:40 02.09.2021
5912 Rain 30 1006 69 10000 2.64 188 07:48 02.09.2021
5913 Rain 30 1008 71 10000 1.74 183 07:18 02.09.2021
5914 Rain 30 1008 71 10000 1.74 183 07:18 02.09.2021
5915 Clouds 26 1009 88 10000 0.76 349 02:54 02.09.2021
5916 Clouds 25 1008 89 10000 0.89 296 01:56 02.09.2021
5917 Clouds 25 1008 89 10000 0.93 272 01:25 02.09.2021
5918 Clouds 25 1007 88 10000 1.13 259 23:39 01.09.2021
5919 Rain 25 1007 88 10000 1.19 260 22:39 01.09.2021
5920 Rain 26 1008 88 10000 1.26 256 21:39 01.09.2021
5921 Rain 26 1009 88 10000 1.68 262 20:29 01.09.2021
5922 Rain 26 1009 87 10000 1.86 265 18:33 01.09.2021
5923 Rain 26 1009 86 10000 2.41 258 17:38 01.09.2021
5924 Rain 27 1009 86 10000 2.27 246 16:47 01.09.2021
5925 Rain 28 1008 81 10000 2.22 221 15:27 01.09.2021
5926 Rain 31 1005 69 10000 0.65 138 11:50 01.09.2021
5927 Clouds 32 1005 65 10000 0.92 83 10:59 01.09.2021
5928 Rain 31 1007 65 10000 1.55 45 08:46 01.09.2021
5929 Clouds 32 1008 64 10000 1.72 35 07:51 01.09.2021
5930 Rain 25 1008 88 10000 2 331 01:48 01.09.2021
5931 Clouds 25 1008 86 10000 2.17 321 22:33 31.08.2021
5932 Rain 25 1009 86 10000 1.61 348 21:22 31.08.2021
5933 Rain 25 1009 85 10000 0.31 42 19:45 31.08.2021
5934 Rain 25 1010 84 10000 0.88 334 18:28 31.08.2021
5935 Rain 26 1010 82 10000 0.88 334 17:36 31.08.2021
5936 Rain 28 1010 76 10000 1.41 331 16:52 31.08.2021
5937 Rain 29 1009 78 10000 1.94 324 16:24 31.08.2021
5938 Clouds 30 1007 73 10000 1.75 292 12:57 31.08.2021
5939 Clouds 30 1006 72 10000 0.86 243 11:27 31.08.2021
5940 Clouds 29 1006 74 10000 0.86 243 10:52 31.08.2021
5941 Rain 30 1007 65 10000 0.58 264 09:44 31.08.2021
5942 Rain 31 1007 67 10000 0.37 166 08:38 31.08.2021
5943 Clouds 30 1010 75 10000 1.97 189 05:58 31.08.2021
5944 Rain 27 1009 85 10000 0.7 163 01:36 31.08.2021
5945 Rain 28 1008 82 10000 1.59 195 23:35 30.08.2021
5946 Clouds 28 1008 80 10000 1.87 192 21:43 30.08.2021
5947 Clouds 28 1008 80 10000 2.26 195 20:42 30.08.2021
5948 Clouds 28 1008 80 10000 2.33 196 20:18 30.08.2021
5949 Clouds 29 1009 79 10000 2.76 182 19:29 30.08.2021
5950 Clouds 29 1009 76 10000 3.17 159 18:29 30.08.2021
5951 Rain 29 1009 74 10000 3.17 159 17:44 30.08.2021
5952 Rain 29 1008 75 10000 2.41 164 16:19 30.08.2021
5953 Rain 29 1008 76 10000 2.63 171 14:51 30.08.2021
5954 Rain 30 1006 71 10000 3.51 172 13:27 30.08.2021
5955 Rain 31 1005 68 10000 3.3 177 11:57 30.08.2021
5956 Clouds 32 1007 62 10000 1.01 221 08:27 30.08.2021
5957 Clouds 28 1007 82 10000 3.32 251 22:20 29.08.2021
5958 Clouds 28 1007 79 10000 3.32 251 21:31 29.08.2021
5959 Clouds 28 1008 76 10000 1.19 163 19:33 29.08.2021
5960 Clouds 28 1009 76 10000 2.12 166 18:30 29.08.2021
5961 Clouds 28 1009 76 10000 3.14 171 16:33 29.08.2021
5962 Clouds 28 1007 75 10000 3.26 178 15:25 29.08.2021
5963 Clouds 29 1007 72 10000 3.73 176 13:57 29.08.2021
5964 Clouds 30 1006 69 10000 4.64 175 12:58 29.08.2021
5965 Clouds 30 1005 67 10000 4.84 169 12:21 29.08.2021
5966 Clouds 31 1005 65 10000 4.84 169 11:41 29.08.2021
5967 Clouds 31 1005 62 10000 4.42 166 10:49 29.08.2021
5968 Clouds 31 1005 62 10000 4.42 166 10:30 29.08.2021
5969 Clouds 31 1005 62 10000 3.59 165 09:44 29.08.2021
5970 Clouds 27 1009 83 10000 2.49 135 04:39 29.08.2021
5971 Rain 24 1006 90 10000 2 191 22:58 28.08.2021
5972 Rain 25 1006 91 10000 3.38 208 20:34 28.08.2021
5973 Rain 25 1007 89 10000 1.84 172 19:30 28.08.2021
5974 Rain 25 1008 87 10000 3.11 145 18:26 28.08.2021
5975 Rain 25 1008 86 10000 3.11 145 17:46 28.08.2021
5976 Rain 26 1008 84 10000 3.85 150 16:56 28.08.2021
5977 Rain 26 1007 82 10000 4.3 154 15:20 28.08.2021
5978 Clouds 27 1006 83 10000 4.06 163 13:59 28.08.2021
5979 Rain 27 1006 83 10000 4.06 163 13:40 28.08.2021
5980 Clouds 28 1005 82 10000 3.55 175 12:34 28.08.2021
5981 Clouds 27 1004 84 10000 3.12 190 11:34 28.08.2021
5982 Rain 26 1005 58 10000 4.2 204 09:48 28.08.2021
5983 Rain 25 1006 61 10000 4.39 220 07:56 28.08.2021
5984 Clouds 25 1006 90 10000 1.68 247 23:49 27.08.2021
5985 Rain 25 1006 88 10000 2.4 223 21:29 27.08.2021
5986 Rain 25 1006 88 10000 2.4 223 20:52 27.08.2021
5987 Rain 25 1007 88 10000 2.55 223 19:34 27.08.2021
5988 Rain 26 1008 87 9674 2.76 213 18:39 27.08.2021
5989 Rain 26 1008 87 10000 3.05 201 17:54 27.08.2021
5990 Clouds 27 1008 86 10000 3.65 193 16:35 27.08.2021
5991 Rain 27 1007 84 9093 4.65 187 14:44 27.08.2021
5992 Rain 27 1006 82 10000 4.26 202 13:30 27.08.2021
5993 Rain 27 1005 87 10000 6.36 201 11:58 27.08.2021
5994 Rain 26 1005 61 10000 5.91 200 10:50 27.08.2021
5995 Rain 26 1005 63 10000 5.37 199 10:23 27.08.2021
5996 Rain 24 1006 66 10000 4.94 200 08:57 27.08.2021
5997 Rain 27 1006 83 10000 4.94 200 08:35 27.08.2021
5998 Clouds 28 1008 80 8178 3.3 201 05:35 27.08.2021
5999 Clouds 25 1006 88 10000 0.81 339 00:40 27.08.2021
6000 Clouds 25 1006 87 10000 0.93 327 00:18 27.08.2021
6001 Rain 25 1005 86 10000 1 297 22:25 26.08.2021
6002 Rain 25 1005 86 10000 1 297 21:36 26.08.2021
6003 Clouds 27 1007 83 10000 1.64 309 19:30 26.08.2021
6004 Clouds 27 1007 83 10000 1.71 255 17:50 26.08.2021
6005 Clouds 27 1007 82 10000 2.45 244 17:25 26.08.2021
6006 Clouds 27 1007 81 10000 2.5 239 16:26 26.08.2021
6007 Rain 28 1005 80 10000 4.12 187 14:20 26.08.2021
6008 Rain 29 1004 76 10000 4.61 188 13:20 26.08.2021
6009 Rain 29 1004 71 10000 4.61 188 12:32 26.08.2021
6010 Rain 30 1004 69 10000 4.95 197 11:22 26.08.2021
6011 Clouds 30 1005 72 10000 4.71 198 08:35 26.08.2021
6012 Clouds 29 1006 78 10000 4.78 202 07:52 26.08.2021
6013 Rain 27 1005 82 10000 1.41 193 22:56 25.08.2021
6014 Rain 27 1005 83 10000 1.41 193 22:36 25.08.2021
6015 Rain 27 1005 82 10000 1.54 250 21:55 25.08.2021
6016 Rain 27 1006 84 10000 1.64 266 20:55 25.08.2021
6017 Rain 27 1006 83 10000 1.9 273 20:29 25.08.2021
6018 Rain 27 1007 83 10000 2.34 282 18:46 25.08.2021
6019 Rain 27 1008 82 8534 3.14 299 17:51 25.08.2021
6020 Rain 29 1006 69 3892 2.58 327 15:51 25.08.2021
6021 Rain 29 1005 67 4916 0.99 291 15:24 25.08.2021
6022 Rain 29 1005 67 4916 0.99 291 14:43 25.08.2021
6023 Rain 30 1004 72 10000 3.74 175 13:31 25.08.2021
6024 Rain 30 1004 72 10000 3.74 175 13:31 25.08.2021
6025 Clouds 33 1003 62 10000 4.9 185 11:34 25.08.2021
6026 Clouds 33 1002 61 10000 4.31 180 10:56 25.08.2021
6027 Clouds 33 1003 60 10000 4.41 185 09:59 25.08.2021
6028 Clouds 33 1003 60 10000 4.41 185 09:59 25.08.2021
6029 Clouds 33 1003 59 10000 4.41 185 09:30 25.08.2021
6030 Clouds 34 1003 55 10000 4.56 188 08:33 25.08.2021
6031 Clouds 32 1007 64 10000 3.08 226 05:55 25.08.2021
6032 Clouds 27 1006 80 10000 1.41 275 00:54 25.08.2021
6033 Clouds 27 1005 79 10000 1.96 255 22:51 24.08.2021
6034 Rain 28 1005 77 10000 2.62 255 20:48 24.08.2021
6035 Rain 28 1006 78 10000 2.35 244 19:53 24.08.2021
6036 Rain 28 1007 77 10000 2.69 224 18:51 24.08.2021
6037 Clouds 28 1007 76 10000 3.59 216 17:50 24.08.2021
6038 Rain 28 1007 77 10000 4.3 214 17:20 24.08.2021
6039 Clouds 30 1005 66 10000 4.22 202 14:34 24.08.2021
6040 Clouds 32 1003 67 10000 5.44 185 13:29 24.08.2021
6041 Clouds 33 1003 64 10000 5.44 185 12:36 24.08.2021
6042 Clouds 34 1002 59 10000 3.22 201 11:19 24.08.2021
6043 Clouds 34 1002 58 10000 3.22 201 10:35 24.08.2021
6044 Clouds 34 1004 53 10000 2.79 229 09:19 24.08.2021
6045 Clouds 34 1007 54 10000 3.62 257 06:57 24.08.2021
6046 Clouds 32 1007 59 10000 3.82 259 05:30 24.08.2021
6047 Rain 28 1006 69 10000 1.67 265 00:52 24.08.2021
6048 Rain 28 1005 69 10000 2.26 280 23:26 23.08.2021
6049 Clouds 29 1005 69 10000 2.26 280 22:41 23.08.2021
6050 Clouds 29 1006 67 10000 2.2 251 20:50 23.08.2021
6051 Clouds 29 1007 73 10000 2.69 214 19:27 23.08.2021
6052 Clouds 30 1008 72 10000 3.14 200 16:42 23.08.2021
6053 Clouds 30 1006 70 10000 4.29 188 15:21 23.08.2021
6054 Clouds 32 1004 63 10000 5.51 183 13:26 23.08.2021
6055 Clouds 33 1004 61 10000 4.93 179 12:29 23.08.2021
6056 Clouds 34 1004 57 10000 5.32 184 10:44 23.08.2021
6057 Clouds 34 1004 54 10000 4.41 200 09:51 23.08.2021
6058 Clouds 34 1005 54 10000 3.45 238 08:34 23.08.2021
6059 Clouds 33 1007 58 10000 3.26 253 06:51 23.08.2021
6060 Clouds 32 1007 60 10000 3.26 253 06:33 23.08.2021
6061 Clouds 28 1007 73 10000 1.92 283 00:55 23.08.2021
6062 Clouds 28 1006 74 10000 1.77 268 22:46 22.08.2021
6063 Clouds 28 1006 75 10000 1.35 254 22:27 22.08.2021
6064 Clouds 29 1007 74 10000 1.95 220 20:23 22.08.2021
6065 Clouds 29 1007 73 10000 2.1 199 19:46 22.08.2021
6066 Clouds 29 1008 70 10000 3.21 182 17:26 22.08.2021
6067 Clouds 30 1008 72 10000 3.56 180 15:32 22.08.2021
6068 Clouds 31 1007 69 10000 4.41 192 14:43 22.08.2021
6069 Clouds 31 1005 65 10000 5.56 174 13:21 22.08.2021
6070 Clouds 32 1005 65 10000 5.56 174 12:55 22.08.2021
6071 Clouds 32 1005 62 10000 4.88 162 12:26 22.08.2021
6072 Clouds 33 1005 58 10000 4.88 162 11:42 22.08.2021
6073 Clouds 34 1005 58 10000 5.07 167 10:31 22.08.2021
6074 Clouds 32 1007 61 10000 3.27 181 08:19 22.08.2021
6075 Clouds 26 1010 61 10000 2.54 195 04:57 22.08.2021
6076 Clouds 28 1008 80 10000 1.73 174 23:58 21.08.2021
6077 Clouds 28 1008 79 10000 2.28 189 22:34 21.08.2021
6078 Rain 29 1008 77 10000 3.07 183 20:35 21.08.2021
6079 Clouds 29 1009 75 10000 3.89 175 18:39 21.08.2021
6080 Clouds 29 1010 74 10000 3.93 178 17:59 21.08.2021
6081 Rain 29 1010 72 10000 3.88 191 16:54 21.08.2021
6082 Rain 29 1009 71 10000 3.93 195 16:25 21.08.2021
6083 Rain 30 1009 71 10000 3.93 195 15:36 21.08.2021
6084 Clouds 30 1008 70 10000 3.52 178 14:38 21.08.2021
6085 Clouds 31 1006 67 10000 3.91 159 13:29 21.08.2021
6086 Clouds 31 1006 66 10000 3.25 158 12:24 21.08.2021
6087 Clouds 31 1008 69 10000 3.14 179 09:28 21.08.2021
6088 Rain 27 1010 82 10000 3.67 194 05:32 21.08.2021
6089 Clouds 29 1008 79 10000 3.89 187 22:43 20.08.2021
6090 Clouds 29 1008 79 10000 3.84 185 21:41 20.08.2021
6091 Clouds 29 1010 78 10000 3.41 176 17:47 20.08.2021
6092 Rain 30 1009 76 10000 3.19 154 15:57 20.08.2021
6093 Rain 30 1007 76 10000 3.54 170 13:36 20.08.2021
6094 Clouds 34 1005 54 10000 3.99 161 11:37 20.08.2021
6095 Rain 33 1005 66 10000 4.8 162 10:42 20.08.2021
6096 Rain 34 1005 56 10000 3.82 162 09:36 20.08.2021
6097 Clouds 34 1006 58 10000 2.1 165 08:41 20.08.2021
6098 Clouds 32 1009 61 10000 2.09 187 06:59 20.08.2021
6099 Rain 30 1010 70 10000 2.19 208 04:22 20.08.2021
6100 Clouds 29 1007 76 10000 2.18 185 00:19 20.08.2021
6101 Clouds 29 1007 76 10000 2.18 185 00:19 20.08.2021
6102 Clouds 29 1007 74 10000 2.82 183 22:57 19.08.2021
6103 Clouds 29 1007 74 10000 2.82 183 22:31 19.08.2021
6104 Clouds 30 1007 73 10000 3.71 184 20:31 19.08.2021
6105 Clouds 30 1007 72 10000 4.18 180 19:31 19.08.2021
6106 Clouds 30 1008 69 10000 4.25 181 17:19 19.08.2021
6107 Clouds 31 1007 67 10000 4.18 175 15:52 19.08.2021
6108 Clouds 32 1005 59 10000 4.57 179 13:29 19.08.2021
6109 Clouds 33 1005 58 10000 4.57 179 12:33 19.08.2021
6110 Clouds 33 1004 55 10000 2.76 199 11:23 19.08.2021
6111 Clouds 35 1005 51 10000 2.58 207 09:51 19.08.2021
6112 Clouds 36 1005 51 10000 2.58 207 09:32 19.08.2021
6113 Clouds 35 1006 46 10000 2.25 199 08:59 19.08.2021
6114 Clouds 34 1008 52 10000 1.99 262 06:32 19.08.2021
6115 Clouds 29 1008 64 10000 2.16 264 02:22 19.08.2021
6116 Clouds 29 1008 68 10000 2.37 262 01:42 19.08.2021
6117 Clouds 29 1006 65 10000 2.11 236 22:42 18.08.2021
6118 Clouds 30 1006 65 10000 2.32 214 21:39 18.08.2021
6119 Clouds 30 1007 69 10000 2.91 194 20:27 18.08.2021
6120 Clouds 30 1007 69 10000 2.51 199 19:31 18.08.2021
6121 Clouds 30 1008 69 10000 2.84 192 18:46 18.08.2021
6122 Clouds 31 1008 68 10000 3.33 201 17:29 18.08.2021
6123 Clouds 31 1007 67 10000 4.05 205 15:46 18.08.2021
6124 Clouds 31 1006 67 10000 3.82 185 15:22 18.08.2021
6125 Clouds 32 1005 63 10000 2.48 212 13:29 18.08.2021
6126 Clouds 33 1005 61 10000 2.48 212 12:41 18.08.2021
6127 Clouds 33 1005 61 10000 2.3 234 12:23 18.08.2021
6128 Clouds 35 1006 51 10000 2.41 261 09:25 18.08.2021
6129 Clouds 31 1010 60 10000 2.49 284 04:30 18.08.2021
6130 Clouds 28 1009 71 10000 1.85 289 00:41 18.08.2021
6131 Clouds 29 1009 71 10000 2.31 235 22:28 17.08.2021
6132 Clouds 29 1009 69 10000 2.2 208 21:22 17.08.2021
6133 Clouds 29 1009 67 10000 2.2 208 20:43 17.08.2021
6134 Rain 30 1010 67 10000 2.68 204 18:56 17.08.2021
6135 Clouds 30 1010 68 10000 3.18 196 17:27 17.08.2021
6136 Rain 31 1010 67 10000 3.18 196 16:31 17.08.2021
6137 Clouds 31 1010 64 10000 3.15 192 15:35 17.08.2021
6138 Clouds 31 1008 65 10000 2.68 169 13:57 17.08.2021
6139 Clouds 33 1007 60 10000 1.98 198 11:36 17.08.2021
6140 Clouds 34 1009 53 10000 1.23 237 09:20 17.08.2021
6141 Clouds 33 1010 56 10000 2.32 220 07:44 17.08.2021
6142 Clouds 27 1011 76 10000 1.82 139 23:30 16.08.2021
6143 Clouds 27 1011 74 10000 1.82 139 22:54 16.08.2021
6144 Clouds 27 1011 74 10000 1.82 139 22:36 16.08.2021
6145 Clouds 27 1010 73 10000 2.03 161 21:52 16.08.2021
6146 Clouds 27 1011 71 10000 2.12 179 20:53 16.08.2021
6147 Clouds 28 1011 70 10000 1.86 189 19:43 16.08.2021
6148 Clouds 28 1012 70 10000 1.96 176 19:22 16.08.2021
6149 Clouds 28 1013 67 10000 1.86 180 18:21 16.08.2021
6150 Clouds 28 1013 67 10000 1.86 180 17:51 16.08.2021
6151 Clouds 29 1011 66 10000 2.17 179 15:29 16.08.2021
6152 Clouds 29 1011 68 10000 2.23 173 14:28 16.08.2021
6153 Clouds 31 1010 67 10000 3.27 177 13:24 16.08.2021
6154 Clouds 31 1010 66 10000 4.06 172 12:29 16.08.2021
6155 Clouds 32 1010 61 10000 4.5 178 10:36 16.08.2021
6156 Clouds 32 1010 62 10000 3.86 185 08:43 16.08.2021
6157 Clouds 32 1011 63 10000 4.9 179 07:30 16.08.2021
6158 Clouds 31 1012 65 10000 3.49 177 06:22 16.08.2021
6159 Clouds 27 1011 79 10000 1.99 181 01:44 16.08.2021
6160 Clouds 28 1010 74 10000 3.84 208 21:37 15.08.2021
6161 Clouds 28 1011 74 10000 4.41 190 20:27 15.08.2021
6162 Clouds 28 1012 73 10000 3.67 173 18:42 15.08.2021
6163 Clouds 28 1012 73 10000 4.26 177 17:50 15.08.2021
6164 Clouds 28 1011 73 7925 4.15 183 17:22 15.08.2021
6165 Rain 29 1011 92 10000 3.64 169 15:49 15.08.2021
6166 Clouds 29 1010 91 10000 4.64 171 14:42 15.08.2021
6167 Rain 29 1009 90 10000 4.28 175 13:35 15.08.2021
6168 Rain 31 1008 90 10000 4.73 172 10:50 15.08.2021
6169 Rain 31 1008 87 7414 3.43 183 08:35 15.08.2021
6170 Rain 27 1007 81 10000 1.03 291 01:22 15.08.2021
6171 Rain 27 1007 82 10000 1.03 291 00:33 15.08.2021
6172 Rain 27 1006 85 10000 1.84 252 21:38 14.08.2021
6173 Rain 27 1007 86 10000 2.34 225 20:28 14.08.2021
6174 Rain 27 1008 86 10000 2.09 224 19:33 14.08.2021
6175 Rain 27 1008 86 10000 2.09 224 18:33 14.08.2021
6176 Rain 27 1008 85 10000 2.39 225 16:50 14.08.2021
6177 Rain 27 1008 84 10000 3.36 230 15:36 14.08.2021
6178 Rain 28 1006 78 10000 3.09 232 14:22 14.08.2021
6179 Rain 31 1005 86 10000 2.03 183 11:32 14.08.2021
6180 Rain 30 1005 69 10000 2.34 226 09:53 14.08.2021
6181 Clouds 30 1008 72 10000 3.06 213 05:26 14.08.2021
6182 Rain 27 1006 85 10000 0.62 272 23:51 13.08.2021
6183 Clouds 28 1006 82 10000 1.71 275 22:18 13.08.2021
6184 Clouds 28 1007 81 10000 2.68 244 20:22 13.08.2021
6185 Clouds 27 1007 82 10000 3.28 234 18:46 13.08.2021
6186 Clouds 26 1008 68 10000 3.92 228 17:22 13.08.2021
6187 Rain 28 1006 80 10000 4.45 227 15:55 13.08.2021
6188 Clouds 33 1005 61 10000 5.21 180 11:56 13.08.2021
6189 Clouds 33 1005 59 10000 5.45 182 11:18 13.08.2021
6190 Clouds 34 1006 49 10000 4.64 192 08:40 13.08.2021
6191 Clouds 34 1007 50 10000 4.19 197 08:20 13.08.2021
6192 Clouds 33 1008 53 10000 4.08 204 06:40 13.08.2021
6193 Clouds 28 1008 74 10000 2.51 210 02:27 13.08.2021
6194 Clouds 27 1007 74 10000 2.69 218 21:51 12.08.2021
6195 Clouds 28 1008 73 10000 2.88 228 20:42 12.08.2021
6196 Clouds 28 1009 72 10000 2.89 233 19:50 12.08.2021
6197 Clouds 28 1009 71 10000 2.97 239 18:35 12.08.2021
6198 Rain 27 1009 73 10000 2.95 177 16:51 12.08.2021
6199 Rain 28 1009 71 10000 3.61 169 15:51 12.08.2021
6200 Rain 30 1007 70 10000 4.46 174 13:52 12.08.2021
6201 Clouds 33 1006 67 10000 5.06 161 11:39 12.08.2021
6202 Clouds 32 1007 65 10000 3.49 160 09:35 12.08.2021
6203 Clouds 32 1008 67 10000 4.38 177 07:51 12.08.2021
6204 Rain 26 1008 85 10000 2.5 196 23:22 11.08.2021
6205 Rain 26 1008 84 10000 3.43 187 21:53 11.08.2021
6206 Rain 27 1009 84 10000 4.13 168 19:25 11.08.2021
6207 Rain 27 1009 83 10000 4.73 161 18:27 11.08.2021
6208 Clouds 29 1008 79 10000 4.81 168 15:37 11.08.2021
6209 Rain 29 1007 78 10000 4.79 166 15:19 11.08.2021
6210 Rain 28 1006 77 10000 5.11 169 13:50 11.08.2021
6211 Rain 31 1005 65 10000 6.02 171 12:29 11.08.2021
6212 Rain 32 1005 66 10000 6.02 171 11:45 11.08.2021
6213 Rain 32 1005 65 10000 5.43 166 11:21 11.08.2021
6214 Clouds 34 1005 61 10000 3.86 161 08:54 11.08.2021
6215 Clouds 33 1007 62 10000 3.32 188 06:58 11.08.2021
6216 Clouds 30 1005 73 10000 2.2 222 22:46 10.08.2021
6217 Clouds 30 1005 74 10000 2.24 201 22:20 10.08.2021
6218 Rain 30 1005 77 10000 2.72 192 20:55 10.08.2021
6219 Clouds 30 1006 76 10000 3.83 177 19:27 10.08.2021
6220 Clouds 31 1006 75 10000 4.48 174 18:18 10.08.2021
6221 Clouds 31 1005 70 10000 4.98 184 15:37 10.08.2021
6222 Clouds 32 1004 69 10000 5.03 192 14:40 10.08.2021
6223 Clouds 35 1002 58 10000 5.07 196 10:58 10.08.2021
6224 Clouds 35 1002 57 10000 3.41 218 09:37 10.08.2021
6225 Clouds 34 1006 56 10000 4.04 266 06:21 10.08.2021
6226 Clouds 29 1005 68 10000 2.57 250 00:55 10.08.2021
6227 Clouds 29 1005 68 10000 2.7 246 23:37 09.08.2021
6228 Clouds 29 1005 70 10000 2.95 250 21:54 09.08.2021
6229 Clouds 29 1005 70 10000 3.15 247 21:29 09.08.2021
6230 Clouds 30 1006 67 10000 3.2 245 18:54 09.08.2021
6231 Clouds 31 1007 67 10000 3.91 223 16:57 09.08.2021
6232 Clouds 32 1005 68 10000 4.58 201 14:42 09.08.2021
6233 Clouds 33 1003 64 10000 4.96 205 13:32 09.08.2021
6234 Clouds 35 1003 58 10000 5.1 192 11:54 09.08.2021
6235 Clouds 35 1004 57 10000 3.62 242 09:45 09.08.2021
6236 Clouds 35 1006 53 10000 4.1 271 08:25 09.08.2021
6237 Clouds 29 1007 70 10000 2.82 244 21:33 08.08.2021
6238 Clouds 29 1007 70 10000 2.73 253 20:55 08.08.2021
6239 Clouds 30 1008 69 10000 2.85 227 18:23 08.08.2021
6240 Clouds 30 1008 71 10000 3.2 214 16:39 08.08.2021
6241 Clouds 30 1007 69 10000 3.79 210 15:30 08.08.2021
6242 Clouds 33 1006 64 10000 5 197 12:48 08.08.2021
6243 Clouds 34 1005 60 10000 4.94 187 10:37 08.08.2021
6244 Clouds 34 1009 56 10000 4.31 268 06:42 08.08.2021
6245 Clouds 30 1010 69 10000 3.9 259 03:41 08.08.2021
6246 Clouds 28 1008 77 10000 3.12 256 00:26 08.08.2021
6247 Clouds 28 1007 76 10000 3.74 255 22:18 07.08.2021
6248 Clouds 28 1007 77 10000 3.74 255 21:36 07.08.2021
6249 Clouds 28 1009 80 10000 3.29 250 18:29 07.08.2021
6250 Clouds 28 1009 79 10000 3.44 248 16:52 07.08.2021
6251 Rain 28 1008 76 10000 3.63 250 15:37 07.08.2021
6252 Clouds 31 1007 69 10000 3.18 247 13:54 07.08.2021
6253 Clouds 33 1006 60 10000 3.96 196 11:41 07.08.2021
6254 Clouds 34 1006 57 10000 3.6 200 09:35 07.08.2021
6255 Clouds 31 1010 68 10000 3.29 253 04:56 07.08.2021
6256 Clouds 29 1008 71 10000 3.04 228 23:21 06.08.2021
6257 Clouds 28 1008 70 10000 3.1 236 20:39 06.08.2021
6258 Clouds 29 1008 70 10000 3.33 229 20:18 06.08.2021
6259 Clouds 29 1008 69 10000 3.33 229 19:45 06.08.2021
6260 Clouds 29 1009 65 10000 3.51 239 17:51 06.08.2021
6261 Clouds 30 1006 68 10000 4.7 248 13:33 06.08.2021
6262 Clouds 33 1006 61 10000 5.7 252 09:57 06.08.2021
6263 Clouds 33 1006 60 10000 4.58 232 08:38 06.08.2021
6264 Clouds 27 1007 73 10000 2.88 225 00:35 06.08.2021
6265 Clouds 28 1007 76 10000 3.09 217 23:18 05.08.2021
6266 Clouds 28 1007 74 10000 3.34 230 20:48 05.08.2021
6267 Clouds 28 1008 74 10000 3.31 224 19:49 05.08.2021
6268 Rain 28 1009 74 10000 3.36 236 18:25 05.08.2021
6269 Rain 28 1008 75 10000 4.5 239 15:43 05.08.2021
6270 Clouds 30 1006 71 10000 3.89 229 12:48 05.08.2021
6271 Clouds 33 1006 67 10000 3.65 215 08:52 05.08.2021
6272 Clouds 32 1007 67 10000 3.94 215 07:38 05.08.2021
6273 Clouds 27 1007 76 10000 3.32 233 00:55 05.08.2021
6274 Clouds 28 1006 74 10000 4.1 238 22:21 04.08.2021
6275 Clouds 28 1007 76 10000 4.23 238 21:26 04.08.2021
6276 Clouds 29 1008 72 10000 3.55 237 19:24 04.08.2021
6277 Clouds 29 1009 74 10000 4.75 239 16:59 04.08.2021
6278 Clouds 29 1008 78 10000 5.03 239 14:45 04.08.2021
6279 Clouds 30 1006 75 10000 5.99 237 12:21 04.08.2021
6280 Clouds 32 1008 61 10000 4.2 227 06:23 04.08.2021
6281 Clouds 27 1007 70 10000 2.73 237 20:55 03.08.2021
6282 Clouds 27 1007 69 10000 3.05 234 20:25 03.08.2021
6283 Clouds 27 1009 66 10000 2.99 241 18:37 03.08.2021
6284 Clouds 28 1009 64 10000 2.69 258 16:47 03.08.2021
6285 Clouds 30 1007 61 10000 4.22 278 13:31 03.08.2021
6286 Clouds 31 1005 64 10000 6.35 251 10:40 03.08.2021
6287 Clouds 31 1007 62 10000 4.13 260 07:51 03.08.2021
6288 Rain 28 1008 71 10000 4.84 247 17:59 02.08.2021
6289 Rain 28 1008 71 10000 5.38 250 16:39 02.08.2021
6290 Rain 29 1007 66 10000 5.48 256 15:30 02.08.2021
6291 Clouds 32 1004 62 10000 4.31 247 11:59 02.08.2021
6292 Clouds 33 1004 61 10000 4.31 247 11:39 02.08.2021
6293 Clouds 33 1004 58 10000 3.36 217 09:49 02.08.2021
6294 Clouds 30 1008 63 10000 4.38 254 04:22 02.08.2021
6295 Clouds 29 1008 64 10000 5.14 254 18:20 01.08.2021
6296 Clouds 30 1007 61 10000 4.01 260 15:30 01.08.2021
6297 Clouds 32 1004 56 10000 3.16 268 11:38 01.08.2021
6298 Clouds 33 1005 55 10000 5.62 272 09:28 01.08.2021
6299 Clouds 30 1008 73 10000 4.96 261 03:48 01.08.2021
6300 Clouds 27 1006 74 10000 3.02 241 22:52 31.07.2021
6301 Clouds 27 1007 73 10000 3.38 242 20:53 31.07.2021
6302 Clouds 28 1009 72 10000 4.34 237 17:49 31.07.2021
6303 Clouds 29 1009 71 10000 4.41 243 16:36 31.07.2021
6304 Rain 30 1005 76 10000 4.71 244 12:38 31.07.2021
6305 Clouds 33 1006 63 10000 2.2 241 08:34 31.07.2021
6306 Clouds 33 1006 63 10000 2.2 241 08:34 31.07.2021
6307 Clouds 27 1007 82 10000 2.9 228 00:55 31.07.2021
6308 Clouds 27 1007 84 10000 4.06 243 20:30 30.07.2021
6309 Clouds 27 1009 84 10000 4.69 233 19:23 30.07.2021
6310 Clouds 33 1006 60 10000 4.72 255 07:50 30.07.2021
6311 Rain 29 1008 73 10000 4.67 239 16:53 29.07.2021
6312 Clouds 32 1008 64 10000 4.57 245 05:49 29.07.2021
6313 Clouds 30 1008 72 10000 3.93 240 04:29 29.07.2021
6314 Clouds 27 1006 83 10000 3.42 246 21:18 28.07.2021
6315 Clouds 28 1006 83 10000 4.48 245 17:20 28.07.2021
6316 Rain 31 1002 55 10000 2.81 203 11:25 28.07.2021
6317 Clouds 32 1006 63 10000 4.74 243 05:23 28.07.2021
6318 Clouds 28 1005 81 10000 2.93 237 21:46 27.07.2021
6319 Clouds 28 1005 81 10000 3.48 240 21:27 27.07.2021
6320 Clouds 29 1004 55 10000 5.19 235 14:52 27.07.2021
6321 Clouds 32 1003 62 10000 5.55 251 10:45 27.07.2021
6322 Clouds 32 1005 56 10000 5.75 245 07:38 27.07.2021
6323 Clouds 29 1007 75 10000 2.58 261 15:48 26.07.2021
6324 Clouds 29 1006 74 10000 2.87 266 14:24 26.07.2021
6325 Rain 29 1007 81 10000 1.97 270 04:51 26.07.2021
6326 Clouds 26 1007 75 10000 4.09 232 20:55 25.07.2021
6327 Rain 26 1009 76 10000 2.89 239 18:22 25.07.2021
6328 Rain 27 1008 81 10000 3.63 214 15:28 25.07.2021
6329 Rain 28 1006 81 10000 5.28 207 10:44 25.07.2021
6330 Clouds 30 1008 87 10000 4.44 223 08:18 25.07.2021
6331 Rain 26 1007 82 10000 3.12 216 20:24 24.07.2021
6332 Rain 26 1007 82 10000 3.12 216 19:55 24.07.2021
6333 Rain 28 1006 90 10000 4.18 247 13:38 24.07.2021
6334 Rain 28 1005 77 10000 3.97 236 21:47 23.07.2021
6335 Rain 28 1006 74 10000 0.51 352 14:36 23.07.2021
6336 Clouds 30 1005 67 10000 1.91 302 12:40 23.07.2021
6337 Clouds 28 1006 73 10000 4.27 243 22:58 22.07.2021
6338 Clouds 29 1007 63 10000 4.86 257 15:28 22.07.2021
6339 Clouds 32 1004 64 10000 4.66 243 11:21 22.07.2021
6340 Clouds 32 1005 59 10000 5.09 205 08:34 22.07.2021
6341 Clouds 32 1005 59 10000 5.09 205 08:34 22.07.2021
6342 Clouds 26 1007 83 10000 2.3 234 01:58 22.07.2021
6343 Clouds 29 1006 74 10000 3.11 223 21:43 21.07.2021
6344 Clouds 29 1006 74 10000 2.94 218 21:23 21.07.2021
6345 Clouds 32 1006 71 10000 3.29 210 11:54 21.07.2021
6346 Clouds 32 1006 68 10000 4.34 219 09:20 21.07.2021
6347 Clouds 30 1007 77 10000 3.64 221 06:43 21.07.2021
6348 Clouds 27 1006 74 10000 3.41 228 22:34 20.07.2021
6349 Clouds 29 1009 68 10000 4.08 233 16:37 20.07.2021
6350 Clouds 30 1007 59 10000 4.99 235 15:28 20.07.2021
6351 Clouds 31 1006 65 10000 4.7 236 12:55 20.07.2021
6352 Clouds 31 1006 62 10000 6.75 250 08:27 20.07.2021
6353 Rain 27 1008 78 10000 3.04 235 03:20 20.07.2021
6354 Clouds 27 1008 71 10000 4.44 243 19:21 19.07.2021
6355 Clouds 30 1006 61 10000 7.58 247 12:52 19.07.2021
6356 Clouds 29 1006 81 10000 5.81 246 07:39 19.07.2021
6357 Clouds 29 1007 63 10000 4.59 236 17:22 18.07.2021
6358 Clouds 31 1003 66 10000 7.46 239 10:53 18.07.2021
6359 Clouds 26 1006 85 10000 3.67 247 23:36 17.07.2021
6360 Clouds 26 1006 87 10000 3.44 235 22:18 17.07.2021
6361 Clouds 26 1006 87 10000 3.44 235 21:41 17.07.2021
6362 Rain 27 1008 83 10000 4.06 246 17:32 17.07.2021
6363 Rain 32 1004 63 10000 4.78 217 11:31 17.07.2021
6364 Clouds 31 1009 63 10000 2.87 231 04:48 17.07.2021
6365 Clouds 28 1010 71 10000 2.74 176 17:41 16.07.2021
6366 Clouds 31 1006 64 10000 2.72 184 12:21 16.07.2021
6367 Clouds 31 1010 69 10000 1.24 207 07:25 16.07.2021
6368 Clouds 26 1008 75 10000 1.98 267 20:39 15.07.2021
6369 Rain 27 1007 71 10000 3.36 175 13:51 15.07.2021
6370 Clouds 28 1006 85 10000 3.77 181 09:52 15.07.2021
6371 Clouds 26 1007 74 10000 2.88 266 00:31 15.07.2021
6372 Rain 27 1007 73 10000 2.67 143 16:55 14.07.2021
6373 Clouds 30 1004 67 10000 3.92 131 12:48 14.07.2021
6374 Rain 30 1007 72 10000 1.71 255 04:44 14.07.2021
6375 Clouds 27 1006 81 10000 2.68 186 20:47 13.07.2021
6376 Clouds 28 1007 80 10000 3.03 185 19:52 13.07.2021
6377 Clouds 28 1007 80 10000 3.26 185 19:24 13.07.2021
6378 Rain 28 1007 79 10000 3.26 185 18:44 13.07.2021
6379 Rain 28 1008 67 10000 3.35 180 18:24 13.07.2021
6380 Rain 28 1007 64 10000 3.14 169 15:31 13.07.2021
6381 Clouds 34 1006 55 10000 2.04 181 09:48 13.07.2021
6382 Clouds 27 1007 74 10000 0.83 151 00:19 13.07.2021
6383 Clouds 28 1009 72 10000 2.06 165 17:29 12.07.2021
6384 Clear 29 1008 68 10000 2.93 157 15:21 12.07.2021
6385 Clouds 32 1008 59 10000 3.75 179 07:58 12.07.2021
6386 Clouds 27 1007 81 7538 3.5 178 21:58 11.07.2021
6387 Clouds 28 1008 80 10000 3.61 150 15:50 11.07.2021
6388 Clouds 26 1007 83 10000 4.17 165 02:31 11.07.2021
6389 Rain 26 1008 86 10000 4.68 172 17:38 10.07.2021
6390 Clouds 30 1004 74 10000 1.97 298 07:57 10.07.2021
6391 Clouds 29 1005 74 10000 2.85 293 07:22 10.07.2021
6392 Rain 26 1005 85 8116 1.6 277 20:42 09.07.2021
6393 Rain 28 1005 79 10000 3.03 173 14:52 09.07.2021
6394 Rain 29 1003 75 5555 3.92 139 12:55 09.07.2021
6395 Clouds 26 1005 84 10000 1.29 165 00:48 09.07.2021
6396 Rain 27 1005 76 10000 1.02 173 22:52 08.07.2021
6397 Rain 27 1006 76 10000 1.61 277 20:20 08.07.2021
6398 Rain 27 1007 75 10000 3.51 275 18:23 08.07.2021
6399 Clouds 29 1004 67 10000 5.08 213 13:50 08.07.2021
6400 Clouds 29 1003 67 10000 5.24 201 13:30 08.07.2021
6401 Clouds 29 1003 67 10000 5.24 201 13:30 08.07.2021
6402 Clouds 31 1003 64 10000 5.24 201 12:34 08.07.2021
6403 Clouds 32 1004 59 10000 5.31 198 11:19 08.07.2021
6404 Rain 32 1006 59 10000 3.56 266 06:33 08.07.2021
6405 Clouds 29 1007 64 10000 3.15 260 03:50 08.07.2021
6406 Rain 27 1005 77 10000 2.83 238 22:59 07.07.2021
6407 Rain 27 1005 78 10000 2.73 239 22:19 07.07.2021
6408 Rain 27 1005 78 10000 2.73 239 21:45 07.07.2021
6409 Rain 27 1005 78 10000 2.71 242 21:24 07.07.2021
6410 Rain 27 1006 76 10000 3.26 229 19:58 07.07.2021
6411 Rain 27 1007 75 10000 2.68 232 19:29 07.07.2021
6412 Rain 28 1007 76 10000 3.18 241 17:48 07.07.2021
6413 Rain 28 1006 73 10000 5.85 237 15:49 07.07.2021
6414 Rain 28 1005 69 10000 2.93 219 14:33 07.07.2021
6415 Rain 34 1003 57 10000 4.64 206 10:23 07.07.2021
6416 Rain 33 1005 59 10000 3.24 270 06:53 07.07.2021
6417 Clouds 32 1006 61 10000 3.3 267 05:49 07.07.2021
6418 Clouds 28 1007 71 10000 2.59 241 02:52 07.07.2021
6419 Clouds 28 1006 79 10000 2.7 214 19:31 06.07.2021
6420 Clouds 28 1006 80 10000 3.11 231 18:54 06.07.2021
6421 Clouds 28 1006 81 10000 3.11 231 18:33 06.07.2021
6422 Rain 28 1006 79 10000 3.86 225 17:29 06.07.2021
6423 Rain 28 1004 72 10000 2.64 253 13:33 06.07.2021
6424 Rain 35 1002 50 10000 4.03 193 09:43 06.07.2021
6425 Clouds 34 1003 51 10000 4 209 08:35 06.07.2021
6426 Clouds 34 1003 51 10000 3.07 229 08:35 06.07.2021
6427 Clouds 34 1003 52 10000 3.07 229 07:39 06.07.2021
6428 Clouds 29 1005 63 10000 1.6 267 01:54 06.07.2021
6429 Clouds 30 1003 73 10000 2.31 264 23:57 05.07.2021
6430 Clouds 30 1003 72 10000 2.55 254 21:58 05.07.2021
6431 Rain 31 1005 62 10000 4.5 189 16:54 05.07.2021
6432 Clouds 37 1003 46 10000 2.94 249 08:57 05.07.2021
6433 Clouds 34 1006 52 10000 3.57 265 05:48 05.07.2021
6434 Clouds 32 1007 56 10000 3.77 275 04:41 05.07.2021
6435 Clouds 32 1007 56 10000 3.77 275 04:41 05.07.2021
6436 Clouds 30 1005 62 10000 2.85 286 23:21 04.07.2021
6437 Clouds 31 1005 61 10000 3.34 246 20:42 04.07.2021
6438 Clouds 31 1006 63 10000 3.95 203 17:35 04.07.2021
6439 Clouds 34 1003 55 10000 6.56 198 13:51 04.07.2021
6440 Clouds 37 1003 44 10000 3.27 231 10:19 04.07.2021
6441 Clouds 29 1007 65 10000 1.87 291 01:33 04.07.2021
6442 Clouds 30 1006 71 10000 2.33 234 23:19 03.07.2021
6443 Clouds 31 1007 68 10000 2.83 239 18:33 03.07.2021
6444 Clouds 35 1003 57 10000 5.48 189 12:39 03.07.2021
6445 Clouds 36 1004 48 10000 3.48 204 10:59 03.07.2021
6446 Clouds 35 1005 50 10000 2.87 251 09:27 03.07.2021
6447 Clouds 35 1005 50 10000 2.54 220 08:45 03.07.2021
6448 Clouds 29 1008 60 10000 2.53 286 21:31 02.07.2021
6449 Clouds 35 1007 56 10000 3.49 198 08:28 02.07.2021
6450 Clouds 34 1008 58 10000 3.29 215 07:28 02.07.2021
6451 Clouds 26 1008 80 10000 2.78 279 23:45 01.07.2021
6452 Clouds 26 1008 80 10000 2.83 266 22:30 01.07.2021
6453 Clouds 26 1008 80 10000 2.83 266 22:30 01.07.2021
6454 Clouds 26 1008 80 10000 2.83 266 22:30 01.07.2021
6455 Rain 26 1008 79 10000 2.51 260 21:34 01.07.2021
6456 Rain 26 1008 78 10000 1.81 223 19:38 01.07.2021
6457 Rain 26 1009 77 10000 1.9 186 19:18 01.07.2021
6458 Rain 26 1009 77 10000 1.9 186 18:46 01.07.2021
6459 Rain 31 1009 67 10000 2.55 178 17:33 01.07.2021
6460 Rain 31 1008 66 10000 3.07 187 15:51 01.07.2021
6461 Clouds 31 1007 65 10000 2.97 196 15:22 01.07.2021
6462 Clouds 34 1004 49 10000 4.08 167 11:48 01.07.2021
6463 Clouds 35 1006 51 10000 4.7 194 08:53 01.07.2021
6464 Clouds 29 1006 67 10000 2.26 282 23:23 30.06.2021
6465 Clouds 29 1007 65 10000 2.32 277 22:21 30.06.2021
6466 Rain 29 1007 65 10000 2.32 277 21:56 30.06.2021
6467 Clouds 29 1007 64 10000 2.12 267 20:59 30.06.2021
6468 Rain 29 1008 63 10000 1.77 264 20:20 30.06.2021
6469 Clouds 29 1008 72 10000 1.82 229 16:42 30.06.2021
6470 Clouds 31 1006 81 10000 3.84 269 13:25 30.06.2021
6471 Clouds 34 1006 56 10000 4.32 204 08:58 30.06.2021
6472 Clouds 28 1007 71 10000 2.34 255 23:56 29.06.2021
6473 Clouds 28 1008 69 10000 3.19 224 19:31 29.06.2021
6474 Rain 28 1008 67 10000 2.98 249 17:45 29.06.2021
6475 Clouds 28 1008 67 10000 3.04 243 17:24 29.06.2021
6476 Clouds 28 1007 65 10000 3.55 224 15:51 29.06.2021
6477 Clouds 28 1007 66 10000 4.57 242 14:55 29.06.2021
6478 Clouds 28 1007 66 10000 4.57 242 14:55 29.06.2021
6479 Rain 30 1005 67 10000 6.85 202 13:21 29.06.2021
6480 Clouds 32 1009 46 10000 2.91 238 04:38 29.06.2021
6481 Rain 28 1006 73 10000 2.13 236 23:20 28.06.2021
6482 Rain 28 1006 73 10000 2.13 236 23:20 28.06.2021
6483 Rain 28 1007 70 10000 1.9 222 20:49 28.06.2021
6484 Clouds 27 1008 66 10000 3.22 200 18:18 28.06.2021
6485 Rain 28 1008 65 10000 2.64 204 16:57 28.06.2021
6486 Rain 27 1008 70 10000 1.03 0 14:30 28.06.2021
6487 Clouds 32 1005 63 10000 6.58 184 11:44 28.06.2021
6488 Clouds 27 1008 79 10000 2.13 239 23:47 27.06.2021
6489 Clouds 27 1008 76 10000 2.36 240 22:31 27.06.2021
6490 Rain 27 1008 76 10000 3.03 209 19:44 27.06.2021
6491 Rain 29 1010 71 10000 5.18 179 18:19 27.06.2021
6492 Clouds 31 1009 65 10000 6.21 173 15:39 27.06.2021
6493 Clouds 34 1006 55 10000 6.08 170 11:21 27.06.2021
6494 Clouds 28 1009 72 10000 1.97 257 00:37 27.06.2021
6495 Clouds 29 1008 72 10000 2.49 238 21:53 26.06.2021
6496 Clouds 30 1008 74 10000 2.98 214 20:48 26.06.2021
6497 Clouds 30 1009 74 10000 3.77 181 19:27 26.06.2021
6498 Clouds 30 1008 69 10000 5.72 175 15:40 26.06.2021
6499 Clouds 31 1006 68 10000 6.22 172 13:57 26.06.2021
6500 Clouds 32 1005 60 10000 6.46 175 11:33 26.06.2021
6501 Clouds 32 1008 64 10000 3.68 179 06:24 26.06.2021
6502 Clouds 28 1006 72 10000 2.15 246 22:24 25.06.2021
6503 Clouds 30 1006 79 10000 2.57 160 20:35 25.06.2021
6504 Clouds 30 1007 73 10000 3.74 183 18:48 25.06.2021
6505 Clouds 30 1007 67 10000 4.51 177 17:30 25.06.2021
6506 Clouds 30 1006 66 10000 4.29 183 16:21 25.06.2021
6507 Clouds 32 1005 61 10000 4.47 193 13:42 25.06.2021
6508 Clouds 34 1004 54 10000 4.55 172 09:56 25.06.2021
6509 Clouds 33 1006 53 10000 3.8 226 07:23 25.06.2021
6510 Clouds 30 1007 59 10000 3.91 255 03:59 25.06.2021
6511 Clouds 28 1006 63 10000 3.42 247 23:48 24.06.2021
6512 Clouds 28 1006 63 10000 3.71 259 21:48 24.06.2021
6513 Clouds 29 1007 62 10000 3.59 252 20:42 24.06.2021
6514 Clouds 30 1007 61 10000 3.81 251 19:47 24.06.2021
6515 Clouds 30 1008 60 10000 4.04 238 18:20 24.06.2021
6516 Clouds 31 1006 66 10000 3.24 222 15:23 24.06.2021
6517 Clouds 31 1006 65 10000 3.24 222 14:52 24.06.2021
6518 Clouds 32 1005 62 10000 5.63 196 13:18 24.06.2021
6519 Clouds 35 1005 49 10000 4.92 279 09:51 24.06.2021
6520 Clouds 34 1007 53 10000 5.11 274 08:28 24.06.2021
6521 Clouds 33 1008 55 10000 4.81 272 06:39 24.06.2021
6522 Rain 28 1008 66 10000 2.65 262 23:57 23.06.2021
6523 Clouds 28 1008 65 10000 2.48 267 22:25 23.06.2021
6524 Rain 28 1008 64 10000 3.33 254 21:20 23.06.2021
6525 Rain 29 1008 65 10000 4.53 255 19:55 23.06.2021
6526 Rain 29 1010 64 10000 4.72 258 18:29 23.06.2021
6527 Clouds 29 1010 70 10000 4.08 263 16:52 23.06.2021
6528 Clouds 31 1007 74 10000 4.12 220 14:31 23.06.2021
6529 Rain 33 1007 61 10000 4.14 236 12:38 23.06.2021
6530 Clouds 33 1006 60 10000 5.52 203 11:22 23.06.2021
6531 Clouds 34 1007 53 10000 4.24 231 09:26 23.06.2021
6532 Clouds 34 1006 54 10000 4.31 225 08:38 23.06.2021
6533 Clouds 34 1008 53 10000 4.04 232 07:48 23.06.2021
6534 Clouds 33 1010 54 10000 3.57 249 05:33 23.06.2021
6535 Clouds 28 1010 65 10000 2.76 242 01:50 23.06.2021
6536 Clouds 28 1008 64 10000 2.62 257 23:59 22.06.2021
6537 Clouds 28 1008 64 10000 2.62 257 23:41 22.06.2021
6538 Clouds 29 1008 63 10000 3.03 254 22:38 22.06.2021
6539 Clouds 29 1008 63 10000 3.33 259 21:39 22.06.2021
6540 Clouds 29 1008 63 10000 3.33 259 21:39 22.06.2021
6541 Rain 30 1009 70 10000 3.6 260 20:36 22.06.2021
6542 Clouds 30 1010 64 10000 3.99 267 19:18 22.06.2021
6543 Clouds 31 1010 66 10000 3.68 263 18:29 22.06.2021
6544 Clouds 30 1009 67 10000 5.42 255 17:29 22.06.2021
6545 Clouds 30 1009 68 10000 5.42 255 16:48 22.06.2021
6546 Clouds 31 1007 66 10000 4.15 219 14:59 22.06.2021
6547 Clouds 31 1006 64 10000 3.73 203 14:25 22.06.2021
6548 Clouds 32 1006 60 10000 3.73 203 13:34 22.06.2021
6549 Clouds 34 1005 55 10000 5 197 11:53 22.06.2021
6550 Clouds 35 1005 52 10000 4.86 189 10:37 22.06.2021
6551 Clouds 35 1006 53 10000 3.75 216 07:59 22.06.2021
6552 Clouds 28 1008 66 10000 3.08 261 00:51 22.06.2021
6553 Clouds 28 1007 65 10000 3.21 261 23:35 21.06.2021
6554 Clouds 28 1007 64 10000 3.19 262 22:34 21.06.2021
6555 Clouds 29 1007 63 10000 2.76 265 21:29 21.06.2021
6556 Clouds 29 1007 63 10000 3.48 260 20:46 21.06.2021
6557 Clouds 29 1007 64 10000 3.81 250 19:55 21.06.2021
6558 Clouds 30 1008 68 10000 3.44 257 18:58 21.06.2021
6559 Clouds 30 1008 71 10000 4.07 252 17:37 21.06.2021
6560 Clouds 30 1008 70 10000 3.72 234 16:47 21.06.2021
6561 Clouds 30 1008 69 10000 3.89 205 16:25 21.06.2021
6562 Clouds 30 1008 66 10000 3.89 205 15:46 21.06.2021
6563 Rain 32 1005 64 10000 5.75 197 14:19 21.06.2021
6564 Clouds 32 1005 62 10000 5.75 197 13:34 21.06.2021
6565 Clouds 36 1005 67 10000 6.79 202 12:38 21.06.2021
6566 Clouds 34 1004 56 10000 7.15 209 11:56 21.06.2021
6567 Clouds 35 1004 55 10000 7.27 198 10:31 21.06.2021
6568 Clouds 35 1004 52 10000 6.33 196 09:34 21.06.2021
6569 Clouds 35 1006 50 10000 3.9 253 08:24 21.06.2021
6570 Clouds 34 1007 53 10000 4.14 254 07:28 21.06.2021
6571 Clouds 28 1008 72 10000 3.38 258 00:43 21.06.2021
6572 Clouds 28 1007 73 10000 3.7 262 23:35 20.06.2021
6573 Clouds 28 1007 73 10000 3.75 260 22:58 20.06.2021
6574 Clouds 28 1007 79 10000 3.59 261 22:18 20.06.2021
6575 Clouds 28 1007 80 10000 3.83 265 21:28 20.06.2021
6576 Clouds 27 1007 78 10000 3.91 268 19:42 20.06.2021
6577 Clouds 28 1008 77 10000 4.03 261 19:23 20.06.2021
6578 Clouds 28 1008 75 10000 3.56 246 18:21 20.06.2021
6579 Rain 28 1008 74 10000 2.59 250 16:51 20.06.2021
6580 Rain 29 1007 76 10000 2.6 251 15:52 20.06.2021
6581 Rain 30 1007 76 10000 2.6 251 15:32 20.06.2021
6582 Rain 30 1005 55 10000 5.66 340 14:46 20.06.2021
6583 Clouds 33 1005 60 10000 4.7 201 13:41 20.06.2021
6584 Clouds 34 1005 56 10000 6.14 202 12:56 20.06.2021
6585 Clouds 36 1005 50 10000 5.18 218 11:46 20.06.2021
6586 Clouds 36 1004 49 10000 2.97 219 10:35 20.06.2021
6587 Clouds 36 1005 50 10000 2.55 229 09:45 20.06.2021
6588 Clouds 34 1007 52 10000 4.17 261 07:34 20.06.2021
6589 Clouds 27 1008 75 10000 2.51 279 23:43 19.06.2021
6590 Clouds 27 1008 75 10000 2.67 278 22:59 19.06.2021
6591 Clouds 28 1008 75 10000 2.92 280 21:53 19.06.2021
6592 Clouds 28 1008 74 10000 2.78 267 21:27 19.06.2021
6593 Clouds 28 1009 73 10000 2.3 229 18:55 19.06.2021
6594 Clouds 28 1009 74 10000 2.94 224 18:22 19.06.2021
6595 Rain 28 1009 71 10000 3.78 195 17:27 19.06.2021
6596 Rain 29 1009 65 10000 3.78 195 16:48 19.06.2021
6597 Clouds 32 1009 72 10000 5.1 205 15:40 19.06.2021
6598 Clouds 34 1006 55 10000 4.81 188 12:54 19.06.2021
6599 Clouds 35 1005 52 10000 3.95 183 11:54 19.06.2021
6600 Clouds 36 1005 50 10000 3.99 196 10:46 19.06.2021
6601 Clouds 36 1005 50 10000 3.99 196 10:46 19.06.2021
6602 Clouds 36 1006 45 10000 3.74 213 10:26 19.06.2021
6603 Clouds 36 1006 46 10000 3.74 213 09:56 19.06.2021
6604 Clouds 34 1008 51 10000 3.51 216 07:50 19.06.2021
6605 Clouds 34 1009 53 10000 3.21 231 06:34 19.06.2021
6606 Clouds 29 1010 64 10000 2.24 269 02:28 19.06.2021
6607 Clouds 28 1009 66 10000 2.54 270 00:20 19.06.2021
6608 Clouds 28 1009 67 10000 2.54 270 23:34 18.06.2021
6609 Clouds 29 1009 70 10000 2.81 279 22:53 18.06.2021
6610 Clouds 29 1009 71 10000 3.4 287 22:27 18.06.2021
6611 Clouds 29 1009 71 10000 3.4 287 21:44 18.06.2021
6612 Clouds 29 1009 71 10000 3.05 271 21:22 18.06.2021
6613 Clouds 30 1009 71 10000 2.01 239 20:23 18.06.2021
6614 Clouds 29 1010 71 10000 2.07 185 18:33 18.06.2021
6615 Clouds 30 1010 70 10000 2.42 165 17:40 18.06.2021
6616 Clouds 30 1010 70 10000 2.42 165 17:40 18.06.2021
6617 Clouds 30 1011 68 10000 1.08 185 16:33 18.06.2021
6618 Clouds 30 1010 68 10000 2.42 267 15:46 18.06.2021
6619 Clouds 30 1009 65 10000 4.94 214 14:34 18.06.2021
6620 Clouds 31 1008 63 10000 5.71 194 13:41 18.06.2021
6621 Clouds 32 1007 62 10000 5.6 178 12:48 18.06.2021
6622 Clouds 32 1006 60 10000 5.08 175 12:29 18.06.2021
6623 Clouds 33 1006 58 10000 5.08 175 11:30 18.06.2021
6624 Rain 33 1006 54 10000 5.18 178 10:52 18.06.2021
6625 Rain 34 1007 53 10000 5.17 180 10:23 18.06.2021
6626 Clouds 34 1007 51 10000 5.17 180 09:49 18.06.2021
6627 Clouds 35 1008 48 10000 4.27 185 08:50 18.06.2021
6628 Clouds 35 1008 50 10000 2.87 206 08:23 18.06.2021
6629 Clouds 34 1008 51 10000